<?xml version="1.0" encoding="UTF-8" standalone="no" ?>
<gpx xmlns="http://www.topografix.com/GPX/1/1" xmlns:xsi="http://www.w3.org/2001/XMLSchema-instance" xsi:schemaLocation="http://www.topografix.com/GPX/1/1 http://www.topografix.com/GPX/1/1/gpx.xsd" version="1.1" creator="VisuGPX - https://www.visugpx.com">
  <metadata>
    <name>Pornichet 10/02/2022</name>
    <desc><![CDATA[Sortie jeudi 10 février 2022]]></desc>
  </metadata>
  <trk>
    <name><![CDATA[Pornichet Cyclisme]]></name>
    <trkseg>
      <trkpt lat="47.26392" lon="-2.31615">
        <ele>9.1</ele>
        <time>2022-02-10T08:14:00.000Z</time>
      </trkpt>
      <trkpt lat="47.26392" lon="-2.31634">
        <ele>9</ele>
        <time>2022-02-10T08:14:04.000Z</time>
      </trkpt>
      <trkpt lat="47.26396" lon="-2.31636">
        <ele>-0.40000000596046</ele>
        <time>2022-02-10T08:14:05.000Z</time>
      </trkpt>
      <trkpt lat="47.26399" lon="-2.31645">
        <ele>-0.40000000596046</ele>
        <time>2022-02-10T08:14:07.000Z</time>
      </trkpt>
      <trkpt lat="47.26404" lon="-2.31681">
        <ele>-0.40000000596046</ele>
        <time>2022-02-10T08:14:14.000Z</time>
      </trkpt>
      <trkpt lat="47.26395" lon="-2.31686">
        <ele>-0.40000000596046</ele>
        <time>2022-02-10T08:14:17.000Z</time>
      </trkpt>
      <trkpt lat="47.26391" lon="-2.31688">
        <ele>-0.40000000596046</ele>
        <time>2022-02-10T08:14:18.000Z</time>
      </trkpt>
      <trkpt lat="47.26388" lon="-2.31691">
        <ele>-0.40000000596046</ele>
        <time>2022-02-10T08:14:19.000Z</time>
      </trkpt>
      <trkpt lat="47.26376" lon="-2.31699">
        <ele>-0.40000000596046</ele>
        <time>2022-02-10T08:14:22.000Z</time>
      </trkpt>
      <trkpt lat="47.26371" lon="-2.31701">
        <ele>-0.40000000596046</ele>
        <time>2022-02-10T08:14:23.000Z</time>
      </trkpt>
      <trkpt lat="47.26353" lon="-2.31712">
        <ele>-0.40000000596046</ele>
        <time>2022-02-10T08:14:27.000Z</time>
      </trkpt>
      <trkpt lat="47.26349" lon="-2.31715">
        <ele>-0.80000001192093</ele>
        <time>2022-02-10T08:14:28.000Z</time>
      </trkpt>
      <trkpt lat="47.26344" lon="-2.31717">
        <ele>-1.2000000476837</ele>
        <time>2022-02-10T08:14:29.000Z</time>
      </trkpt>
      <trkpt lat="47.26339" lon="-2.3172">
        <ele>-1.6000000238419</ele>
        <time>2022-02-10T08:14:30.000Z</time>
      </trkpt>
      <trkpt lat="47.26335" lon="-2.31722">
        <ele>-2</ele>
        <time>2022-02-10T08:14:31.000Z</time>
      </trkpt>
      <trkpt lat="47.26331" lon="-2.31725">
        <ele>-2.5999999046326</ele>
        <time>2022-02-10T08:14:32.000Z</time>
      </trkpt>
      <trkpt lat="47.26321" lon="-2.3173">
        <ele>-2.5999999046326</ele>
        <time>2022-02-10T08:14:34.000Z</time>
      </trkpt>
      <trkpt lat="47.26309" lon="-2.31739">
        <ele>-2.5999999046326</ele>
        <time>2022-02-10T08:14:37.000Z</time>
      </trkpt>
      <trkpt lat="47.26307" lon="-2.31743">
        <ele>-3.4000000953674</ele>
        <time>2022-02-10T08:14:38.000Z</time>
      </trkpt>
      <trkpt lat="47.26306" lon="-2.31748">
        <ele>-4</ele>
        <time>2022-02-10T08:14:39.000Z</time>
      </trkpt>
      <trkpt lat="47.26306" lon="-2.31754">
        <ele>-4.4000000953674</ele>
        <time>2022-02-10T08:14:40.000Z</time>
      </trkpt>
      <trkpt lat="47.26306" lon="-2.3176">
        <ele>-5</ele>
        <time>2022-02-10T08:14:41.000Z</time>
      </trkpt>
      <trkpt lat="47.26309" lon="-2.31785">
        <ele>-5</ele>
        <time>2022-02-10T08:14:45.000Z</time>
      </trkpt>
      <trkpt lat="47.2631" lon="-2.31827">
        <ele>-5</ele>
        <time>2022-02-10T08:14:52.000Z</time>
      </trkpt>
      <trkpt lat="47.26309" lon="-2.3184">
        <ele>-5</ele>
        <time>2022-02-10T08:14:54.000Z</time>
      </trkpt>
      <trkpt lat="47.26307" lon="-2.31871">
        <ele>-5</ele>
        <time>2022-02-10T08:14:59.000Z</time>
      </trkpt>
      <trkpt lat="47.26307" lon="-2.319">
        <ele>-5</ele>
        <time>2022-02-10T08:15:05.000Z</time>
      </trkpt>
      <trkpt lat="47.26306" lon="-2.31902">
        <ele>-5</ele>
        <time>2022-02-10T08:15:06.000Z</time>
      </trkpt>
      <trkpt lat="47.26303" lon="-2.31907">
        <ele>-5</ele>
        <time>2022-02-10T08:15:08.000Z</time>
      </trkpt>
      <trkpt lat="47.2629" lon="-2.31924">
        <ele>-5</ele>
        <time>2022-02-10T08:15:13.000Z</time>
      </trkpt>
      <trkpt lat="47.2628" lon="-2.31935">
        <ele>-5</ele>
        <time>2022-02-10T08:15:17.000Z</time>
      </trkpt>
      <trkpt lat="47.26273" lon="-2.31948">
        <ele>-5</ele>
        <time>2022-02-10T08:15:20.000Z</time>
      </trkpt>
      <trkpt lat="47.26269" lon="-2.31955">
        <ele>-5</ele>
        <time>2022-02-10T08:15:22.000Z</time>
      </trkpt>
      <trkpt lat="47.26256" lon="-2.31979">
        <ele>-5</ele>
        <time>2022-02-10T08:15:29.000Z</time>
      </trkpt>
      <trkpt lat="47.26247" lon="-2.31988">
        <ele>-5</ele>
        <time>2022-02-10T08:15:34.000Z</time>
      </trkpt>
      <trkpt lat="47.26237" lon="-2.32002">
        <ele>-5</ele>
        <time>2022-02-10T08:15:40.000Z</time>
      </trkpt>
      <trkpt lat="47.26228" lon="-2.32011">
        <ele>-5</ele>
        <time>2022-02-10T08:15:45.000Z</time>
      </trkpt>
      <trkpt lat="47.26228" lon="-2.32017">
        <ele>-5.4000000953674</ele>
        <time>2022-02-10T08:15:47.000Z</time>
      </trkpt>
      <trkpt lat="47.26228" lon="-2.3202">
        <ele>-5.8000001907349</ele>
        <time>2022-02-10T08:15:48.000Z</time>
      </trkpt>
      <trkpt lat="47.26228" lon="-2.32023">
        <ele>-6.1999998092651</ele>
        <time>2022-02-10T08:15:49.000Z</time>
      </trkpt>
      <trkpt lat="47.26228" lon="-2.32025">
        <ele>-6.5999999046326</ele>
        <time>2022-02-10T08:15:50.000Z</time>
      </trkpt>
      <trkpt lat="47.26227" lon="-2.32026">
        <ele>-7</ele>
        <time>2022-02-10T08:15:51.000Z</time>
      </trkpt>
      <trkpt lat="47.26227" lon="-2.32026">
        <ele>-7</ele>
        <time>2022-02-10T08:15:53.000Z</time>
      </trkpt>
      <trkpt lat="47.26225" lon="-2.32027">
        <ele>-7</ele>
        <time>2022-02-10T08:15:56.000Z</time>
      </trkpt>
      <trkpt lat="47.26223" lon="-2.32026">
        <ele>-7</ele>
        <time>2022-02-10T08:15:59.000Z</time>
      </trkpt>
      <trkpt lat="47.26222" lon="-2.32027">
        <ele>-7</ele>
        <time>2022-02-10T08:16:00.000Z</time>
      </trkpt>
      <trkpt lat="47.26206" lon="-2.32031">
        <ele>-7</ele>
        <time>2022-02-10T08:16:05.000Z</time>
      </trkpt>
      <trkpt lat="47.26179" lon="-2.32045">
        <ele>-7</ele>
        <time>2022-02-10T08:16:10.000Z</time>
      </trkpt>
      <trkpt lat="47.26174" lon="-2.32054">
        <ele>-7</ele>
        <time>2022-02-10T08:16:12.000Z</time>
      </trkpt>
      <trkpt lat="47.26168" lon="-2.32072">
        <ele>-7</ele>
        <time>2022-02-10T08:16:15.000Z</time>
      </trkpt>
      <trkpt lat="47.26154" lon="-2.32111">
        <ele>-7</ele>
        <time>2022-02-10T08:16:22.000Z</time>
      </trkpt>
      <trkpt lat="47.26144" lon="-2.32139">
        <ele>-7</ele>
        <time>2022-02-10T08:16:27.000Z</time>
      </trkpt>
      <trkpt lat="47.26142" lon="-2.32144">
        <ele>-7</ele>
        <time>2022-02-10T08:16:28.000Z</time>
      </trkpt>
      <trkpt lat="47.26137" lon="-2.32154">
        <ele>-7</ele>
        <time>2022-02-10T08:16:30.000Z</time>
      </trkpt>
      <trkpt lat="47.26133" lon="-2.32166">
        <ele>-7</ele>
        <time>2022-02-10T08:16:32.000Z</time>
      </trkpt>
      <trkpt lat="47.26131" lon="-2.32171">
        <ele>-7</ele>
        <time>2022-02-10T08:16:33.000Z</time>
      </trkpt>
      <trkpt lat="47.26124" lon="-2.32181">
        <ele>-7</ele>
        <time>2022-02-10T08:16:35.000Z</time>
      </trkpt>
      <trkpt lat="47.26119" lon="-2.32191">
        <ele>-7</ele>
        <time>2022-02-10T08:16:37.000Z</time>
      </trkpt>
      <trkpt lat="47.26111" lon="-2.32207">
        <ele>-7</ele>
        <time>2022-02-10T08:16:40.000Z</time>
      </trkpt>
      <trkpt lat="47.261" lon="-2.32221">
        <ele>-7</ele>
        <time>2022-02-10T08:16:43.000Z</time>
      </trkpt>
      <trkpt lat="47.26078" lon="-2.32247">
        <ele>-7</ele>
        <time>2022-02-10T08:16:49.000Z</time>
      </trkpt>
      <trkpt lat="47.26052" lon="-2.32273">
        <ele>-7</ele>
        <time>2022-02-10T08:16:56.000Z</time>
      </trkpt>
      <trkpt lat="47.26029" lon="-2.32295">
        <ele>-7</ele>
        <time>2022-02-10T08:17:02.000Z</time>
      </trkpt>
      <trkpt lat="47.2601" lon="-2.32315">
        <ele>-7</ele>
        <time>2022-02-10T08:17:08.000Z</time>
      </trkpt>
      <trkpt lat="47.25988" lon="-2.32341">
        <ele>-7</ele>
        <time>2022-02-10T08:17:14.000Z</time>
      </trkpt>
      <trkpt lat="47.25965" lon="-2.32371">
        <ele>-7</ele>
        <time>2022-02-10T08:17:21.000Z</time>
      </trkpt>
      <trkpt lat="47.25961" lon="-2.32374">
        <ele>-7</ele>
        <time>2022-02-10T08:17:22.000Z</time>
      </trkpt>
      <trkpt lat="47.25944" lon="-2.32396">
        <ele>-7</ele>
        <time>2022-02-10T08:17:27.000Z</time>
      </trkpt>
      <trkpt lat="47.25941" lon="-2.32401">
        <ele>-7</ele>
        <time>2022-02-10T08:17:28.000Z</time>
      </trkpt>
      <trkpt lat="47.25925" lon="-2.32421">
        <ele>-7</ele>
        <time>2022-02-10T08:17:33.000Z</time>
      </trkpt>
      <trkpt lat="47.25907" lon="-2.3245">
        <ele>-7</ele>
        <time>2022-02-10T08:17:39.000Z</time>
      </trkpt>
      <trkpt lat="47.25911" lon="-2.32466">
        <ele>-7</ele>
        <time>2022-02-10T08:17:42.000Z</time>
      </trkpt>
      <trkpt lat="47.25923" lon="-2.32482">
        <ele>-7</ele>
        <time>2022-02-10T08:17:46.000Z</time>
      </trkpt>
      <trkpt lat="47.25929" lon="-2.32502">
        <ele>-7</ele>
        <time>2022-02-10T08:17:49.000Z</time>
      </trkpt>
      <trkpt lat="47.25931" lon="-2.32507">
        <ele>-7</ele>
        <time>2022-02-10T08:17:50.000Z</time>
      </trkpt>
      <trkpt lat="47.25942" lon="-2.32544">
        <ele>-7</ele>
        <time>2022-02-10T08:17:56.000Z</time>
      </trkpt>
      <trkpt lat="47.25951" lon="-2.32575">
        <ele>-7</ele>
        <time>2022-02-10T08:18:01.000Z</time>
      </trkpt>
      <trkpt lat="47.25954" lon="-2.32588">
        <ele>-7</ele>
        <time>2022-02-10T08:18:03.000Z</time>
      </trkpt>
      <trkpt lat="47.25957" lon="-2.32608">
        <ele>-7</ele>
        <time>2022-02-10T08:18:06.000Z</time>
      </trkpt>
      <trkpt lat="47.25959" lon="-2.3262">
        <ele>-7</ele>
        <time>2022-02-10T08:18:08.000Z</time>
      </trkpt>
      <trkpt lat="47.2596" lon="-2.32627">
        <ele>-7</ele>
        <time>2022-02-10T08:18:09.000Z</time>
      </trkpt>
      <trkpt lat="47.2596" lon="-2.32633">
        <ele>-7</ele>
        <time>2022-02-10T08:18:10.000Z</time>
      </trkpt>
      <trkpt lat="47.25962" lon="-2.32655">
        <ele>-7</ele>
        <time>2022-02-10T08:18:14.000Z</time>
      </trkpt>
      <trkpt lat="47.25965" lon="-2.32658">
        <ele>-7</ele>
        <time>2022-02-10T08:18:15.000Z</time>
      </trkpt>
      <trkpt lat="47.25971" lon="-2.32657">
        <ele>-7</ele>
        <time>2022-02-10T08:18:17.000Z</time>
      </trkpt>
      <trkpt lat="47.2599" lon="-2.32659">
        <ele>-7</ele>
        <time>2022-02-10T08:18:22.000Z</time>
      </trkpt>
      <trkpt lat="47.26001" lon="-2.32657">
        <ele>-7</ele>
        <time>2022-02-10T08:18:25.000Z</time>
      </trkpt>
      <trkpt lat="47.26009" lon="-2.32655">
        <ele>-7</ele>
        <time>2022-02-10T08:18:27.000Z</time>
      </trkpt>
      <trkpt lat="47.26037" lon="-2.32652">
        <ele>-7</ele>
        <time>2022-02-10T08:18:34.000Z</time>
      </trkpt>
      <trkpt lat="47.26066" lon="-2.32643">
        <ele>-7</ele>
        <time>2022-02-10T08:18:41.000Z</time>
      </trkpt>
      <trkpt lat="47.261" lon="-2.32638">
        <ele>-7</ele>
        <time>2022-02-10T08:18:50.000Z</time>
      </trkpt>
      <trkpt lat="47.26127" lon="-2.32637">
        <ele>-7</ele>
        <time>2022-02-10T08:18:57.000Z</time>
      </trkpt>
      <trkpt lat="47.26151" lon="-2.32643">
        <ele>-7</ele>
        <time>2022-02-10T08:19:03.000Z</time>
      </trkpt>
      <trkpt lat="47.26159" lon="-2.32647">
        <ele>-7</ele>
        <time>2022-02-10T08:19:05.000Z</time>
      </trkpt>
      <trkpt lat="47.26173" lon="-2.32658">
        <ele>-7</ele>
        <time>2022-02-10T08:19:09.000Z</time>
      </trkpt>
      <trkpt lat="47.26188" lon="-2.32669">
        <ele>-7</ele>
        <time>2022-02-10T08:19:13.000Z</time>
      </trkpt>
      <trkpt lat="47.26195" lon="-2.32677">
        <ele>-7</ele>
        <time>2022-02-10T08:19:15.000Z</time>
      </trkpt>
      <trkpt lat="47.26202" lon="-2.32683">
        <ele>-7</ele>
        <time>2022-02-10T08:19:17.000Z</time>
      </trkpt>
      <trkpt lat="47.26216" lon="-2.32699">
        <ele>-7</ele>
        <time>2022-02-10T08:19:21.000Z</time>
      </trkpt>
      <trkpt lat="47.26233" lon="-2.32723">
        <ele>-7</ele>
        <time>2022-02-10T08:19:26.000Z</time>
      </trkpt>
      <trkpt lat="47.26236" lon="-2.32728">
        <ele>-7</ele>
        <time>2022-02-10T08:19:27.000Z</time>
      </trkpt>
      <trkpt lat="47.26259" lon="-2.32763">
        <ele>-7.4000000953674</ele>
        <time>2022-02-10T08:19:34.000Z</time>
      </trkpt>
      <trkpt lat="47.26263" lon="-2.32768">
        <ele>-7.8000001907349</ele>
        <time>2022-02-10T08:19:35.000Z</time>
      </trkpt>
      <trkpt lat="47.26266" lon="-2.32774">
        <ele>-8.1999998092651</ele>
        <time>2022-02-10T08:19:36.000Z</time>
      </trkpt>
      <trkpt lat="47.26269" lon="-2.32779">
        <ele>-8.6000003814697</ele>
        <time>2022-02-10T08:19:37.000Z</time>
      </trkpt>
      <trkpt lat="47.26272" lon="-2.32785">
        <ele>-9.1999998092651</ele>
        <time>2022-02-10T08:19:38.000Z</time>
      </trkpt>
      <trkpt lat="47.2628" lon="-2.32809">
        <ele>-9.1999998092651</ele>
        <time>2022-02-10T08:19:42.000Z</time>
      </trkpt>
      <trkpt lat="47.26285" lon="-2.32821">
        <ele>-9.1999998092651</ele>
        <time>2022-02-10T08:19:44.000Z</time>
      </trkpt>
      <trkpt lat="47.26287" lon="-2.32841">
        <ele>-9.1999998092651</ele>
        <time>2022-02-10T08:19:47.000Z</time>
      </trkpt>
      <trkpt lat="47.26289" lon="-2.32848">
        <ele>-9.1999998092651</ele>
        <time>2022-02-10T08:19:48.000Z</time>
      </trkpt>
      <trkpt lat="47.26298" lon="-2.32863">
        <ele>-9.1999998092651</ele>
        <time>2022-02-10T08:19:51.000Z</time>
      </trkpt>
      <trkpt lat="47.26311" lon="-2.32868">
        <ele>-9.1999998092651</ele>
        <time>2022-02-10T08:19:54.000Z</time>
      </trkpt>
      <trkpt lat="47.26315" lon="-2.32872">
        <ele>-9.1999998092651</ele>
        <time>2022-02-10T08:19:55.000Z</time>
      </trkpt>
      <trkpt lat="47.26325" lon="-2.32894">
        <ele>-9.1999998092651</ele>
        <time>2022-02-10T08:19:59.000Z</time>
      </trkpt>
      <trkpt lat="47.26333" lon="-2.32919">
        <ele>-9.1999998092651</ele>
        <time>2022-02-10T08:20:03.000Z</time>
      </trkpt>
      <trkpt lat="47.26339" lon="-2.32937">
        <ele>-9.1999998092651</ele>
        <time>2022-02-10T08:20:06.000Z</time>
      </trkpt>
      <trkpt lat="47.26347" lon="-2.32962">
        <ele>-9.6000003814697</ele>
        <time>2022-02-10T08:20:10.000Z</time>
      </trkpt>
      <trkpt lat="47.26349" lon="-2.32967">
        <ele>-10</ele>
        <time>2022-02-10T08:20:11.000Z</time>
      </trkpt>
      <trkpt lat="47.26352" lon="-2.32973">
        <ele>-10.39999961853</ele>
        <time>2022-02-10T08:20:12.000Z</time>
      </trkpt>
      <trkpt lat="47.26355" lon="-2.32977">
        <ele>-10.800000190735</ele>
        <time>2022-02-10T08:20:13.000Z</time>
      </trkpt>
      <trkpt lat="47.26359" lon="-2.32981">
        <ele>-11.199999809265</ele>
        <time>2022-02-10T08:20:14.000Z</time>
      </trkpt>
      <trkpt lat="47.26365" lon="-2.3299">
        <ele>-11.199999809265</ele>
        <time>2022-02-10T08:20:16.000Z</time>
      </trkpt>
      <trkpt lat="47.26366" lon="-2.32996">
        <ele>-11.199999809265</ele>
        <time>2022-02-10T08:20:17.000Z</time>
      </trkpt>
      <trkpt lat="47.26367" lon="-2.33022">
        <ele>-11.199999809265</ele>
        <time>2022-02-10T08:20:21.000Z</time>
      </trkpt>
      <trkpt lat="47.2637" lon="-2.33084">
        <ele>-11.199999809265</ele>
        <time>2022-02-10T08:20:30.000Z</time>
      </trkpt>
      <trkpt lat="47.26372" lon="-2.33124">
        <ele>-11.199999809265</ele>
        <time>2022-02-10T08:20:36.000Z</time>
      </trkpt>
      <trkpt lat="47.26374" lon="-2.33164">
        <ele>-11.199999809265</ele>
        <time>2022-02-10T08:20:42.000Z</time>
      </trkpt>
      <trkpt lat="47.26378" lon="-2.33221">
        <ele>-11.199999809265</ele>
        <time>2022-02-10T08:20:51.000Z</time>
      </trkpt>
      <trkpt lat="47.26379" lon="-2.33234">
        <ele>-11.199999809265</ele>
        <time>2022-02-10T08:20:53.000Z</time>
      </trkpt>
      <trkpt lat="47.26381" lon="-2.33246">
        <ele>-11.199999809265</ele>
        <time>2022-02-10T08:20:55.000Z</time>
      </trkpt>
      <trkpt lat="47.26385" lon="-2.33258">
        <ele>-11.199999809265</ele>
        <time>2022-02-10T08:20:57.000Z</time>
      </trkpt>
      <trkpt lat="47.26396" lon="-2.33266">
        <ele>-11.199999809265</ele>
        <time>2022-02-10T08:21:00.000Z</time>
      </trkpt>
      <trkpt lat="47.26409" lon="-2.33268">
        <ele>-11.199999809265</ele>
        <time>2022-02-10T08:21:03.000Z</time>
      </trkpt>
      <trkpt lat="47.26418" lon="-2.33268">
        <ele>-11.199999809265</ele>
        <time>2022-02-10T08:21:05.000Z</time>
      </trkpt>
      <trkpt lat="47.26453" lon="-2.33272">
        <ele>-11.199999809265</ele>
        <time>2022-02-10T08:21:13.000Z</time>
      </trkpt>
      <trkpt lat="47.26458" lon="-2.33274">
        <ele>-11.199999809265</ele>
        <time>2022-02-10T08:21:14.000Z</time>
      </trkpt>
      <trkpt lat="47.2647" lon="-2.33278">
        <ele>-11.199999809265</ele>
        <time>2022-02-10T08:21:17.000Z</time>
      </trkpt>
      <trkpt lat="47.26479" lon="-2.33278">
        <ele>-11.199999809265</ele>
        <time>2022-02-10T08:21:19.000Z</time>
      </trkpt>
      <trkpt lat="47.265" lon="-2.33279">
        <ele>-11.199999809265</ele>
        <time>2022-02-10T08:21:25.000Z</time>
      </trkpt>
      <trkpt lat="47.26505" lon="-2.33283">
        <ele>-11.199999809265</ele>
        <time>2022-02-10T08:21:28.000Z</time>
      </trkpt>
      <trkpt lat="47.26507" lon="-2.33284">
        <ele>-11.199999809265</ele>
        <time>2022-02-10T08:21:32.000Z</time>
      </trkpt>
      <trkpt lat="47.26509" lon="-2.33284">
        <ele>-11.199999809265</ele>
        <time>2022-02-10T08:21:34.000Z</time>
      </trkpt>
      <trkpt lat="47.2651" lon="-2.33286">
        <ele>-11.199999809265</ele>
        <time>2022-02-10T08:21:35.000Z</time>
      </trkpt>
      <trkpt lat="47.26517" lon="-2.33295">
        <ele>-11.199999809265</ele>
        <time>2022-02-10T08:21:38.000Z</time>
      </trkpt>
      <trkpt lat="47.26526" lon="-2.33314">
        <ele>-11.199999809265</ele>
        <time>2022-02-10T08:21:42.000Z</time>
      </trkpt>
      <trkpt lat="47.26526" lon="-2.33321">
        <ele>-11.199999809265</ele>
        <time>2022-02-10T08:21:43.000Z</time>
      </trkpt>
      <trkpt lat="47.26528" lon="-2.33355">
        <ele>-11.199999809265</ele>
        <time>2022-02-10T08:21:48.000Z</time>
      </trkpt>
      <trkpt lat="47.26533" lon="-2.33376">
        <ele>-11.199999809265</ele>
        <time>2022-02-10T08:21:51.000Z</time>
      </trkpt>
      <trkpt lat="47.26539" lon="-2.33396">
        <ele>-11.199999809265</ele>
        <time>2022-02-10T08:21:54.000Z</time>
      </trkpt>
      <trkpt lat="47.2654" lon="-2.33403">
        <ele>-11.199999809265</ele>
        <time>2022-02-10T08:21:55.000Z</time>
      </trkpt>
      <trkpt lat="47.26545" lon="-2.3343">
        <ele>-11.199999809265</ele>
        <time>2022-02-10T08:21:59.000Z</time>
      </trkpt>
      <trkpt lat="47.26552" lon="-2.33472">
        <ele>-11.199999809265</ele>
        <time>2022-02-10T08:22:05.000Z</time>
      </trkpt>
      <trkpt lat="47.26554" lon="-2.33485">
        <ele>-11.199999809265</ele>
        <time>2022-02-10T08:22:07.000Z</time>
      </trkpt>
      <trkpt lat="47.26556" lon="-2.33498">
        <ele>-11.199999809265</ele>
        <time>2022-02-10T08:22:09.000Z</time>
      </trkpt>
      <trkpt lat="47.26561" lon="-2.33509">
        <ele>-11.199999809265</ele>
        <time>2022-02-10T08:22:11.000Z</time>
      </trkpt>
      <trkpt lat="47.26565" lon="-2.33534">
        <ele>-11.199999809265</ele>
        <time>2022-02-10T08:22:15.000Z</time>
      </trkpt>
      <trkpt lat="47.26566" lon="-2.33541">
        <ele>-11.199999809265</ele>
        <time>2022-02-10T08:22:16.000Z</time>
      </trkpt>
      <trkpt lat="47.26571" lon="-2.33587">
        <ele>-11.199999809265</ele>
        <time>2022-02-10T08:22:23.000Z</time>
      </trkpt>
      <trkpt lat="47.26574" lon="-2.33612">
        <ele>-11.199999809265</ele>
        <time>2022-02-10T08:22:27.000Z</time>
      </trkpt>
      <trkpt lat="47.26578" lon="-2.33631">
        <ele>-11.199999809265</ele>
        <time>2022-02-10T08:22:30.000Z</time>
      </trkpt>
      <trkpt lat="47.2658" lon="-2.33659">
        <ele>-11.199999809265</ele>
        <time>2022-02-10T08:22:35.000Z</time>
      </trkpt>
      <trkpt lat="47.26589" lon="-2.33677">
        <ele>-11.199999809265</ele>
        <time>2022-02-10T08:22:39.000Z</time>
      </trkpt>
      <trkpt lat="47.26601" lon="-2.33701">
        <ele>-11.199999809265</ele>
        <time>2022-02-10T08:22:44.000Z</time>
      </trkpt>
      <trkpt lat="47.26604" lon="-2.33704">
        <ele>-11.199999809265</ele>
        <time>2022-02-10T08:22:45.000Z</time>
      </trkpt>
      <trkpt lat="47.26625" lon="-2.33736">
        <ele>-11.199999809265</ele>
        <time>2022-02-10T08:22:52.000Z</time>
      </trkpt>
      <trkpt lat="47.26647" lon="-2.33768">
        <ele>-11.199999809265</ele>
        <time>2022-02-10T08:22:59.000Z</time>
      </trkpt>
      <trkpt lat="47.26668" lon="-2.33801">
        <ele>-11.199999809265</ele>
        <time>2022-02-10T08:23:06.000Z</time>
      </trkpt>
      <trkpt lat="47.26671" lon="-2.33806">
        <ele>-10.800000190735</ele>
        <time>2022-02-10T08:23:07.000Z</time>
      </trkpt>
      <trkpt lat="47.26674" lon="-2.3381">
        <ele>-10.39999961853</ele>
        <time>2022-02-10T08:23:08.000Z</time>
      </trkpt>
      <trkpt lat="47.2668" lon="-2.33821">
        <ele>-9.6000003814697</ele>
        <time>2022-02-10T08:23:09.000Z</time>
      </trkpt>
      <trkpt lat="47.26683" lon="-2.33826">
        <ele>-9.1999998092651</ele>
        <time>2022-02-10T08:23:11.000Z</time>
      </trkpt>
      <trkpt lat="47.26686" lon="-2.33831">
        <ele>-9.1999998092651</ele>
        <time>2022-02-10T08:23:12.000Z</time>
      </trkpt>
      <trkpt lat="47.26704" lon="-2.33858">
        <ele>-9.1999998092651</ele>
        <time>2022-02-10T08:23:18.000Z</time>
      </trkpt>
      <trkpt lat="47.26709" lon="-2.33868">
        <ele>-9.1999998092651</ele>
        <time>2022-02-10T08:23:20.000Z</time>
      </trkpt>
      <trkpt lat="47.26731" lon="-2.33903">
        <ele>-9.1999998092651</ele>
        <time>2022-02-10T08:23:27.000Z</time>
      </trkpt>
      <trkpt lat="47.26753" lon="-2.33938">
        <ele>-9.1999998092651</ele>
        <time>2022-02-10T08:23:34.000Z</time>
      </trkpt>
      <trkpt lat="47.26768" lon="-2.33962">
        <ele>-9.1999998092651</ele>
        <time>2022-02-10T08:23:39.000Z</time>
      </trkpt>
      <trkpt lat="47.26773" lon="-2.33971">
        <ele>-9.1999998092651</ele>
        <time>2022-02-10T08:23:41.000Z</time>
      </trkpt>
      <trkpt lat="47.26792" lon="-2.33999">
        <ele>-9.1999998092651</ele>
        <time>2022-02-10T08:23:47.000Z</time>
      </trkpt>
      <trkpt lat="47.26817" lon="-2.34036">
        <ele>-9.1999998092651</ele>
        <time>2022-02-10T08:23:55.000Z</time>
      </trkpt>
      <trkpt lat="47.26823" lon="-2.34046">
        <ele>-9.1999998092651</ele>
        <time>2022-02-10T08:23:57.000Z</time>
      </trkpt>
      <trkpt lat="47.26838" lon="-2.34069">
        <ele>-9.1999998092651</ele>
        <time>2022-02-10T08:24:02.000Z</time>
      </trkpt>
      <trkpt lat="47.26855" lon="-2.34098">
        <ele>-9.1999998092651</ele>
        <time>2022-02-10T08:24:08.000Z</time>
      </trkpt>
      <trkpt lat="47.26876" lon="-2.34132">
        <ele>-9.1999998092651</ele>
        <time>2022-02-10T08:24:15.000Z</time>
      </trkpt>
      <trkpt lat="47.26896" lon="-2.34159">
        <ele>-9.1999998092651</ele>
        <time>2022-02-10T08:24:21.000Z</time>
      </trkpt>
      <trkpt lat="47.26906" lon="-2.34174">
        <ele>-9.1999998092651</ele>
        <time>2022-02-10T08:24:24.000Z</time>
      </trkpt>
      <trkpt lat="47.26922" lon="-2.34199">
        <ele>-9.1999998092651</ele>
        <time>2022-02-10T08:24:29.000Z</time>
      </trkpt>
      <trkpt lat="47.26941" lon="-2.3423">
        <ele>-9.1999998092651</ele>
        <time>2022-02-10T08:24:35.000Z</time>
      </trkpt>
      <trkpt lat="47.26956" lon="-2.34255">
        <ele>-9.1999998092651</ele>
        <time>2022-02-10T08:24:40.000Z</time>
      </trkpt>
      <trkpt lat="47.26968" lon="-2.34273">
        <ele>-9.1999998092651</ele>
        <time>2022-02-10T08:24:44.000Z</time>
      </trkpt>
      <trkpt lat="47.26976" lon="-2.34287">
        <ele>-9.1999998092651</ele>
        <time>2022-02-10T08:24:47.000Z</time>
      </trkpt>
      <trkpt lat="47.26989" lon="-2.34309">
        <ele>-9.1999998092651</ele>
        <time>2022-02-10T08:24:52.000Z</time>
      </trkpt>
      <trkpt lat="47.27003" lon="-2.34322">
        <ele>-9.1999998092651</ele>
        <time>2022-02-10T08:24:57.000Z</time>
      </trkpt>
      <trkpt lat="47.27017" lon="-2.3433">
        <ele>-9.1999998092651</ele>
        <time>2022-02-10T08:25:02.000Z</time>
      </trkpt>
      <trkpt lat="47.27031" lon="-2.34329">
        <ele>-9.1999998092651</ele>
        <time>2022-02-10T08:25:09.000Z</time>
      </trkpt>
      <trkpt lat="47.27038" lon="-2.34333">
        <ele>-9.1999998092651</ele>
        <time>2022-02-10T08:25:13.000Z</time>
      </trkpt>
      <trkpt lat="47.27045" lon="-2.34359">
        <ele>-9.1999998092651</ele>
        <time>2022-02-10T08:25:18.000Z</time>
      </trkpt>
      <trkpt lat="47.27048" lon="-2.34371">
        <ele>-9.1999998092651</ele>
        <time>2022-02-10T08:25:20.000Z</time>
      </trkpt>
      <trkpt lat="47.27055" lon="-2.344">
        <ele>-9.1999998092651</ele>
        <time>2022-02-10T08:25:25.000Z</time>
      </trkpt>
      <trkpt lat="47.27065" lon="-2.34443">
        <ele>-9.1999998092651</ele>
        <time>2022-02-10T08:25:32.000Z</time>
      </trkpt>
      <trkpt lat="47.27077" lon="-2.34493">
        <ele>-9.1999998092651</ele>
        <time>2022-02-10T08:25:40.000Z</time>
      </trkpt>
      <trkpt lat="47.2708" lon="-2.34506">
        <ele>-9.1999998092651</ele>
        <time>2022-02-10T08:25:42.000Z</time>
      </trkpt>
      <trkpt lat="47.27086" lon="-2.34538">
        <ele>-9.1999998092651</ele>
        <time>2022-02-10T08:25:47.000Z</time>
      </trkpt>
      <trkpt lat="47.27096" lon="-2.34583">
        <ele>-9.1999998092651</ele>
        <time>2022-02-10T08:25:54.000Z</time>
      </trkpt>
      <trkpt lat="47.27108" lon="-2.3463">
        <ele>-9.1999998092651</ele>
        <time>2022-02-10T08:26:01.000Z</time>
      </trkpt>
      <trkpt lat="47.27109" lon="-2.34637">
        <ele>-9.1999998092651</ele>
        <time>2022-02-10T08:26:02.000Z</time>
      </trkpt>
      <trkpt lat="47.27113" lon="-2.34651">
        <ele>-9.6000003814697</ele>
        <time>2022-02-10T08:26:04.000Z</time>
      </trkpt>
      <trkpt lat="47.27115" lon="-2.34658">
        <ele>-10</ele>
        <time>2022-02-10T08:26:05.000Z</time>
      </trkpt>
      <trkpt lat="47.27117" lon="-2.34665">
        <ele>-10.39999961853</ele>
        <time>2022-02-10T08:26:06.000Z</time>
      </trkpt>
      <trkpt lat="47.27118" lon="-2.34672">
        <ele>-10.800000190735</ele>
        <time>2022-02-10T08:26:07.000Z</time>
      </trkpt>
      <trkpt lat="47.2712" lon="-2.34679">
        <ele>-11.199999809265</ele>
        <time>2022-02-10T08:26:08.000Z</time>
      </trkpt>
      <trkpt lat="47.27129" lon="-2.34722">
        <ele>-11.199999809265</ele>
        <time>2022-02-10T08:26:14.000Z</time>
      </trkpt>
      <trkpt lat="47.27132" lon="-2.34736">
        <ele>-11.199999809265</ele>
        <time>2022-02-10T08:26:16.000Z</time>
      </trkpt>
      <trkpt lat="47.27141" lon="-2.34784">
        <ele>-11.199999809265</ele>
        <time>2022-02-10T08:26:23.000Z</time>
      </trkpt>
      <trkpt lat="47.2715" lon="-2.34824">
        <ele>-11.199999809265</ele>
        <time>2022-02-10T08:26:29.000Z</time>
      </trkpt>
      <trkpt lat="47.27161" lon="-2.34873">
        <ele>-11.199999809265</ele>
        <time>2022-02-10T08:26:36.000Z</time>
      </trkpt>
      <trkpt lat="47.27164" lon="-2.34886">
        <ele>-11.199999809265</ele>
        <time>2022-02-10T08:26:38.000Z</time>
      </trkpt>
      <trkpt lat="47.27172" lon="-2.34911">
        <ele>-11.199999809265</ele>
        <time>2022-02-10T08:26:42.000Z</time>
      </trkpt>
      <trkpt lat="47.2718" lon="-2.34933">
        <ele>-11.199999809265</ele>
        <time>2022-02-10T08:26:47.000Z</time>
      </trkpt>
      <trkpt lat="47.27177" lon="-2.34935">
        <ele>-11.199999809265</ele>
        <time>2022-02-10T08:26:50.000Z</time>
      </trkpt>
      <trkpt lat="47.27173" lon="-2.34923">
        <ele>-11.199999809265</ele>
        <time>2022-02-10T08:26:54.000Z</time>
      </trkpt>
      <trkpt lat="47.27173" lon="-2.34914">
        <ele>-11.199999809265</ele>
        <time>2022-02-10T08:26:58.000Z</time>
      </trkpt>
      <trkpt lat="47.27176" lon="-2.34912">
        <ele>-11.199999809265</ele>
        <time>2022-02-10T08:27:03.000Z</time>
      </trkpt>
      <trkpt lat="47.27171" lon="-2.34915">
        <ele>-11.199999809265</ele>
        <time>2022-02-10T08:27:25.000Z</time>
      </trkpt>
      <trkpt lat="47.27169" lon="-2.34912">
        <ele>-11.199999809265</ele>
        <time>2022-02-10T08:27:27.000Z</time>
      </trkpt>
      <trkpt lat="47.27167" lon="-2.34906">
        <ele>-11.199999809265</ele>
        <time>2022-02-10T08:27:30.000Z</time>
      </trkpt>
      <trkpt lat="47.27167" lon="-2.34898">
        <ele>-11.199999809265</ele>
        <time>2022-02-10T08:27:34.000Z</time>
      </trkpt>
      <trkpt lat="47.27161" lon="-2.34887">
        <ele>-11.199999809265</ele>
        <time>2022-02-10T08:27:40.000Z</time>
      </trkpt>
      <trkpt lat="47.27161" lon="-2.34887">
        <ele>-11.199999809265</ele>
        <time>2022-02-10T08:27:41.000Z</time>
      </trkpt>
      <trkpt lat="47.27162" lon="-2.34888">
        <ele>-11.199999809265</ele>
        <time>2022-02-10T08:27:43.000Z</time>
      </trkpt>
      <trkpt lat="47.27163" lon="-2.3489">
        <ele>-11.199999809265</ele>
        <time>2022-02-10T08:27:44.000Z</time>
      </trkpt>
      <trkpt lat="47.27165" lon="-2.349">
        <ele>-11.199999809265</ele>
        <time>2022-02-10T08:27:48.000Z</time>
      </trkpt>
      <trkpt lat="47.27166" lon="-2.34905">
        <ele>-11.199999809265</ele>
        <time>2022-02-10T08:27:50.000Z</time>
      </trkpt>
      <trkpt lat="47.27169" lon="-2.34917">
        <ele>-11.199999809265</ele>
        <time>2022-02-10T08:27:56.000Z</time>
      </trkpt>
      <trkpt lat="47.2717" lon="-2.34919">
        <ele>-13.199999809265</ele>
        <time>2022-02-10T08:28:33.000Z</time>
      </trkpt>
      <trkpt lat="47.27174" lon="-2.34929">
        <ele>-13.199999809265</ele>
        <time>2022-02-10T08:28:37.000Z</time>
      </trkpt>
      <trkpt lat="47.27178" lon="-2.34939">
        <ele>-13.199999809265</ele>
        <time>2022-02-10T08:28:40.000Z</time>
      </trkpt>
      <trkpt lat="47.27188" lon="-2.34966">
        <ele>-13.199999809265</ele>
        <time>2022-02-10T08:28:47.000Z</time>
      </trkpt>
      <trkpt lat="47.27198" lon="-2.34993">
        <ele>-13.199999809265</ele>
        <time>2022-02-10T08:28:54.000Z</time>
      </trkpt>
      <trkpt lat="47.27205" lon="-2.35011">
        <ele>-13.199999809265</ele>
        <time>2022-02-10T08:28:59.000Z</time>
      </trkpt>
      <trkpt lat="47.27217" lon="-2.35045">
        <ele>-13.199999809265</ele>
        <time>2022-02-10T08:29:05.000Z</time>
      </trkpt>
      <trkpt lat="47.27235" lon="-2.35089">
        <ele>-13.199999809265</ele>
        <time>2022-02-10T08:29:12.000Z</time>
      </trkpt>
      <trkpt lat="47.27248" lon="-2.35117">
        <ele>-13.199999809265</ele>
        <time>2022-02-10T08:29:17.000Z</time>
      </trkpt>
      <trkpt lat="47.27255" lon="-2.35124">
        <ele>-13.199999809265</ele>
        <time>2022-02-10T08:29:19.000Z</time>
      </trkpt>
      <trkpt lat="47.27267" lon="-2.35119">
        <ele>-13.199999809265</ele>
        <time>2022-02-10T08:29:22.000Z</time>
      </trkpt>
      <trkpt lat="47.27271" lon="-2.35116">
        <ele>-13.199999809265</ele>
        <time>2022-02-10T08:29:23.000Z</time>
      </trkpt>
      <trkpt lat="47.27292" lon="-2.35108">
        <ele>-13.199999809265</ele>
        <time>2022-02-10T08:29:29.000Z</time>
      </trkpt>
      <trkpt lat="47.27303" lon="-2.35101">
        <ele>-13.199999809265</ele>
        <time>2022-02-10T08:29:34.000Z</time>
      </trkpt>
      <trkpt lat="47.27315" lon="-2.35094">
        <ele>-12.800000190735</ele>
        <time>2022-02-10T08:29:38.000Z</time>
      </trkpt>
      <trkpt lat="47.27318" lon="-2.35092">
        <ele>-12.39999961853</ele>
        <time>2022-02-10T08:29:39.000Z</time>
      </trkpt>
      <trkpt lat="47.27322" lon="-2.35092">
        <ele>-12</ele>
        <time>2022-02-10T08:29:40.000Z</time>
      </trkpt>
      <trkpt lat="47.27325" lon="-2.35091">
        <ele>-11.60000038147</ele>
        <time>2022-02-10T08:29:41.000Z</time>
      </trkpt>
      <trkpt lat="47.27328" lon="-2.35089">
        <ele>-11</ele>
        <time>2022-02-10T08:29:42.000Z</time>
      </trkpt>
      <trkpt lat="47.27334" lon="-2.35086">
        <ele>-11</ele>
        <time>2022-02-10T08:29:44.000Z</time>
      </trkpt>
      <trkpt lat="47.27343" lon="-2.3508">
        <ele>-10.60000038147</ele>
        <time>2022-02-10T08:29:47.000Z</time>
      </trkpt>
      <trkpt lat="47.27346" lon="-2.35078">
        <ele>-10.199999809265</ele>
        <time>2022-02-10T08:29:48.000Z</time>
      </trkpt>
      <trkpt lat="47.2735" lon="-2.35076">
        <ele>-9.8000001907349</ele>
        <time>2022-02-10T08:29:49.000Z</time>
      </trkpt>
      <trkpt lat="47.27354" lon="-2.35073">
        <ele>-9.1999998092651</ele>
        <time>2022-02-10T08:29:50.000Z</time>
      </trkpt>
      <trkpt lat="47.27358" lon="-2.35071">
        <ele>-8.8000001907349</ele>
        <time>2022-02-10T08:29:51.000Z</time>
      </trkpt>
      <trkpt lat="47.27372" lon="-2.35063">
        <ele>-8.8000001907349</ele>
        <time>2022-02-10T08:29:55.000Z</time>
      </trkpt>
      <trkpt lat="47.27382" lon="-2.35058">
        <ele>-8.3999996185303</ele>
        <time>2022-02-10T08:29:58.000Z</time>
      </trkpt>
      <trkpt lat="47.27386" lon="-2.35056">
        <ele>-8</ele>
        <time>2022-02-10T08:29:59.000Z</time>
      </trkpt>
      <trkpt lat="47.27389" lon="-2.35055">
        <ele>-7.5999999046326</ele>
        <time>2022-02-10T08:30:00.000Z</time>
      </trkpt>
      <trkpt lat="47.27393" lon="-2.35055">
        <ele>-7.1999998092651</ele>
        <time>2022-02-10T08:30:01.000Z</time>
      </trkpt>
      <trkpt lat="47.27396" lon="-2.35056">
        <ele>-6.8000001907349</ele>
        <time>2022-02-10T08:30:02.000Z</time>
      </trkpt>
      <trkpt lat="47.27398" lon="-2.35059">
        <ele>-6.8000001907349</ele>
        <time>2022-02-10T08:30:03.000Z</time>
      </trkpt>
      <trkpt lat="47.27401" lon="-2.35063">
        <ele>-6.8000001907349</ele>
        <time>2022-02-10T08:30:04.000Z</time>
      </trkpt>
      <trkpt lat="47.2741" lon="-2.35092">
        <ele>-6.8000001907349</ele>
        <time>2022-02-10T08:30:10.000Z</time>
      </trkpt>
      <trkpt lat="47.27418" lon="-2.35132">
        <ele>-6.8000001907349</ele>
        <time>2022-02-10T08:30:17.000Z</time>
      </trkpt>
      <trkpt lat="47.27427" lon="-2.35164">
        <ele>-6.8000001907349</ele>
        <time>2022-02-10T08:30:23.000Z</time>
      </trkpt>
      <trkpt lat="47.2743" lon="-2.35169">
        <ele>-6.8000001907349</ele>
        <time>2022-02-10T08:30:24.000Z</time>
      </trkpt>
      <trkpt lat="47.27441" lon="-2.3517">
        <ele>-6.8000001907349</ele>
        <time>2022-02-10T08:30:27.000Z</time>
      </trkpt>
      <trkpt lat="47.27448" lon="-2.35165">
        <ele>-6.8000001907349</ele>
        <time>2022-02-10T08:30:29.000Z</time>
      </trkpt>
      <trkpt lat="47.27461" lon="-2.35157">
        <ele>-6.8000001907349</ele>
        <time>2022-02-10T08:30:33.000Z</time>
      </trkpt>
      <trkpt lat="47.27473" lon="-2.3515">
        <ele>-6.4000000953674</ele>
        <time>2022-02-10T08:30:37.000Z</time>
      </trkpt>
      <trkpt lat="47.27477" lon="-2.35148">
        <ele>-6</ele>
        <time>2022-02-10T08:30:38.000Z</time>
      </trkpt>
      <trkpt lat="47.2748" lon="-2.35146">
        <ele>-5.5999999046326</ele>
        <time>2022-02-10T08:30:39.000Z</time>
      </trkpt>
      <trkpt lat="47.27484" lon="-2.35145">
        <ele>-5.1999998092651</ele>
        <time>2022-02-10T08:30:40.000Z</time>
      </trkpt>
      <trkpt lat="47.27487" lon="-2.35143">
        <ele>-4.8000001907349</ele>
        <time>2022-02-10T08:30:41.000Z</time>
      </trkpt>
      <trkpt lat="47.27491" lon="-2.35141">
        <ele>-4.8000001907349</ele>
        <time>2022-02-10T08:30:42.000Z</time>
      </trkpt>
      <trkpt lat="47.27497" lon="-2.35136">
        <ele>-4.8000001907349</ele>
        <time>2022-02-10T08:30:44.000Z</time>
      </trkpt>
      <trkpt lat="47.27503" lon="-2.3513">
        <ele>-4.8000001907349</ele>
        <time>2022-02-10T08:30:46.000Z</time>
      </trkpt>
      <trkpt lat="47.27509" lon="-2.35129">
        <ele>-4.8000001907349</ele>
        <time>2022-02-10T08:30:48.000Z</time>
      </trkpt>
      <trkpt lat="47.27513" lon="-2.35131">
        <ele>-4.8000001907349</ele>
        <time>2022-02-10T08:30:49.000Z</time>
      </trkpt>
      <trkpt lat="47.27517" lon="-2.35133">
        <ele>-4.8000001907349</ele>
        <time>2022-02-10T08:30:50.000Z</time>
      </trkpt>
      <trkpt lat="47.27535" lon="-2.3514">
        <ele>-4.8000001907349</ele>
        <time>2022-02-10T08:30:55.000Z</time>
      </trkpt>
      <trkpt lat="47.27539" lon="-2.35139">
        <ele>-4.8000001907349</ele>
        <time>2022-02-10T08:30:56.000Z</time>
      </trkpt>
      <trkpt lat="47.2756" lon="-2.35135">
        <ele>-4.8000001907349</ele>
        <time>2022-02-10T08:31:01.000Z</time>
      </trkpt>
      <trkpt lat="47.27587" lon="-2.35133">
        <ele>-4.8000001907349</ele>
        <time>2022-02-10T08:31:07.000Z</time>
      </trkpt>
      <trkpt lat="47.27596" lon="-2.35133">
        <ele>-4.8000001907349</ele>
        <time>2022-02-10T08:31:09.000Z</time>
      </trkpt>
      <trkpt lat="47.27607" lon="-2.35143">
        <ele>-4.8000001907349</ele>
        <time>2022-02-10T08:31:12.000Z</time>
      </trkpt>
      <trkpt lat="47.27608" lon="-2.35156">
        <ele>-4.8000001907349</ele>
        <time>2022-02-10T08:31:14.000Z</time>
      </trkpt>
      <trkpt lat="47.27609" lon="-2.35163">
        <ele>-4.8000001907349</ele>
        <time>2022-02-10T08:31:15.000Z</time>
      </trkpt>
      <trkpt lat="47.27615" lon="-2.35174">
        <ele>-4.8000001907349</ele>
        <time>2022-02-10T08:31:18.000Z</time>
      </trkpt>
      <trkpt lat="47.27628" lon="-2.35175">
        <ele>-4.8000001907349</ele>
        <time>2022-02-10T08:31:21.000Z</time>
      </trkpt>
      <trkpt lat="47.27635" lon="-2.35174">
        <ele>-4.8000001907349</ele>
        <time>2022-02-10T08:31:22.000Z</time>
      </trkpt>
      <trkpt lat="47.27658" lon="-2.35172">
        <ele>-4.8000001907349</ele>
        <time>2022-02-10T08:31:26.000Z</time>
      </trkpt>
      <trkpt lat="47.27663" lon="-2.35176">
        <ele>-4.8000001907349</ele>
        <time>2022-02-10T08:31:27.000Z</time>
      </trkpt>
      <trkpt lat="47.2767" lon="-2.35195">
        <ele>-5.1999998092651</ele>
        <time>2022-02-10T08:31:30.000Z</time>
      </trkpt>
      <trkpt lat="47.27671" lon="-2.35204">
        <ele>-5.5999999046326</ele>
        <time>2022-02-10T08:31:31.000Z</time>
      </trkpt>
      <trkpt lat="47.27671" lon="-2.3521">
        <ele>-6.4000000953674</ele>
        <time>2022-02-10T08:31:32.000Z</time>
      </trkpt>
      <trkpt lat="47.27673" lon="-2.35215">
        <ele>-6.8000001907349</ele>
        <time>2022-02-10T08:31:33.000Z</time>
      </trkpt>
      <trkpt lat="47.27676" lon="-2.35218">
        <ele>-6.8000001907349</ele>
        <time>2022-02-10T08:31:34.000Z</time>
      </trkpt>
      <trkpt lat="47.27684" lon="-2.35217">
        <ele>-7.1999998092651</ele>
        <time>2022-02-10T08:31:36.000Z</time>
      </trkpt>
      <trkpt lat="47.27688" lon="-2.35215">
        <ele>-7.5999999046326</ele>
        <time>2022-02-10T08:31:37.000Z</time>
      </trkpt>
      <trkpt lat="47.27693" lon="-2.35213">
        <ele>-8</ele>
        <time>2022-02-10T08:31:38.000Z</time>
      </trkpt>
      <trkpt lat="47.27698" lon="-2.35212">
        <ele>-8.3999996185303</ele>
        <time>2022-02-10T08:31:39.000Z</time>
      </trkpt>
      <trkpt lat="47.27703" lon="-2.35211">
        <ele>-8.8000001907349</ele>
        <time>2022-02-10T08:31:40.000Z</time>
      </trkpt>
      <trkpt lat="47.27724" lon="-2.35206">
        <ele>-8.8000001907349</ele>
        <time>2022-02-10T08:31:44.000Z</time>
      </trkpt>
      <trkpt lat="47.27751" lon="-2.35197">
        <ele>-8.8000001907349</ele>
        <time>2022-02-10T08:31:49.000Z</time>
      </trkpt>
      <trkpt lat="47.27757" lon="-2.35197">
        <ele>-8.8000001907349</ele>
        <time>2022-02-10T08:31:50.000Z</time>
      </trkpt>
      <trkpt lat="47.27762" lon="-2.35197">
        <ele>-9.1999998092651</ele>
        <time>2022-02-10T08:31:51.000Z</time>
      </trkpt>
      <trkpt lat="47.27766" lon="-2.35198">
        <ele>-9.6000003814697</ele>
        <time>2022-02-10T08:31:52.000Z</time>
      </trkpt>
      <trkpt lat="47.27769" lon="-2.35201">
        <ele>-10</ele>
        <time>2022-02-10T08:31:53.000Z</time>
      </trkpt>
      <trkpt lat="47.27771" lon="-2.35206">
        <ele>-10.39999961853</ele>
        <time>2022-02-10T08:31:54.000Z</time>
      </trkpt>
      <trkpt lat="47.27773" lon="-2.35211">
        <ele>-10.800000190735</ele>
        <time>2022-02-10T08:31:55.000Z</time>
      </trkpt>
      <trkpt lat="47.27777" lon="-2.35223">
        <ele>-10.800000190735</ele>
        <time>2022-02-10T08:31:57.000Z</time>
      </trkpt>
      <trkpt lat="47.27785" lon="-2.35267">
        <ele>-10.800000190735</ele>
        <time>2022-02-10T08:32:03.000Z</time>
      </trkpt>
      <trkpt lat="47.27797" lon="-2.35326">
        <ele>-10.800000190735</ele>
        <time>2022-02-10T08:32:11.000Z</time>
      </trkpt>
      <trkpt lat="47.27805" lon="-2.35352">
        <ele>-10.800000190735</ele>
        <time>2022-02-10T08:32:15.000Z</time>
      </trkpt>
      <trkpt lat="47.27812" lon="-2.35361">
        <ele>-10.800000190735</ele>
        <time>2022-02-10T08:32:17.000Z</time>
      </trkpt>
      <trkpt lat="47.27826" lon="-2.35361">
        <ele>-10.800000190735</ele>
        <time>2022-02-10T08:32:20.000Z</time>
      </trkpt>
      <trkpt lat="47.27849" lon="-2.3536">
        <ele>-10.800000190735</ele>
        <time>2022-02-10T08:32:25.000Z</time>
      </trkpt>
      <trkpt lat="47.27857" lon="-2.3536">
        <ele>-10.800000190735</ele>
        <time>2022-02-10T08:32:27.000Z</time>
      </trkpt>
      <trkpt lat="47.27866" lon="-2.35361">
        <ele>-10.800000190735</ele>
        <time>2022-02-10T08:32:29.000Z</time>
      </trkpt>
      <trkpt lat="47.2787" lon="-2.35363">
        <ele>-10.800000190735</ele>
        <time>2022-02-10T08:32:30.000Z</time>
      </trkpt>
      <trkpt lat="47.27878" lon="-2.35368">
        <ele>-10.800000190735</ele>
        <time>2022-02-10T08:32:32.000Z</time>
      </trkpt>
      <trkpt lat="47.27902" lon="-2.35397">
        <ele>-10.800000190735</ele>
        <time>2022-02-10T08:32:39.000Z</time>
      </trkpt>
      <trkpt lat="47.27933" lon="-2.3544">
        <ele>-10.800000190735</ele>
        <time>2022-02-10T08:32:48.000Z</time>
      </trkpt>
      <trkpt lat="47.2795" lon="-2.35455">
        <ele>-10.800000190735</ele>
        <time>2022-02-10T08:32:52.000Z</time>
      </trkpt>
      <trkpt lat="47.27959" lon="-2.3546">
        <ele>-10.800000190735</ele>
        <time>2022-02-10T08:32:54.000Z</time>
      </trkpt>
      <trkpt lat="47.27968" lon="-2.35466">
        <ele>-10.800000190735</ele>
        <time>2022-02-10T08:32:56.000Z</time>
      </trkpt>
      <trkpt lat="47.27979" lon="-2.35482">
        <ele>-10.800000190735</ele>
        <time>2022-02-10T08:32:59.000Z</time>
      </trkpt>
      <trkpt lat="47.27992" lon="-2.35504">
        <ele>-10.800000190735</ele>
        <time>2022-02-10T08:33:03.000Z</time>
      </trkpt>
      <trkpt lat="47.27994" lon="-2.35509">
        <ele>-10.800000190735</ele>
        <time>2022-02-10T08:33:04.000Z</time>
      </trkpt>
      <trkpt lat="47.28004" lon="-2.35538">
        <ele>-10.800000190735</ele>
        <time>2022-02-10T08:33:10.000Z</time>
      </trkpt>
      <trkpt lat="47.28005" lon="-2.35547">
        <ele>-10.800000190735</ele>
        <time>2022-02-10T08:33:13.000Z</time>
      </trkpt>
      <trkpt lat="47.28007" lon="-2.35549">
        <ele>-10.800000190735</ele>
        <time>2022-02-10T08:33:14.000Z</time>
      </trkpt>
      <trkpt lat="47.28019" lon="-2.35555">
        <ele>-10.800000190735</ele>
        <time>2022-02-10T08:33:18.000Z</time>
      </trkpt>
      <trkpt lat="47.28026" lon="-2.35561">
        <ele>-10.39999961853</ele>
        <time>2022-02-10T08:33:20.000Z</time>
      </trkpt>
      <trkpt lat="47.28029" lon="-2.35564">
        <ele>-10</ele>
        <time>2022-02-10T08:33:21.000Z</time>
      </trkpt>
      <trkpt lat="47.28032" lon="-2.35567">
        <ele>-9.6000003814697</ele>
        <time>2022-02-10T08:33:22.000Z</time>
      </trkpt>
      <trkpt lat="47.28036" lon="-2.35569">
        <ele>-9.1999998092651</ele>
        <time>2022-02-10T08:33:23.000Z</time>
      </trkpt>
      <trkpt lat="47.28039" lon="-2.35572">
        <ele>-8.8000001907349</ele>
        <time>2022-02-10T08:33:24.000Z</time>
      </trkpt>
      <trkpt lat="47.28059" lon="-2.35581">
        <ele>-8.8000001907349</ele>
        <time>2022-02-10T08:33:30.000Z</time>
      </trkpt>
      <trkpt lat="47.28064" lon="-2.35584">
        <ele>-8.8000001907349</ele>
        <time>2022-02-10T08:33:32.000Z</time>
      </trkpt>
      <trkpt lat="47.28068" lon="-2.35589">
        <ele>-8.8000001907349</ele>
        <time>2022-02-10T08:33:34.000Z</time>
      </trkpt>
      <trkpt lat="47.28074" lon="-2.356">
        <ele>-8.3999996185303</ele>
        <time>2022-02-10T08:33:37.000Z</time>
      </trkpt>
      <trkpt lat="47.28076" lon="-2.35603">
        <ele>-8</ele>
        <time>2022-02-10T08:33:38.000Z</time>
      </trkpt>
      <trkpt lat="47.28078" lon="-2.35607">
        <ele>-7.5999999046326</ele>
        <time>2022-02-10T08:33:39.000Z</time>
      </trkpt>
      <trkpt lat="47.2808" lon="-2.35609">
        <ele>-7.1999998092651</ele>
        <time>2022-02-10T08:33:40.000Z</time>
      </trkpt>
      <trkpt lat="47.28082" lon="-2.35612">
        <ele>-6.5999999046326</ele>
        <time>2022-02-10T08:33:41.000Z</time>
      </trkpt>
      <trkpt lat="47.28083" lon="-2.35617">
        <ele>-6.5999999046326</ele>
        <time>2022-02-10T08:33:43.000Z</time>
      </trkpt>
      <trkpt lat="47.28082" lon="-2.35618">
        <ele>-6.5999999046326</ele>
        <time>2022-02-10T08:33:44.000Z</time>
      </trkpt>
      <trkpt lat="47.28082" lon="-2.35619">
        <ele>-6.5999999046326</ele>
        <time>2022-02-10T08:33:46.000Z</time>
      </trkpt>
      <trkpt lat="47.2808" lon="-2.35613">
        <ele>-8.8000001907349</ele>
        <time>2022-02-10T08:39:26.000Z</time>
      </trkpt>
      <trkpt lat="47.28079" lon="-2.35611">
        <ele>-8.8000001907349</ele>
        <time>2022-02-10T08:39:27.000Z</time>
      </trkpt>
      <trkpt lat="47.28072" lon="-2.35612">
        <ele>-8.8000001907349</ele>
        <time>2022-02-10T08:39:32.000Z</time>
      </trkpt>
      <trkpt lat="47.28073" lon="-2.35617">
        <ele>-8.8000001907349</ele>
        <time>2022-02-10T08:39:34.000Z</time>
      </trkpt>
      <trkpt lat="47.28076" lon="-2.35624">
        <ele>-8.8000001907349</ele>
        <time>2022-02-10T08:39:37.000Z</time>
      </trkpt>
      <trkpt lat="47.28081" lon="-2.35647">
        <ele>-8.8000001907349</ele>
        <time>2022-02-10T08:39:44.000Z</time>
      </trkpt>
      <trkpt lat="47.28084" lon="-2.35653">
        <ele>-8.1999998092651</ele>
        <time>2022-02-10T08:39:46.000Z</time>
      </trkpt>
      <trkpt lat="47.28084" lon="-2.35657">
        <ele>-7.8000001907349</ele>
        <time>2022-02-10T08:39:47.000Z</time>
      </trkpt>
      <trkpt lat="47.28085" lon="-2.35662">
        <ele>-7.4000000953674</ele>
        <time>2022-02-10T08:39:48.000Z</time>
      </trkpt>
      <trkpt lat="47.28086" lon="-2.35667">
        <ele>-7</ele>
        <time>2022-02-10T08:39:49.000Z</time>
      </trkpt>
      <trkpt lat="47.28087" lon="-2.35672">
        <ele>-6.5999999046326</ele>
        <time>2022-02-10T08:39:50.000Z</time>
      </trkpt>
      <trkpt lat="47.28093" lon="-2.35695">
        <ele>-6.5999999046326</ele>
        <time>2022-02-10T08:39:56.000Z</time>
      </trkpt>
      <trkpt lat="47.28093" lon="-2.35699">
        <ele>-6</ele>
        <time>2022-02-10T08:39:57.000Z</time>
      </trkpt>
      <trkpt lat="47.28094" lon="-2.35702">
        <ele>-5.5999999046326</ele>
        <time>2022-02-10T08:39:58.000Z</time>
      </trkpt>
      <trkpt lat="47.28094" lon="-2.35705">
        <ele>-5.1999998092651</ele>
        <time>2022-02-10T08:39:59.000Z</time>
      </trkpt>
      <trkpt lat="47.28093" lon="-2.35707">
        <ele>-4.8000001907349</ele>
        <time>2022-02-10T08:40:00.000Z</time>
      </trkpt>
      <trkpt lat="47.28093" lon="-2.3571">
        <ele>-4.4000000953674</ele>
        <time>2022-02-10T08:40:01.000Z</time>
      </trkpt>
      <trkpt lat="47.2809" lon="-2.35731">
        <ele>-4.4000000953674</ele>
        <time>2022-02-10T08:40:06.000Z</time>
      </trkpt>
      <trkpt lat="47.28089" lon="-2.35735">
        <ele>-4.4000000953674</ele>
        <time>2022-02-10T08:40:07.000Z</time>
      </trkpt>
      <trkpt lat="47.28081" lon="-2.35751">
        <ele>-4.4000000953674</ele>
        <time>2022-02-10T08:40:10.000Z</time>
      </trkpt>
      <trkpt lat="47.2808" lon="-2.35761">
        <ele>-4.8000001907349</ele>
        <time>2022-02-10T08:40:12.000Z</time>
      </trkpt>
      <trkpt lat="47.2808" lon="-2.35766">
        <ele>-5.1999998092651</ele>
        <time>2022-02-10T08:40:13.000Z</time>
      </trkpt>
      <trkpt lat="47.28079" lon="-2.3577">
        <ele>-5.5999999046326</ele>
        <time>2022-02-10T08:40:14.000Z</time>
      </trkpt>
      <trkpt lat="47.28077" lon="-2.35774">
        <ele>-6</ele>
        <time>2022-02-10T08:40:15.000Z</time>
      </trkpt>
      <trkpt lat="47.28075" lon="-2.35779">
        <ele>-6.4000000953674</ele>
        <time>2022-02-10T08:40:16.000Z</time>
      </trkpt>
      <trkpt lat="47.28074" lon="-2.35788">
        <ele>-6.4000000953674</ele>
        <time>2022-02-10T08:40:18.000Z</time>
      </trkpt>
      <trkpt lat="47.28078" lon="-2.358">
        <ele>-6.8000001907349</ele>
        <time>2022-02-10T08:40:20.000Z</time>
      </trkpt>
      <trkpt lat="47.28081" lon="-2.35806">
        <ele>-7.1999998092651</ele>
        <time>2022-02-10T08:40:21.000Z</time>
      </trkpt>
      <trkpt lat="47.28085" lon="-2.35813">
        <ele>-7.8000001907349</ele>
        <time>2022-02-10T08:40:22.000Z</time>
      </trkpt>
      <trkpt lat="47.28088" lon="-2.35819">
        <ele>-8.1999998092651</ele>
        <time>2022-02-10T08:40:23.000Z</time>
      </trkpt>
      <trkpt lat="47.2809" lon="-2.35824">
        <ele>-8.6000003814697</ele>
        <time>2022-02-10T08:40:24.000Z</time>
      </trkpt>
      <trkpt lat="47.28092" lon="-2.35829">
        <ele>-8.6000003814697</ele>
        <time>2022-02-10T08:40:25.000Z</time>
      </trkpt>
      <trkpt lat="47.28107" lon="-2.35856">
        <ele>-8.6000003814697</ele>
        <time>2022-02-10T08:40:31.000Z</time>
      </trkpt>
      <trkpt lat="47.28122" lon="-2.35877">
        <ele>-8.6000003814697</ele>
        <time>2022-02-10T08:40:37.000Z</time>
      </trkpt>
      <trkpt lat="47.28131" lon="-2.35893">
        <ele>-8.6000003814697</ele>
        <time>2022-02-10T08:40:42.000Z</time>
      </trkpt>
      <trkpt lat="47.28139" lon="-2.35908">
        <ele>-8.6000003814697</ele>
        <time>2022-02-10T08:40:47.000Z</time>
      </trkpt>
      <trkpt lat="47.28153" lon="-2.35928">
        <ele>-8.6000003814697</ele>
        <time>2022-02-10T08:40:53.000Z</time>
      </trkpt>
      <trkpt lat="47.28166" lon="-2.35947">
        <ele>-8.6000003814697</ele>
        <time>2022-02-10T08:40:58.000Z</time>
      </trkpt>
      <trkpt lat="47.28167" lon="-2.35948">
        <ele>-8.6000003814697</ele>
        <time>2022-02-10T08:40:59.000Z</time>
      </trkpt>
      <trkpt lat="47.2817" lon="-2.35946">
        <ele>-8.6000003814697</ele>
        <time>2022-02-10T08:41:01.000Z</time>
      </trkpt>
      <trkpt lat="47.28171" lon="-2.35947">
        <ele>-8.6000003814697</ele>
        <time>2022-02-10T08:41:02.000Z</time>
      </trkpt>
      <trkpt lat="47.28176" lon="-2.35952">
        <ele>-9</ele>
        <time>2022-02-10T08:41:05.000Z</time>
      </trkpt>
      <trkpt lat="47.28177" lon="-2.35955">
        <ele>-9.3999996185303</ele>
        <time>2022-02-10T08:41:06.000Z</time>
      </trkpt>
      <trkpt lat="47.28178" lon="-2.35959">
        <ele>-9.8000001907349</ele>
        <time>2022-02-10T08:41:07.000Z</time>
      </trkpt>
      <trkpt lat="47.28179" lon="-2.35963">
        <ele>-10.199999809265</ele>
        <time>2022-02-10T08:41:08.000Z</time>
      </trkpt>
      <trkpt lat="47.2818" lon="-2.35967">
        <ele>-10.60000038147</ele>
        <time>2022-02-10T08:41:09.000Z</time>
      </trkpt>
      <trkpt lat="47.28184" lon="-2.35973">
        <ele>-10.60000038147</ele>
        <time>2022-02-10T08:41:10.000Z</time>
      </trkpt>
      <trkpt lat="47.28192" lon="-2.35991">
        <ele>-10.60000038147</ele>
        <time>2022-02-10T08:41:13.000Z</time>
      </trkpt>
      <trkpt lat="47.28195" lon="-2.35997">
        <ele>-10.60000038147</ele>
        <time>2022-02-10T08:41:14.000Z</time>
      </trkpt>
      <trkpt lat="47.28206" lon="-2.36018">
        <ele>-10.60000038147</ele>
        <time>2022-02-10T08:41:19.000Z</time>
      </trkpt>
      <trkpt lat="47.28222" lon="-2.36022">
        <ele>-10.60000038147</ele>
        <time>2022-02-10T08:41:24.000Z</time>
      </trkpt>
      <trkpt lat="47.28242" lon="-2.36014">
        <ele>-10.60000038147</ele>
        <time>2022-02-10T08:41:31.000Z</time>
      </trkpt>
      <trkpt lat="47.28259" lon="-2.36003">
        <ele>-10.60000038147</ele>
        <time>2022-02-10T08:41:36.000Z</time>
      </trkpt>
      <trkpt lat="47.28274" lon="-2.35987">
        <ele>-10.60000038147</ele>
        <time>2022-02-10T08:41:42.000Z</time>
      </trkpt>
      <trkpt lat="47.28276" lon="-2.35983">
        <ele>-10.60000038147</ele>
        <time>2022-02-10T08:41:43.000Z</time>
      </trkpt>
      <trkpt lat="47.28277" lon="-2.3597">
        <ele>-10.60000038147</ele>
        <time>2022-02-10T08:41:46.000Z</time>
      </trkpt>
      <trkpt lat="47.28273" lon="-2.35961">
        <ele>-9.8000001907349</ele>
        <time>2022-02-10T08:41:49.000Z</time>
      </trkpt>
      <trkpt lat="47.28271" lon="-2.35957">
        <ele>-9.3999996185303</ele>
        <time>2022-02-10T08:41:50.000Z</time>
      </trkpt>
      <trkpt lat="47.2827" lon="-2.35954">
        <ele>-9</ele>
        <time>2022-02-10T08:41:51.000Z</time>
      </trkpt>
      <trkpt lat="47.28268" lon="-2.3595">
        <ele>-8.6000003814697</ele>
        <time>2022-02-10T08:41:52.000Z</time>
      </trkpt>
      <trkpt lat="47.2826" lon="-2.35931">
        <ele>-8.6000003814697</ele>
        <time>2022-02-10T08:41:57.000Z</time>
      </trkpt>
      <trkpt lat="47.28257" lon="-2.35923">
        <ele>-8</ele>
        <time>2022-02-10T08:41:59.000Z</time>
      </trkpt>
      <trkpt lat="47.28255" lon="-2.3592">
        <ele>-7.5999999046326</ele>
        <time>2022-02-10T08:42:00.000Z</time>
      </trkpt>
      <trkpt lat="47.28254" lon="-2.35916">
        <ele>-7.1999998092651</ele>
        <time>2022-02-10T08:42:01.000Z</time>
      </trkpt>
      <trkpt lat="47.28254" lon="-2.35911">
        <ele>-6.8000001907349</ele>
        <time>2022-02-10T08:42:02.000Z</time>
      </trkpt>
      <trkpt lat="47.28254" lon="-2.35906">
        <ele>-6.4000000953674</ele>
        <time>2022-02-10T08:42:03.000Z</time>
      </trkpt>
      <trkpt lat="47.28255" lon="-2.35901">
        <ele>-6.4000000953674</ele>
        <time>2022-02-10T08:42:04.000Z</time>
      </trkpt>
      <trkpt lat="47.28261" lon="-2.3589">
        <ele>-6.4000000953674</ele>
        <time>2022-02-10T08:42:07.000Z</time>
      </trkpt>
      <trkpt lat="47.28265" lon="-2.35884">
        <ele>-6.4000000953674</ele>
        <time>2022-02-10T08:42:09.000Z</time>
      </trkpt>
      <trkpt lat="47.28287" lon="-2.35863">
        <ele>-6.4000000953674</ele>
        <time>2022-02-10T08:42:16.000Z</time>
      </trkpt>
      <trkpt lat="47.28303" lon="-2.3585">
        <ele>-6.4000000953674</ele>
        <time>2022-02-10T08:42:21.000Z</time>
      </trkpt>
      <trkpt lat="47.28317" lon="-2.35837">
        <ele>-6.4000000953674</ele>
        <time>2022-02-10T08:42:27.000Z</time>
      </trkpt>
      <trkpt lat="47.28318" lon="-2.35834">
        <ele>-6</ele>
        <time>2022-02-10T08:42:28.000Z</time>
      </trkpt>
      <trkpt lat="47.2832" lon="-2.35831">
        <ele>-5.5999999046326</ele>
        <time>2022-02-10T08:42:29.000Z</time>
      </trkpt>
      <trkpt lat="47.28322" lon="-2.35827">
        <ele>-5.1999998092651</ele>
        <time>2022-02-10T08:42:30.000Z</time>
      </trkpt>
      <trkpt lat="47.28325" lon="-2.35824">
        <ele>-4.5999999046326</ele>
        <time>2022-02-10T08:42:31.000Z</time>
      </trkpt>
      <trkpt lat="47.28328" lon="-2.3582">
        <ele>-4.1999998092651</ele>
        <time>2022-02-10T08:42:32.000Z</time>
      </trkpt>
      <trkpt lat="47.28331" lon="-2.35817">
        <ele>-4.1999998092651</ele>
        <time>2022-02-10T08:42:33.000Z</time>
      </trkpt>
      <trkpt lat="47.28347" lon="-2.35799">
        <ele>-4.1999998092651</ele>
        <time>2022-02-10T08:42:39.000Z</time>
      </trkpt>
      <trkpt lat="47.28362" lon="-2.3579">
        <ele>-4.1999998092651</ele>
        <time>2022-02-10T08:42:44.000Z</time>
      </trkpt>
      <trkpt lat="47.28379" lon="-2.35793">
        <ele>-4.1999998092651</ele>
        <time>2022-02-10T08:42:49.000Z</time>
      </trkpt>
      <trkpt lat="47.28396" lon="-2.35808">
        <ele>-4.1999998092651</ele>
        <time>2022-02-10T08:42:55.000Z</time>
      </trkpt>
      <trkpt lat="47.28409" lon="-2.35826">
        <ele>-4.1999998092651</ele>
        <time>2022-02-10T08:43:00.000Z</time>
      </trkpt>
      <trkpt lat="47.28421" lon="-2.35848">
        <ele>-4.1999998092651</ele>
        <time>2022-02-10T08:43:06.000Z</time>
      </trkpt>
      <trkpt lat="47.28425" lon="-2.3585">
        <ele>-4.1999998092651</ele>
        <time>2022-02-10T08:43:08.000Z</time>
      </trkpt>
      <trkpt lat="47.2843" lon="-2.35848">
        <ele>-4.1999998092651</ele>
        <time>2022-02-10T08:43:10.000Z</time>
      </trkpt>
      <trkpt lat="47.28444" lon="-2.35839">
        <ele>-4.1999998092651</ele>
        <time>2022-02-10T08:43:16.000Z</time>
      </trkpt>
      <trkpt lat="47.28453" lon="-2.35835">
        <ele>-4.1999998092651</ele>
        <time>2022-02-10T08:43:22.000Z</time>
      </trkpt>
      <trkpt lat="47.28469" lon="-2.35822">
        <ele>-4.1999998092651</ele>
        <time>2022-02-10T08:43:27.000Z</time>
      </trkpt>
      <trkpt lat="47.28476" lon="-2.35806">
        <ele>-4.1999998092651</ele>
        <time>2022-02-10T08:43:33.000Z</time>
      </trkpt>
      <trkpt lat="47.28472" lon="-2.35792">
        <ele>-4.1999998092651</ele>
        <time>2022-02-10T08:43:37.000Z</time>
      </trkpt>
      <trkpt lat="47.28469" lon="-2.3577">
        <ele>-4.1999998092651</ele>
        <time>2022-02-10T08:43:42.000Z</time>
      </trkpt>
      <trkpt lat="47.28469" lon="-2.35766">
        <ele>-4.1999998092651</ele>
        <time>2022-02-10T08:43:43.000Z</time>
      </trkpt>
      <trkpt lat="47.28472" lon="-2.35761">
        <ele>-4.1999998092651</ele>
        <time>2022-02-10T08:43:45.000Z</time>
      </trkpt>
      <trkpt lat="47.28485" lon="-2.35738">
        <ele>-4.1999998092651</ele>
        <time>2022-02-10T08:43:50.000Z</time>
      </trkpt>
      <trkpt lat="47.28501" lon="-2.35712">
        <ele>-4.1999998092651</ele>
        <time>2022-02-10T08:43:56.000Z</time>
      </trkpt>
      <trkpt lat="47.28514" lon="-2.35704">
        <ele>-4.1999998092651</ele>
        <time>2022-02-10T08:44:01.000Z</time>
      </trkpt>
      <trkpt lat="47.28517" lon="-2.35705">
        <ele>-4.1999998092651</ele>
        <time>2022-02-10T08:44:02.000Z</time>
      </trkpt>
      <trkpt lat="47.28524" lon="-2.35712">
        <ele>-4.1999998092651</ele>
        <time>2022-02-10T08:44:05.000Z</time>
      </trkpt>
      <trkpt lat="47.28526" lon="-2.35716">
        <ele>-4.1999998092651</ele>
        <time>2022-02-10T08:44:06.000Z</time>
      </trkpt>
      <trkpt lat="47.2854" lon="-2.35737">
        <ele>-4.1999998092651</ele>
        <time>2022-02-10T08:44:11.000Z</time>
      </trkpt>
      <trkpt lat="47.28552" lon="-2.35763">
        <ele>-4.1999998092651</ele>
        <time>2022-02-10T08:44:17.000Z</time>
      </trkpt>
      <trkpt lat="47.28562" lon="-2.35763">
        <ele>-4.1999998092651</ele>
        <time>2022-02-10T08:44:21.000Z</time>
      </trkpt>
      <trkpt lat="47.28571" lon="-2.35754">
        <ele>-4.1999998092651</ele>
        <time>2022-02-10T08:44:26.000Z</time>
      </trkpt>
      <trkpt lat="47.28574" lon="-2.35751">
        <ele>-3.7999999523163</ele>
        <time>2022-02-10T08:44:30.000Z</time>
      </trkpt>
      <trkpt lat="47.28575" lon="-2.35751">
        <ele>-3.4000000953674</ele>
        <time>2022-02-10T08:44:31.000Z</time>
      </trkpt>
      <trkpt lat="47.28576" lon="-2.3575">
        <ele>-3</ele>
        <time>2022-02-10T08:44:32.000Z</time>
      </trkpt>
      <trkpt lat="47.28577" lon="-2.35748">
        <ele>-2.5999999046326</ele>
        <time>2022-02-10T08:44:33.000Z</time>
      </trkpt>
      <trkpt lat="47.28578" lon="-2.35746">
        <ele>-2.2000000476837</ele>
        <time>2022-02-10T08:44:34.000Z</time>
      </trkpt>
      <trkpt lat="47.28581" lon="-2.35738">
        <ele>-2.2000000476837</ele>
        <time>2022-02-10T08:44:37.000Z</time>
      </trkpt>
      <trkpt lat="47.28583" lon="-2.35713">
        <ele>-2.2000000476837</ele>
        <time>2022-02-10T08:44:43.000Z</time>
      </trkpt>
      <trkpt lat="47.28584" lon="-2.3568">
        <ele>-2.2000000476837</ele>
        <time>2022-02-10T08:44:50.000Z</time>
      </trkpt>
      <trkpt lat="47.28582" lon="-2.35657">
        <ele>-2.2000000476837</ele>
        <time>2022-02-10T08:44:55.000Z</time>
      </trkpt>
      <trkpt lat="47.2858" lon="-2.35627">
        <ele>-2.2000000476837</ele>
        <time>2022-02-10T08:45:01.000Z</time>
      </trkpt>
      <trkpt lat="47.28578" lon="-2.35615">
        <ele>-2.2000000476837</ele>
        <time>2022-02-10T08:45:03.000Z</time>
      </trkpt>
      <trkpt lat="47.28572" lon="-2.35597">
        <ele>-2.2000000476837</ele>
        <time>2022-02-10T08:45:06.000Z</time>
      </trkpt>
      <trkpt lat="47.28569" lon="-2.35586">
        <ele>-2.5999999046326</ele>
        <time>2022-02-10T08:45:08.000Z</time>
      </trkpt>
      <trkpt lat="47.28567" lon="-2.3558">
        <ele>-3</ele>
        <time>2022-02-10T08:45:09.000Z</time>
      </trkpt>
      <trkpt lat="47.28566" lon="-2.35576">
        <ele>-3.4000000953674</ele>
        <time>2022-02-10T08:45:10.000Z</time>
      </trkpt>
      <trkpt lat="47.28564" lon="-2.35571">
        <ele>-4</ele>
        <time>2022-02-10T08:45:11.000Z</time>
      </trkpt>
      <trkpt lat="47.28563" lon="-2.35565">
        <ele>-4.4000000953674</ele>
        <time>2022-02-10T08:45:12.000Z</time>
      </trkpt>
      <trkpt lat="47.28557" lon="-2.35536">
        <ele>-4.8000001907349</ele>
        <time>2022-02-10T08:45:18.000Z</time>
      </trkpt>
      <trkpt lat="47.28557" lon="-2.35531">
        <ele>-5.1999998092651</ele>
        <time>2022-02-10T08:45:19.000Z</time>
      </trkpt>
      <trkpt lat="47.28557" lon="-2.35527">
        <ele>-5.5999999046326</ele>
        <time>2022-02-10T08:45:20.000Z</time>
      </trkpt>
      <trkpt lat="47.28556" lon="-2.35525">
        <ele>-6</ele>
        <time>2022-02-10T08:45:21.000Z</time>
      </trkpt>
      <trkpt lat="47.28555" lon="-2.35521">
        <ele>-6.4000000953674</ele>
        <time>2022-02-10T08:45:22.000Z</time>
      </trkpt>
      <trkpt lat="47.28555" lon="-2.35516">
        <ele>-6.4000000953674</ele>
        <time>2022-02-10T08:45:23.000Z</time>
      </trkpt>
      <trkpt lat="47.28556" lon="-2.35509">
        <ele>-6.4000000953674</ele>
        <time>2022-02-10T08:45:25.000Z</time>
      </trkpt>
      <trkpt lat="47.28559" lon="-2.35504">
        <ele>-6.4000000953674</ele>
        <time>2022-02-10T08:45:27.000Z</time>
      </trkpt>
      <trkpt lat="47.28564" lon="-2.35502">
        <ele>-6.4000000953674</ele>
        <time>2022-02-10T08:45:29.000Z</time>
      </trkpt>
      <trkpt lat="47.28566" lon="-2.35502">
        <ele>-6.4000000953674</ele>
        <time>2022-02-10T08:45:30.000Z</time>
      </trkpt>
      <trkpt lat="47.28568" lon="-2.35505">
        <ele>-6.4000000953674</ele>
        <time>2022-02-10T08:45:31.000Z</time>
      </trkpt>
      <trkpt lat="47.28575" lon="-2.35525">
        <ele>-6.4000000953674</ele>
        <time>2022-02-10T08:45:35.000Z</time>
      </trkpt>
      <trkpt lat="47.28583" lon="-2.35542">
        <ele>-6.4000000953674</ele>
        <time>2022-02-10T08:45:38.000Z</time>
      </trkpt>
      <trkpt lat="47.28586" lon="-2.35548">
        <ele>-6.4000000953674</ele>
        <time>2022-02-10T08:45:39.000Z</time>
      </trkpt>
      <trkpt lat="47.28588" lon="-2.35555">
        <ele>-6.4000000953674</ele>
        <time>2022-02-10T08:45:40.000Z</time>
      </trkpt>
      <trkpt lat="47.28591" lon="-2.35578">
        <ele>-6.4000000953674</ele>
        <time>2022-02-10T08:45:43.000Z</time>
      </trkpt>
      <trkpt lat="47.28597" lon="-2.35635">
        <ele>-6.4000000953674</ele>
        <time>2022-02-10T08:45:51.000Z</time>
      </trkpt>
      <trkpt lat="47.28601" lon="-2.35688">
        <ele>-6.4000000953674</ele>
        <time>2022-02-10T08:45:59.000Z</time>
      </trkpt>
      <trkpt lat="47.28608" lon="-2.35723">
        <ele>-6.4000000953674</ele>
        <time>2022-02-10T08:46:04.000Z</time>
      </trkpt>
      <trkpt lat="47.28611" lon="-2.3573">
        <ele>-6.4000000953674</ele>
        <time>2022-02-10T08:46:05.000Z</time>
      </trkpt>
      <trkpt lat="47.28627" lon="-2.35752">
        <ele>-6.4000000953674</ele>
        <time>2022-02-10T08:46:09.000Z</time>
      </trkpt>
      <trkpt lat="47.28633" lon="-2.35774">
        <ele>-6.4000000953674</ele>
        <time>2022-02-10T08:46:12.000Z</time>
      </trkpt>
      <trkpt lat="47.28634" lon="-2.35782">
        <ele>-6.4000000953674</ele>
        <time>2022-02-10T08:46:13.000Z</time>
      </trkpt>
      <trkpt lat="47.2864" lon="-2.35808">
        <ele>-6.4000000953674</ele>
        <time>2022-02-10T08:46:17.000Z</time>
      </trkpt>
      <trkpt lat="47.28641" lon="-2.35814">
        <ele>-6.4000000953674</ele>
        <time>2022-02-10T08:46:18.000Z</time>
      </trkpt>
      <trkpt lat="47.28643" lon="-2.3584">
        <ele>-6.4000000953674</ele>
        <time>2022-02-10T08:46:23.000Z</time>
      </trkpt>
      <trkpt lat="47.28654" lon="-2.35869">
        <ele>-6</ele>
        <time>2022-02-10T08:46:28.000Z</time>
      </trkpt>
      <trkpt lat="47.28657" lon="-2.35874">
        <ele>-5.5999999046326</ele>
        <time>2022-02-10T08:46:29.000Z</time>
      </trkpt>
      <trkpt lat="47.28659" lon="-2.3588">
        <ele>-5.1999998092651</ele>
        <time>2022-02-10T08:46:30.000Z</time>
      </trkpt>
      <trkpt lat="47.28661" lon="-2.35886">
        <ele>-4.8000001907349</ele>
        <time>2022-02-10T08:46:31.000Z</time>
      </trkpt>
      <trkpt lat="47.28663" lon="-2.35893">
        <ele>-4.4000000953674</ele>
        <time>2022-02-10T08:46:32.000Z</time>
      </trkpt>
      <trkpt lat="47.28666" lon="-2.35905">
        <ele>-4.4000000953674</ele>
        <time>2022-02-10T08:46:34.000Z</time>
      </trkpt>
      <trkpt lat="47.28671" lon="-2.35917">
        <ele>-4.4000000953674</ele>
        <time>2022-02-10T08:46:36.000Z</time>
      </trkpt>
      <trkpt lat="47.28677" lon="-2.3592">
        <ele>-4.4000000953674</ele>
        <time>2022-02-10T08:46:38.000Z</time>
      </trkpt>
      <trkpt lat="47.28683" lon="-2.3591">
        <ele>-4.4000000953674</ele>
        <time>2022-02-10T08:46:40.000Z</time>
      </trkpt>
      <trkpt lat="47.28687" lon="-2.35905">
        <ele>-4.4000000953674</ele>
        <time>2022-02-10T08:46:41.000Z</time>
      </trkpt>
      <trkpt lat="47.28709" lon="-2.35873">
        <ele>-4.4000000953674</ele>
        <time>2022-02-10T08:46:47.000Z</time>
      </trkpt>
      <trkpt lat="47.2872" lon="-2.35854">
        <ele>-4</ele>
        <time>2022-02-10T08:46:50.000Z</time>
      </trkpt>
      <trkpt lat="47.28723" lon="-2.35848">
        <ele>-3.5999999046326</ele>
        <time>2022-02-10T08:46:51.000Z</time>
      </trkpt>
      <trkpt lat="47.28726" lon="-2.35842">
        <ele>-3.2000000476837</ele>
        <time>2022-02-10T08:46:52.000Z</time>
      </trkpt>
      <trkpt lat="47.2873" lon="-2.35836">
        <ele>-2.5999999046326</ele>
        <time>2022-02-10T08:46:53.000Z</time>
      </trkpt>
      <trkpt lat="47.28733" lon="-2.3583">
        <ele>-2.2000000476837</ele>
        <time>2022-02-10T08:46:54.000Z</time>
      </trkpt>
      <trkpt lat="47.28739" lon="-2.35818">
        <ele>-2.2000000476837</ele>
        <time>2022-02-10T08:46:56.000Z</time>
      </trkpt>
      <trkpt lat="47.28762" lon="-2.35773">
        <ele>-2.2000000476837</ele>
        <time>2022-02-10T08:47:03.000Z</time>
      </trkpt>
      <trkpt lat="47.28786" lon="-2.35729">
        <ele>-2.2000000476837</ele>
        <time>2022-02-10T08:47:10.000Z</time>
      </trkpt>
      <trkpt lat="47.28815" lon="-2.35676">
        <ele>-2.2000000476837</ele>
        <time>2022-02-10T08:47:18.000Z</time>
      </trkpt>
      <trkpt lat="47.28846" lon="-2.35639">
        <ele>-2.2000000476837</ele>
        <time>2022-02-10T08:47:25.000Z</time>
      </trkpt>
      <trkpt lat="47.28878" lon="-2.35604">
        <ele>-2.2000000476837</ele>
        <time>2022-02-10T08:47:32.000Z</time>
      </trkpt>
      <trkpt lat="47.2891" lon="-2.35568">
        <ele>-2.2000000476837</ele>
        <time>2022-02-10T08:47:39.000Z</time>
      </trkpt>
      <trkpt lat="47.28921" lon="-2.35555">
        <ele>-2.2000000476837</ele>
        <time>2022-02-10T08:47:42.000Z</time>
      </trkpt>
      <trkpt lat="47.28926" lon="-2.35556">
        <ele>-2.2000000476837</ele>
        <time>2022-02-10T08:47:43.000Z</time>
      </trkpt>
      <trkpt lat="47.28933" lon="-2.3557">
        <ele>-2.2000000476837</ele>
        <time>2022-02-10T08:47:46.000Z</time>
      </trkpt>
      <trkpt lat="47.28935" lon="-2.35575">
        <ele>-2.2000000476837</ele>
        <time>2022-02-10T08:47:47.000Z</time>
      </trkpt>
      <trkpt lat="47.28947" lon="-2.35606">
        <ele>-2.2000000476837</ele>
        <time>2022-02-10T08:47:52.000Z</time>
      </trkpt>
      <trkpt lat="47.2897" lon="-2.35662">
        <ele>-2.2000000476837</ele>
        <time>2022-02-10T08:48:01.000Z</time>
      </trkpt>
      <trkpt lat="47.28986" lon="-2.35692">
        <ele>-2.2000000476837</ele>
        <time>2022-02-10T08:48:06.000Z</time>
      </trkpt>
      <trkpt lat="47.28995" lon="-2.35699">
        <ele>-2.2000000476837</ele>
        <time>2022-02-10T08:48:08.000Z</time>
      </trkpt>
      <trkpt lat="47.2902" lon="-2.35701">
        <ele>-2.2000000476837</ele>
        <time>2022-02-10T08:48:13.000Z</time>
      </trkpt>
      <trkpt lat="47.29029" lon="-2.35694">
        <ele>-2.2000000476837</ele>
        <time>2022-02-10T08:48:15.000Z</time>
      </trkpt>
      <trkpt lat="47.29039" lon="-2.35686">
        <ele>-2.2000000476837</ele>
        <time>2022-02-10T08:48:17.000Z</time>
      </trkpt>
      <trkpt lat="47.2907" lon="-2.35653">
        <ele>-2.2000000476837</ele>
        <time>2022-02-10T08:48:24.000Z</time>
      </trkpt>
      <trkpt lat="47.29082" lon="-2.35641">
        <ele>-2.2000000476837</ele>
        <time>2022-02-10T08:48:27.000Z</time>
      </trkpt>
      <trkpt lat="47.29085" lon="-2.35642">
        <ele>-2.2000000476837</ele>
        <time>2022-02-10T08:48:28.000Z</time>
      </trkpt>
      <trkpt lat="47.29089" lon="-2.35655">
        <ele>-2.2000000476837</ele>
        <time>2022-02-10T08:48:31.000Z</time>
      </trkpt>
      <trkpt lat="47.29091" lon="-2.35661">
        <ele>-2.2000000476837</ele>
        <time>2022-02-10T08:48:32.000Z</time>
      </trkpt>
      <trkpt lat="47.29092" lon="-2.35673">
        <ele>-2.2000000476837</ele>
        <time>2022-02-10T08:48:34.000Z</time>
      </trkpt>
      <trkpt lat="47.29092" lon="-2.35686">
        <ele>-2.2000000476837</ele>
        <time>2022-02-10T08:48:36.000Z</time>
      </trkpt>
      <trkpt lat="47.29098" lon="-2.35712">
        <ele>-2.2000000476837</ele>
        <time>2022-02-10T08:48:40.000Z</time>
      </trkpt>
      <trkpt lat="47.29103" lon="-2.35725">
        <ele>-2.2000000476837</ele>
        <time>2022-02-10T08:48:42.000Z</time>
      </trkpt>
      <trkpt lat="47.29116" lon="-2.35758">
        <ele>-2.2000000476837</ele>
        <time>2022-02-10T08:48:47.000Z</time>
      </trkpt>
      <trkpt lat="47.29135" lon="-2.35805">
        <ele>-2.2000000476837</ele>
        <time>2022-02-10T08:48:55.000Z</time>
      </trkpt>
      <trkpt lat="47.29142" lon="-2.35826">
        <ele>-2.2000000476837</ele>
        <time>2022-02-10T08:49:00.000Z</time>
      </trkpt>
      <trkpt lat="47.29145" lon="-2.35828">
        <ele>-2.2000000476837</ele>
        <time>2022-02-10T08:49:01.000Z</time>
      </trkpt>
      <trkpt lat="47.29152" lon="-2.35828">
        <ele>-2.2000000476837</ele>
        <time>2022-02-10T08:49:03.000Z</time>
      </trkpt>
      <trkpt lat="47.29164" lon="-2.35819">
        <ele>-2.2000000476837</ele>
        <time>2022-02-10T08:49:06.000Z</time>
      </trkpt>
      <trkpt lat="47.29169" lon="-2.35816">
        <ele>-2.2000000476837</ele>
        <time>2022-02-10T08:49:07.000Z</time>
      </trkpt>
      <trkpt lat="47.29202" lon="-2.35793">
        <ele>-2.2000000476837</ele>
        <time>2022-02-10T08:49:14.000Z</time>
      </trkpt>
      <trkpt lat="47.29232" lon="-2.35764">
        <ele>-2.2000000476837</ele>
        <time>2022-02-10T08:49:21.000Z</time>
      </trkpt>
      <trkpt lat="47.29251" lon="-2.35739">
        <ele>-2.2000000476837</ele>
        <time>2022-02-10T08:49:27.000Z</time>
      </trkpt>
      <trkpt lat="47.29256" lon="-2.35732">
        <ele>-2.2000000476837</ele>
        <time>2022-02-10T08:49:31.000Z</time>
      </trkpt>
      <trkpt lat="47.29256" lon="-2.35732">
        <ele>-2.2000000476837</ele>
        <time>2022-02-10T08:49:33.000Z</time>
      </trkpt>
      <trkpt lat="47.29259" lon="-2.35729">
        <ele>-2.2000000476837</ele>
        <time>2022-02-10T08:49:37.000Z</time>
      </trkpt>
      <trkpt lat="47.29261" lon="-2.3573">
        <ele>-2.2000000476837</ele>
        <time>2022-02-10T08:49:38.000Z</time>
      </trkpt>
      <trkpt lat="47.29274" lon="-2.35739">
        <ele>-2.2000000476837</ele>
        <time>2022-02-10T08:49:42.000Z</time>
      </trkpt>
      <trkpt lat="47.29302" lon="-2.35765">
        <ele>-2.2000000476837</ele>
        <time>2022-02-10T08:49:49.000Z</time>
      </trkpt>
      <trkpt lat="47.29335" lon="-2.35796">
        <ele>-2.2000000476837</ele>
        <time>2022-02-10T08:49:56.000Z</time>
      </trkpt>
      <trkpt lat="47.29366" lon="-2.35824">
        <ele>-2.2000000476837</ele>
        <time>2022-02-10T08:50:03.000Z</time>
      </trkpt>
      <trkpt lat="47.2937" lon="-2.35827">
        <ele>-2.2000000476837</ele>
        <time>2022-02-10T08:50:04.000Z</time>
      </trkpt>
      <trkpt lat="47.29401" lon="-2.35858">
        <ele>-2.2000000476837</ele>
        <time>2022-02-10T08:50:11.000Z</time>
      </trkpt>
      <trkpt lat="47.29434" lon="-2.35898">
        <ele>-2.2000000476837</ele>
        <time>2022-02-10T08:50:19.000Z</time>
      </trkpt>
      <trkpt lat="47.29438" lon="-2.35901">
        <ele>-2.2000000476837</ele>
        <time>2022-02-10T08:50:20.000Z</time>
      </trkpt>
      <trkpt lat="47.29452" lon="-2.35904">
        <ele>-2.2000000476837</ele>
        <time>2022-02-10T08:50:23.000Z</time>
      </trkpt>
      <trkpt lat="47.29466" lon="-2.35901">
        <ele>-2.2000000476837</ele>
        <time>2022-02-10T08:50:26.000Z</time>
      </trkpt>
      <trkpt lat="47.29474" lon="-2.359">
        <ele>-2.2000000476837</ele>
        <time>2022-02-10T08:50:28.000Z</time>
      </trkpt>
      <trkpt lat="47.29495" lon="-2.359">
        <ele>-2.2000000476837</ele>
        <time>2022-02-10T08:50:33.000Z</time>
      </trkpt>
      <trkpt lat="47.29499" lon="-2.35903">
        <ele>-2.2000000476837</ele>
        <time>2022-02-10T08:50:34.000Z</time>
      </trkpt>
      <trkpt lat="47.29504" lon="-2.35918">
        <ele>-2.2000000476837</ele>
        <time>2022-02-10T08:50:37.000Z</time>
      </trkpt>
      <trkpt lat="47.29506" lon="-2.35924">
        <ele>-2.2000000476837</ele>
        <time>2022-02-10T08:50:38.000Z</time>
      </trkpt>
      <trkpt lat="47.29513" lon="-2.35942">
        <ele>-2.2000000476837</ele>
        <time>2022-02-10T08:50:42.000Z</time>
      </trkpt>
      <trkpt lat="47.29516" lon="-2.35942">
        <ele>-2.2000000476837</ele>
        <time>2022-02-10T08:50:43.000Z</time>
      </trkpt>
      <trkpt lat="47.29532" lon="-2.35933">
        <ele>-2.2000000476837</ele>
        <time>2022-02-10T08:50:47.000Z</time>
      </trkpt>
      <trkpt lat="47.29536" lon="-2.3593">
        <ele>-2.2000000476837</ele>
        <time>2022-02-10T08:50:48.000Z</time>
      </trkpt>
      <trkpt lat="47.29555" lon="-2.3592">
        <ele>-2.2000000476837</ele>
        <time>2022-02-10T08:50:52.000Z</time>
      </trkpt>
      <trkpt lat="47.2956" lon="-2.35917">
        <ele>-2.2000000476837</ele>
        <time>2022-02-10T08:50:53.000Z</time>
      </trkpt>
      <trkpt lat="47.29595" lon="-2.35897">
        <ele>-2.2000000476837</ele>
        <time>2022-02-10T08:51:00.000Z</time>
      </trkpt>
      <trkpt lat="47.29616" lon="-2.35883">
        <ele>-2.2000000476837</ele>
        <time>2022-02-10T08:51:04.000Z</time>
      </trkpt>
      <trkpt lat="47.29622" lon="-2.3588">
        <ele>-2.2000000476837</ele>
        <time>2022-02-10T08:51:05.000Z</time>
      </trkpt>
      <trkpt lat="47.29649" lon="-2.3586">
        <ele>-2.2000000476837</ele>
        <time>2022-02-10T08:51:10.000Z</time>
      </trkpt>
      <trkpt lat="47.29653" lon="-2.35854">
        <ele>-2.2000000476837</ele>
        <time>2022-02-10T08:51:11.000Z</time>
      </trkpt>
      <trkpt lat="47.29661" lon="-2.35838">
        <ele>-2.2000000476837</ele>
        <time>2022-02-10T08:51:14.000Z</time>
      </trkpt>
      <trkpt lat="47.29677" lon="-2.35841">
        <ele>-2.2000000476837</ele>
        <time>2022-02-10T08:51:17.000Z</time>
      </trkpt>
      <trkpt lat="47.29696" lon="-2.35838">
        <ele>-2.2000000476837</ele>
        <time>2022-02-10T08:51:20.000Z</time>
      </trkpt>
      <trkpt lat="47.29702" lon="-2.35836">
        <ele>-2.2000000476837</ele>
        <time>2022-02-10T08:51:21.000Z</time>
      </trkpt>
      <trkpt lat="47.29735" lon="-2.35817">
        <ele>-2.2000000476837</ele>
        <time>2022-02-10T08:51:27.000Z</time>
      </trkpt>
      <trkpt lat="47.2975" lon="-2.35809">
        <ele>-1.7999999523163</ele>
        <time>2022-02-10T08:51:30.000Z</time>
      </trkpt>
      <trkpt lat="47.29755" lon="-2.35807">
        <ele>-1.3999999761581</ele>
        <time>2022-02-10T08:51:31.000Z</time>
      </trkpt>
      <trkpt lat="47.2976" lon="-2.35805">
        <ele>-1</ele>
        <time>2022-02-10T08:51:32.000Z</time>
      </trkpt>
      <trkpt lat="47.29765" lon="-2.35803">
        <ele>-0.60000002384186</ele>
        <time>2022-02-10T08:51:33.000Z</time>
      </trkpt>
      <trkpt lat="47.2977" lon="-2.35801">
        <ele>-0.20000000298023</ele>
        <time>2022-02-10T08:51:34.000Z</time>
      </trkpt>
      <trkpt lat="47.298" lon="-2.35791">
        <ele>-0.20000000298023</ele>
        <time>2022-02-10T08:51:40.000Z</time>
      </trkpt>
      <trkpt lat="47.29846" lon="-2.35776">
        <ele>-0.20000000298023</ele>
        <time>2022-02-10T08:51:48.000Z</time>
      </trkpt>
      <trkpt lat="47.29884" lon="-2.35761">
        <ele>-0.20000000298023</ele>
        <time>2022-02-10T08:51:54.000Z</time>
      </trkpt>
      <trkpt lat="47.29912" lon="-2.35743">
        <ele>-0.20000000298023</ele>
        <time>2022-02-10T08:51:59.000Z</time>
      </trkpt>
      <trkpt lat="47.29922" lon="-2.35734">
        <ele>-0.20000000298023</ele>
        <time>2022-02-10T08:52:01.000Z</time>
      </trkpt>
      <trkpt lat="47.29959" lon="-2.35706">
        <ele>-0.20000000298023</ele>
        <time>2022-02-10T08:52:08.000Z</time>
      </trkpt>
      <trkpt lat="47.29992" lon="-2.35686">
        <ele>-0.20000000298023</ele>
        <time>2022-02-10T08:52:14.000Z</time>
      </trkpt>
      <trkpt lat="47.30031" lon="-2.35662">
        <ele>-0.20000000298023</ele>
        <time>2022-02-10T08:52:21.000Z</time>
      </trkpt>
      <trkpt lat="47.30069" lon="-2.35638">
        <ele>-0.20000000298023</ele>
        <time>2022-02-10T08:52:28.000Z</time>
      </trkpt>
      <trkpt lat="47.30109" lon="-2.35614">
        <ele>-0.20000000298023</ele>
        <time>2022-02-10T08:52:36.000Z</time>
      </trkpt>
      <trkpt lat="47.30122" lon="-2.35602">
        <ele>-0.20000000298023</ele>
        <time>2022-02-10T08:52:39.000Z</time>
      </trkpt>
      <trkpt lat="47.30132" lon="-2.35595">
        <ele>-0.20000000298023</ele>
        <time>2022-02-10T08:52:41.000Z</time>
      </trkpt>
      <trkpt lat="47.30144" lon="-2.35593">
        <ele>-0.20000000298023</ele>
        <time>2022-02-10T08:52:43.000Z</time>
      </trkpt>
      <trkpt lat="47.3015" lon="-2.35591">
        <ele>-0.20000000298023</ele>
        <time>2022-02-10T08:52:44.000Z</time>
      </trkpt>
      <trkpt lat="47.30156" lon="-2.35588">
        <ele>-0.20000000298023</ele>
        <time>2022-02-10T08:52:45.000Z</time>
      </trkpt>
      <trkpt lat="47.30192" lon="-2.35573">
        <ele>-0.20000000298023</ele>
        <time>2022-02-10T08:52:51.000Z</time>
      </trkpt>
      <trkpt lat="47.3023" lon="-2.35572">
        <ele>-0.20000000298023</ele>
        <time>2022-02-10T08:52:57.000Z</time>
      </trkpt>
      <trkpt lat="47.30253" lon="-2.35576">
        <ele>-0.20000000298023</ele>
        <time>2022-02-10T08:53:01.000Z</time>
      </trkpt>
      <trkpt lat="47.30265" lon="-2.35576">
        <ele>-0.20000000298023</ele>
        <time>2022-02-10T08:53:03.000Z</time>
      </trkpt>
      <trkpt lat="47.30304" lon="-2.35585">
        <ele>-0.20000000298023</ele>
        <time>2022-02-10T08:53:09.000Z</time>
      </trkpt>
      <trkpt lat="47.30347" lon="-2.35592">
        <ele>-0.20000000298023</ele>
        <time>2022-02-10T08:53:16.000Z</time>
      </trkpt>
      <trkpt lat="47.30365" lon="-2.35592">
        <ele>-0.20000000298023</ele>
        <time>2022-02-10T08:53:19.000Z</time>
      </trkpt>
      <trkpt lat="47.30382" lon="-2.35586">
        <ele>-0.20000000298023</ele>
        <time>2022-02-10T08:53:22.000Z</time>
      </trkpt>
      <trkpt lat="47.3041" lon="-2.35564">
        <ele>-0.20000000298023</ele>
        <time>2022-02-10T08:53:27.000Z</time>
      </trkpt>
      <trkpt lat="47.30414" lon="-2.35558">
        <ele>-0.20000000298023</ele>
        <time>2022-02-10T08:53:28.000Z</time>
      </trkpt>
      <trkpt lat="47.30427" lon="-2.35538">
        <ele>-0.20000000298023</ele>
        <time>2022-02-10T08:53:31.000Z</time>
      </trkpt>
      <trkpt lat="47.30455" lon="-2.35509">
        <ele>-0.20000000298023</ele>
        <time>2022-02-10T08:53:36.000Z</time>
      </trkpt>
      <trkpt lat="47.30462" lon="-2.35506">
        <ele>-0.20000000298023</ele>
        <time>2022-02-10T08:53:37.000Z</time>
      </trkpt>
      <trkpt lat="47.30482" lon="-2.35498">
        <ele>-0.20000000298023</ele>
        <time>2022-02-10T08:53:40.000Z</time>
      </trkpt>
      <trkpt lat="47.30494" lon="-2.35488">
        <ele>-0.20000000298023</ele>
        <time>2022-02-10T08:53:42.000Z</time>
      </trkpt>
      <trkpt lat="47.30506" lon="-2.35477">
        <ele>-0.20000000298023</ele>
        <time>2022-02-10T08:53:44.000Z</time>
      </trkpt>
      <trkpt lat="47.30543" lon="-2.35439">
        <ele>-0.20000000298023</ele>
        <time>2022-02-10T08:53:51.000Z</time>
      </trkpt>
      <trkpt lat="47.30554" lon="-2.35428">
        <ele>0.20000000298023</ele>
        <time>2022-02-10T08:53:53.000Z</time>
      </trkpt>
      <trkpt lat="47.30558" lon="-2.35424">
        <ele>0.60000002384186</ele>
        <time>2022-02-10T08:53:54.000Z</time>
      </trkpt>
      <trkpt lat="47.30563" lon="-2.35419">
        <ele>1.2000000476837</ele>
        <time>2022-02-10T08:53:55.000Z</time>
      </trkpt>
      <trkpt lat="47.30568" lon="-2.35414">
        <ele>1.6000000238419</ele>
        <time>2022-02-10T08:53:56.000Z</time>
      </trkpt>
      <trkpt lat="47.30572" lon="-2.35409">
        <ele>2</ele>
        <time>2022-02-10T08:53:57.000Z</time>
      </trkpt>
      <trkpt lat="47.30608" lon="-2.35371">
        <ele>2</ele>
        <time>2022-02-10T08:54:04.000Z</time>
      </trkpt>
      <trkpt lat="47.3065" lon="-2.35332">
        <ele>2</ele>
        <time>2022-02-10T08:54:12.000Z</time>
      </trkpt>
      <trkpt lat="47.30683" lon="-2.35309">
        <ele>2</ele>
        <time>2022-02-10T08:54:18.000Z</time>
      </trkpt>
      <trkpt lat="47.30722" lon="-2.35283">
        <ele>2</ele>
        <time>2022-02-10T08:54:25.000Z</time>
      </trkpt>
      <trkpt lat="47.30753" lon="-2.3526">
        <ele>1.6000000238419</ele>
        <time>2022-02-10T08:54:30.000Z</time>
      </trkpt>
      <trkpt lat="47.3076" lon="-2.35255">
        <ele>1.2000000476837</ele>
        <time>2022-02-10T08:54:31.000Z</time>
      </trkpt>
      <trkpt lat="47.30766" lon="-2.35249">
        <ele>0.60000002384186</ele>
        <time>2022-02-10T08:54:32.000Z</time>
      </trkpt>
      <trkpt lat="47.30773" lon="-2.35243">
        <ele>0.20000000298023</ele>
        <time>2022-02-10T08:54:33.000Z</time>
      </trkpt>
      <trkpt lat="47.30779" lon="-2.35237">
        <ele>-0.20000000298023</ele>
        <time>2022-02-10T08:54:34.000Z</time>
      </trkpt>
      <trkpt lat="47.30792" lon="-2.35224">
        <ele>-0.60000002384186</ele>
        <time>2022-02-10T08:54:36.000Z</time>
      </trkpt>
      <trkpt lat="47.30798" lon="-2.35218">
        <ele>-1</ele>
        <time>2022-02-10T08:54:37.000Z</time>
      </trkpt>
      <trkpt lat="47.30805" lon="-2.35212">
        <ele>-1.3999999761581</ele>
        <time>2022-02-10T08:54:38.000Z</time>
      </trkpt>
      <trkpt lat="47.30811" lon="-2.35206">
        <ele>-1.7999999523163</ele>
        <time>2022-02-10T08:54:39.000Z</time>
      </trkpt>
      <trkpt lat="47.30818" lon="-2.35199">
        <ele>-2.2000000476837</ele>
        <time>2022-02-10T08:54:40.000Z</time>
      </trkpt>
      <trkpt lat="47.30845" lon="-2.35174">
        <ele>-2.5999999046326</ele>
        <time>2022-02-10T08:54:44.000Z</time>
      </trkpt>
      <trkpt lat="47.30852" lon="-2.35169">
        <ele>-3.2000000476837</ele>
        <time>2022-02-10T08:54:45.000Z</time>
      </trkpt>
      <trkpt lat="47.30859" lon="-2.35165">
        <ele>-3.5999999046326</ele>
        <time>2022-02-10T08:54:46.000Z</time>
      </trkpt>
      <trkpt lat="47.30866" lon="-2.35161">
        <ele>-4</ele>
        <time>2022-02-10T08:54:47.000Z</time>
      </trkpt>
      <trkpt lat="47.30873" lon="-2.35158">
        <ele>-4.4000000953674</ele>
        <time>2022-02-10T08:54:48.000Z</time>
      </trkpt>
      <trkpt lat="47.3088" lon="-2.35156">
        <ele>-4.4000000953674</ele>
        <time>2022-02-10T08:54:49.000Z</time>
      </trkpt>
      <trkpt lat="47.30914" lon="-2.35153">
        <ele>-4.4000000953674</ele>
        <time>2022-02-10T08:54:54.000Z</time>
      </trkpt>
      <trkpt lat="47.30955" lon="-2.35153">
        <ele>-4.4000000953674</ele>
        <time>2022-02-10T08:55:01.000Z</time>
      </trkpt>
      <trkpt lat="47.30972" lon="-2.3515">
        <ele>-4.4000000953674</ele>
        <time>2022-02-10T08:55:04.000Z</time>
      </trkpt>
      <trkpt lat="47.30988" lon="-2.35146">
        <ele>-4.4000000953674</ele>
        <time>2022-02-10T08:55:07.000Z</time>
      </trkpt>
      <trkpt lat="47.30998" lon="-2.3516">
        <ele>-4.4000000953674</ele>
        <time>2022-02-10T08:55:10.000Z</time>
      </trkpt>
      <trkpt lat="47.30999" lon="-2.35174">
        <ele>-4.4000000953674</ele>
        <time>2022-02-10T08:55:12.000Z</time>
      </trkpt>
      <trkpt lat="47.31001" lon="-2.3519">
        <ele>-4.4000000953674</ele>
        <time>2022-02-10T08:55:14.000Z</time>
      </trkpt>
      <trkpt lat="47.31006" lon="-2.35239">
        <ele>-4</ele>
        <time>2022-02-10T08:55:20.000Z</time>
      </trkpt>
      <trkpt lat="47.31006" lon="-2.35248">
        <ele>-3.5999999046326</ele>
        <time>2022-02-10T08:55:21.000Z</time>
      </trkpt>
      <trkpt lat="47.31007" lon="-2.35257">
        <ele>-3.2000000476837</ele>
        <time>2022-02-10T08:55:22.000Z</time>
      </trkpt>
      <trkpt lat="47.31009" lon="-2.35266">
        <ele>-2.7999999523163</ele>
        <time>2022-02-10T08:55:23.000Z</time>
      </trkpt>
      <trkpt lat="47.31012" lon="-2.35274">
        <ele>-2.4000000953674</ele>
        <time>2022-02-10T08:55:24.000Z</time>
      </trkpt>
      <trkpt lat="47.31016" lon="-2.35282">
        <ele>-2.4000000953674</ele>
        <time>2022-02-10T08:55:25.000Z</time>
      </trkpt>
      <trkpt lat="47.31035" lon="-2.35292">
        <ele>-2.4000000953674</ele>
        <time>2022-02-10T08:55:28.000Z</time>
      </trkpt>
      <trkpt lat="47.3104" lon="-2.35295">
        <ele>-2.4000000953674</ele>
        <time>2022-02-10T08:55:29.000Z</time>
      </trkpt>
      <trkpt lat="47.31046" lon="-2.35299">
        <ele>-2.4000000953674</ele>
        <time>2022-02-10T08:55:30.000Z</time>
      </trkpt>
      <trkpt lat="47.31053" lon="-2.35313">
        <ele>-2.4000000953674</ele>
        <time>2022-02-10T08:55:32.000Z</time>
      </trkpt>
      <trkpt lat="47.3106" lon="-2.35337">
        <ele>-2.4000000953674</ele>
        <time>2022-02-10T08:55:35.000Z</time>
      </trkpt>
      <trkpt lat="47.31063" lon="-2.35354">
        <ele>-2.4000000953674</ele>
        <time>2022-02-10T08:55:37.000Z</time>
      </trkpt>
      <trkpt lat="47.31064" lon="-2.35362">
        <ele>-2</ele>
        <time>2022-02-10T08:55:38.000Z</time>
      </trkpt>
      <trkpt lat="47.31064" lon="-2.3537">
        <ele>-1.6000000238419</ele>
        <time>2022-02-10T08:55:39.000Z</time>
      </trkpt>
      <trkpt lat="47.31065" lon="-2.35378">
        <ele>-1</ele>
        <time>2022-02-10T08:55:40.000Z</time>
      </trkpt>
      <trkpt lat="47.31066" lon="-2.35385">
        <ele>-0.60000002384186</ele>
        <time>2022-02-10T08:55:41.000Z</time>
      </trkpt>
      <trkpt lat="47.31066" lon="-2.35393">
        <ele>-0.20000000298023</ele>
        <time>2022-02-10T08:55:42.000Z</time>
      </trkpt>
      <trkpt lat="47.31067" lon="-2.354">
        <ele>-0.20000000298023</ele>
        <time>2022-02-10T08:55:43.000Z</time>
      </trkpt>
      <trkpt lat="47.31071" lon="-2.35428">
        <ele>0.60000002384186</ele>
        <time>2022-02-10T08:55:47.000Z</time>
      </trkpt>
      <trkpt lat="47.31075" lon="-2.35434">
        <ele>1</ele>
        <time>2022-02-10T08:55:48.000Z</time>
      </trkpt>
      <trkpt lat="47.31079" lon="-2.35439">
        <ele>1.3999999761581</ele>
        <time>2022-02-10T08:55:49.000Z</time>
      </trkpt>
      <trkpt lat="47.31083" lon="-2.35443">
        <ele>1.7999999523163</ele>
        <time>2022-02-10T08:55:50.000Z</time>
      </trkpt>
      <trkpt lat="47.31095" lon="-2.35458">
        <ele>1.7999999523163</ele>
        <time>2022-02-10T08:55:53.000Z</time>
      </trkpt>
      <trkpt lat="47.31118" lon="-2.35497">
        <ele>1.7999999523163</ele>
        <time>2022-02-10T08:55:59.000Z</time>
      </trkpt>
      <trkpt lat="47.31136" lon="-2.35548">
        <ele>1.7999999523163</ele>
        <time>2022-02-10T08:56:04.000Z</time>
      </trkpt>
      <trkpt lat="47.31162" lon="-2.35619">
        <ele>1.7999999523163</ele>
        <time>2022-02-10T08:56:11.000Z</time>
      </trkpt>
      <trkpt lat="47.31166" lon="-2.35628">
        <ele>1.3999999761581</ele>
        <time>2022-02-10T08:56:12.000Z</time>
      </trkpt>
      <trkpt lat="47.3117" lon="-2.35636">
        <ele>1</ele>
        <time>2022-02-10T08:56:13.000Z</time>
      </trkpt>
      <trkpt lat="47.31173" lon="-2.35645">
        <ele>0.60000002384186</ele>
        <time>2022-02-10T08:56:14.000Z</time>
      </trkpt>
      <trkpt lat="47.31177" lon="-2.35653">
        <ele>0.20000000298023</ele>
        <time>2022-02-10T08:56:15.000Z</time>
      </trkpt>
      <trkpt lat="47.3118" lon="-2.35661">
        <ele>-0.40000000596046</ele>
        <time>2022-02-10T08:56:16.000Z</time>
      </trkpt>
      <trkpt lat="47.31185" lon="-2.35668">
        <ele>-0.40000000596046</ele>
        <time>2022-02-10T08:56:17.000Z</time>
      </trkpt>
      <trkpt lat="47.3119" lon="-2.3567">
        <ele>-0.40000000596046</ele>
        <time>2022-02-10T08:56:18.000Z</time>
      </trkpt>
      <trkpt lat="47.31206" lon="-2.3566">
        <ele>-0.40000000596046</ele>
        <time>2022-02-10T08:56:21.000Z</time>
      </trkpt>
      <trkpt lat="47.31216" lon="-2.35648">
        <ele>-0.40000000596046</ele>
        <time>2022-02-10T08:56:23.000Z</time>
      </trkpt>
      <trkpt lat="47.31232" lon="-2.35632">
        <ele>-0.40000000596046</ele>
        <time>2022-02-10T08:56:26.000Z</time>
      </trkpt>
      <trkpt lat="47.31278" lon="-2.35591">
        <ele>-0.40000000596046</ele>
        <time>2022-02-10T08:56:34.000Z</time>
      </trkpt>
      <trkpt lat="47.31296" lon="-2.35577">
        <ele>-0.80000001192093</ele>
        <time>2022-02-10T08:56:37.000Z</time>
      </trkpt>
      <trkpt lat="47.31301" lon="-2.35572">
        <ele>-1.2000000476837</ele>
        <time>2022-02-10T08:56:38.000Z</time>
      </trkpt>
      <trkpt lat="47.31307" lon="-2.35569">
        <ele>-1.6000000238419</ele>
        <time>2022-02-10T08:56:39.000Z</time>
      </trkpt>
      <trkpt lat="47.31313" lon="-2.35565">
        <ele>-2</ele>
        <time>2022-02-10T08:56:40.000Z</time>
      </trkpt>
      <trkpt lat="47.31317" lon="-2.35562">
        <ele>-2.4000000953674</ele>
        <time>2022-02-10T08:56:41.000Z</time>
      </trkpt>
      <trkpt lat="47.31322" lon="-2.35559">
        <ele>-2.4000000953674</ele>
        <time>2022-02-10T08:56:42.000Z</time>
      </trkpt>
      <trkpt lat="47.31327" lon="-2.35561">
        <ele>-2.4000000953674</ele>
        <time>2022-02-10T08:56:44.000Z</time>
      </trkpt>
      <trkpt lat="47.31329" lon="-2.35563">
        <ele>-2.4000000953674</ele>
        <time>2022-02-10T08:56:45.000Z</time>
      </trkpt>
      <trkpt lat="47.31329" lon="-2.35567">
        <ele>-2.4000000953674</ele>
        <time>2022-02-10T08:56:46.000Z</time>
      </trkpt>
      <trkpt lat="47.31332" lon="-2.35584">
        <ele>-2.4000000953674</ele>
        <time>2022-02-10T08:56:49.000Z</time>
      </trkpt>
      <trkpt lat="47.31332" lon="-2.35598">
        <ele>-2.4000000953674</ele>
        <time>2022-02-10T08:56:51.000Z</time>
      </trkpt>
      <trkpt lat="47.31332" lon="-2.35628">
        <ele>-2.4000000953674</ele>
        <time>2022-02-10T08:56:55.000Z</time>
      </trkpt>
      <trkpt lat="47.31332" lon="-2.35644">
        <ele>-2.4000000953674</ele>
        <time>2022-02-10T08:56:57.000Z</time>
      </trkpt>
      <trkpt lat="47.31334" lon="-2.35674">
        <ele>-2.4000000953674</ele>
        <time>2022-02-10T08:57:01.000Z</time>
      </trkpt>
      <trkpt lat="47.31334" lon="-2.35716">
        <ele>-2.4000000953674</ele>
        <time>2022-02-10T08:57:06.000Z</time>
      </trkpt>
      <trkpt lat="47.31334" lon="-2.35724">
        <ele>-2.4000000953674</ele>
        <time>2022-02-10T08:57:07.000Z</time>
      </trkpt>
      <trkpt lat="47.31332" lon="-2.35757">
        <ele>-2.4000000953674</ele>
        <time>2022-02-10T08:57:11.000Z</time>
      </trkpt>
      <trkpt lat="47.31333" lon="-2.35765">
        <ele>-2.4000000953674</ele>
        <time>2022-02-10T08:57:12.000Z</time>
      </trkpt>
      <trkpt lat="47.31336" lon="-2.35794">
        <ele>-2.4000000953674</ele>
        <time>2022-02-10T08:57:15.000Z</time>
      </trkpt>
      <trkpt lat="47.31338" lon="-2.35811">
        <ele>-2.4000000953674</ele>
        <time>2022-02-10T08:57:17.000Z</time>
      </trkpt>
      <trkpt lat="47.31344" lon="-2.35854">
        <ele>-2.4000000953674</ele>
        <time>2022-02-10T08:57:22.000Z</time>
      </trkpt>
      <trkpt lat="47.3135" lon="-2.35871">
        <ele>-2.4000000953674</ele>
        <time>2022-02-10T08:57:24.000Z</time>
      </trkpt>
      <trkpt lat="47.31357" lon="-2.35887">
        <ele>-2.7999999523163</ele>
        <time>2022-02-10T08:57:26.000Z</time>
      </trkpt>
      <trkpt lat="47.3136" lon="-2.35894">
        <ele>-3.2000000476837</ele>
        <time>2022-02-10T08:57:27.000Z</time>
      </trkpt>
      <trkpt lat="47.31364" lon="-2.35901">
        <ele>-3.5999999046326</ele>
        <time>2022-02-10T08:57:28.000Z</time>
      </trkpt>
      <trkpt lat="47.31368" lon="-2.35909">
        <ele>-4</ele>
        <time>2022-02-10T08:57:29.000Z</time>
      </trkpt>
      <trkpt lat="47.31372" lon="-2.35916">
        <ele>-4.4000000953674</ele>
        <time>2022-02-10T08:57:30.000Z</time>
      </trkpt>
      <trkpt lat="47.31392" lon="-2.3595">
        <ele>-4.4000000953674</ele>
        <time>2022-02-10T08:57:35.000Z</time>
      </trkpt>
      <trkpt lat="47.31395" lon="-2.35957">
        <ele>-4.4000000953674</ele>
        <time>2022-02-10T08:57:36.000Z</time>
      </trkpt>
      <trkpt lat="47.31397" lon="-2.35965">
        <ele>-4.4000000953674</ele>
        <time>2022-02-10T08:57:37.000Z</time>
      </trkpt>
      <trkpt lat="47.31407" lon="-2.35991">
        <ele>-4.4000000953674</ele>
        <time>2022-02-10T08:57:41.000Z</time>
      </trkpt>
      <trkpt lat="47.31419" lon="-2.36021">
        <ele>-4.4000000953674</ele>
        <time>2022-02-10T08:57:47.000Z</time>
      </trkpt>
      <trkpt lat="47.3142" lon="-2.36026">
        <ele>-4</ele>
        <time>2022-02-10T08:57:48.000Z</time>
      </trkpt>
      <trkpt lat="47.31422" lon="-2.36032">
        <ele>-3.4000000953674</ele>
        <time>2022-02-10T08:57:49.000Z</time>
      </trkpt>
      <trkpt lat="47.31424" lon="-2.36037">
        <ele>-2.5999999046326</ele>
        <time>2022-02-10T08:57:50.000Z</time>
      </trkpt>
      <trkpt lat="47.31426" lon="-2.36042">
        <ele>-2.2000000476837</ele>
        <time>2022-02-10T08:57:51.000Z</time>
      </trkpt>
      <trkpt lat="47.3143" lon="-2.36053">
        <ele>-2.2000000476837</ele>
        <time>2022-02-10T08:57:53.000Z</time>
      </trkpt>
      <trkpt lat="47.31443" lon="-2.36089">
        <ele>-2.2000000476837</ele>
        <time>2022-02-10T08:57:59.000Z</time>
      </trkpt>
      <trkpt lat="47.31445" lon="-2.36096">
        <ele>-2.2000000476837</ele>
        <time>2022-02-10T08:58:00.000Z</time>
      </trkpt>
      <trkpt lat="47.3145" lon="-2.3611">
        <ele>-1.7999999523163</ele>
        <time>2022-02-10T08:58:02.000Z</time>
      </trkpt>
      <trkpt lat="47.31451" lon="-2.36117">
        <ele>-1.3999999761581</ele>
        <time>2022-02-10T08:58:03.000Z</time>
      </trkpt>
      <trkpt lat="47.31453" lon="-2.36125">
        <ele>-1</ele>
        <time>2022-02-10T08:58:04.000Z</time>
      </trkpt>
      <trkpt lat="47.31455" lon="-2.36133">
        <ele>-0.60000002384186</ele>
        <time>2022-02-10T08:58:05.000Z</time>
      </trkpt>
      <trkpt lat="47.31456" lon="-2.3614">
        <ele>-0.20000000298023</ele>
        <time>2022-02-10T08:58:06.000Z</time>
      </trkpt>
      <trkpt lat="47.31467" lon="-2.36178">
        <ele>-0.20000000298023</ele>
        <time>2022-02-10T08:58:11.000Z</time>
      </trkpt>
      <trkpt lat="47.31482" lon="-2.36253">
        <ele>-0.20000000298023</ele>
        <time>2022-02-10T08:58:20.000Z</time>
      </trkpt>
      <trkpt lat="47.31485" lon="-2.36267">
        <ele>-0.60000002384186</ele>
        <time>2022-02-10T08:58:22.000Z</time>
      </trkpt>
      <trkpt lat="47.31486" lon="-2.36273">
        <ele>-1</ele>
        <time>2022-02-10T08:58:23.000Z</time>
      </trkpt>
      <trkpt lat="47.31487" lon="-2.3628">
        <ele>-1.3999999761581</ele>
        <time>2022-02-10T08:58:24.000Z</time>
      </trkpt>
      <trkpt lat="47.31488" lon="-2.36286">
        <ele>-1.7999999523163</ele>
        <time>2022-02-10T08:58:25.000Z</time>
      </trkpt>
      <trkpt lat="47.31489" lon="-2.36293">
        <ele>-2.2000000476837</ele>
        <time>2022-02-10T08:58:26.000Z</time>
      </trkpt>
      <trkpt lat="47.31495" lon="-2.36335">
        <ele>-2.2000000476837</ele>
        <time>2022-02-10T08:58:32.000Z</time>
      </trkpt>
      <trkpt lat="47.31493" lon="-2.36357">
        <ele>-2.5999999046326</ele>
        <time>2022-02-10T08:58:36.000Z</time>
      </trkpt>
      <trkpt lat="47.31493" lon="-2.36362">
        <ele>-3</ele>
        <time>2022-02-10T08:58:37.000Z</time>
      </trkpt>
      <trkpt lat="47.31493" lon="-2.36367">
        <ele>-3.5999999046326</ele>
        <time>2022-02-10T08:58:38.000Z</time>
      </trkpt>
      <trkpt lat="47.31493" lon="-2.36373">
        <ele>-4</ele>
        <time>2022-02-10T08:58:39.000Z</time>
      </trkpt>
      <trkpt lat="47.31493" lon="-2.36379">
        <ele>-4.4000000953674</ele>
        <time>2022-02-10T08:58:40.000Z</time>
      </trkpt>
      <trkpt lat="47.31494" lon="-2.36402">
        <ele>-4.4000000953674</ele>
        <time>2022-02-10T08:58:43.000Z</time>
      </trkpt>
      <trkpt lat="47.31495" lon="-2.3641">
        <ele>-4.4000000953674</ele>
        <time>2022-02-10T08:58:44.000Z</time>
      </trkpt>
      <trkpt lat="47.31497" lon="-2.36426">
        <ele>-4.8000001907349</ele>
        <time>2022-02-10T08:58:46.000Z</time>
      </trkpt>
      <trkpt lat="47.31498" lon="-2.36434">
        <ele>-5.4000000953674</ele>
        <time>2022-02-10T08:58:47.000Z</time>
      </trkpt>
      <trkpt lat="47.31499" lon="-2.36442">
        <ele>-5.8000001907349</ele>
        <time>2022-02-10T08:58:48.000Z</time>
      </trkpt>
      <trkpt lat="47.31499" lon="-2.3645">
        <ele>-6.1999998092651</ele>
        <time>2022-02-10T08:58:49.000Z</time>
      </trkpt>
      <trkpt lat="47.315" lon="-2.36457">
        <ele>-6.8000001907349</ele>
        <time>2022-02-10T08:58:50.000Z</time>
      </trkpt>
      <trkpt lat="47.31501" lon="-2.36485">
        <ele>-6.8000001907349</ele>
        <time>2022-02-10T08:58:54.000Z</time>
      </trkpt>
      <trkpt lat="47.31501" lon="-2.36509">
        <ele>-6.8000001907349</ele>
        <time>2022-02-10T08:58:58.000Z</time>
      </trkpt>
      <trkpt lat="47.31501" lon="-2.36513">
        <ele>-7.1999998092651</ele>
        <time>2022-02-10T08:58:59.000Z</time>
      </trkpt>
      <trkpt lat="47.31501" lon="-2.36516">
        <ele>-7.5999999046326</ele>
        <time>2022-02-10T08:59:00.000Z</time>
      </trkpt>
      <trkpt lat="47.31501" lon="-2.36519">
        <ele>-8</ele>
        <time>2022-02-10T08:59:01.000Z</time>
      </trkpt>
      <trkpt lat="47.31501" lon="-2.36522">
        <ele>-8.3999996185303</ele>
        <time>2022-02-10T08:59:02.000Z</time>
      </trkpt>
      <trkpt lat="47.31501" lon="-2.36525">
        <ele>-8.8000001907349</ele>
        <time>2022-02-10T08:59:03.000Z</time>
      </trkpt>
      <trkpt lat="47.315" lon="-2.36536">
        <ele>-8.8000001907349</ele>
        <time>2022-02-10T08:59:07.000Z</time>
      </trkpt>
      <trkpt lat="47.31502" lon="-2.36556">
        <ele>-8.8000001907349</ele>
        <time>2022-02-10T08:59:13.000Z</time>
      </trkpt>
      <trkpt lat="47.31502" lon="-2.36561">
        <ele>-8.8000001907349</ele>
        <time>2022-02-10T08:59:14.000Z</time>
      </trkpt>
      <trkpt lat="47.315" lon="-2.36573">
        <ele>-8.8000001907349</ele>
        <time>2022-02-10T08:59:17.000Z</time>
      </trkpt>
      <trkpt lat="47.31499" lon="-2.36576">
        <ele>-8.8000001907349</ele>
        <time>2022-02-10T08:59:18.000Z</time>
      </trkpt>
      <trkpt lat="47.31496" lon="-2.36593">
        <ele>-8.8000001907349</ele>
        <time>2022-02-10T08:59:22.000Z</time>
      </trkpt>
      <trkpt lat="47.31501" lon="-2.3661">
        <ele>-8.8000001907349</ele>
        <time>2022-02-10T08:59:26.000Z</time>
      </trkpt>
      <trkpt lat="47.31508" lon="-2.36641">
        <ele>-8.8000001907349</ele>
        <time>2022-02-10T08:59:31.000Z</time>
      </trkpt>
      <trkpt lat="47.31516" lon="-2.36671">
        <ele>-8.8000001907349</ele>
        <time>2022-02-10T08:59:37.000Z</time>
      </trkpt>
      <trkpt lat="47.31525" lon="-2.36708">
        <ele>-8.8000001907349</ele>
        <time>2022-02-10T08:59:43.000Z</time>
      </trkpt>
      <trkpt lat="47.31536" lon="-2.36748">
        <ele>-8.8000001907349</ele>
        <time>2022-02-10T08:59:49.000Z</time>
      </trkpt>
      <trkpt lat="47.31538" lon="-2.36755">
        <ele>-8.8000001907349</ele>
        <time>2022-02-10T08:59:50.000Z</time>
      </trkpt>
      <trkpt lat="47.31541" lon="-2.36766">
        <ele>-8.8000001907349</ele>
        <time>2022-02-10T08:59:52.000Z</time>
      </trkpt>
      <trkpt lat="47.31544" lon="-2.36778">
        <ele>-8.3999996185303</ele>
        <time>2022-02-10T08:59:54.000Z</time>
      </trkpt>
      <trkpt lat="47.31545" lon="-2.36784">
        <ele>-7.5999999046326</ele>
        <time>2022-02-10T08:59:55.000Z</time>
      </trkpt>
      <trkpt lat="47.31546" lon="-2.36789">
        <ele>-7.1999998092651</ele>
        <time>2022-02-10T08:59:56.000Z</time>
      </trkpt>
      <trkpt lat="47.31547" lon="-2.36795">
        <ele>-6.8000001907349</ele>
        <time>2022-02-10T08:59:57.000Z</time>
      </trkpt>
      <trkpt lat="47.31554" lon="-2.36822">
        <ele>-6.4000000953674</ele>
        <time>2022-02-10T09:00:02.000Z</time>
      </trkpt>
      <trkpt lat="47.31555" lon="-2.36828">
        <ele>-6</ele>
        <time>2022-02-10T09:00:03.000Z</time>
      </trkpt>
      <trkpt lat="47.31557" lon="-2.36835">
        <ele>-5.5999999046326</ele>
        <time>2022-02-10T09:00:04.000Z</time>
      </trkpt>
      <trkpt lat="47.31558" lon="-2.36841">
        <ele>-5.1999998092651</ele>
        <time>2022-02-10T09:00:05.000Z</time>
      </trkpt>
      <trkpt lat="47.3156" lon="-2.36847">
        <ele>-4.8000001907349</ele>
        <time>2022-02-10T09:00:06.000Z</time>
      </trkpt>
      <trkpt lat="47.31571" lon="-2.36883">
        <ele>-4.8000001907349</ele>
        <time>2022-02-10T09:00:12.000Z</time>
      </trkpt>
      <trkpt lat="47.31572" lon="-2.36889">
        <ele>-4.4000000953674</ele>
        <time>2022-02-10T09:00:13.000Z</time>
      </trkpt>
      <trkpt lat="47.31574" lon="-2.36894">
        <ele>-4</ele>
        <time>2022-02-10T09:00:14.000Z</time>
      </trkpt>
      <trkpt lat="47.31575" lon="-2.369">
        <ele>-3.5999999046326</ele>
        <time>2022-02-10T09:00:15.000Z</time>
      </trkpt>
      <trkpt lat="47.31577" lon="-2.36906">
        <ele>-3</ele>
        <time>2022-02-10T09:00:16.000Z</time>
      </trkpt>
      <trkpt lat="47.31579" lon="-2.36911">
        <ele>-2.5999999046326</ele>
        <time>2022-02-10T09:00:17.000Z</time>
      </trkpt>
      <trkpt lat="47.31584" lon="-2.36928">
        <ele>-2.5999999046326</ele>
        <time>2022-02-10T09:00:20.000Z</time>
      </trkpt>
      <trkpt lat="47.3159" lon="-2.36945">
        <ele>-2.2000000476837</ele>
        <time>2022-02-10T09:00:23.000Z</time>
      </trkpt>
      <trkpt lat="47.31592" lon="-2.3695">
        <ele>-1.7999999523163</ele>
        <time>2022-02-10T09:00:24.000Z</time>
      </trkpt>
      <trkpt lat="47.31594" lon="-2.36956">
        <ele>-1.3999999761581</ele>
        <time>2022-02-10T09:00:25.000Z</time>
      </trkpt>
      <trkpt lat="47.31595" lon="-2.36961">
        <ele>-1</ele>
        <time>2022-02-10T09:00:26.000Z</time>
      </trkpt>
      <trkpt lat="47.31596" lon="-2.36967">
        <ele>-0.60000002384186</ele>
        <time>2022-02-10T09:00:27.000Z</time>
      </trkpt>
      <trkpt lat="47.316" lon="-2.36979">
        <ele>-0.60000002384186</ele>
        <time>2022-02-10T09:00:29.000Z</time>
      </trkpt>
      <trkpt lat="47.31605" lon="-2.36995">
        <ele>-0.60000002384186</ele>
        <time>2022-02-10T09:00:32.000Z</time>
      </trkpt>
      <trkpt lat="47.31615" lon="-2.37026">
        <ele>-0.60000002384186</ele>
        <time>2022-02-10T09:00:38.000Z</time>
      </trkpt>
      <trkpt lat="47.31617" lon="-2.37031">
        <ele>-0.20000000298023</ele>
        <time>2022-02-10T09:00:39.000Z</time>
      </trkpt>
      <trkpt lat="47.31618" lon="-2.37036">
        <ele>0.20000000298023</ele>
        <time>2022-02-10T09:00:40.000Z</time>
      </trkpt>
      <trkpt lat="47.3162" lon="-2.37041">
        <ele>0.60000002384186</ele>
        <time>2022-02-10T09:00:41.000Z</time>
      </trkpt>
      <trkpt lat="47.31622" lon="-2.37046">
        <ele>1</ele>
        <time>2022-02-10T09:00:42.000Z</time>
      </trkpt>
      <trkpt lat="47.31624" lon="-2.3705">
        <ele>1.3999999761581</ele>
        <time>2022-02-10T09:00:43.000Z</time>
      </trkpt>
      <trkpt lat="47.3164" lon="-2.37081">
        <ele>1.3999999761581</ele>
        <time>2022-02-10T09:00:49.000Z</time>
      </trkpt>
      <trkpt lat="47.31657" lon="-2.37114">
        <ele>1.3999999761581</ele>
        <time>2022-02-10T09:00:55.000Z</time>
      </trkpt>
      <trkpt lat="47.31663" lon="-2.37124">
        <ele>1.3999999761581</ele>
        <time>2022-02-10T09:00:57.000Z</time>
      </trkpt>
      <trkpt lat="47.31669" lon="-2.37138">
        <ele>1.3999999761581</ele>
        <time>2022-02-10T09:01:00.000Z</time>
      </trkpt>
      <trkpt lat="47.31679" lon="-2.37161">
        <ele>1.3999999761581</ele>
        <time>2022-02-10T09:01:06.000Z</time>
      </trkpt>
      <trkpt lat="47.31687" lon="-2.37184">
        <ele>1.3999999761581</ele>
        <time>2022-02-10T09:01:12.000Z</time>
      </trkpt>
      <trkpt lat="47.31691" lon="-2.37207">
        <ele>1.3999999761581</ele>
        <time>2022-02-10T09:01:19.000Z</time>
      </trkpt>
      <trkpt lat="47.31687" lon="-2.37223">
        <ele>1.3999999761581</ele>
        <time>2022-02-10T09:01:26.000Z</time>
      </trkpt>
      <trkpt lat="47.31679" lon="-2.37234">
        <ele>1.3999999761581</ele>
        <time>2022-02-10T09:01:32.000Z</time>
      </trkpt>
      <trkpt lat="47.31667" lon="-2.37245">
        <ele>1.3999999761581</ele>
        <time>2022-02-10T09:01:38.000Z</time>
      </trkpt>
      <trkpt lat="47.31655" lon="-2.37256">
        <ele>1.3999999761581</ele>
        <time>2022-02-10T09:01:45.000Z</time>
      </trkpt>
      <trkpt lat="47.31644" lon="-2.37265">
        <ele>1.3999999761581</ele>
        <time>2022-02-10T09:01:51.000Z</time>
      </trkpt>
      <trkpt lat="47.31632" lon="-2.37278">
        <ele>1.3999999761581</ele>
        <time>2022-02-10T09:01:55.000Z</time>
      </trkpt>
      <trkpt lat="47.31629" lon="-2.37283">
        <ele>1.3999999761581</ele>
        <time>2022-02-10T09:01:56.000Z</time>
      </trkpt>
      <trkpt lat="47.31621" lon="-2.373">
        <ele>1.3999999761581</ele>
        <time>2022-02-10T09:01:59.000Z</time>
      </trkpt>
      <trkpt lat="47.31621" lon="-2.3733">
        <ele>1.3999999761581</ele>
        <time>2022-02-10T09:02:03.000Z</time>
      </trkpt>
      <trkpt lat="47.31624" lon="-2.37345">
        <ele>1.3999999761581</ele>
        <time>2022-02-10T09:02:05.000Z</time>
      </trkpt>
      <trkpt lat="47.31628" lon="-2.3736">
        <ele>1.3999999761581</ele>
        <time>2022-02-10T09:02:07.000Z</time>
      </trkpt>
      <trkpt lat="47.31633" lon="-2.37382">
        <ele>1.3999999761581</ele>
        <time>2022-02-10T09:02:10.000Z</time>
      </trkpt>
      <trkpt lat="47.31638" lon="-2.37427">
        <ele>1.3999999761581</ele>
        <time>2022-02-10T09:02:16.000Z</time>
      </trkpt>
      <trkpt lat="47.31641" lon="-2.37493">
        <ele>1.3999999761581</ele>
        <time>2022-02-10T09:02:24.000Z</time>
      </trkpt>
      <trkpt lat="47.31629" lon="-2.37532">
        <ele>1.3999999761581</ele>
        <time>2022-02-10T09:02:29.000Z</time>
      </trkpt>
      <trkpt lat="47.31621" lon="-2.37554">
        <ele>1.3999999761581</ele>
        <time>2022-02-10T09:02:32.000Z</time>
      </trkpt>
      <trkpt lat="47.31617" lon="-2.3757">
        <ele>1.3999999761581</ele>
        <time>2022-02-10T09:02:34.000Z</time>
      </trkpt>
      <trkpt lat="47.31615" lon="-2.37595">
        <ele>1.3999999761581</ele>
        <time>2022-02-10T09:02:37.000Z</time>
      </trkpt>
      <trkpt lat="47.31616" lon="-2.37613">
        <ele>1.3999999761581</ele>
        <time>2022-02-10T09:02:39.000Z</time>
      </trkpt>
      <trkpt lat="47.31617" lon="-2.37629">
        <ele>1.3999999761581</ele>
        <time>2022-02-10T09:02:41.000Z</time>
      </trkpt>
      <trkpt lat="47.31623" lon="-2.37644">
        <ele>1.3999999761581</ele>
        <time>2022-02-10T09:02:43.000Z</time>
      </trkpt>
      <trkpt lat="47.31632" lon="-2.37654">
        <ele>1</ele>
        <time>2022-02-10T09:02:45.000Z</time>
      </trkpt>
      <trkpt lat="47.31638" lon="-2.37658">
        <ele>0.60000002384186</ele>
        <time>2022-02-10T09:02:46.000Z</time>
      </trkpt>
      <trkpt lat="47.31643" lon="-2.3766">
        <ele>0.20000000298023</ele>
        <time>2022-02-10T09:02:47.000Z</time>
      </trkpt>
      <trkpt lat="47.31648" lon="-2.37663">
        <ele>-0.60000002384186</ele>
        <time>2022-02-10T09:02:48.000Z</time>
      </trkpt>
      <trkpt lat="47.31653" lon="-2.37667">
        <ele>-0.60000002384186</ele>
        <time>2022-02-10T09:02:49.000Z</time>
      </trkpt>
      <trkpt lat="47.31662" lon="-2.37677">
        <ele>-0.60000002384186</ele>
        <time>2022-02-10T09:02:51.000Z</time>
      </trkpt>
      <trkpt lat="47.31692" lon="-2.37708">
        <ele>-0.60000002384186</ele>
        <time>2022-02-10T09:02:57.000Z</time>
      </trkpt>
      <trkpt lat="47.31698" lon="-2.37711">
        <ele>-0.60000002384186</ele>
        <time>2022-02-10T09:02:58.000Z</time>
      </trkpt>
      <trkpt lat="47.31723" lon="-2.37713">
        <ele>-0.60000002384186</ele>
        <time>2022-02-10T09:03:02.000Z</time>
      </trkpt>
      <trkpt lat="47.3173" lon="-2.37711">
        <ele>-0.60000002384186</ele>
        <time>2022-02-10T09:03:03.000Z</time>
      </trkpt>
      <trkpt lat="47.31742" lon="-2.37706">
        <ele>-0.60000002384186</ele>
        <time>2022-02-10T09:03:05.000Z</time>
      </trkpt>
      <trkpt lat="47.31753" lon="-2.37698">
        <ele>-0.60000002384186</ele>
        <time>2022-02-10T09:03:07.000Z</time>
      </trkpt>
      <trkpt lat="47.31779" lon="-2.37672">
        <ele>-0.60000002384186</ele>
        <time>2022-02-10T09:03:12.000Z</time>
      </trkpt>
      <trkpt lat="47.31784" lon="-2.37667">
        <ele>-0.60000002384186</ele>
        <time>2022-02-10T09:03:13.000Z</time>
      </trkpt>
      <trkpt lat="47.31795" lon="-2.37659">
        <ele>-0.60000002384186</ele>
        <time>2022-02-10T09:03:15.000Z</time>
      </trkpt>
      <trkpt lat="47.31813" lon="-2.37651">
        <ele>-0.60000002384186</ele>
        <time>2022-02-10T09:03:18.000Z</time>
      </trkpt>
      <trkpt lat="47.31825" lon="-2.37664">
        <ele>-0.60000002384186</ele>
        <time>2022-02-10T09:03:21.000Z</time>
      </trkpt>
      <trkpt lat="47.31823" lon="-2.37688">
        <ele>-0.60000002384186</ele>
        <time>2022-02-10T09:03:24.000Z</time>
      </trkpt>
      <trkpt lat="47.31815" lon="-2.37739">
        <ele>-0.60000002384186</ele>
        <time>2022-02-10T09:03:30.000Z</time>
      </trkpt>
      <trkpt lat="47.31808" lon="-2.37819">
        <ele>-0.60000002384186</ele>
        <time>2022-02-10T09:03:38.000Z</time>
      </trkpt>
      <trkpt lat="47.31803" lon="-2.37861">
        <ele>-1</ele>
        <time>2022-02-10T09:03:42.000Z</time>
      </trkpt>
      <trkpt lat="47.31802" lon="-2.37872">
        <ele>-1.6000000238419</ele>
        <time>2022-02-10T09:03:43.000Z</time>
      </trkpt>
      <trkpt lat="47.31801" lon="-2.37883">
        <ele>-2</ele>
        <time>2022-02-10T09:03:44.000Z</time>
      </trkpt>
      <trkpt lat="47.31799" lon="-2.37894">
        <ele>-2.4000000953674</ele>
        <time>2022-02-10T09:03:45.000Z</time>
      </trkpt>
      <trkpt lat="47.31798" lon="-2.37905">
        <ele>-2.7999999523163</ele>
        <time>2022-02-10T09:03:46.000Z</time>
      </trkpt>
      <trkpt lat="47.31795" lon="-2.37952">
        <ele>-3.2000000476837</ele>
        <time>2022-02-10T09:03:50.000Z</time>
      </trkpt>
      <trkpt lat="47.31795" lon="-2.37964">
        <ele>-3.5999999046326</ele>
        <time>2022-02-10T09:03:51.000Z</time>
      </trkpt>
      <trkpt lat="47.31795" lon="-2.37976">
        <ele>-4</ele>
        <time>2022-02-10T09:03:52.000Z</time>
      </trkpt>
      <trkpt lat="47.31795" lon="-2.37987">
        <ele>-4.4000000953674</ele>
        <time>2022-02-10T09:03:53.000Z</time>
      </trkpt>
      <trkpt lat="47.31795" lon="-2.37999">
        <ele>-4.8000001907349</ele>
        <time>2022-02-10T09:03:54.000Z</time>
      </trkpt>
      <trkpt lat="47.31796" lon="-2.38034">
        <ele>-5.1999998092651</ele>
        <time>2022-02-10T09:03:57.000Z</time>
      </trkpt>
      <trkpt lat="47.31797" lon="-2.38045">
        <ele>-5.5999999046326</ele>
        <time>2022-02-10T09:03:58.000Z</time>
      </trkpt>
      <trkpt lat="47.31798" lon="-2.38056">
        <ele>-6.1999998092651</ele>
        <time>2022-02-10T09:03:59.000Z</time>
      </trkpt>
      <trkpt lat="47.31798" lon="-2.38066">
        <ele>-6.5999999046326</ele>
        <time>2022-02-10T09:04:00.000Z</time>
      </trkpt>
      <trkpt lat="47.31799" lon="-2.38077">
        <ele>-7</ele>
        <time>2022-02-10T09:04:01.000Z</time>
      </trkpt>
      <trkpt lat="47.31802" lon="-2.38137">
        <ele>-7</ele>
        <time>2022-02-10T09:04:07.000Z</time>
      </trkpt>
      <trkpt lat="47.31806" lon="-2.38202">
        <ele>-7</ele>
        <time>2022-02-10T09:04:14.000Z</time>
      </trkpt>
      <trkpt lat="47.31808" lon="-2.38264">
        <ele>-6.5999999046326</ele>
        <time>2022-02-10T09:04:21.000Z</time>
      </trkpt>
      <trkpt lat="47.31809" lon="-2.38273">
        <ele>-6</ele>
        <time>2022-02-10T09:04:22.000Z</time>
      </trkpt>
      <trkpt lat="47.31809" lon="-2.38281">
        <ele>-5.5999999046326</ele>
        <time>2022-02-10T09:04:23.000Z</time>
      </trkpt>
      <trkpt lat="47.31809" lon="-2.38289">
        <ele>-5.1999998092651</ele>
        <time>2022-02-10T09:04:24.000Z</time>
      </trkpt>
      <trkpt lat="47.31809" lon="-2.38297">
        <ele>-4.8000001907349</ele>
        <time>2022-02-10T09:04:25.000Z</time>
      </trkpt>
      <trkpt lat="47.3181" lon="-2.38331">
        <ele>-4.8000001907349</ele>
        <time>2022-02-10T09:04:29.000Z</time>
      </trkpt>
      <trkpt lat="47.3181" lon="-2.38339">
        <ele>-4.4000000953674</ele>
        <time>2022-02-10T09:04:30.000Z</time>
      </trkpt>
      <trkpt lat="47.3181" lon="-2.38348">
        <ele>-4</ele>
        <time>2022-02-10T09:04:31.000Z</time>
      </trkpt>
      <trkpt lat="47.3181" lon="-2.38356">
        <ele>-3.4000000953674</ele>
        <time>2022-02-10T09:04:32.000Z</time>
      </trkpt>
      <trkpt lat="47.3181" lon="-2.38364">
        <ele>-3</ele>
        <time>2022-02-10T09:04:33.000Z</time>
      </trkpt>
      <trkpt lat="47.3181" lon="-2.38372">
        <ele>-2.5999999046326</ele>
        <time>2022-02-10T09:04:34.000Z</time>
      </trkpt>
      <trkpt lat="47.3181" lon="-2.38397">
        <ele>-2.5999999046326</ele>
        <time>2022-02-10T09:04:37.000Z</time>
      </trkpt>
      <trkpt lat="47.31811" lon="-2.38464">
        <ele>-2.2000000476837</ele>
        <time>2022-02-10T09:04:45.000Z</time>
      </trkpt>
      <trkpt lat="47.31811" lon="-2.38471">
        <ele>-1.7999999523163</ele>
        <time>2022-02-10T09:04:46.000Z</time>
      </trkpt>
      <trkpt lat="47.31811" lon="-2.38479">
        <ele>-1.2000000476837</ele>
        <time>2022-02-10T09:04:47.000Z</time>
      </trkpt>
      <trkpt lat="47.31811" lon="-2.38487">
        <ele>-0.80000001192093</ele>
        <time>2022-02-10T09:04:48.000Z</time>
      </trkpt>
      <trkpt lat="47.31811" lon="-2.38494">
        <ele>-0.40000000596046</ele>
        <time>2022-02-10T09:04:49.000Z</time>
      </trkpt>
      <trkpt lat="47.3181" lon="-2.38526">
        <ele>-0.40000000596046</ele>
        <time>2022-02-10T09:04:53.000Z</time>
      </trkpt>
      <trkpt lat="47.31809" lon="-2.38534">
        <ele>-0.40000000596046</ele>
        <time>2022-02-10T09:04:54.000Z</time>
      </trkpt>
      <trkpt lat="47.31809" lon="-2.38543">
        <ele>-0.40000000596046</ele>
        <time>2022-02-10T09:04:55.000Z</time>
      </trkpt>
      <trkpt lat="47.31811" lon="-2.38576">
        <ele>-0.40000000596046</ele>
        <time>2022-02-10T09:04:59.000Z</time>
      </trkpt>
      <trkpt lat="47.31814" lon="-2.38628">
        <ele>-0.40000000596046</ele>
        <time>2022-02-10T09:05:05.000Z</time>
      </trkpt>
      <trkpt lat="47.31819" lon="-2.38699">
        <ele>-0.40000000596046</ele>
        <time>2022-02-10T09:05:13.000Z</time>
      </trkpt>
      <trkpt lat="47.31821" lon="-2.38772">
        <ele>-0.40000000596046</ele>
        <time>2022-02-10T09:05:21.000Z</time>
      </trkpt>
      <trkpt lat="47.31823" lon="-2.3882">
        <ele>-0.40000000596046</ele>
        <time>2022-02-10T09:05:26.000Z</time>
      </trkpt>
      <trkpt lat="47.31824" lon="-2.38829">
        <ele>-0.40000000596046</ele>
        <time>2022-02-10T09:05:27.000Z</time>
      </trkpt>
      <trkpt lat="47.3184" lon="-2.389">
        <ele>-0.40000000596046</ele>
        <time>2022-02-10T09:05:35.000Z</time>
      </trkpt>
      <trkpt lat="47.31859" lon="-2.38963">
        <ele>-0.40000000596046</ele>
        <time>2022-02-10T09:05:42.000Z</time>
      </trkpt>
      <trkpt lat="47.31866" lon="-2.3898">
        <ele>-0.80000001192093</ele>
        <time>2022-02-10T09:05:44.000Z</time>
      </trkpt>
      <trkpt lat="47.31869" lon="-2.38989">
        <ele>-1.2000000476837</ele>
        <time>2022-02-10T09:05:45.000Z</time>
      </trkpt>
      <trkpt lat="47.31873" lon="-2.38997">
        <ele>-1.6000000238419</ele>
        <time>2022-02-10T09:05:46.000Z</time>
      </trkpt>
      <trkpt lat="47.31876" lon="-2.39005">
        <ele>-2</ele>
        <time>2022-02-10T09:05:47.000Z</time>
      </trkpt>
      <trkpt lat="47.3188" lon="-2.39013">
        <ele>-2.4000000953674</ele>
        <time>2022-02-10T09:05:48.000Z</time>
      </trkpt>
      <trkpt lat="47.31882" lon="-2.39021">
        <ele>-2.4000000953674</ele>
        <time>2022-02-10T09:05:49.000Z</time>
      </trkpt>
      <trkpt lat="47.31899" lon="-2.39078">
        <ele>-2.4000000953674</ele>
        <time>2022-02-10T09:05:56.000Z</time>
      </trkpt>
      <trkpt lat="47.31919" lon="-2.39143">
        <ele>-2.4000000953674</ele>
        <time>2022-02-10T09:06:04.000Z</time>
      </trkpt>
      <trkpt lat="47.31934" lon="-2.3919">
        <ele>-2.4000000953674</ele>
        <time>2022-02-10T09:06:10.000Z</time>
      </trkpt>
      <trkpt lat="47.3195" lon="-2.39246">
        <ele>-2.4000000953674</ele>
        <time>2022-02-10T09:06:17.000Z</time>
      </trkpt>
      <trkpt lat="47.31952" lon="-2.39254">
        <ele>-2</ele>
        <time>2022-02-10T09:06:18.000Z</time>
      </trkpt>
      <trkpt lat="47.31954" lon="-2.39262">
        <ele>-1.6000000238419</ele>
        <time>2022-02-10T09:06:19.000Z</time>
      </trkpt>
      <trkpt lat="47.31957" lon="-2.3927">
        <ele>-1.2000000476837</ele>
        <time>2022-02-10T09:06:20.000Z</time>
      </trkpt>
      <trkpt lat="47.31959" lon="-2.39278">
        <ele>-0.80000001192093</ele>
        <time>2022-02-10T09:06:21.000Z</time>
      </trkpt>
      <trkpt lat="47.31961" lon="-2.39286">
        <ele>-0.40000000596046</ele>
        <time>2022-02-10T09:06:22.000Z</time>
      </trkpt>
      <trkpt lat="47.31966" lon="-2.39303">
        <ele>-0.40000000596046</ele>
        <time>2022-02-10T09:06:24.000Z</time>
      </trkpt>
      <trkpt lat="47.3198" lon="-2.39358">
        <ele>-0.40000000596046</ele>
        <time>2022-02-10T09:06:31.000Z</time>
      </trkpt>
      <trkpt lat="47.31992" lon="-2.39412">
        <ele>-0.40000000596046</ele>
        <time>2022-02-10T09:06:38.000Z</time>
      </trkpt>
      <trkpt lat="47.31995" lon="-2.39427">
        <ele>45.4</ele>
        <time>2022-02-10T09:06:40.000Z</time>
      </trkpt>
      <trkpt lat="47.31997" lon="-2.39434">
        <ele>0.40000000596046</ele>
        <time>2022-02-10T09:06:41.000Z</time>
      </trkpt>
      <trkpt lat="47.31999" lon="-2.39442">
        <ele>1</ele>
        <time>2022-02-10T09:06:42.000Z</time>
      </trkpt>
      <trkpt lat="47.32" lon="-2.39449">
        <ele>1.3999999761581</ele>
        <time>2022-02-10T09:06:43.000Z</time>
      </trkpt>
      <trkpt lat="47.32002" lon="-2.39456">
        <ele>1.7999999523163</ele>
        <time>2022-02-10T09:06:44.000Z</time>
      </trkpt>
      <trkpt lat="47.32014" lon="-2.39498">
        <ele>1.7999999523163</ele>
        <time>2022-02-10T09:06:50.000Z</time>
      </trkpt>
      <trkpt lat="47.32028" lon="-2.39558">
        <ele>1.7999999523163</ele>
        <time>2022-02-10T09:06:58.000Z</time>
      </trkpt>
      <trkpt lat="47.32034" lon="-2.39583">
        <ele>2.2000000476837</ele>
        <time>2022-02-10T09:07:01.000Z</time>
      </trkpt>
      <trkpt lat="47.32036" lon="-2.39591">
        <ele>2.5999999046326</ele>
        <time>2022-02-10T09:07:02.000Z</time>
      </trkpt>
      <trkpt lat="47.32038" lon="-2.39599">
        <ele>3</ele>
        <time>2022-02-10T09:07:03.000Z</time>
      </trkpt>
      <trkpt lat="47.3204" lon="-2.39605">
        <ele>3.4000000953674</ele>
        <time>2022-02-10T09:07:04.000Z</time>
      </trkpt>
      <trkpt lat="47.32042" lon="-2.39612">
        <ele>3.7999999523163</ele>
        <time>2022-02-10T09:07:05.000Z</time>
      </trkpt>
      <trkpt lat="47.32044" lon="-2.39619">
        <ele>3.7999999523163</ele>
        <time>2022-02-10T09:07:06.000Z</time>
      </trkpt>
      <trkpt lat="47.32054" lon="-2.39655">
        <ele>3.7999999523163</ele>
        <time>2022-02-10T09:07:11.000Z</time>
      </trkpt>
      <trkpt lat="47.32065" lon="-2.39698">
        <ele>3.7999999523163</ele>
        <time>2022-02-10T09:07:17.000Z</time>
      </trkpt>
      <trkpt lat="47.32077" lon="-2.39748">
        <ele>4.1999998092651</ele>
        <time>2022-02-10T09:07:24.000Z</time>
      </trkpt>
      <trkpt lat="47.32078" lon="-2.39755">
        <ele>4.5999999046326</ele>
        <time>2022-02-10T09:07:25.000Z</time>
      </trkpt>
      <trkpt lat="47.32079" lon="-2.39762">
        <ele>5</ele>
        <time>2022-02-10T09:07:26.000Z</time>
      </trkpt>
      <trkpt lat="47.32081" lon="-2.39768">
        <ele>5.4000000953674</ele>
        <time>2022-02-10T09:07:27.000Z</time>
      </trkpt>
      <trkpt lat="47.32083" lon="-2.39774">
        <ele>5.8000001907349</ele>
        <time>2022-02-10T09:07:28.000Z</time>
      </trkpt>
      <trkpt lat="47.32084" lon="-2.3978">
        <ele>5.8000001907349</ele>
        <time>2022-02-10T09:07:29.000Z</time>
      </trkpt>
      <trkpt lat="47.32091" lon="-2.39804">
        <ele>5.8000001907349</ele>
        <time>2022-02-10T09:07:34.000Z</time>
      </trkpt>
      <trkpt lat="47.3209" lon="-2.39807">
        <ele>5.8000001907349</ele>
        <time>2022-02-10T09:07:35.000Z</time>
      </trkpt>
      <trkpt lat="47.3208" lon="-2.3982">
        <ele>5.8000001907349</ele>
        <time>2022-02-10T09:07:38.000Z</time>
      </trkpt>
      <trkpt lat="47.32077" lon="-2.39823">
        <ele>5.8000001907349</ele>
        <time>2022-02-10T09:07:39.000Z</time>
      </trkpt>
      <trkpt lat="47.32055" lon="-2.39845">
        <ele>5.8000001907349</ele>
        <time>2022-02-10T09:07:44.000Z</time>
      </trkpt>
      <trkpt lat="47.32013" lon="-2.39879">
        <ele>5.8000001907349</ele>
        <time>2022-02-10T09:07:51.000Z</time>
      </trkpt>
      <trkpt lat="47.31978" lon="-2.39912">
        <ele>5.4000000953674</ele>
        <time>2022-02-10T09:07:57.000Z</time>
      </trkpt>
      <trkpt lat="47.31972" lon="-2.39917">
        <ele>5</ele>
        <time>2022-02-10T09:07:58.000Z</time>
      </trkpt>
      <trkpt lat="47.31966" lon="-2.39923">
        <ele>4.5999999046326</ele>
        <time>2022-02-10T09:07:59.000Z</time>
      </trkpt>
      <trkpt lat="47.3196" lon="-2.39929">
        <ele>4.1999998092651</ele>
        <time>2022-02-10T09:08:00.000Z</time>
      </trkpt>
      <trkpt lat="47.31955" lon="-2.39934">
        <ele>3.7999999523163</ele>
        <time>2022-02-10T09:08:01.000Z</time>
      </trkpt>
      <trkpt lat="47.31931" lon="-2.39957">
        <ele>3.7999999523163</ele>
        <time>2022-02-10T09:08:05.000Z</time>
      </trkpt>
      <trkpt lat="47.31926" lon="-2.39963">
        <ele>3.4000000953674</ele>
        <time>2022-02-10T09:08:06.000Z</time>
      </trkpt>
      <trkpt lat="47.3192" lon="-2.39971">
        <ele>3</ele>
        <time>2022-02-10T09:08:07.000Z</time>
      </trkpt>
      <trkpt lat="47.31914" lon="-2.39978">
        <ele>2.4000000953674</ele>
        <time>2022-02-10T09:08:08.000Z</time>
      </trkpt>
      <trkpt lat="47.31908" lon="-2.39985">
        <ele>1.6000000238419</ele>
        <time>2022-02-10T09:08:09.000Z</time>
      </trkpt>
      <trkpt lat="47.31897" lon="-2.40001">
        <ele>1.6000000238419</ele>
        <time>2022-02-10T09:08:11.000Z</time>
      </trkpt>
      <trkpt lat="47.3186" lon="-2.40055">
        <ele>1.6000000238419</ele>
        <time>2022-02-10T09:08:18.000Z</time>
      </trkpt>
      <trkpt lat="47.31828" lon="-2.40102">
        <ele>1.6000000238419</ele>
        <time>2022-02-10T09:08:25.000Z</time>
      </trkpt>
      <trkpt lat="47.31794" lon="-2.40148">
        <ele>1.6000000238419</ele>
        <time>2022-02-10T09:08:32.000Z</time>
      </trkpt>
      <trkpt lat="47.31763" lon="-2.40194">
        <ele>1.6000000238419</ele>
        <time>2022-02-10T09:08:39.000Z</time>
      </trkpt>
      <trkpt lat="47.31739" lon="-2.40237">
        <ele>1.6000000238419</ele>
        <time>2022-02-10T09:08:45.000Z</time>
      </trkpt>
      <trkpt lat="47.31731" lon="-2.4025">
        <ele>1.6000000238419</ele>
        <time>2022-02-10T09:08:47.000Z</time>
      </trkpt>
      <trkpt lat="47.31719" lon="-2.40267">
        <ele>1.6000000238419</ele>
        <time>2022-02-10T09:08:50.000Z</time>
      </trkpt>
      <trkpt lat="47.31715" lon="-2.40271">
        <ele>1.6000000238419</ele>
        <time>2022-02-10T09:08:51.000Z</time>
      </trkpt>
      <trkpt lat="47.31694" lon="-2.40299">
        <ele>1.6000000238419</ele>
        <time>2022-02-10T09:08:56.000Z</time>
      </trkpt>
      <trkpt lat="47.31687" lon="-2.4031">
        <ele>1.6000000238419</ele>
        <time>2022-02-10T09:08:58.000Z</time>
      </trkpt>
      <trkpt lat="47.31685" lon="-2.40325">
        <ele>1.6000000238419</ele>
        <time>2022-02-10T09:09:00.000Z</time>
      </trkpt>
      <trkpt lat="47.31688" lon="-2.40342">
        <ele>1.6000000238419</ele>
        <time>2022-02-10T09:09:03.000Z</time>
      </trkpt>
      <trkpt lat="47.31693" lon="-2.40348">
        <ele>1.6000000238419</ele>
        <time>2022-02-10T09:09:05.000Z</time>
      </trkpt>
      <trkpt lat="47.31709" lon="-2.40362">
        <ele>1.6000000238419</ele>
        <time>2022-02-10T09:09:09.000Z</time>
      </trkpt>
      <trkpt lat="47.31748" lon="-2.40385">
        <ele>1.6000000238419</ele>
        <time>2022-02-10T09:09:16.000Z</time>
      </trkpt>
      <trkpt lat="47.31786" lon="-2.40411">
        <ele>1.6000000238419</ele>
        <time>2022-02-10T09:09:23.000Z</time>
      </trkpt>
      <trkpt lat="47.31824" lon="-2.40439">
        <ele>1.6000000238419</ele>
        <time>2022-02-10T09:09:30.000Z</time>
      </trkpt>
      <trkpt lat="47.31872" lon="-2.40475">
        <ele>1.6000000238419</ele>
        <time>2022-02-10T09:09:39.000Z</time>
      </trkpt>
      <trkpt lat="47.31903" lon="-2.40497">
        <ele>1.6000000238419</ele>
        <time>2022-02-10T09:09:45.000Z</time>
      </trkpt>
      <trkpt lat="47.31918" lon="-2.40508">
        <ele>2.4000000953674</ele>
        <time>2022-02-10T09:09:48.000Z</time>
      </trkpt>
      <trkpt lat="47.31923" lon="-2.40512">
        <ele>2.7999999523163</ele>
        <time>2022-02-10T09:09:49.000Z</time>
      </trkpt>
      <trkpt lat="47.31928" lon="-2.40515">
        <ele>3.4000000953674</ele>
        <time>2022-02-10T09:09:50.000Z</time>
      </trkpt>
      <trkpt lat="47.31933" lon="-2.40518">
        <ele>3.7999999523163</ele>
        <time>2022-02-10T09:09:51.000Z</time>
      </trkpt>
      <trkpt lat="47.31943" lon="-2.40525">
        <ele>3.7999999523163</ele>
        <time>2022-02-10T09:09:53.000Z</time>
      </trkpt>
      <trkpt lat="47.31973" lon="-2.40547">
        <ele>3.7999999523163</ele>
        <time>2022-02-10T09:09:59.000Z</time>
      </trkpt>
      <trkpt lat="47.32008" lon="-2.40576">
        <ele>3.7999999523163</ele>
        <time>2022-02-10T09:10:06.000Z</time>
      </trkpt>
      <trkpt lat="47.32028" lon="-2.40595">
        <ele>4.1999998092651</ele>
        <time>2022-02-10T09:10:10.000Z</time>
      </trkpt>
      <trkpt lat="47.32033" lon="-2.406">
        <ele>4.5999999046326</ele>
        <time>2022-02-10T09:10:11.000Z</time>
      </trkpt>
      <trkpt lat="47.32039" lon="-2.40604">
        <ele>5.4000000953674</ele>
        <time>2022-02-10T09:10:12.000Z</time>
      </trkpt>
      <trkpt lat="47.32044" lon="-2.40608">
        <ele>5.8000001907349</ele>
        <time>2022-02-10T09:10:13.000Z</time>
      </trkpt>
      <trkpt lat="47.32048" lon="-2.40612">
        <ele>5.8000001907349</ele>
        <time>2022-02-10T09:10:14.000Z</time>
      </trkpt>
      <trkpt lat="47.32058" lon="-2.40621">
        <ele>5.8000001907349</ele>
        <time>2022-02-10T09:10:16.000Z</time>
      </trkpt>
      <trkpt lat="47.32099" lon="-2.40662">
        <ele>5.8000001907349</ele>
        <time>2022-02-10T09:10:24.000Z</time>
      </trkpt>
      <trkpt lat="47.32136" lon="-2.40705">
        <ele>5.8000001907349</ele>
        <time>2022-02-10T09:10:32.000Z</time>
      </trkpt>
      <trkpt lat="47.3215" lon="-2.40721">
        <ele>6.1999998092651</ele>
        <time>2022-02-10T09:10:35.000Z</time>
      </trkpt>
      <trkpt lat="47.32155" lon="-2.40726">
        <ele>6.5999999046326</ele>
        <time>2022-02-10T09:10:36.000Z</time>
      </trkpt>
      <trkpt lat="47.32159" lon="-2.40731">
        <ele>7.4000000953674</ele>
        <time>2022-02-10T09:10:37.000Z</time>
      </trkpt>
      <trkpt lat="47.32163" lon="-2.40737">
        <ele>7.8000001907349</ele>
        <time>2022-02-10T09:10:38.000Z</time>
      </trkpt>
      <trkpt lat="47.32168" lon="-2.40743">
        <ele>7.8000001907349</ele>
        <time>2022-02-10T09:10:39.000Z</time>
      </trkpt>
      <trkpt lat="47.32192" lon="-2.40778">
        <ele>7.8000001907349</ele>
        <time>2022-02-10T09:10:45.000Z</time>
      </trkpt>
      <trkpt lat="47.32203" lon="-2.40793">
        <ele>7.8000001907349</ele>
        <time>2022-02-10T09:10:49.000Z</time>
      </trkpt>
      <trkpt lat="47.32214" lon="-2.4081">
        <ele>7.8000001907349</ele>
        <time>2022-02-10T09:10:54.000Z</time>
      </trkpt>
      <trkpt lat="47.32217" lon="-2.40815">
        <ele>7.8000001907349</ele>
        <time>2022-02-10T09:10:55.000Z</time>
      </trkpt>
      <trkpt lat="47.32227" lon="-2.40826">
        <ele>7.8000001907349</ele>
        <time>2022-02-10T09:10:58.000Z</time>
      </trkpt>
      <trkpt lat="47.32233" lon="-2.40837">
        <ele>7.8000001907349</ele>
        <time>2022-02-10T09:11:00.000Z</time>
      </trkpt>
      <trkpt lat="47.32245" lon="-2.40854">
        <ele>7.8000001907349</ele>
        <time>2022-02-10T09:11:03.000Z</time>
      </trkpt>
      <trkpt lat="47.32272" lon="-2.40899">
        <ele>7.8000001907349</ele>
        <time>2022-02-10T09:11:10.000Z</time>
      </trkpt>
      <trkpt lat="47.32306" lon="-2.40961">
        <ele>7.8000001907349</ele>
        <time>2022-02-10T09:11:19.000Z</time>
      </trkpt>
      <trkpt lat="47.32334" lon="-2.41015">
        <ele>7.8000001907349</ele>
        <time>2022-02-10T09:11:27.000Z</time>
      </trkpt>
      <trkpt lat="47.32338" lon="-2.41021">
        <ele>8.1999998092651</ele>
        <time>2022-02-10T09:11:28.000Z</time>
      </trkpt>
      <trkpt lat="47.32341" lon="-2.41028">
        <ele>8.8000001907349</ele>
        <time>2022-02-10T09:11:29.000Z</time>
      </trkpt>
      <trkpt lat="47.32344" lon="-2.41034">
        <ele>9.1999998092651</ele>
        <time>2022-02-10T09:11:30.000Z</time>
      </trkpt>
      <trkpt lat="47.32347" lon="-2.41041">
        <ele>9.6000003814697</ele>
        <time>2022-02-10T09:11:31.000Z</time>
      </trkpt>
      <trkpt lat="47.3235" lon="-2.41047">
        <ele>10</ele>
        <time>2022-02-10T09:11:32.000Z</time>
      </trkpt>
      <trkpt lat="47.32356" lon="-2.41059">
        <ele>10</ele>
        <time>2022-02-10T09:11:34.000Z</time>
      </trkpt>
      <trkpt lat="47.32368" lon="-2.41081">
        <ele>10</ele>
        <time>2022-02-10T09:11:39.000Z</time>
      </trkpt>
      <trkpt lat="47.3237" lon="-2.41084">
        <ele>10</ele>
        <time>2022-02-10T09:11:40.000Z</time>
      </trkpt>
      <trkpt lat="47.3238" lon="-2.41104">
        <ele>10</ele>
        <time>2022-02-10T09:11:44.000Z</time>
      </trkpt>
      <trkpt lat="47.324" lon="-2.41142">
        <ele>10</ele>
        <time>2022-02-10T09:11:51.000Z</time>
      </trkpt>
      <trkpt lat="47.32403" lon="-2.41148">
        <ele>10</ele>
        <time>2022-02-10T09:11:52.000Z</time>
      </trkpt>
      <trkpt lat="47.32419" lon="-2.41181">
        <ele>10</ele>
        <time>2022-02-10T09:11:58.000Z</time>
      </trkpt>
      <trkpt lat="47.32426" lon="-2.41193">
        <ele>10</ele>
        <time>2022-02-10T09:12:02.000Z</time>
      </trkpt>
      <trkpt lat="47.32437" lon="-2.4121">
        <ele>10</ele>
        <time>2022-02-10T09:12:06.000Z</time>
      </trkpt>
      <trkpt lat="47.32458" lon="-2.41251">
        <ele>10</ele>
        <time>2022-02-10T09:12:13.000Z</time>
      </trkpt>
      <trkpt lat="47.32482" lon="-2.41294">
        <ele>10</ele>
        <time>2022-02-10T09:12:20.000Z</time>
      </trkpt>
      <trkpt lat="47.32502" lon="-2.41333">
        <ele>10</ele>
        <time>2022-02-10T09:12:26.000Z</time>
      </trkpt>
      <trkpt lat="47.32506" lon="-2.4134">
        <ele>10</ele>
        <time>2022-02-10T09:12:27.000Z</time>
      </trkpt>
      <trkpt lat="47.32538" lon="-2.414">
        <ele>10</ele>
        <time>2022-02-10T09:12:36.000Z</time>
      </trkpt>
      <trkpt lat="47.32556" lon="-2.41438">
        <ele>10</ele>
        <time>2022-02-10T09:12:42.000Z</time>
      </trkpt>
      <trkpt lat="47.32559" lon="-2.41445">
        <ele>9.6000003814697</ele>
        <time>2022-02-10T09:12:44.000Z</time>
      </trkpt>
      <trkpt lat="47.32561" lon="-2.41448">
        <ele>9.1999998092651</ele>
        <time>2022-02-10T09:12:45.000Z</time>
      </trkpt>
      <trkpt lat="47.32562" lon="-2.41451">
        <ele>8.8000001907349</ele>
        <time>2022-02-10T09:12:46.000Z</time>
      </trkpt>
      <trkpt lat="47.32563" lon="-2.41454">
        <ele>8.3999996185303</ele>
        <time>2022-02-10T09:12:47.000Z</time>
      </trkpt>
      <trkpt lat="47.32565" lon="-2.41456">
        <ele>8</ele>
        <time>2022-02-10T09:12:48.000Z</time>
      </trkpt>
      <trkpt lat="47.32572" lon="-2.41471">
        <ele>8</ele>
        <time>2022-02-10T09:12:52.000Z</time>
      </trkpt>
      <trkpt lat="47.32573" lon="-2.41477">
        <ele>8</ele>
        <time>2022-02-10T09:12:53.000Z</time>
      </trkpt>
      <trkpt lat="47.32575" lon="-2.41496">
        <ele>8</ele>
        <time>2022-02-10T09:12:56.000Z</time>
      </trkpt>
      <trkpt lat="47.32577" lon="-2.41509">
        <ele>8</ele>
        <time>2022-02-10T09:12:58.000Z</time>
      </trkpt>
      <trkpt lat="47.32584" lon="-2.41518">
        <ele>8</ele>
        <time>2022-02-10T09:13:00.000Z</time>
      </trkpt>
      <trkpt lat="47.32601" lon="-2.41521">
        <ele>8</ele>
        <time>2022-02-10T09:13:03.000Z</time>
      </trkpt>
      <trkpt lat="47.32641" lon="-2.4153">
        <ele>8</ele>
        <time>2022-02-10T09:13:10.000Z</time>
      </trkpt>
      <trkpt lat="47.32674" lon="-2.41537">
        <ele>7.5999999046326</ele>
        <time>2022-02-10T09:13:16.000Z</time>
      </trkpt>
      <trkpt lat="47.3268" lon="-2.41538">
        <ele>7.1999998092651</ele>
        <time>2022-02-10T09:13:17.000Z</time>
      </trkpt>
      <trkpt lat="47.32685" lon="-2.41539">
        <ele>6.8000001907349</ele>
        <time>2022-02-10T09:13:18.000Z</time>
      </trkpt>
      <trkpt lat="47.3269" lon="-2.4154">
        <ele>6.4000000953674</ele>
        <time>2022-02-10T09:13:19.000Z</time>
      </trkpt>
      <trkpt lat="47.32695" lon="-2.4154">
        <ele>6</ele>
        <time>2022-02-10T09:13:20.000Z</time>
      </trkpt>
      <trkpt lat="47.32699" lon="-2.41542">
        <ele>6</ele>
        <time>2022-02-10T09:13:21.000Z</time>
      </trkpt>
      <trkpt lat="47.32702" lon="-2.41544">
        <ele>6</ele>
        <time>2022-02-10T09:13:22.000Z</time>
      </trkpt>
      <trkpt lat="47.32704" lon="-2.41557">
        <ele>5.4000000953674</ele>
        <time>2022-02-10T09:13:25.000Z</time>
      </trkpt>
      <trkpt lat="47.32704" lon="-2.41562">
        <ele>5</ele>
        <time>2022-02-10T09:13:26.000Z</time>
      </trkpt>
      <trkpt lat="47.32704" lon="-2.41566">
        <ele>4.5999999046326</ele>
        <time>2022-02-10T09:13:27.000Z</time>
      </trkpt>
      <trkpt lat="47.32703" lon="-2.41569">
        <ele>4.1999998092651</ele>
        <time>2022-02-10T09:13:28.000Z</time>
      </trkpt>
      <trkpt lat="47.32703" lon="-2.41573">
        <ele>3.7999999523163</ele>
        <time>2022-02-10T09:13:29.000Z</time>
      </trkpt>
      <trkpt lat="47.32705" lon="-2.41575">
        <ele>3.7999999523163</ele>
        <time>2022-02-10T09:13:30.000Z</time>
      </trkpt>
      <trkpt lat="47.32707" lon="-2.41586">
        <ele>3.7999999523163</ele>
        <time>2022-02-10T09:13:33.000Z</time>
      </trkpt>
      <trkpt lat="47.32713" lon="-2.41607">
        <ele>3.7999999523163</ele>
        <time>2022-02-10T09:13:36.000Z</time>
      </trkpt>
      <trkpt lat="47.32716" lon="-2.41614">
        <ele>3.7999999523163</ele>
        <time>2022-02-10T09:13:37.000Z</time>
      </trkpt>
      <trkpt lat="47.32719" lon="-2.41621">
        <ele>3.7999999523163</ele>
        <time>2022-02-10T09:13:38.000Z</time>
      </trkpt>
      <trkpt lat="47.3272" lon="-2.41637">
        <ele>3.7999999523163</ele>
        <time>2022-02-10T09:13:40.000Z</time>
      </trkpt>
      <trkpt lat="47.32717" lon="-2.41655">
        <ele>3.7999999523163</ele>
        <time>2022-02-10T09:13:42.000Z</time>
      </trkpt>
      <trkpt lat="47.32714" lon="-2.41683">
        <ele>3.7999999523163</ele>
        <time>2022-02-10T09:13:45.000Z</time>
      </trkpt>
      <trkpt lat="47.32709" lon="-2.41737">
        <ele>3.7999999523163</ele>
        <time>2022-02-10T09:13:52.000Z</time>
      </trkpt>
      <trkpt lat="47.32708" lon="-2.41749">
        <ele>3</ele>
        <time>2022-02-10T09:13:54.000Z</time>
      </trkpt>
      <trkpt lat="47.32708" lon="-2.41754">
        <ele>2.5999999046326</ele>
        <time>2022-02-10T09:13:55.000Z</time>
      </trkpt>
      <trkpt lat="47.32708" lon="-2.41759">
        <ele>2.2000000476837</ele>
        <time>2022-02-10T09:13:56.000Z</time>
      </trkpt>
      <trkpt lat="47.32709" lon="-2.41765">
        <ele>1.7999999523163</ele>
        <time>2022-02-10T09:13:57.000Z</time>
      </trkpt>
      <trkpt lat="47.32719" lon="-2.41777">
        <ele>1.7999999523163</ele>
        <time>2022-02-10T09:14:00.000Z</time>
      </trkpt>
      <trkpt lat="47.32722" lon="-2.41782">
        <ele>1.7999999523163</ele>
        <time>2022-02-10T09:14:01.000Z</time>
      </trkpt>
      <trkpt lat="47.32735" lon="-2.41805">
        <ele>1.7999999523163</ele>
        <time>2022-02-10T09:14:05.000Z</time>
      </trkpt>
      <trkpt lat="47.32752" lon="-2.41836">
        <ele>1.7999999523163</ele>
        <time>2022-02-10T09:14:11.000Z</time>
      </trkpt>
      <trkpt lat="47.32754" lon="-2.41842">
        <ele>1.7999999523163</ele>
        <time>2022-02-10T09:14:12.000Z</time>
      </trkpt>
      <trkpt lat="47.32772" lon="-2.41885">
        <ele>1.7999999523163</ele>
        <time>2022-02-10T09:14:19.000Z</time>
      </trkpt>
      <trkpt lat="47.32784" lon="-2.41911">
        <ele>1.7999999523163</ele>
        <time>2022-02-10T09:14:23.000Z</time>
      </trkpt>
      <trkpt lat="47.32791" lon="-2.41925">
        <ele>1.3999999761581</ele>
        <time>2022-02-10T09:14:25.000Z</time>
      </trkpt>
      <trkpt lat="47.32794" lon="-2.41931">
        <ele>1</ele>
        <time>2022-02-10T09:14:26.000Z</time>
      </trkpt>
      <trkpt lat="47.32796" lon="-2.41938">
        <ele>0.60000002384186</ele>
        <time>2022-02-10T09:14:27.000Z</time>
      </trkpt>
      <trkpt lat="47.32799" lon="-2.41944">
        <ele>45.3</ele>
        <time>2022-02-10T09:14:28.000Z</time>
      </trkpt>
      <trkpt lat="47.32801" lon="-2.4195">
        <ele>-0.40000000596046</ele>
        <time>2022-02-10T09:14:29.000Z</time>
      </trkpt>
      <trkpt lat="47.32804" lon="-2.41959">
        <ele>-0.40000000596046</ele>
        <time>2022-02-10T09:14:31.000Z</time>
      </trkpt>
      <trkpt lat="47.32804" lon="-2.41984">
        <ele>-0.40000000596046</ele>
        <time>2022-02-10T09:14:35.000Z</time>
      </trkpt>
      <trkpt lat="47.32806" lon="-2.4199">
        <ele>-0.40000000596046</ele>
        <time>2022-02-10T09:14:36.000Z</time>
      </trkpt>
      <trkpt lat="47.32813" lon="-2.41999">
        <ele>-0.40000000596046</ele>
        <time>2022-02-10T09:14:38.000Z</time>
      </trkpt>
      <trkpt lat="47.32822" lon="-2.42005">
        <ele>-0.40000000596046</ele>
        <time>2022-02-10T09:14:40.000Z</time>
      </trkpt>
      <trkpt lat="47.32826" lon="-2.42009">
        <ele>-0.40000000596046</ele>
        <time>2022-02-10T09:14:41.000Z</time>
      </trkpt>
      <trkpt lat="47.3283" lon="-2.42015">
        <ele>-0.40000000596046</ele>
        <time>2022-02-10T09:14:42.000Z</time>
      </trkpt>
      <trkpt lat="47.32848" lon="-2.42055">
        <ele>-0.40000000596046</ele>
        <time>2022-02-10T09:14:48.000Z</time>
      </trkpt>
      <trkpt lat="47.32853" lon="-2.42069">
        <ele>-0.40000000596046</ele>
        <time>2022-02-10T09:14:50.000Z</time>
      </trkpt>
      <trkpt lat="47.32864" lon="-2.42095">
        <ele>-0.40000000596046</ele>
        <time>2022-02-10T09:14:54.000Z</time>
      </trkpt>
      <trkpt lat="47.32868" lon="-2.42108">
        <ele>-0.40000000596046</ele>
        <time>2022-02-10T09:14:56.000Z</time>
      </trkpt>
      <trkpt lat="47.32875" lon="-2.42128">
        <ele>-0.40000000596046</ele>
        <time>2022-02-10T09:14:59.000Z</time>
      </trkpt>
      <trkpt lat="47.32881" lon="-2.42147">
        <ele>-0.40000000596046</ele>
        <time>2022-02-10T09:15:02.000Z</time>
      </trkpt>
      <trkpt lat="47.32888" lon="-2.42165">
        <ele>-0.40000000596046</ele>
        <time>2022-02-10T09:15:05.000Z</time>
      </trkpt>
      <trkpt lat="47.329" lon="-2.42183">
        <ele>-0.40000000596046</ele>
        <time>2022-02-10T09:15:09.000Z</time>
      </trkpt>
      <trkpt lat="47.32913" lon="-2.42196">
        <ele>-0.40000000596046</ele>
        <time>2022-02-10T09:15:13.000Z</time>
      </trkpt>
      <trkpt lat="47.32918" lon="-2.42208">
        <ele>-0.40000000596046</ele>
        <time>2022-02-10T09:15:15.000Z</time>
      </trkpt>
      <trkpt lat="47.32928" lon="-2.4223">
        <ele>-0.40000000596046</ele>
        <time>2022-02-10T09:15:19.000Z</time>
      </trkpt>
      <trkpt lat="47.32947" lon="-2.42274">
        <ele>-0.40000000596046</ele>
        <time>2022-02-10T09:15:27.000Z</time>
      </trkpt>
      <trkpt lat="47.32961" lon="-2.4231">
        <ele>-0.40000000596046</ele>
        <time>2022-02-10T09:15:34.000Z</time>
      </trkpt>
      <trkpt lat="47.32979" lon="-2.42348">
        <ele>-0.40000000596046</ele>
        <time>2022-02-10T09:15:43.000Z</time>
      </trkpt>
      <trkpt lat="47.32987" lon="-2.42368">
        <ele>-0.40000000596046</ele>
        <time>2022-02-10T09:15:50.000Z</time>
      </trkpt>
      <trkpt lat="47.32994" lon="-2.42385">
        <ele>-0.40000000596046</ele>
        <time>2022-02-10T09:15:58.000Z</time>
      </trkpt>
      <trkpt lat="47.33002" lon="-2.42406">
        <ele>-0.40000000596046</ele>
        <time>2022-02-10T09:16:05.000Z</time>
      </trkpt>
      <trkpt lat="47.33004" lon="-2.42426">
        <ele>-0.40000000596046</ele>
        <time>2022-02-10T09:16:10.000Z</time>
      </trkpt>
      <trkpt lat="47.33004" lon="-2.42441">
        <ele>-0.40000000596046</ele>
        <time>2022-02-10T09:16:14.000Z</time>
      </trkpt>
      <trkpt lat="47.33003" lon="-2.42448">
        <ele>48</ele>
        <time>2022-02-10T09:16:16.000Z</time>
      </trkpt>
      <trkpt lat="47.33002" lon="-2.42451">
        <ele>0.40000000596046</ele>
        <time>2022-02-10T09:16:17.000Z</time>
      </trkpt>
      <trkpt lat="47.33001" lon="-2.42453">
        <ele>0.80000001192093</ele>
        <time>2022-02-10T09:16:18.000Z</time>
      </trkpt>
      <trkpt lat="47.33001" lon="-2.42456">
        <ele>1.2000000476837</ele>
        <time>2022-02-10T09:16:19.000Z</time>
      </trkpt>
      <trkpt lat="47.33001" lon="-2.42459">
        <ele>1.6000000238419</ele>
        <time>2022-02-10T09:16:20.000Z</time>
      </trkpt>
      <trkpt lat="47.32999" lon="-2.42469">
        <ele>1.6000000238419</ele>
        <time>2022-02-10T09:16:23.000Z</time>
      </trkpt>
      <trkpt lat="47.32989" lon="-2.42476">
        <ele>1.6000000238419</ele>
        <time>2022-02-10T09:16:26.000Z</time>
      </trkpt>
      <trkpt lat="47.32981" lon="-2.42482">
        <ele>1.6000000238419</ele>
        <time>2022-02-10T09:16:28.000Z</time>
      </trkpt>
      <trkpt lat="47.3295" lon="-2.42509">
        <ele>1.6000000238419</ele>
        <time>2022-02-10T09:16:37.000Z</time>
      </trkpt>
      <trkpt lat="47.32932" lon="-2.42528">
        <ele>1.6000000238419</ele>
        <time>2022-02-10T09:16:43.000Z</time>
      </trkpt>
      <trkpt lat="47.32909" lon="-2.42556">
        <ele>1.6000000238419</ele>
        <time>2022-02-10T09:16:51.000Z</time>
      </trkpt>
      <trkpt lat="47.32894" lon="-2.42581">
        <ele>1.6000000238419</ele>
        <time>2022-02-10T09:16:59.000Z</time>
      </trkpt>
      <trkpt lat="47.32895" lon="-2.4259">
        <ele>1.6000000238419</ele>
        <time>2022-02-10T09:17:01.000Z</time>
      </trkpt>
      <trkpt lat="47.32895" lon="-2.42599">
        <ele>1.6000000238419</ele>
        <time>2022-02-10T09:17:03.000Z</time>
      </trkpt>
      <trkpt lat="47.32892" lon="-2.42618">
        <ele>1.6000000238419</ele>
        <time>2022-02-10T09:17:08.000Z</time>
      </trkpt>
      <trkpt lat="47.32891" lon="-2.42622">
        <ele>1.6000000238419</ele>
        <time>2022-02-10T09:17:09.000Z</time>
      </trkpt>
      <trkpt lat="47.32887" lon="-2.42638">
        <ele>1.6000000238419</ele>
        <time>2022-02-10T09:17:13.000Z</time>
      </trkpt>
      <trkpt lat="47.32883" lon="-2.4267">
        <ele>1.6000000238419</ele>
        <time>2022-02-10T09:17:21.000Z</time>
      </trkpt>
      <trkpt lat="47.32879" lon="-2.42691">
        <ele>2</ele>
        <time>2022-02-10T09:17:27.000Z</time>
      </trkpt>
      <trkpt lat="47.32878" lon="-2.42694">
        <ele>2.4000000953674</ele>
        <time>2022-02-10T09:17:28.000Z</time>
      </trkpt>
      <trkpt lat="47.32878" lon="-2.42696">
        <ele>2.7999999523163</ele>
        <time>2022-02-10T09:17:29.000Z</time>
      </trkpt>
      <trkpt lat="47.32877" lon="-2.42699">
        <ele>3.4000000953674</ele>
        <time>2022-02-10T09:17:30.000Z</time>
      </trkpt>
      <trkpt lat="47.32876" lon="-2.42702">
        <ele>3.7999999523163</ele>
        <time>2022-02-10T09:17:31.000Z</time>
      </trkpt>
      <trkpt lat="47.32877" lon="-2.42709">
        <ele>3.7999999523163</ele>
        <time>2022-02-10T09:17:34.000Z</time>
      </trkpt>
      <trkpt lat="47.32889" lon="-2.42718">
        <ele>3.7999999523163</ele>
        <time>2022-02-10T09:17:38.000Z</time>
      </trkpt>
      <trkpt lat="47.32916" lon="-2.42737">
        <ele>3.7999999523163</ele>
        <time>2022-02-10T09:17:45.000Z</time>
      </trkpt>
      <trkpt lat="47.32941" lon="-2.42754">
        <ele>3.7999999523163</ele>
        <time>2022-02-10T09:17:52.000Z</time>
      </trkpt>
      <trkpt lat="47.32951" lon="-2.42765">
        <ele>3.7999999523163</ele>
        <time>2022-02-10T09:17:55.000Z</time>
      </trkpt>
      <trkpt lat="47.32959" lon="-2.4278">
        <ele>3.7999999523163</ele>
        <time>2022-02-10T09:17:58.000Z</time>
      </trkpt>
      <trkpt lat="47.32961" lon="-2.42786">
        <ele>3.7999999523163</ele>
        <time>2022-02-10T09:17:59.000Z</time>
      </trkpt>
      <trkpt lat="47.32974" lon="-2.42825">
        <ele>3.7999999523163</ele>
        <time>2022-02-10T09:18:06.000Z</time>
      </trkpt>
      <trkpt lat="47.32982" lon="-2.42858">
        <ele>3.7999999523163</ele>
        <time>2022-02-10T09:18:12.000Z</time>
      </trkpt>
      <trkpt lat="47.32983" lon="-2.42863">
        <ele>3.7999999523163</ele>
        <time>2022-02-10T09:18:13.000Z</time>
      </trkpt>
      <trkpt lat="47.32985" lon="-2.42887">
        <ele>3.7999999523163</ele>
        <time>2022-02-10T09:18:17.000Z</time>
      </trkpt>
      <trkpt lat="47.32988" lon="-2.42904">
        <ele>3.7999999523163</ele>
        <time>2022-02-10T09:18:21.000Z</time>
      </trkpt>
      <trkpt lat="47.32989" lon="-2.42918">
        <ele>3.7999999523163</ele>
        <time>2022-02-10T09:18:26.000Z</time>
      </trkpt>
      <trkpt lat="47.32986" lon="-2.4293">
        <ele>3.7999999523163</ele>
        <time>2022-02-10T09:18:31.000Z</time>
      </trkpt>
      <trkpt lat="47.32976" lon="-2.42942">
        <ele>3.7999999523163</ele>
        <time>2022-02-10T09:18:36.000Z</time>
      </trkpt>
      <trkpt lat="47.32959" lon="-2.4294">
        <ele>3.7999999523163</ele>
        <time>2022-02-10T09:18:41.000Z</time>
      </trkpt>
      <trkpt lat="47.32944" lon="-2.42938">
        <ele>3.7999999523163</ele>
        <time>2022-02-10T09:18:46.000Z</time>
      </trkpt>
      <trkpt lat="47.32925" lon="-2.42942">
        <ele>3.7999999523163</ele>
        <time>2022-02-10T09:18:51.000Z</time>
      </trkpt>
      <trkpt lat="47.3292" lon="-2.42944">
        <ele>3.7999999523163</ele>
        <time>2022-02-10T09:18:52.000Z</time>
      </trkpt>
      <trkpt lat="47.32909" lon="-2.42949">
        <ele>3.7999999523163</ele>
        <time>2022-02-10T09:18:55.000Z</time>
      </trkpt>
      <trkpt lat="47.329" lon="-2.42951">
        <ele>3.7999999523163</ele>
        <time>2022-02-10T09:18:57.000Z</time>
      </trkpt>
      <trkpt lat="47.32864" lon="-2.42958">
        <ele>3.7999999523163</ele>
        <time>2022-02-10T09:19:05.000Z</time>
      </trkpt>
      <trkpt lat="47.3284" lon="-2.42957">
        <ele>3.7999999523163</ele>
        <time>2022-02-10T09:19:10.000Z</time>
      </trkpt>
      <trkpt lat="47.32831" lon="-2.42954">
        <ele>3.7999999523163</ele>
        <time>2022-02-10T09:19:12.000Z</time>
      </trkpt>
      <trkpt lat="47.3281" lon="-2.42956">
        <ele>3.7999999523163</ele>
        <time>2022-02-10T09:19:17.000Z</time>
      </trkpt>
      <trkpt lat="47.32794" lon="-2.42956">
        <ele>3.7999999523163</ele>
        <time>2022-02-10T09:19:22.000Z</time>
      </trkpt>
      <trkpt lat="47.32777" lon="-2.42957">
        <ele>3.7999999523163</ele>
        <time>2022-02-10T09:19:28.000Z</time>
      </trkpt>
      <trkpt lat="47.32776" lon="-2.42956">
        <ele>3.7999999523163</ele>
        <time>2022-02-10T09:19:29.000Z</time>
      </trkpt>
      <trkpt lat="47.32773" lon="-2.42958">
        <ele>4.1999998092651</ele>
        <time>2022-02-10T09:19:30.000Z</time>
      </trkpt>
      <trkpt lat="47.32771" lon="-2.42961">
        <ele>4.5999999046326</ele>
        <time>2022-02-10T09:19:31.000Z</time>
      </trkpt>
      <trkpt lat="47.3277" lon="-2.42965">
        <ele>5</ele>
        <time>2022-02-10T09:19:32.000Z</time>
      </trkpt>
      <trkpt lat="47.32768" lon="-2.4297">
        <ele>5.4000000953674</ele>
        <time>2022-02-10T09:19:33.000Z</time>
      </trkpt>
      <trkpt lat="47.32767" lon="-2.42974">
        <ele>5.8000001907349</ele>
        <time>2022-02-10T09:19:34.000Z</time>
      </trkpt>
      <trkpt lat="47.32765" lon="-2.4298">
        <ele>5.8000001907349</ele>
        <time>2022-02-10T09:19:36.000Z</time>
      </trkpt>
      <trkpt lat="47.32759" lon="-2.42991">
        <ele>5.8000001907349</ele>
        <time>2022-02-10T09:19:41.000Z</time>
      </trkpt>
      <trkpt lat="47.32754" lon="-2.43012">
        <ele>5.8000001907349</ele>
        <time>2022-02-10T09:19:47.000Z</time>
      </trkpt>
      <trkpt lat="47.32749" lon="-2.4302">
        <ele>5.8000001907349</ele>
        <time>2022-02-10T09:19:50.000Z</time>
      </trkpt>
      <trkpt lat="47.32743" lon="-2.43024">
        <ele>5.8000001907349</ele>
        <time>2022-02-10T09:19:52.000Z</time>
      </trkpt>
      <trkpt lat="47.32719" lon="-2.43033">
        <ele>5.8000001907349</ele>
        <time>2022-02-10T09:19:58.000Z</time>
      </trkpt>
      <trkpt lat="47.32685" lon="-2.43038">
        <ele>5.8000001907349</ele>
        <time>2022-02-10T09:20:04.000Z</time>
      </trkpt>
      <trkpt lat="47.3268" lon="-2.43038">
        <ele>5.8000001907349</ele>
        <time>2022-02-10T09:20:05.000Z</time>
      </trkpt>
      <trkpt lat="47.32676" lon="-2.43037">
        <ele>5.4000000953674</ele>
        <time>2022-02-10T09:20:06.000Z</time>
      </trkpt>
      <trkpt lat="47.32673" lon="-2.43035">
        <ele>4.8000001907349</ele>
        <time>2022-02-10T09:20:07.000Z</time>
      </trkpt>
      <trkpt lat="47.32669" lon="-2.43034">
        <ele>4.4000000953674</ele>
        <time>2022-02-10T09:20:08.000Z</time>
      </trkpt>
      <trkpt lat="47.32666" lon="-2.43033">
        <ele>4</ele>
        <time>2022-02-10T09:20:09.000Z</time>
      </trkpt>
      <trkpt lat="47.32663" lon="-2.43034">
        <ele>3.5999999046326</ele>
        <time>2022-02-10T09:20:10.000Z</time>
      </trkpt>
      <trkpt lat="47.32654" lon="-2.43038">
        <ele>3.5999999046326</ele>
        <time>2022-02-10T09:20:13.000Z</time>
      </trkpt>
      <trkpt lat="47.32635" lon="-2.43043">
        <ele>3.5999999046326</ele>
        <time>2022-02-10T09:20:19.000Z</time>
      </trkpt>
      <trkpt lat="47.32628" lon="-2.43045">
        <ele>3.5999999046326</ele>
        <time>2022-02-10T09:20:24.000Z</time>
      </trkpt>
      <trkpt lat="47.32621" lon="-2.43054">
        <ele>3.2000000476837</ele>
        <time>2022-02-10T09:20:28.000Z</time>
      </trkpt>
      <trkpt lat="47.32619" lon="-2.43057">
        <ele>2.7999999523163</ele>
        <time>2022-02-10T09:20:29.000Z</time>
      </trkpt>
      <trkpt lat="47.32618" lon="-2.43063">
        <ele>2</ele>
        <time>2022-02-10T09:20:30.000Z</time>
      </trkpt>
      <trkpt lat="47.32616" lon="-2.43068">
        <ele>1.6000000238419</ele>
        <time>2022-02-10T09:20:31.000Z</time>
      </trkpt>
      <trkpt lat="47.32611" lon="-2.43076">
        <ele>1.6000000238419</ele>
        <time>2022-02-10T09:20:33.000Z</time>
      </trkpt>
      <trkpt lat="47.32608" lon="-2.43078">
        <ele>1.6000000238419</ele>
        <time>2022-02-10T09:20:34.000Z</time>
      </trkpt>
      <trkpt lat="47.32601" lon="-2.43079">
        <ele>1.6000000238419</ele>
        <time>2022-02-10T09:20:36.000Z</time>
      </trkpt>
      <trkpt lat="47.32573" lon="-2.43085">
        <ele>1.6000000238419</ele>
        <time>2022-02-10T09:20:42.000Z</time>
      </trkpt>
      <trkpt lat="47.32561" lon="-2.43088">
        <ele>1.6000000238419</ele>
        <time>2022-02-10T09:20:46.000Z</time>
      </trkpt>
      <trkpt lat="47.32542" lon="-2.43091">
        <ele>1.6000000238419</ele>
        <time>2022-02-10T09:20:51.000Z</time>
      </trkpt>
      <trkpt lat="47.32538" lon="-2.4309">
        <ele>1.6000000238419</ele>
        <time>2022-02-10T09:20:52.000Z</time>
      </trkpt>
      <trkpt lat="47.32529" lon="-2.43089">
        <ele>1.2000000476837</ele>
        <time>2022-02-10T09:20:54.000Z</time>
      </trkpt>
      <trkpt lat="47.32524" lon="-2.43088">
        <ele>0.40000000596046</ele>
        <time>2022-02-10T09:20:55.000Z</time>
      </trkpt>
      <trkpt lat="47.32519" lon="-2.43088">
        <ele>45.7</ele>
        <time>2022-02-10T09:20:56.000Z</time>
      </trkpt>
      <trkpt lat="47.32514" lon="-2.43088">
        <ele>-0.40000000596046</ele>
        <time>2022-02-10T09:20:57.000Z</time>
      </trkpt>
      <trkpt lat="47.32509" lon="-2.43088">
        <ele>-0.40000000596046</ele>
        <time>2022-02-10T09:20:58.000Z</time>
      </trkpt>
      <trkpt lat="47.32473" lon="-2.43088">
        <ele>-0.80000001192093</ele>
        <time>2022-02-10T09:21:04.000Z</time>
      </trkpt>
      <trkpt lat="47.32465" lon="-2.43087">
        <ele>-1.2000000476837</ele>
        <time>2022-02-10T09:21:05.000Z</time>
      </trkpt>
      <trkpt lat="47.32458" lon="-2.43086">
        <ele>-1.7999999523163</ele>
        <time>2022-02-10T09:21:06.000Z</time>
      </trkpt>
      <trkpt lat="47.32451" lon="-2.43085">
        <ele>-2.2000000476837</ele>
        <time>2022-02-10T09:21:07.000Z</time>
      </trkpt>
      <trkpt lat="47.32443" lon="-2.43083">
        <ele>-2.5999999046326</ele>
        <time>2022-02-10T09:21:08.000Z</time>
      </trkpt>
      <trkpt lat="47.32427" lon="-2.43081">
        <ele>-3</ele>
        <time>2022-02-10T09:21:10.000Z</time>
      </trkpt>
      <trkpt lat="47.32419" lon="-2.4308">
        <ele>-3.4000000953674</ele>
        <time>2022-02-10T09:21:11.000Z</time>
      </trkpt>
      <trkpt lat="47.3241" lon="-2.43078">
        <ele>-4</ele>
        <time>2022-02-10T09:21:12.000Z</time>
      </trkpt>
      <trkpt lat="47.32402" lon="-2.43076">
        <ele>-4.4000000953674</ele>
        <time>2022-02-10T09:21:13.000Z</time>
      </trkpt>
      <trkpt lat="47.32393" lon="-2.43076">
        <ele>-4.8000001907349</ele>
        <time>2022-02-10T09:21:14.000Z</time>
      </trkpt>
      <trkpt lat="47.32384" lon="-2.43078">
        <ele>-5.1999998092651</ele>
        <time>2022-02-10T09:21:15.000Z</time>
      </trkpt>
      <trkpt lat="47.32375" lon="-2.4308">
        <ele>-5.8000001907349</ele>
        <time>2022-02-10T09:21:16.000Z</time>
      </trkpt>
      <trkpt lat="47.32365" lon="-2.43082">
        <ele>-6.1999998092651</ele>
        <time>2022-02-10T09:21:17.000Z</time>
      </trkpt>
      <trkpt lat="47.32356" lon="-2.43084">
        <ele>-6.5999999046326</ele>
        <time>2022-02-10T09:21:18.000Z</time>
      </trkpt>
      <trkpt lat="47.32347" lon="-2.43086">
        <ele>-7.5999999046326</ele>
        <time>2022-02-10T09:21:19.000Z</time>
      </trkpt>
      <trkpt lat="47.32338" lon="-2.43088">
        <ele>-8.1999998092651</ele>
        <time>2022-02-10T09:21:20.000Z</time>
      </trkpt>
      <trkpt lat="47.32329" lon="-2.43092">
        <ele>-8.6000003814697</ele>
        <time>2022-02-10T09:21:21.000Z</time>
      </trkpt>
      <trkpt lat="47.3232" lon="-2.43096">
        <ele>-9.1999998092651</ele>
        <time>2022-02-10T09:21:22.000Z</time>
      </trkpt>
      <trkpt lat="47.32295" lon="-2.43111">
        <ele>-9.6000003814697</ele>
        <time>2022-02-10T09:21:25.000Z</time>
      </trkpt>
      <trkpt lat="47.32287" lon="-2.43116">
        <ele>-10.199999809265</ele>
        <time>2022-02-10T09:21:26.000Z</time>
      </trkpt>
      <trkpt lat="47.32279" lon="-2.4312">
        <ele>-10.60000038147</ele>
        <time>2022-02-10T09:21:27.000Z</time>
      </trkpt>
      <trkpt lat="47.32271" lon="-2.43125">
        <ele>-11</ele>
        <time>2022-02-10T09:21:28.000Z</time>
      </trkpt>
      <trkpt lat="47.32263" lon="-2.43128">
        <ele>-11.39999961853</ele>
        <time>2022-02-10T09:21:29.000Z</time>
      </trkpt>
      <trkpt lat="47.32247" lon="-2.43133">
        <ele>-11.39999961853</ele>
        <time>2022-02-10T09:21:31.000Z</time>
      </trkpt>
      <trkpt lat="47.32191" lon="-2.43155">
        <ele>-11.39999961853</ele>
        <time>2022-02-10T09:21:38.000Z</time>
      </trkpt>
      <trkpt lat="47.3216" lon="-2.43169">
        <ele>-12</ele>
        <time>2022-02-10T09:21:42.000Z</time>
      </trkpt>
      <trkpt lat="47.32152" lon="-2.43174">
        <ele>-12.39999961853</ele>
        <time>2022-02-10T09:21:43.000Z</time>
      </trkpt>
      <trkpt lat="47.32144" lon="-2.43178">
        <ele>-13.199999809265</ele>
        <time>2022-02-10T09:21:44.000Z</time>
      </trkpt>
      <trkpt lat="47.32136" lon="-2.43182">
        <ele>-13.60000038147</ele>
        <time>2022-02-10T09:21:45.000Z</time>
      </trkpt>
      <trkpt lat="47.32128" lon="-2.43186">
        <ele>-13.60000038147</ele>
        <time>2022-02-10T09:21:46.000Z</time>
      </trkpt>
      <trkpt lat="47.32106" lon="-2.43198">
        <ele>-14</ele>
        <time>2022-02-10T09:21:49.000Z</time>
      </trkpt>
      <trkpt lat="47.32098" lon="-2.43202">
        <ele>-14.39999961853</ele>
        <time>2022-02-10T09:21:50.000Z</time>
      </trkpt>
      <trkpt lat="47.32091" lon="-2.43205">
        <ele>-14.800000190735</ele>
        <time>2022-02-10T09:21:51.000Z</time>
      </trkpt>
      <trkpt lat="47.32083" lon="-2.43208">
        <ele>-15.199999809265</ele>
        <time>2022-02-10T09:21:52.000Z</time>
      </trkpt>
      <trkpt lat="47.32075" lon="-2.43212">
        <ele>-15.60000038147</ele>
        <time>2022-02-10T09:21:53.000Z</time>
      </trkpt>
      <trkpt lat="47.32067" lon="-2.43215">
        <ele>-15.60000038147</ele>
        <time>2022-02-10T09:21:54.000Z</time>
      </trkpt>
      <trkpt lat="47.32032" lon="-2.43238">
        <ele>-16.200000762939</ele>
        <time>2022-02-10T09:21:59.000Z</time>
      </trkpt>
      <trkpt lat="47.32025" lon="-2.43244">
        <ele>-16.60000038147</ele>
        <time>2022-02-10T09:22:00.000Z</time>
      </trkpt>
      <trkpt lat="47.32018" lon="-2.43249">
        <ele>-17</ele>
        <time>2022-02-10T09:22:01.000Z</time>
      </trkpt>
      <trkpt lat="47.32011" lon="-2.43255">
        <ele>-17.39999961853</ele>
        <time>2022-02-10T09:22:02.000Z</time>
      </trkpt>
      <trkpt lat="47.32005" lon="-2.43259">
        <ele>-18</ele>
        <time>2022-02-10T09:22:03.000Z</time>
      </trkpt>
      <trkpt lat="47.31999" lon="-2.43262">
        <ele>-18</ele>
        <time>2022-02-10T09:22:04.000Z</time>
      </trkpt>
      <trkpt lat="47.31992" lon="-2.43265">
        <ele>-18.39999961853</ele>
        <time>2022-02-10T09:22:05.000Z</time>
      </trkpt>
      <trkpt lat="47.31986" lon="-2.43268">
        <ele>-18.799999237061</ele>
        <time>2022-02-10T09:22:06.000Z</time>
      </trkpt>
      <trkpt lat="47.31981" lon="-2.43271">
        <ele>-19.39999961853</ele>
        <time>2022-02-10T09:22:07.000Z</time>
      </trkpt>
      <trkpt lat="47.31976" lon="-2.43275">
        <ele>-19.799999237061</ele>
        <time>2022-02-10T09:22:08.000Z</time>
      </trkpt>
      <trkpt lat="47.31971" lon="-2.43279">
        <ele>-20.39999961853</ele>
        <time>2022-02-10T09:22:09.000Z</time>
      </trkpt>
      <trkpt lat="47.31968" lon="-2.43285">
        <ele>-20.799999237061</ele>
        <time>2022-02-10T09:22:10.000Z</time>
      </trkpt>
      <trkpt lat="47.31967" lon="-2.4329">
        <ele>-21.200000762939</ele>
        <time>2022-02-10T09:22:11.000Z</time>
      </trkpt>
      <trkpt lat="47.31965" lon="-2.43297">
        <ele>-21.60000038147</ele>
        <time>2022-02-10T09:22:12.000Z</time>
      </trkpt>
      <trkpt lat="47.31963" lon="-2.43305">
        <ele>-22</ele>
        <time>2022-02-10T09:22:13.000Z</time>
      </trkpt>
      <trkpt lat="47.31965" lon="-2.43321">
        <ele>-22.39999961853</ele>
        <time>2022-02-10T09:22:14.000Z</time>
      </trkpt>
      <trkpt lat="47.31963" lon="-2.43349">
        <ele>-22.39999961853</ele>
        <time>2022-02-10T09:22:16.000Z</time>
      </trkpt>
      <trkpt lat="47.3196" lon="-2.43363">
        <ele>-22.39999961853</ele>
        <time>2022-02-10T09:22:17.000Z</time>
      </trkpt>
      <trkpt lat="47.31955" lon="-2.43388">
        <ele>-22.799999237061</ele>
        <time>2022-02-10T09:22:19.000Z</time>
      </trkpt>
      <trkpt lat="47.31951" lon="-2.434">
        <ele>-23.200000762939</ele>
        <time>2022-02-10T09:22:20.000Z</time>
      </trkpt>
      <trkpt lat="47.31947" lon="-2.43412">
        <ele>-23.60000038147</ele>
        <time>2022-02-10T09:22:21.000Z</time>
      </trkpt>
      <trkpt lat="47.31943" lon="-2.43424">
        <ele>-24.200000762939</ele>
        <time>2022-02-10T09:22:22.000Z</time>
      </trkpt>
      <trkpt lat="47.31939" lon="-2.43437">
        <ele>-24.60000038147</ele>
        <time>2022-02-10T09:22:23.000Z</time>
      </trkpt>
      <trkpt lat="47.31935" lon="-2.43451">
        <ele>-25</ele>
        <time>2022-02-10T09:22:24.000Z</time>
      </trkpt>
      <trkpt lat="47.31932" lon="-2.43464">
        <ele>-25.39999961853</ele>
        <time>2022-02-10T09:22:25.000Z</time>
      </trkpt>
      <trkpt lat="47.31929" lon="-2.43477">
        <ele>-26</ele>
        <time>2022-02-10T09:22:26.000Z</time>
      </trkpt>
      <trkpt lat="47.31926" lon="-2.43491">
        <ele>-26.39999961853</ele>
        <time>2022-02-10T09:22:27.000Z</time>
      </trkpt>
      <trkpt lat="47.31925" lon="-2.43505">
        <ele>-27</ele>
        <time>2022-02-10T09:22:28.000Z</time>
      </trkpt>
      <trkpt lat="47.31924" lon="-2.43518">
        <ele>-27.39999961853</ele>
        <time>2022-02-10T09:22:29.000Z</time>
      </trkpt>
      <trkpt lat="47.31925" lon="-2.43531">
        <ele>-27.799999237061</ele>
        <time>2022-02-10T09:22:30.000Z</time>
      </trkpt>
      <trkpt lat="47.31926" lon="-2.43544">
        <ele>-28.200000762939</ele>
        <time>2022-02-10T09:22:31.000Z</time>
      </trkpt>
      <trkpt lat="47.31927" lon="-2.43556">
        <ele>-28.60000038147</ele>
        <time>2022-02-10T09:22:32.000Z</time>
      </trkpt>
      <trkpt lat="47.31927" lon="-2.43568">
        <ele>-29.200000762939</ele>
        <time>2022-02-10T09:22:33.000Z</time>
      </trkpt>
      <trkpt lat="47.31926" lon="-2.43578">
        <ele>-29.200000762939</ele>
        <time>2022-02-10T09:22:34.000Z</time>
      </trkpt>
      <trkpt lat="47.31914" lon="-2.43604">
        <ele>-29.60000038147</ele>
        <time>2022-02-10T09:22:37.000Z</time>
      </trkpt>
      <trkpt lat="47.31907" lon="-2.4361">
        <ele>-30</ele>
        <time>2022-02-10T09:22:38.000Z</time>
      </trkpt>
      <trkpt lat="47.319" lon="-2.43616">
        <ele>-30.60000038147</ele>
        <time>2022-02-10T09:22:39.000Z</time>
      </trkpt>
      <trkpt lat="47.31894" lon="-2.43622">
        <ele>-31</ele>
        <time>2022-02-10T09:22:40.000Z</time>
      </trkpt>
      <trkpt lat="47.31889" lon="-2.4363">
        <ele>-31.39999961853</ele>
        <time>2022-02-10T09:22:41.000Z</time>
      </trkpt>
      <trkpt lat="47.31887" lon="-2.43638">
        <ele>-32</ele>
        <time>2022-02-10T09:22:42.000Z</time>
      </trkpt>
      <trkpt lat="47.31885" lon="-2.43647">
        <ele>-32.400001525879</ele>
        <time>2022-02-10T09:22:43.000Z</time>
      </trkpt>
      <trkpt lat="47.31885" lon="-2.43655">
        <ele>-33</ele>
        <time>2022-02-10T09:22:44.000Z</time>
      </trkpt>
      <trkpt lat="47.31888" lon="-2.43664">
        <ele>-33.400001525879</ele>
        <time>2022-02-10T09:22:45.000Z</time>
      </trkpt>
      <trkpt lat="47.31892" lon="-2.43672">
        <ele>-34</ele>
        <time>2022-02-10T09:22:46.000Z</time>
      </trkpt>
      <trkpt lat="47.31896" lon="-2.4368">
        <ele>-34</ele>
        <time>2022-02-10T09:22:47.000Z</time>
      </trkpt>
      <trkpt lat="47.31918" lon="-2.43719">
        <ele>-34</ele>
        <time>2022-02-10T09:22:52.000Z</time>
      </trkpt>
      <trkpt lat="47.31938" lon="-2.43767">
        <ele>-34</ele>
        <time>2022-02-10T09:22:58.000Z</time>
      </trkpt>
      <trkpt lat="47.31958" lon="-2.43811">
        <ele>-34</ele>
        <time>2022-02-10T09:23:04.000Z</time>
      </trkpt>
      <trkpt lat="47.3197" lon="-2.4383">
        <ele>-34</ele>
        <time>2022-02-10T09:23:07.000Z</time>
      </trkpt>
      <trkpt lat="47.3198" lon="-2.43838">
        <ele>-34</ele>
        <time>2022-02-10T09:23:09.000Z</time>
      </trkpt>
      <trkpt lat="47.31994" lon="-2.43832">
        <ele>-34</ele>
        <time>2022-02-10T09:23:12.000Z</time>
      </trkpt>
      <trkpt lat="47.31998" lon="-2.43827">
        <ele>-33.400001525879</ele>
        <time>2022-02-10T09:23:13.000Z</time>
      </trkpt>
      <trkpt lat="47.32002" lon="-2.43823">
        <ele>-33</ele>
        <time>2022-02-10T09:23:14.000Z</time>
      </trkpt>
      <trkpt lat="47.32005" lon="-2.43819">
        <ele>-32.599998474121</ele>
        <time>2022-02-10T09:23:15.000Z</time>
      </trkpt>
      <trkpt lat="47.32008" lon="-2.43815">
        <ele>-32.200000762939</ele>
        <time>2022-02-10T09:23:16.000Z</time>
      </trkpt>
      <trkpt lat="47.32011" lon="-2.43811">
        <ele>-31.799999237061</ele>
        <time>2022-02-10T09:23:17.000Z</time>
      </trkpt>
      <trkpt lat="47.32014" lon="-2.43808">
        <ele>-31.799999237061</ele>
        <time>2022-02-10T09:23:18.000Z</time>
      </trkpt>
      <trkpt lat="47.32021" lon="-2.43804">
        <ele>-31.39999961853</ele>
        <time>2022-02-10T09:23:20.000Z</time>
      </trkpt>
      <trkpt lat="47.32024" lon="-2.43801">
        <ele>-31</ele>
        <time>2022-02-10T09:23:21.000Z</time>
      </trkpt>
      <trkpt lat="47.32028" lon="-2.43799">
        <ele>-30.60000038147</ele>
        <time>2022-02-10T09:23:22.000Z</time>
      </trkpt>
      <trkpt lat="47.32032" lon="-2.43798">
        <ele>-29.799999237061</ele>
        <time>2022-02-10T09:23:23.000Z</time>
      </trkpt>
      <trkpt lat="47.32035" lon="-2.438">
        <ele>-29.39999961853</ele>
        <time>2022-02-10T09:23:24.000Z</time>
      </trkpt>
      <trkpt lat="47.32037" lon="-2.43804">
        <ele>-29</ele>
        <time>2022-02-10T09:23:25.000Z</time>
      </trkpt>
      <trkpt lat="47.32039" lon="-2.43808">
        <ele>-28.60000038147</ele>
        <time>2022-02-10T09:23:26.000Z</time>
      </trkpt>
      <trkpt lat="47.32041" lon="-2.43813">
        <ele>-28</ele>
        <time>2022-02-10T09:23:27.000Z</time>
      </trkpt>
      <trkpt lat="47.32044" lon="-2.43818">
        <ele>-27.60000038147</ele>
        <time>2022-02-10T09:23:28.000Z</time>
      </trkpt>
      <trkpt lat="47.3205" lon="-2.43828">
        <ele>-27.60000038147</ele>
        <time>2022-02-10T09:23:30.000Z</time>
      </trkpt>
      <trkpt lat="47.32057" lon="-2.43845">
        <ele>-27.60000038147</ele>
        <time>2022-02-10T09:23:33.000Z</time>
      </trkpt>
      <trkpt lat="47.32066" lon="-2.43861">
        <ele>-27.60000038147</ele>
        <time>2022-02-10T09:23:36.000Z</time>
      </trkpt>
      <trkpt lat="47.32069" lon="-2.43868">
        <ele>-27.200000762939</ele>
        <time>2022-02-10T09:23:37.000Z</time>
      </trkpt>
      <trkpt lat="47.32072" lon="-2.43873">
        <ele>-26.799999237061</ele>
        <time>2022-02-10T09:23:38.000Z</time>
      </trkpt>
      <trkpt lat="47.32075" lon="-2.43878">
        <ele>-26.39999961853</ele>
        <time>2022-02-10T09:23:39.000Z</time>
      </trkpt>
      <trkpt lat="47.32079" lon="-2.43883">
        <ele>-26</ele>
        <time>2022-02-10T09:23:40.000Z</time>
      </trkpt>
      <trkpt lat="47.32083" lon="-2.43888">
        <ele>-25.60000038147</ele>
        <time>2022-02-10T09:23:41.000Z</time>
      </trkpt>
      <trkpt lat="47.32086" lon="-2.43892">
        <ele>-25.60000038147</ele>
        <time>2022-02-10T09:23:42.000Z</time>
      </trkpt>
      <trkpt lat="47.32091" lon="-2.43895">
        <ele>-25.60000038147</ele>
        <time>2022-02-10T09:23:43.000Z</time>
      </trkpt>
      <trkpt lat="47.32103" lon="-2.43901">
        <ele>-25.60000038147</ele>
        <time>2022-02-10T09:23:46.000Z</time>
      </trkpt>
      <trkpt lat="47.32125" lon="-2.43914">
        <ele>-25.200000762939</ele>
        <time>2022-02-10T09:23:51.000Z</time>
      </trkpt>
      <trkpt lat="47.32129" lon="-2.43917">
        <ele>-24.799999237061</ele>
        <time>2022-02-10T09:23:52.000Z</time>
      </trkpt>
      <trkpt lat="47.32132" lon="-2.4392">
        <ele>-24.200000762939</ele>
        <time>2022-02-10T09:23:53.000Z</time>
      </trkpt>
      <trkpt lat="47.32135" lon="-2.43924">
        <ele>-23.799999237061</ele>
        <time>2022-02-10T09:23:54.000Z</time>
      </trkpt>
      <trkpt lat="47.32138" lon="-2.43928">
        <ele>-23.39999961853</ele>
        <time>2022-02-10T09:23:55.000Z</time>
      </trkpt>
      <trkpt lat="47.32147" lon="-2.4394">
        <ele>-23</ele>
        <time>2022-02-10T09:23:58.000Z</time>
      </trkpt>
      <trkpt lat="47.32149" lon="-2.43944">
        <ele>-22.60000038147</ele>
        <time>2022-02-10T09:23:59.000Z</time>
      </trkpt>
      <trkpt lat="47.32151" lon="-2.43949">
        <ele>-22.200000762939</ele>
        <time>2022-02-10T09:24:00.000Z</time>
      </trkpt>
      <trkpt lat="47.32154" lon="-2.43953">
        <ele>-21.60000038147</ele>
        <time>2022-02-10T09:24:01.000Z</time>
      </trkpt>
      <trkpt lat="47.32157" lon="-2.43957">
        <ele>-21.200000762939</ele>
        <time>2022-02-10T09:24:02.000Z</time>
      </trkpt>
      <trkpt lat="47.32162" lon="-2.43965">
        <ele>-21.200000762939</ele>
        <time>2022-02-10T09:24:04.000Z</time>
      </trkpt>
      <trkpt lat="47.32171" lon="-2.43977">
        <ele>-20.799999237061</ele>
        <time>2022-02-10T09:24:07.000Z</time>
      </trkpt>
      <trkpt lat="47.32174" lon="-2.43981">
        <ele>-20.39999961853</ele>
        <time>2022-02-10T09:24:08.000Z</time>
      </trkpt>
      <trkpt lat="47.32177" lon="-2.43985">
        <ele>-20</ele>
        <time>2022-02-10T09:24:09.000Z</time>
      </trkpt>
      <trkpt lat="47.3218" lon="-2.43989">
        <ele>-19.60000038147</ele>
        <time>2022-02-10T09:24:10.000Z</time>
      </trkpt>
      <trkpt lat="47.32182" lon="-2.43994">
        <ele>-19.200000762939</ele>
        <time>2022-02-10T09:24:11.000Z</time>
      </trkpt>
      <trkpt lat="47.32204" lon="-2.44021">
        <ele>-19.200000762939</ele>
        <time>2022-02-10T09:24:18.000Z</time>
      </trkpt>
      <trkpt lat="47.32218" lon="-2.44033">
        <ele>-18.799999237061</ele>
        <time>2022-02-10T09:24:22.000Z</time>
      </trkpt>
      <trkpt lat="47.32222" lon="-2.44035">
        <ele>-18.39999961853</ele>
        <time>2022-02-10T09:24:23.000Z</time>
      </trkpt>
      <trkpt lat="47.32225" lon="-2.44038">
        <ele>-18</ele>
        <time>2022-02-10T09:24:24.000Z</time>
      </trkpt>
      <trkpt lat="47.32229" lon="-2.44041">
        <ele>-17.60000038147</ele>
        <time>2022-02-10T09:24:25.000Z</time>
      </trkpt>
      <trkpt lat="47.32233" lon="-2.44043">
        <ele>-17.200000762939</ele>
        <time>2022-02-10T09:24:26.000Z</time>
      </trkpt>
      <trkpt lat="47.32245" lon="-2.44045">
        <ele>-17.200000762939</ele>
        <time>2022-02-10T09:24:29.000Z</time>
      </trkpt>
      <trkpt lat="47.32249" lon="-2.44045">
        <ele>-17.200000762939</ele>
        <time>2022-02-10T09:24:30.000Z</time>
      </trkpt>
      <trkpt lat="47.32257" lon="-2.44046">
        <ele>-17.200000762939</ele>
        <time>2022-02-10T09:24:32.000Z</time>
      </trkpt>
      <trkpt lat="47.32271" lon="-2.44049">
        <ele>-17.200000762939</ele>
        <time>2022-02-10T09:24:35.000Z</time>
      </trkpt>
      <trkpt lat="47.32294" lon="-2.44055">
        <ele>-16.799999237061</ele>
        <time>2022-02-10T09:24:41.000Z</time>
      </trkpt>
      <trkpt lat="47.32298" lon="-2.44057">
        <ele>-16.39999961853</ele>
        <time>2022-02-10T09:24:42.000Z</time>
      </trkpt>
      <trkpt lat="47.32303" lon="-2.44058">
        <ele>-16</ele>
        <time>2022-02-10T09:24:43.000Z</time>
      </trkpt>
      <trkpt lat="47.32307" lon="-2.4406">
        <ele>-15.60000038147</ele>
        <time>2022-02-10T09:24:44.000Z</time>
      </trkpt>
      <trkpt lat="47.32311" lon="-2.44062">
        <ele>-15</ele>
        <time>2022-02-10T09:24:45.000Z</time>
      </trkpt>
      <trkpt lat="47.3232" lon="-2.44065">
        <ele>-15</ele>
        <time>2022-02-10T09:24:47.000Z</time>
      </trkpt>
      <trkpt lat="47.32328" lon="-2.44067">
        <ele>-15</ele>
        <time>2022-02-10T09:24:49.000Z</time>
      </trkpt>
      <trkpt lat="47.32349" lon="-2.4407">
        <ele>-15</ele>
        <time>2022-02-10T09:24:54.000Z</time>
      </trkpt>
      <trkpt lat="47.32353" lon="-2.4407">
        <ele>-14.60000038147</ele>
        <time>2022-02-10T09:24:55.000Z</time>
      </trkpt>
      <trkpt lat="47.32357" lon="-2.4407">
        <ele>-14.199999809265</ele>
        <time>2022-02-10T09:24:56.000Z</time>
      </trkpt>
      <trkpt lat="47.32361" lon="-2.44069">
        <ele>-13.800000190735</ele>
        <time>2022-02-10T09:24:57.000Z</time>
      </trkpt>
      <trkpt lat="47.32365" lon="-2.44068">
        <ele>-13.39999961853</ele>
        <time>2022-02-10T09:24:58.000Z</time>
      </trkpt>
      <trkpt lat="47.32369" lon="-2.44067">
        <ele>-13</ele>
        <time>2022-02-10T09:24:59.000Z</time>
      </trkpt>
      <trkpt lat="47.32384" lon="-2.4406">
        <ele>-13</ele>
        <time>2022-02-10T09:25:03.000Z</time>
      </trkpt>
      <trkpt lat="47.32388" lon="-2.44058">
        <ele>-13</ele>
        <time>2022-02-10T09:25:04.000Z</time>
      </trkpt>
      <trkpt lat="47.32399" lon="-2.44053">
        <ele>-12.60000038147</ele>
        <time>2022-02-10T09:25:07.000Z</time>
      </trkpt>
      <trkpt lat="47.32403" lon="-2.4405">
        <ele>-12.199999809265</ele>
        <time>2022-02-10T09:25:08.000Z</time>
      </trkpt>
      <trkpt lat="47.32407" lon="-2.44048">
        <ele>-11.800000190735</ele>
        <time>2022-02-10T09:25:09.000Z</time>
      </trkpt>
      <trkpt lat="47.3241" lon="-2.44046">
        <ele>-11.39999961853</ele>
        <time>2022-02-10T09:25:10.000Z</time>
      </trkpt>
      <trkpt lat="47.32414" lon="-2.44044">
        <ele>-11</ele>
        <time>2022-02-10T09:25:11.000Z</time>
      </trkpt>
      <trkpt lat="47.32428" lon="-2.44034">
        <ele>-11</ele>
        <time>2022-02-10T09:25:15.000Z</time>
      </trkpt>
      <trkpt lat="47.32439" lon="-2.44025">
        <ele>-10.60000038147</ele>
        <time>2022-02-10T09:25:18.000Z</time>
      </trkpt>
      <trkpt lat="47.32442" lon="-2.44023">
        <ele>-10.199999809265</ele>
        <time>2022-02-10T09:25:19.000Z</time>
      </trkpt>
      <trkpt lat="47.32446" lon="-2.44021">
        <ele>-9.8000001907349</ele>
        <time>2022-02-10T09:25:20.000Z</time>
      </trkpt>
      <trkpt lat="47.3245" lon="-2.44018">
        <ele>-9.3999996185303</ele>
        <time>2022-02-10T09:25:21.000Z</time>
      </trkpt>
      <trkpt lat="47.32454" lon="-2.44016">
        <ele>-9</ele>
        <time>2022-02-10T09:25:22.000Z</time>
      </trkpt>
      <trkpt lat="47.32474" lon="-2.44003">
        <ele>-9</ele>
        <time>2022-02-10T09:25:27.000Z</time>
      </trkpt>
      <trkpt lat="47.32481" lon="-2.43998">
        <ele>-9</ele>
        <time>2022-02-10T09:25:29.000Z</time>
      </trkpt>
      <trkpt lat="47.32492" lon="-2.43991">
        <ele>-8.6000003814697</ele>
        <time>2022-02-10T09:25:32.000Z</time>
      </trkpt>
      <trkpt lat="47.32495" lon="-2.43988">
        <ele>-8.1999998092651</ele>
        <time>2022-02-10T09:25:33.000Z</time>
      </trkpt>
      <trkpt lat="47.32499" lon="-2.43987">
        <ele>-7.5999999046326</ele>
        <time>2022-02-10T09:25:34.000Z</time>
      </trkpt>
      <trkpt lat="47.32503" lon="-2.43987">
        <ele>-7.1999998092651</ele>
        <time>2022-02-10T09:25:35.000Z</time>
      </trkpt>
      <trkpt lat="47.32507" lon="-2.43988">
        <ele>-6.8000001907349</ele>
        <time>2022-02-10T09:25:36.000Z</time>
      </trkpt>
      <trkpt lat="47.3251" lon="-2.43991">
        <ele>-6.8000001907349</ele>
        <time>2022-02-10T09:25:37.000Z</time>
      </trkpt>
      <trkpt lat="47.32517" lon="-2.44002">
        <ele>-6.8000001907349</ele>
        <time>2022-02-10T09:25:39.000Z</time>
      </trkpt>
      <trkpt lat="47.32527" lon="-2.44012">
        <ele>-6.8000001907349</ele>
        <time>2022-02-10T09:25:41.000Z</time>
      </trkpt>
      <trkpt lat="47.32542" lon="-2.44023">
        <ele>-6.8000001907349</ele>
        <time>2022-02-10T09:25:44.000Z</time>
      </trkpt>
      <trkpt lat="47.32552" lon="-2.44029">
        <ele>-6.8000001907349</ele>
        <time>2022-02-10T09:25:46.000Z</time>
      </trkpt>
      <trkpt lat="47.32566" lon="-2.44035">
        <ele>-6.8000001907349</ele>
        <time>2022-02-10T09:25:49.000Z</time>
      </trkpt>
      <trkpt lat="47.32573" lon="-2.44045">
        <ele>-6.8000001907349</ele>
        <time>2022-02-10T09:25:52.000Z</time>
      </trkpt>
      <trkpt lat="47.32572" lon="-2.44049">
        <ele>-6.8000001907349</ele>
        <time>2022-02-10T09:25:53.000Z</time>
      </trkpt>
      <trkpt lat="47.32565" lon="-2.44063">
        <ele>-6.8000001907349</ele>
        <time>2022-02-10T09:25:56.000Z</time>
      </trkpt>
      <trkpt lat="47.32561" lon="-2.44074">
        <ele>-6.8000001907349</ele>
        <time>2022-02-10T09:25:58.000Z</time>
      </trkpt>
      <trkpt lat="47.32555" lon="-2.44094">
        <ele>-6.8000001907349</ele>
        <time>2022-02-10T09:26:01.000Z</time>
      </trkpt>
      <trkpt lat="47.32542" lon="-2.44141">
        <ele>-6.8000001907349</ele>
        <time>2022-02-10T09:26:07.000Z</time>
      </trkpt>
      <trkpt lat="47.3253" lon="-2.44189">
        <ele>-6.8000001907349</ele>
        <time>2022-02-10T09:26:13.000Z</time>
      </trkpt>
      <trkpt lat="47.32533" lon="-2.44211">
        <ele>-6.8000001907349</ele>
        <time>2022-02-10T09:26:16.000Z</time>
      </trkpt>
      <trkpt lat="47.32538" lon="-2.4422">
        <ele>-6.8000001907349</ele>
        <time>2022-02-10T09:26:18.000Z</time>
      </trkpt>
      <trkpt lat="47.32547" lon="-2.44237">
        <ele>-6.8000001907349</ele>
        <time>2022-02-10T09:26:21.000Z</time>
      </trkpt>
      <trkpt lat="47.32561" lon="-2.44262">
        <ele>-6.8000001907349</ele>
        <time>2022-02-10T09:26:25.000Z</time>
      </trkpt>
      <trkpt lat="47.32566" lon="-2.44279">
        <ele>-6.8000001907349</ele>
        <time>2022-02-10T09:26:27.000Z</time>
      </trkpt>
      <trkpt lat="47.32568" lon="-2.44296">
        <ele>-6.8000001907349</ele>
        <time>2022-02-10T09:26:29.000Z</time>
      </trkpt>
      <trkpt lat="47.3257" lon="-2.44304">
        <ele>-6.8000001907349</ele>
        <time>2022-02-10T09:26:30.000Z</time>
      </trkpt>
      <trkpt lat="47.32574" lon="-2.44312">
        <ele>-6.8000001907349</ele>
        <time>2022-02-10T09:26:31.000Z</time>
      </trkpt>
      <trkpt lat="47.32578" lon="-2.44325">
        <ele>-6.8000001907349</ele>
        <time>2022-02-10T09:26:33.000Z</time>
      </trkpt>
      <trkpt lat="47.32583" lon="-2.44338">
        <ele>-6.8000001907349</ele>
        <time>2022-02-10T09:26:35.000Z</time>
      </trkpt>
      <trkpt lat="47.32595" lon="-2.44364">
        <ele>-6.8000001907349</ele>
        <time>2022-02-10T09:26:39.000Z</time>
      </trkpt>
      <trkpt lat="47.32598" lon="-2.4437">
        <ele>-6.8000001907349</ele>
        <time>2022-02-10T09:26:40.000Z</time>
      </trkpt>
      <trkpt lat="47.32602" lon="-2.44376">
        <ele>-6.8000001907349</ele>
        <time>2022-02-10T09:26:41.000Z</time>
      </trkpt>
      <trkpt lat="47.32612" lon="-2.44385">
        <ele>-6.8000001907349</ele>
        <time>2022-02-10T09:26:44.000Z</time>
      </trkpt>
      <trkpt lat="47.32623" lon="-2.44403">
        <ele>-6.8000001907349</ele>
        <time>2022-02-10T09:26:48.000Z</time>
      </trkpt>
      <trkpt lat="47.32633" lon="-2.44429">
        <ele>-6.8000001907349</ele>
        <time>2022-02-10T09:26:53.000Z</time>
      </trkpt>
      <trkpt lat="47.32647" lon="-2.44464">
        <ele>-6.8000001907349</ele>
        <time>2022-02-10T09:26:58.000Z</time>
      </trkpt>
      <trkpt lat="47.32649" lon="-2.44472">
        <ele>-6.8000001907349</ele>
        <time>2022-02-10T09:26:59.000Z</time>
      </trkpt>
      <trkpt lat="47.32657" lon="-2.44492">
        <ele>-6.8000001907349</ele>
        <time>2022-02-10T09:27:02.000Z</time>
      </trkpt>
      <trkpt lat="47.32665" lon="-2.44499">
        <ele>-6.8000001907349</ele>
        <time>2022-02-10T09:27:04.000Z</time>
      </trkpt>
      <trkpt lat="47.32667" lon="-2.44504">
        <ele>-6.8000001907349</ele>
        <time>2022-02-10T09:27:05.000Z</time>
      </trkpt>
      <trkpt lat="47.32664" lon="-2.44513">
        <ele>-6.8000001907349</ele>
        <time>2022-02-10T09:27:07.000Z</time>
      </trkpt>
      <trkpt lat="47.32651" lon="-2.44534">
        <ele>-6.8000001907349</ele>
        <time>2022-02-10T09:27:11.000Z</time>
      </trkpt>
      <trkpt lat="47.32647" lon="-2.4454">
        <ele>-6.8000001907349</ele>
        <time>2022-02-10T09:27:12.000Z</time>
      </trkpt>
      <trkpt lat="47.32627" lon="-2.44575">
        <ele>-6.8000001907349</ele>
        <time>2022-02-10T09:27:17.000Z</time>
      </trkpt>
      <trkpt lat="47.32596" lon="-2.44628">
        <ele>-6.8000001907349</ele>
        <time>2022-02-10T09:27:24.000Z</time>
      </trkpt>
      <trkpt lat="47.32581" lon="-2.4465">
        <ele>-7.1999998092651</ele>
        <time>2022-02-10T09:27:27.000Z</time>
      </trkpt>
      <trkpt lat="47.32576" lon="-2.44657">
        <ele>-7.5999999046326</ele>
        <time>2022-02-10T09:27:28.000Z</time>
      </trkpt>
      <trkpt lat="47.32571" lon="-2.44665">
        <ele>-8</ele>
        <time>2022-02-10T09:27:29.000Z</time>
      </trkpt>
      <trkpt lat="47.32565" lon="-2.44672">
        <ele>-8.8000001907349</ele>
        <time>2022-02-10T09:27:30.000Z</time>
      </trkpt>
      <trkpt lat="47.32554" lon="-2.44687">
        <ele>-9.3999996185303</ele>
        <time>2022-02-10T09:27:32.000Z</time>
      </trkpt>
      <trkpt lat="47.32548" lon="-2.44695">
        <ele>-9.8000001907349</ele>
        <time>2022-02-10T09:27:33.000Z</time>
      </trkpt>
      <trkpt lat="47.32543" lon="-2.44702">
        <ele>-10.199999809265</ele>
        <time>2022-02-10T09:27:34.000Z</time>
      </trkpt>
      <trkpt lat="47.32537" lon="-2.44709">
        <ele>-10.800000190735</ele>
        <time>2022-02-10T09:27:35.000Z</time>
      </trkpt>
      <trkpt lat="47.32533" lon="-2.44715">
        <ele>-11.199999809265</ele>
        <time>2022-02-10T09:27:36.000Z</time>
      </trkpt>
      <trkpt lat="47.3253" lon="-2.44722">
        <ele>-11.800000190735</ele>
        <time>2022-02-10T09:27:37.000Z</time>
      </trkpt>
      <trkpt lat="47.32528" lon="-2.44729">
        <ele>-12.199999809265</ele>
        <time>2022-02-10T09:27:38.000Z</time>
      </trkpt>
      <trkpt lat="47.32526" lon="-2.44736">
        <ele>-12.800000190735</ele>
        <time>2022-02-10T09:27:39.000Z</time>
      </trkpt>
      <trkpt lat="47.32524" lon="-2.44741">
        <ele>-13.199999809265</ele>
        <time>2022-02-10T09:27:40.000Z</time>
      </trkpt>
      <trkpt lat="47.32519" lon="-2.44746">
        <ele>-13.800000190735</ele>
        <time>2022-02-10T09:27:41.000Z</time>
      </trkpt>
      <trkpt lat="47.32515" lon="-2.44751">
        <ele>-14.199999809265</ele>
        <time>2022-02-10T09:27:42.000Z</time>
      </trkpt>
      <trkpt lat="47.32511" lon="-2.44756">
        <ele>-14.60000038147</ele>
        <time>2022-02-10T09:27:43.000Z</time>
      </trkpt>
      <trkpt lat="47.32507" lon="-2.44761">
        <ele>-15</ele>
        <time>2022-02-10T09:27:44.000Z</time>
      </trkpt>
      <trkpt lat="47.32503" lon="-2.44765">
        <ele>-15.39999961853</ele>
        <time>2022-02-10T09:27:45.000Z</time>
      </trkpt>
      <trkpt lat="47.32487" lon="-2.44779">
        <ele>-15.800000190735</ele>
        <time>2022-02-10T09:27:48.000Z</time>
      </trkpt>
      <trkpt lat="47.32482" lon="-2.44784">
        <ele>-16.200000762939</ele>
        <time>2022-02-10T09:27:49.000Z</time>
      </trkpt>
      <trkpt lat="47.32476" lon="-2.44789">
        <ele>-16.60000038147</ele>
        <time>2022-02-10T09:27:50.000Z</time>
      </trkpt>
      <trkpt lat="47.32469" lon="-2.44794">
        <ele>-17.200000762939</ele>
        <time>2022-02-10T09:27:51.000Z</time>
      </trkpt>
      <trkpt lat="47.32463" lon="-2.44799">
        <ele>-17.60000038147</ele>
        <time>2022-02-10T09:27:52.000Z</time>
      </trkpt>
      <trkpt lat="47.32455" lon="-2.44805">
        <ele>-18</ele>
        <time>2022-02-10T09:27:53.000Z</time>
      </trkpt>
      <trkpt lat="47.32447" lon="-2.4481">
        <ele>-18.39999961853</ele>
        <time>2022-02-10T09:27:54.000Z</time>
      </trkpt>
      <trkpt lat="47.32436" lon="-2.44816">
        <ele>-19.200000762939</ele>
        <time>2022-02-10T09:27:55.000Z</time>
      </trkpt>
      <trkpt lat="47.32425" lon="-2.44822">
        <ele>-19.60000038147</ele>
        <time>2022-02-10T09:27:56.000Z</time>
      </trkpt>
      <trkpt lat="47.32394" lon="-2.4484">
        <ele>-20.200000762939</ele>
        <time>2022-02-10T09:27:59.000Z</time>
      </trkpt>
      <trkpt lat="47.32385" lon="-2.44845">
        <ele>-20.60000038147</ele>
        <time>2022-02-10T09:28:00.000Z</time>
      </trkpt>
      <trkpt lat="47.32377" lon="-2.44851">
        <ele>-21</ele>
        <time>2022-02-10T09:28:01.000Z</time>
      </trkpt>
      <trkpt lat="47.32369" lon="-2.44856">
        <ele>-21.39999961853</ele>
        <time>2022-02-10T09:28:02.000Z</time>
      </trkpt>
      <trkpt lat="47.32361" lon="-2.44862">
        <ele>-22</ele>
        <time>2022-02-10T09:28:03.000Z</time>
      </trkpt>
      <trkpt lat="47.32339" lon="-2.44883">
        <ele>-22</ele>
        <time>2022-02-10T09:28:06.000Z</time>
      </trkpt>
      <trkpt lat="47.32309" lon="-2.44921">
        <ele>-22.39999961853</ele>
        <time>2022-02-10T09:28:11.000Z</time>
      </trkpt>
      <trkpt lat="47.32303" lon="-2.44928">
        <ele>-22.799999237061</ele>
        <time>2022-02-10T09:28:12.000Z</time>
      </trkpt>
      <trkpt lat="47.32297" lon="-2.44935">
        <ele>-23.200000762939</ele>
        <time>2022-02-10T09:28:13.000Z</time>
      </trkpt>
      <trkpt lat="47.3229" lon="-2.44943">
        <ele>-23.60000038147</ele>
        <time>2022-02-10T09:28:14.000Z</time>
      </trkpt>
      <trkpt lat="47.32283" lon="-2.4495">
        <ele>-24</ele>
        <time>2022-02-10T09:28:15.000Z</time>
      </trkpt>
      <trkpt lat="47.32264" lon="-2.4497">
        <ele>-24</ele>
        <time>2022-02-10T09:28:18.000Z</time>
      </trkpt>
      <trkpt lat="47.3225" lon="-2.44985">
        <ele>-24.39999961853</ele>
        <time>2022-02-10T09:28:20.000Z</time>
      </trkpt>
      <trkpt lat="47.32242" lon="-2.44993">
        <ele>-25</ele>
        <time>2022-02-10T09:28:21.000Z</time>
      </trkpt>
      <trkpt lat="47.32236" lon="-2.45001">
        <ele>-25.39999961853</ele>
        <time>2022-02-10T09:28:22.000Z</time>
      </trkpt>
      <trkpt lat="47.32229" lon="-2.4501">
        <ele>-26.200000762939</ele>
        <time>2022-02-10T09:28:23.000Z</time>
      </trkpt>
      <trkpt lat="47.32222" lon="-2.45017">
        <ele>-26.799999237061</ele>
        <time>2022-02-10T09:28:24.000Z</time>
      </trkpt>
      <trkpt lat="47.32217" lon="-2.45023">
        <ele>-27.799999237061</ele>
        <time>2022-02-10T09:28:25.000Z</time>
      </trkpt>
      <trkpt lat="47.32212" lon="-2.45028">
        <ele>-28.60000038147</ele>
        <time>2022-02-10T09:28:26.000Z</time>
      </trkpt>
      <trkpt lat="47.32208" lon="-2.45034">
        <ele>-29.39999961853</ele>
        <time>2022-02-10T09:28:27.000Z</time>
      </trkpt>
      <trkpt lat="47.32206" lon="-2.45041">
        <ele>-30.200000762939</ele>
        <time>2022-02-10T09:28:28.000Z</time>
      </trkpt>
      <trkpt lat="47.32206" lon="-2.45048">
        <ele>-31</ele>
        <time>2022-02-10T09:28:29.000Z</time>
      </trkpt>
      <trkpt lat="47.32208" lon="-2.45055">
        <ele>-31.60000038147</ele>
        <time>2022-02-10T09:28:30.000Z</time>
      </trkpt>
      <trkpt lat="47.32212" lon="-2.4506">
        <ele>-32.400001525879</ele>
        <time>2022-02-10T09:28:31.000Z</time>
      </trkpt>
      <trkpt lat="47.32216" lon="-2.45066">
        <ele>-33.200000762939</ele>
        <time>2022-02-10T09:28:32.000Z</time>
      </trkpt>
      <trkpt lat="47.32221" lon="-2.45073">
        <ele>-33.200000762939</ele>
        <time>2022-02-10T09:28:33.000Z</time>
      </trkpt>
      <trkpt lat="47.32233" lon="-2.45094">
        <ele>-33.200000762939</ele>
        <time>2022-02-10T09:28:36.000Z</time>
      </trkpt>
      <trkpt lat="47.32256" lon="-2.45147">
        <ele>-33.200000762939</ele>
        <time>2022-02-10T09:28:42.000Z</time>
      </trkpt>
      <trkpt lat="47.32266" lon="-2.4519">
        <ele>-33.599998474121</ele>
        <time>2022-02-10T09:28:46.000Z</time>
      </trkpt>
      <trkpt lat="47.32268" lon="-2.45201">
        <ele>-34.200000762939</ele>
        <time>2022-02-10T09:28:47.000Z</time>
      </trkpt>
      <trkpt lat="47.32275" lon="-2.45213">
        <ele>-34.599998474121</ele>
        <time>2022-02-10T09:28:48.000Z</time>
      </trkpt>
      <trkpt lat="47.3228" lon="-2.45225">
        <ele>-35</ele>
        <time>2022-02-10T09:28:49.000Z</time>
      </trkpt>
      <trkpt lat="47.32286" lon="-2.45234">
        <ele>-35.599998474121</ele>
        <time>2022-02-10T09:28:50.000Z</time>
      </trkpt>
      <trkpt lat="47.32291" lon="-2.45243">
        <ele>-36</ele>
        <time>2022-02-10T09:28:51.000Z</time>
      </trkpt>
      <trkpt lat="47.32296" lon="-2.45254">
        <ele>-36.599998474121</ele>
        <time>2022-02-10T09:28:52.000Z</time>
      </trkpt>
      <trkpt lat="47.32299" lon="-2.45262">
        <ele>-37</ele>
        <time>2022-02-10T09:28:53.000Z</time>
      </trkpt>
      <trkpt lat="47.32302" lon="-2.4527">
        <ele>-37.599998474121</ele>
        <time>2022-02-10T09:28:54.000Z</time>
      </trkpt>
      <trkpt lat="47.32305" lon="-2.45279">
        <ele>-37.599998474121</ele>
        <time>2022-02-10T09:28:55.000Z</time>
      </trkpt>
      <trkpt lat="47.32314" lon="-2.4531">
        <ele>-37.200000762939</ele>
        <time>2022-02-10T09:28:59.000Z</time>
      </trkpt>
      <trkpt lat="47.32316" lon="-2.45317">
        <ele>-36.799999237061</ele>
        <time>2022-02-10T09:29:00.000Z</time>
      </trkpt>
      <trkpt lat="47.32317" lon="-2.45324">
        <ele>-36.200000762939</ele>
        <time>2022-02-10T09:29:01.000Z</time>
      </trkpt>
      <trkpt lat="47.32317" lon="-2.45332">
        <ele>-35.799999237061</ele>
        <time>2022-02-10T09:29:02.000Z</time>
      </trkpt>
      <trkpt lat="47.32317" lon="-2.4534">
        <ele>-35.400001525879</ele>
        <time>2022-02-10T09:29:03.000Z</time>
      </trkpt>
      <trkpt lat="47.32318" lon="-2.45359">
        <ele>-35.400001525879</ele>
        <time>2022-02-10T09:29:05.000Z</time>
      </trkpt>
      <trkpt lat="47.32321" lon="-2.45392">
        <ele>-36.400001525879</ele>
        <time>2022-02-10T09:29:09.000Z</time>
      </trkpt>
      <trkpt lat="47.3232" lon="-2.45395">
        <ele>-36.799999237061</ele>
        <time>2022-02-10T09:29:10.000Z</time>
      </trkpt>
      <trkpt lat="47.32318" lon="-2.45395">
        <ele>-37.400001525879</ele>
        <time>2022-02-10T09:29:11.000Z</time>
      </trkpt>
      <trkpt lat="47.32317" lon="-2.45396">
        <ele>-37.799999237061</ele>
        <time>2022-02-10T09:29:12.000Z</time>
      </trkpt>
      <trkpt lat="47.32316" lon="-2.45399">
        <ele>-38.200000762939</ele>
        <time>2022-02-10T09:29:13.000Z</time>
      </trkpt>
      <trkpt lat="47.32316" lon="-2.45403">
        <ele>-38.599998474121</ele>
        <time>2022-02-10T09:29:14.000Z</time>
      </trkpt>
      <trkpt lat="47.32315" lon="-2.45407">
        <ele>-39</ele>
        <time>2022-02-10T09:29:15.000Z</time>
      </trkpt>
      <trkpt lat="47.32315" lon="-2.45413">
        <ele>-39.400001525879</ele>
        <time>2022-02-10T09:29:16.000Z</time>
      </trkpt>
      <trkpt lat="47.32315" lon="-2.45419">
        <ele>-39.799999237061</ele>
        <time>2022-02-10T09:29:17.000Z</time>
      </trkpt>
      <trkpt lat="47.32321" lon="-2.45438">
        <ele>-39.799999237061</ele>
        <time>2022-02-10T09:29:20.000Z</time>
      </trkpt>
      <trkpt lat="47.32334" lon="-2.45457">
        <ele>-39.799999237061</ele>
        <time>2022-02-10T09:29:24.000Z</time>
      </trkpt>
      <trkpt lat="47.32337" lon="-2.45462">
        <ele>-39.799999237061</ele>
        <time>2022-02-10T09:29:25.000Z</time>
      </trkpt>
      <trkpt lat="47.32341" lon="-2.45466">
        <ele>-39.799999237061</ele>
        <time>2022-02-10T09:29:26.000Z</time>
      </trkpt>
      <trkpt lat="47.32356" lon="-2.4549">
        <ele>-39.799999237061</ele>
        <time>2022-02-10T09:29:31.000Z</time>
      </trkpt>
      <trkpt lat="47.32359" lon="-2.45494">
        <ele>-39.799999237061</ele>
        <time>2022-02-10T09:29:32.000Z</time>
      </trkpt>
      <trkpt lat="47.32373" lon="-2.45518">
        <ele>-39.799999237061</ele>
        <time>2022-02-10T09:29:37.000Z</time>
      </trkpt>
      <trkpt lat="47.32391" lon="-2.4555">
        <ele>-39.799999237061</ele>
        <time>2022-02-10T09:29:44.000Z</time>
      </trkpt>
      <trkpt lat="47.32404" lon="-2.45567">
        <ele>-39.799999237061</ele>
        <time>2022-02-10T09:29:48.000Z</time>
      </trkpt>
      <trkpt lat="47.32412" lon="-2.4557">
        <ele>-39.799999237061</ele>
        <time>2022-02-10T09:29:50.000Z</time>
      </trkpt>
      <trkpt lat="47.32417" lon="-2.45585">
        <ele>-39.799999237061</ele>
        <time>2022-02-10T09:29:53.000Z</time>
      </trkpt>
      <trkpt lat="47.32418" lon="-2.45597">
        <ele>-39.799999237061</ele>
        <time>2022-02-10T09:29:55.000Z</time>
      </trkpt>
      <trkpt lat="47.3242" lon="-2.45604">
        <ele>-39.799999237061</ele>
        <time>2022-02-10T09:29:56.000Z</time>
      </trkpt>
      <trkpt lat="47.32425" lon="-2.45615">
        <ele>-39.799999237061</ele>
        <time>2022-02-10T09:29:58.000Z</time>
      </trkpt>
      <trkpt lat="47.32442" lon="-2.45646">
        <ele>-39.799999237061</ele>
        <time>2022-02-10T09:30:04.000Z</time>
      </trkpt>
      <trkpt lat="47.32445" lon="-2.45651">
        <ele>-39.799999237061</ele>
        <time>2022-02-10T09:30:05.000Z</time>
      </trkpt>
      <trkpt lat="47.32448" lon="-2.45656">
        <ele>-39.799999237061</ele>
        <time>2022-02-10T09:30:06.000Z</time>
      </trkpt>
      <trkpt lat="47.32469" lon="-2.4569">
        <ele>-39.799999237061</ele>
        <time>2022-02-10T09:30:12.000Z</time>
      </trkpt>
      <trkpt lat="47.32494" lon="-2.45733">
        <ele>-39.799999237061</ele>
        <time>2022-02-10T09:30:19.000Z</time>
      </trkpt>
      <trkpt lat="47.32513" lon="-2.4577">
        <ele>-39.799999237061</ele>
        <time>2022-02-10T09:30:25.000Z</time>
      </trkpt>
      <trkpt lat="47.32516" lon="-2.45775">
        <ele>-39.799999237061</ele>
        <time>2022-02-10T09:30:26.000Z</time>
      </trkpt>
      <trkpt lat="47.32529" lon="-2.45794">
        <ele>-39.799999237061</ele>
        <time>2022-02-10T09:30:30.000Z</time>
      </trkpt>
      <trkpt lat="47.32549" lon="-2.45824">
        <ele>-39.799999237061</ele>
        <time>2022-02-10T09:30:37.000Z</time>
      </trkpt>
      <trkpt lat="47.32553" lon="-2.4583">
        <ele>-39.799999237061</ele>
        <time>2022-02-10T09:30:41.000Z</time>
      </trkpt>
      <trkpt lat="47.32554" lon="-2.45832">
        <ele>-39.799999237061</ele>
        <time>2022-02-10T09:31:12.000Z</time>
      </trkpt>
      <trkpt lat="47.32559" lon="-2.45838">
        <ele>-39.799999237061</ele>
        <time>2022-02-10T09:31:15.000Z</time>
      </trkpt>
      <trkpt lat="47.3257" lon="-2.45859">
        <ele>-39.799999237061</ele>
        <time>2022-02-10T09:31:20.000Z</time>
      </trkpt>
      <trkpt lat="47.32587" lon="-2.45883">
        <ele>-39.799999237061</ele>
        <time>2022-02-10T09:31:26.000Z</time>
      </trkpt>
      <trkpt lat="47.3261" lon="-2.45915">
        <ele>-39.799999237061</ele>
        <time>2022-02-10T09:31:33.000Z</time>
      </trkpt>
      <trkpt lat="47.32617" lon="-2.45926">
        <ele>-39.799999237061</ele>
        <time>2022-02-10T09:31:35.000Z</time>
      </trkpt>
      <trkpt lat="47.32632" lon="-2.45953">
        <ele>-39.799999237061</ele>
        <time>2022-02-10T09:31:40.000Z</time>
      </trkpt>
      <trkpt lat="47.3264" lon="-2.45962">
        <ele>-39.799999237061</ele>
        <time>2022-02-10T09:31:42.000Z</time>
      </trkpt>
      <trkpt lat="47.32648" lon="-2.45969">
        <ele>-39.799999237061</ele>
        <time>2022-02-10T09:31:44.000Z</time>
      </trkpt>
      <trkpt lat="47.32668" lon="-2.45988">
        <ele>-39.799999237061</ele>
        <time>2022-02-10T09:31:50.000Z</time>
      </trkpt>
      <trkpt lat="47.32678" lon="-2.46002">
        <ele>-39.799999237061</ele>
        <time>2022-02-10T09:31:56.000Z</time>
      </trkpt>
      <trkpt lat="47.32685" lon="-2.4601">
        <ele>-39.799999237061</ele>
        <time>2022-02-10T09:32:00.000Z</time>
      </trkpt>
      <trkpt lat="47.32697" lon="-2.46025">
        <ele>-39.799999237061</ele>
        <time>2022-02-10T09:32:06.000Z</time>
      </trkpt>
      <trkpt lat="47.32708" lon="-2.46039">
        <ele>-39.799999237061</ele>
        <time>2022-02-10T09:32:13.000Z</time>
      </trkpt>
      <trkpt lat="47.32715" lon="-2.46047">
        <ele>-39.799999237061</ele>
        <time>2022-02-10T09:32:18.000Z</time>
      </trkpt>
      <trkpt lat="47.32723" lon="-2.46056">
        <ele>-39.799999237061</ele>
        <time>2022-02-10T09:32:24.000Z</time>
      </trkpt>
      <trkpt lat="47.32735" lon="-2.4607">
        <ele>-39.799999237061</ele>
        <time>2022-02-10T09:32:31.000Z</time>
      </trkpt>
      <trkpt lat="47.32745" lon="-2.46083">
        <ele>-39.400001525879</ele>
        <time>2022-02-10T09:32:36.000Z</time>
      </trkpt>
      <trkpt lat="47.32747" lon="-2.46087">
        <ele>-39</ele>
        <time>2022-02-10T09:32:37.000Z</time>
      </trkpt>
      <trkpt lat="47.32749" lon="-2.4609">
        <ele>-38.599998474121</ele>
        <time>2022-02-10T09:32:38.000Z</time>
      </trkpt>
      <trkpt lat="47.32751" lon="-2.46093">
        <ele>-38.200000762939</ele>
        <time>2022-02-10T09:32:39.000Z</time>
      </trkpt>
      <trkpt lat="47.32752" lon="-2.46096">
        <ele>-37.799999237061</ele>
        <time>2022-02-10T09:32:40.000Z</time>
      </trkpt>
      <trkpt lat="47.32755" lon="-2.46104">
        <ele>-37.799999237061</ele>
        <time>2022-02-10T09:32:43.000Z</time>
      </trkpt>
      <trkpt lat="47.3276" lon="-2.46124">
        <ele>-37.799999237061</ele>
        <time>2022-02-10T09:32:49.000Z</time>
      </trkpt>
      <trkpt lat="47.32761" lon="-2.4613">
        <ele>-37.400001525879</ele>
        <time>2022-02-10T09:32:51.000Z</time>
      </trkpt>
      <trkpt lat="47.32761" lon="-2.46133">
        <ele>-36.400001525879</ele>
        <time>2022-02-10T09:32:52.000Z</time>
      </trkpt>
      <trkpt lat="47.32762" lon="-2.46136">
        <ele>-36</ele>
        <time>2022-02-10T09:32:53.000Z</time>
      </trkpt>
      <trkpt lat="47.32763" lon="-2.46139">
        <ele>-35.599998474121</ele>
        <time>2022-02-10T09:32:54.000Z</time>
      </trkpt>
      <trkpt lat="47.32764" lon="-2.46144">
        <ele>-35.599998474121</ele>
        <time>2022-02-10T09:32:56.000Z</time>
      </trkpt>
      <trkpt lat="47.32769" lon="-2.4615">
        <ele>-35.599998474121</ele>
        <time>2022-02-10T09:33:01.000Z</time>
      </trkpt>
      <trkpt lat="47.32771" lon="-2.46152">
        <ele>-35.599998474121</ele>
        <time>2022-02-10T09:33:28.000Z</time>
      </trkpt>
      <trkpt lat="47.32784" lon="-2.46162">
        <ele>-35.599998474121</ele>
        <time>2022-02-10T09:33:35.000Z</time>
      </trkpt>
      <trkpt lat="47.32802" lon="-2.4618">
        <ele>-34.799999237061</ele>
        <time>2022-02-10T09:33:41.000Z</time>
      </trkpt>
      <trkpt lat="47.32805" lon="-2.46183">
        <ele>-34.400001525879</ele>
        <time>2022-02-10T09:33:42.000Z</time>
      </trkpt>
      <trkpt lat="47.32809" lon="-2.46186">
        <ele>-34</ele>
        <time>2022-02-10T09:33:43.000Z</time>
      </trkpt>
      <trkpt lat="47.32812" lon="-2.46188">
        <ele>-33.599998474121</ele>
        <time>2022-02-10T09:33:44.000Z</time>
      </trkpt>
      <trkpt lat="47.32823" lon="-2.46188">
        <ele>-33.599998474121</ele>
        <time>2022-02-10T09:33:47.000Z</time>
      </trkpt>
      <trkpt lat="47.32845" lon="-2.46176">
        <ele>-33</ele>
        <time>2022-02-10T09:33:53.000Z</time>
      </trkpt>
      <trkpt lat="47.32848" lon="-2.46174">
        <ele>-32.599998474121</ele>
        <time>2022-02-10T09:33:54.000Z</time>
      </trkpt>
      <trkpt lat="47.32851" lon="-2.46172">
        <ele>-32.200000762939</ele>
        <time>2022-02-10T09:33:55.000Z</time>
      </trkpt>
      <trkpt lat="47.32854" lon="-2.46171">
        <ele>-31.799999237061</ele>
        <time>2022-02-10T09:33:56.000Z</time>
      </trkpt>
      <trkpt lat="47.32857" lon="-2.46169">
        <ele>-31.39999961853</ele>
        <time>2022-02-10T09:33:57.000Z</time>
      </trkpt>
      <trkpt lat="47.32864" lon="-2.46165">
        <ele>-31.39999961853</ele>
        <time>2022-02-10T09:33:59.000Z</time>
      </trkpt>
      <trkpt lat="47.32867" lon="-2.46163">
        <ele>-30.799999237061</ele>
        <time>2022-02-10T09:34:00.000Z</time>
      </trkpt>
      <trkpt lat="47.3287" lon="-2.46161">
        <ele>-30.39999961853</ele>
        <time>2022-02-10T09:34:01.000Z</time>
      </trkpt>
      <trkpt lat="47.32874" lon="-2.46159">
        <ele>-30</ele>
        <time>2022-02-10T09:34:02.000Z</time>
      </trkpt>
      <trkpt lat="47.32877" lon="-2.46158">
        <ele>-29.60000038147</ele>
        <time>2022-02-10T09:34:03.000Z</time>
      </trkpt>
      <trkpt lat="47.3288" lon="-2.46156">
        <ele>-29.200000762939</ele>
        <time>2022-02-10T09:34:04.000Z</time>
      </trkpt>
      <trkpt lat="47.32886" lon="-2.46152">
        <ele>-29.200000762939</ele>
        <time>2022-02-10T09:34:06.000Z</time>
      </trkpt>
      <trkpt lat="47.32892" lon="-2.46149">
        <ele>-28.799999237061</ele>
        <time>2022-02-10T09:34:08.000Z</time>
      </trkpt>
      <trkpt lat="47.32894" lon="-2.46149">
        <ele>-28.39999961853</ele>
        <time>2022-02-10T09:34:09.000Z</time>
      </trkpt>
      <trkpt lat="47.32897" lon="-2.4615">
        <ele>-28</ele>
        <time>2022-02-10T09:34:10.000Z</time>
      </trkpt>
      <trkpt lat="47.32899" lon="-2.46152">
        <ele>-27.60000038147</ele>
        <time>2022-02-10T09:34:11.000Z</time>
      </trkpt>
      <trkpt lat="47.32902" lon="-2.46156">
        <ele>-27.200000762939</ele>
        <time>2022-02-10T09:34:12.000Z</time>
      </trkpt>
      <trkpt lat="47.32908" lon="-2.4617">
        <ele>-27.200000762939</ele>
        <time>2022-02-10T09:34:15.000Z</time>
      </trkpt>
      <trkpt lat="47.32921" lon="-2.46213">
        <ele>-27.200000762939</ele>
        <time>2022-02-10T09:34:22.000Z</time>
      </trkpt>
      <trkpt lat="47.32937" lon="-2.46265">
        <ele>-27.200000762939</ele>
        <time>2022-02-10T09:34:30.000Z</time>
      </trkpt>
      <trkpt lat="47.32954" lon="-2.46325">
        <ele>-27.200000762939</ele>
        <time>2022-02-10T09:34:38.000Z</time>
      </trkpt>
      <trkpt lat="47.32962" lon="-2.46356">
        <ele>-27.60000038147</ele>
        <time>2022-02-10T09:34:41.000Z</time>
      </trkpt>
      <trkpt lat="47.32964" lon="-2.46368">
        <ele>-28</ele>
        <time>2022-02-10T09:34:42.000Z</time>
      </trkpt>
      <trkpt lat="47.32965" lon="-2.46381">
        <ele>-28.39999961853</ele>
        <time>2022-02-10T09:34:43.000Z</time>
      </trkpt>
      <trkpt lat="47.32965" lon="-2.46394">
        <ele>-28.799999237061</ele>
        <time>2022-02-10T09:34:44.000Z</time>
      </trkpt>
      <trkpt lat="47.32965" lon="-2.46408">
        <ele>-29.39999961853</ele>
        <time>2022-02-10T09:34:45.000Z</time>
      </trkpt>
      <trkpt lat="47.32965" lon="-2.46422">
        <ele>-30</ele>
        <time>2022-02-10T09:34:46.000Z</time>
      </trkpt>
      <trkpt lat="47.32965" lon="-2.46438">
        <ele>-30.60000038147</ele>
        <time>2022-02-10T09:34:47.000Z</time>
      </trkpt>
      <trkpt lat="47.32965" lon="-2.46453">
        <ele>-31.200000762939</ele>
        <time>2022-02-10T09:34:48.000Z</time>
      </trkpt>
      <trkpt lat="47.32964" lon="-2.46469">
        <ele>-32</ele>
        <time>2022-02-10T09:34:49.000Z</time>
      </trkpt>
      <trkpt lat="47.32963" lon="-2.46485">
        <ele>-32.599998474121</ele>
        <time>2022-02-10T09:34:50.000Z</time>
      </trkpt>
      <trkpt lat="47.32962" lon="-2.465">
        <ele>-33.400001525879</ele>
        <time>2022-02-10T09:34:51.000Z</time>
      </trkpt>
      <trkpt lat="47.32961" lon="-2.46514">
        <ele>-34.200000762939</ele>
        <time>2022-02-10T09:34:52.000Z</time>
      </trkpt>
      <trkpt lat="47.3296" lon="-2.46526">
        <ele>-35</ele>
        <time>2022-02-10T09:34:53.000Z</time>
      </trkpt>
      <trkpt lat="47.32959" lon="-2.46537">
        <ele>-36</ele>
        <time>2022-02-10T09:34:54.000Z</time>
      </trkpt>
      <trkpt lat="47.32959" lon="-2.46547">
        <ele>-37</ele>
        <time>2022-02-10T09:34:55.000Z</time>
      </trkpt>
      <trkpt lat="47.3296" lon="-2.46556">
        <ele>-38.799999237061</ele>
        <time>2022-02-10T09:34:56.000Z</time>
      </trkpt>
      <trkpt lat="47.32963" lon="-2.46561">
        <ele>-39.599998474121</ele>
        <time>2022-02-10T09:34:57.000Z</time>
      </trkpt>
      <trkpt lat="47.32967" lon="-2.46564">
        <ele>-39.599998474121</ele>
        <time>2022-02-10T09:34:58.000Z</time>
      </trkpt>
      <trkpt lat="47.32975" lon="-2.46563">
        <ele>-39.599998474121</ele>
        <time>2022-02-10T09:35:00.000Z</time>
      </trkpt>
      <trkpt lat="47.32979" lon="-2.46561">
        <ele>-39.599998474121</ele>
        <time>2022-02-10T09:35:01.000Z</time>
      </trkpt>
      <trkpt lat="47.32983" lon="-2.46558">
        <ele>-39.599998474121</ele>
        <time>2022-02-10T09:35:02.000Z</time>
      </trkpt>
      <trkpt lat="47.32999" lon="-2.4655">
        <ele>-39.599998474121</ele>
        <time>2022-02-10T09:35:07.000Z</time>
      </trkpt>
      <trkpt lat="47.33006" lon="-2.46547">
        <ele>-39.200000762939</ele>
        <time>2022-02-10T09:35:09.000Z</time>
      </trkpt>
      <trkpt lat="47.33009" lon="-2.46545">
        <ele>-38.799999237061</ele>
        <time>2022-02-10T09:35:10.000Z</time>
      </trkpt>
      <trkpt lat="47.33012" lon="-2.46544">
        <ele>-38.400001525879</ele>
        <time>2022-02-10T09:35:11.000Z</time>
      </trkpt>
      <trkpt lat="47.33016" lon="-2.46543">
        <ele>-38</ele>
        <time>2022-02-10T09:35:12.000Z</time>
      </trkpt>
      <trkpt lat="47.3302" lon="-2.46542">
        <ele>-37.400001525879</ele>
        <time>2022-02-10T09:35:13.000Z</time>
      </trkpt>
      <trkpt lat="47.33039" lon="-2.46539">
        <ele>-37.400001525879</ele>
        <time>2022-02-10T09:35:18.000Z</time>
      </trkpt>
      <trkpt lat="47.33047" lon="-2.46538">
        <ele>-36.599998474121</ele>
        <time>2022-02-10T09:35:20.000Z</time>
      </trkpt>
      <trkpt lat="47.33051" lon="-2.46536">
        <ele>-36.200000762939</ele>
        <time>2022-02-10T09:35:21.000Z</time>
      </trkpt>
      <trkpt lat="47.33055" lon="-2.46535">
        <ele>-35.799999237061</ele>
        <time>2022-02-10T09:35:22.000Z</time>
      </trkpt>
      <trkpt lat="47.33059" lon="-2.46533">
        <ele>-35.400001525879</ele>
        <time>2022-02-10T09:35:23.000Z</time>
      </trkpt>
      <trkpt lat="47.33063" lon="-2.46532">
        <ele>-35.400001525879</ele>
        <time>2022-02-10T09:35:24.000Z</time>
      </trkpt>
      <trkpt lat="47.33084" lon="-2.46522">
        <ele>-35</ele>
        <time>2022-02-10T09:35:30.000Z</time>
      </trkpt>
      <trkpt lat="47.33087" lon="-2.4652">
        <ele>-34.599998474121</ele>
        <time>2022-02-10T09:35:31.000Z</time>
      </trkpt>
      <trkpt lat="47.3309" lon="-2.46518">
        <ele>-34.200000762939</ele>
        <time>2022-02-10T09:35:32.000Z</time>
      </trkpt>
      <trkpt lat="47.33093" lon="-2.46517">
        <ele>-33.599998474121</ele>
        <time>2022-02-10T09:35:33.000Z</time>
      </trkpt>
      <trkpt lat="47.33096" lon="-2.46515">
        <ele>-33.200000762939</ele>
        <time>2022-02-10T09:35:34.000Z</time>
      </trkpt>
      <trkpt lat="47.33104" lon="-2.4651">
        <ele>-32.799999237061</ele>
        <time>2022-02-10T09:35:37.000Z</time>
      </trkpt>
      <trkpt lat="47.33106" lon="-2.46509">
        <ele>-32.400001525879</ele>
        <time>2022-02-10T09:35:38.000Z</time>
      </trkpt>
      <trkpt lat="47.33109" lon="-2.46507">
        <ele>-32</ele>
        <time>2022-02-10T09:35:39.000Z</time>
      </trkpt>
      <trkpt lat="47.33111" lon="-2.46505">
        <ele>-31.60000038147</ele>
        <time>2022-02-10T09:35:40.000Z</time>
      </trkpt>
      <trkpt lat="47.33114" lon="-2.46503">
        <ele>-31.200000762939</ele>
        <time>2022-02-10T09:35:41.000Z</time>
      </trkpt>
      <trkpt lat="47.33122" lon="-2.46499">
        <ele>-31.200000762939</ele>
        <time>2022-02-10T09:35:44.000Z</time>
      </trkpt>
      <trkpt lat="47.33135" lon="-2.46496">
        <ele>-30.60000038147</ele>
        <time>2022-02-10T09:35:49.000Z</time>
      </trkpt>
      <trkpt lat="47.33137" lon="-2.46495">
        <ele>-30.200000762939</ele>
        <time>2022-02-10T09:35:50.000Z</time>
      </trkpt>
      <trkpt lat="47.3314" lon="-2.46495">
        <ele>-29.799999237061</ele>
        <time>2022-02-10T09:35:51.000Z</time>
      </trkpt>
      <trkpt lat="47.33143" lon="-2.46495">
        <ele>-29.39999961853</ele>
        <time>2022-02-10T09:35:52.000Z</time>
      </trkpt>
      <trkpt lat="47.33145" lon="-2.46494">
        <ele>-29</ele>
        <time>2022-02-10T09:35:53.000Z</time>
      </trkpt>
      <trkpt lat="47.33158" lon="-2.46491">
        <ele>-29</ele>
        <time>2022-02-10T09:35:58.000Z</time>
      </trkpt>
      <trkpt lat="47.33171" lon="-2.46485">
        <ele>-28.60000038147</ele>
        <time>2022-02-10T09:36:04.000Z</time>
      </trkpt>
      <trkpt lat="47.33173" lon="-2.46484">
        <ele>-28</ele>
        <time>2022-02-10T09:36:05.000Z</time>
      </trkpt>
      <trkpt lat="47.33174" lon="-2.46484">
        <ele>-27.60000038147</ele>
        <time>2022-02-10T09:36:06.000Z</time>
      </trkpt>
      <trkpt lat="47.33176" lon="-2.46483">
        <ele>-27.200000762939</ele>
        <time>2022-02-10T09:36:07.000Z</time>
      </trkpt>
      <trkpt lat="47.33179" lon="-2.46481">
        <ele>-26.799999237061</ele>
        <time>2022-02-10T09:36:08.000Z</time>
      </trkpt>
      <trkpt lat="47.33183" lon="-2.46479">
        <ele>-26.799999237061</ele>
        <time>2022-02-10T09:36:10.000Z</time>
      </trkpt>
      <trkpt lat="47.33191" lon="-2.46475">
        <ele>-26.39999961853</ele>
        <time>2022-02-10T09:36:15.000Z</time>
      </trkpt>
      <trkpt lat="47.33193" lon="-2.46475">
        <ele>-26</ele>
        <time>2022-02-10T09:36:16.000Z</time>
      </trkpt>
      <trkpt lat="47.33194" lon="-2.46475">
        <ele>-25.60000038147</ele>
        <time>2022-02-10T09:36:17.000Z</time>
      </trkpt>
      <trkpt lat="47.33196" lon="-2.46475">
        <ele>-25.200000762939</ele>
        <time>2022-02-10T09:36:18.000Z</time>
      </trkpt>
      <trkpt lat="47.33198" lon="-2.46475">
        <ele>-24.799999237061</ele>
        <time>2022-02-10T09:36:19.000Z</time>
      </trkpt>
      <trkpt lat="47.33204" lon="-2.46475">
        <ele>-24.799999237061</ele>
        <time>2022-02-10T09:36:23.000Z</time>
      </trkpt>
      <trkpt lat="47.3321" lon="-2.46473">
        <ele>-24.39999961853</ele>
        <time>2022-02-10T09:36:27.000Z</time>
      </trkpt>
      <trkpt lat="47.33211" lon="-2.46473">
        <ele>-23.799999237061</ele>
        <time>2022-02-10T09:36:28.000Z</time>
      </trkpt>
      <trkpt lat="47.33213" lon="-2.46472">
        <ele>-23.39999961853</ele>
        <time>2022-02-10T09:36:29.000Z</time>
      </trkpt>
      <trkpt lat="47.33214" lon="-2.46472">
        <ele>-23</ele>
        <time>2022-02-10T09:36:30.000Z</time>
      </trkpt>
      <trkpt lat="47.33216" lon="-2.46471">
        <ele>-22.60000038147</ele>
        <time>2022-02-10T09:36:31.000Z</time>
      </trkpt>
      <trkpt lat="47.33222" lon="-2.46465">
        <ele>-22.60000038147</ele>
        <time>2022-02-10T09:36:35.000Z</time>
      </trkpt>
      <trkpt lat="47.33226" lon="-2.46457">
        <ele>-22.200000762939</ele>
        <time>2022-02-10T09:36:38.000Z</time>
      </trkpt>
      <trkpt lat="47.33227" lon="-2.46454">
        <ele>-21.799999237061</ele>
        <time>2022-02-10T09:36:39.000Z</time>
      </trkpt>
      <trkpt lat="47.33229" lon="-2.46452">
        <ele>-21.39999961853</ele>
        <time>2022-02-10T09:36:40.000Z</time>
      </trkpt>
      <trkpt lat="47.3323" lon="-2.46449">
        <ele>-21</ele>
        <time>2022-02-10T09:36:41.000Z</time>
      </trkpt>
      <trkpt lat="47.33231" lon="-2.46446">
        <ele>-20.60000038147</ele>
        <time>2022-02-10T09:36:42.000Z</time>
      </trkpt>
      <trkpt lat="47.3324" lon="-2.46435">
        <ele>-20.60000038147</ele>
        <time>2022-02-10T09:36:47.000Z</time>
      </trkpt>
      <trkpt lat="47.33251" lon="-2.4643">
        <ele>-20.200000762939</ele>
        <time>2022-02-10T09:36:52.000Z</time>
      </trkpt>
      <trkpt lat="47.33253" lon="-2.4643">
        <ele>-19.60000038147</ele>
        <time>2022-02-10T09:36:53.000Z</time>
      </trkpt>
      <trkpt lat="47.33256" lon="-2.4643">
        <ele>-19.200000762939</ele>
        <time>2022-02-10T09:36:54.000Z</time>
      </trkpt>
      <trkpt lat="47.33258" lon="-2.46429">
        <ele>-18.799999237061</ele>
        <time>2022-02-10T09:36:55.000Z</time>
      </trkpt>
      <trkpt lat="47.33261" lon="-2.46429">
        <ele>-18.39999961853</ele>
        <time>2022-02-10T09:36:56.000Z</time>
      </trkpt>
      <trkpt lat="47.33268" lon="-2.46431">
        <ele>-18.39999961853</ele>
        <time>2022-02-10T09:36:59.000Z</time>
      </trkpt>
      <trkpt lat="47.33275" lon="-2.46443">
        <ele>-18.39999961853</ele>
        <time>2022-02-10T09:37:04.000Z</time>
      </trkpt>
      <trkpt lat="47.33281" lon="-2.46453">
        <ele>-18.39999961853</ele>
        <time>2022-02-10T09:37:10.000Z</time>
      </trkpt>
      <trkpt lat="47.33281" lon="-2.46456">
        <ele>-18.39999961853</ele>
        <time>2022-02-10T09:38:00.000Z</time>
      </trkpt>
      <trkpt lat="47.33286" lon="-2.46461">
        <ele>-18.39999961853</ele>
        <time>2022-02-10T09:38:03.000Z</time>
      </trkpt>
      <trkpt lat="47.33301" lon="-2.4646">
        <ele>-18.39999961853</ele>
        <time>2022-02-10T09:38:08.000Z</time>
      </trkpt>
      <trkpt lat="47.33328" lon="-2.46454">
        <ele>-18.39999961853</ele>
        <time>2022-02-10T09:38:16.000Z</time>
      </trkpt>
      <trkpt lat="47.33346" lon="-2.46449">
        <ele>-18</ele>
        <time>2022-02-10T09:38:22.000Z</time>
      </trkpt>
      <trkpt lat="47.33349" lon="-2.46448">
        <ele>-17.60000038147</ele>
        <time>2022-02-10T09:38:23.000Z</time>
      </trkpt>
      <trkpt lat="47.33352" lon="-2.46447">
        <ele>-17.200000762939</ele>
        <time>2022-02-10T09:38:24.000Z</time>
      </trkpt>
      <trkpt lat="47.33356" lon="-2.46446">
        <ele>-16.799999237061</ele>
        <time>2022-02-10T09:38:25.000Z</time>
      </trkpt>
      <trkpt lat="47.33359" lon="-2.46446">
        <ele>-16.39999961853</ele>
        <time>2022-02-10T09:38:26.000Z</time>
      </trkpt>
      <trkpt lat="47.33371" lon="-2.46443">
        <ele>-16.39999961853</ele>
        <time>2022-02-10T09:38:30.000Z</time>
      </trkpt>
      <trkpt lat="47.33387" lon="-2.46452">
        <ele>-16.39999961853</ele>
        <time>2022-02-10T09:38:35.000Z</time>
      </trkpt>
      <trkpt lat="47.33395" lon="-2.46458">
        <ele>-16</ele>
        <time>2022-02-10T09:38:38.000Z</time>
      </trkpt>
      <trkpt lat="47.33397" lon="-2.4646">
        <ele>-15.60000038147</ele>
        <time>2022-02-10T09:38:39.000Z</time>
      </trkpt>
      <trkpt lat="47.334" lon="-2.46462">
        <ele>-15.199999809265</ele>
        <time>2022-02-10T09:38:40.000Z</time>
      </trkpt>
      <trkpt lat="47.33402" lon="-2.46464">
        <ele>-14.800000190735</ele>
        <time>2022-02-10T09:38:41.000Z</time>
      </trkpt>
      <trkpt lat="47.33405" lon="-2.46465">
        <ele>-14.39999961853</ele>
        <time>2022-02-10T09:38:42.000Z</time>
      </trkpt>
      <trkpt lat="47.33422" lon="-2.46468">
        <ele>-14.39999961853</ele>
        <time>2022-02-10T09:38:48.000Z</time>
      </trkpt>
      <trkpt lat="47.33435" lon="-2.4646">
        <ele>-13.800000190735</ele>
        <time>2022-02-10T09:38:52.000Z</time>
      </trkpt>
      <trkpt lat="47.33438" lon="-2.46458">
        <ele>-13.39999961853</ele>
        <time>2022-02-10T09:38:53.000Z</time>
      </trkpt>
      <trkpt lat="47.33441" lon="-2.46455">
        <ele>-13</ele>
        <time>2022-02-10T09:38:54.000Z</time>
      </trkpt>
      <trkpt lat="47.33444" lon="-2.46452">
        <ele>-12.60000038147</ele>
        <time>2022-02-10T09:38:55.000Z</time>
      </trkpt>
      <trkpt lat="47.33447" lon="-2.46449">
        <ele>-12.199999809265</ele>
        <time>2022-02-10T09:38:56.000Z</time>
      </trkpt>
      <trkpt lat="47.33458" lon="-2.46439">
        <ele>-12.199999809265</ele>
        <time>2022-02-10T09:39:00.000Z</time>
      </trkpt>
      <trkpt lat="47.33461" lon="-2.46437">
        <ele>-11.800000190735</ele>
        <time>2022-02-10T09:39:01.000Z</time>
      </trkpt>
      <trkpt lat="47.33464" lon="-2.46434">
        <ele>-11</ele>
        <time>2022-02-10T09:39:02.000Z</time>
      </trkpt>
      <trkpt lat="47.33467" lon="-2.46431">
        <ele>-10.60000038147</ele>
        <time>2022-02-10T09:39:03.000Z</time>
      </trkpt>
      <trkpt lat="47.33471" lon="-2.46429">
        <ele>-10.199999809265</ele>
        <time>2022-02-10T09:39:04.000Z</time>
      </trkpt>
      <trkpt lat="47.33484" lon="-2.46419">
        <ele>-10.199999809265</ele>
        <time>2022-02-10T09:39:08.000Z</time>
      </trkpt>
      <trkpt lat="47.33491" lon="-2.46414">
        <ele>-9.8000001907349</ele>
        <time>2022-02-10T09:39:10.000Z</time>
      </trkpt>
      <trkpt lat="47.33494" lon="-2.46411">
        <ele>-9.3999996185303</ele>
        <time>2022-02-10T09:39:11.000Z</time>
      </trkpt>
      <trkpt lat="47.33497" lon="-2.46409">
        <ele>-9</ele>
        <time>2022-02-10T09:39:12.000Z</time>
      </trkpt>
      <trkpt lat="47.335" lon="-2.46407">
        <ele>-8.6000003814697</ele>
        <time>2022-02-10T09:39:13.000Z</time>
      </trkpt>
      <trkpt lat="47.33503" lon="-2.46405">
        <ele>-8.1999998092651</ele>
        <time>2022-02-10T09:39:14.000Z</time>
      </trkpt>
      <trkpt lat="47.33508" lon="-2.46401">
        <ele>-8.1999998092651</ele>
        <time>2022-02-10T09:39:16.000Z</time>
      </trkpt>
      <trkpt lat="47.3352" lon="-2.46392">
        <ele>-8.1999998092651</ele>
        <time>2022-02-10T09:39:23.000Z</time>
      </trkpt>
      <trkpt lat="47.33529" lon="-2.46387">
        <ele>-8.1999998092651</ele>
        <time>2022-02-10T09:39:30.000Z</time>
      </trkpt>
      <trkpt lat="47.33533" lon="-2.46389">
        <ele>-8.1999998092651</ele>
        <time>2022-02-10T09:39:32.000Z</time>
      </trkpt>
      <trkpt lat="47.33538" lon="-2.46396">
        <ele>-8.1999998092651</ele>
        <time>2022-02-10T09:39:34.000Z</time>
      </trkpt>
      <trkpt lat="47.33544" lon="-2.46414">
        <ele>-8.1999998092651</ele>
        <time>2022-02-10T09:39:37.000Z</time>
      </trkpt>
      <trkpt lat="47.33546" lon="-2.4642">
        <ele>-8.1999998092651</ele>
        <time>2022-02-10T09:39:38.000Z</time>
      </trkpt>
      <trkpt lat="47.33548" lon="-2.46426">
        <ele>-8.1999998092651</ele>
        <time>2022-02-10T09:39:39.000Z</time>
      </trkpt>
      <trkpt lat="47.33561" lon="-2.46468">
        <ele>-8.1999998092651</ele>
        <time>2022-02-10T09:39:47.000Z</time>
      </trkpt>
      <trkpt lat="47.33568" lon="-2.46486">
        <ele>-8.1999998092651</ele>
        <time>2022-02-10T09:39:53.000Z</time>
      </trkpt>
      <trkpt lat="47.33578" lon="-2.46503">
        <ele>-8.1999998092651</ele>
        <time>2022-02-10T09:39:57.000Z</time>
      </trkpt>
      <trkpt lat="47.33605" lon="-2.46539">
        <ele>-8.1999998092651</ele>
        <time>2022-02-10T09:40:04.000Z</time>
      </trkpt>
      <trkpt lat="47.33626" lon="-2.46565">
        <ele>-8.1999998092651</ele>
        <time>2022-02-10T09:40:09.000Z</time>
      </trkpt>
      <trkpt lat="47.3363" lon="-2.46569">
        <ele>-8.1999998092651</ele>
        <time>2022-02-10T09:40:10.000Z</time>
      </trkpt>
      <trkpt lat="47.33634" lon="-2.46574">
        <ele>-8.1999998092651</ele>
        <time>2022-02-10T09:40:11.000Z</time>
      </trkpt>
      <trkpt lat="47.33649" lon="-2.46595">
        <ele>-8.1999998092651</ele>
        <time>2022-02-10T09:40:15.000Z</time>
      </trkpt>
      <trkpt lat="47.33679" lon="-2.46631">
        <ele>-8.1999998092651</ele>
        <time>2022-02-10T09:40:23.000Z</time>
      </trkpt>
      <trkpt lat="47.33695" lon="-2.46653">
        <ele>-7.8000001907349</ele>
        <time>2022-02-10T09:40:28.000Z</time>
      </trkpt>
      <trkpt lat="47.33698" lon="-2.46656">
        <ele>-7.4000000953674</ele>
        <time>2022-02-10T09:40:29.000Z</time>
      </trkpt>
      <trkpt lat="47.33701" lon="-2.46661">
        <ele>-7</ele>
        <time>2022-02-10T09:40:30.000Z</time>
      </trkpt>
      <trkpt lat="47.33703" lon="-2.46665">
        <ele>-6.5999999046326</ele>
        <time>2022-02-10T09:40:31.000Z</time>
      </trkpt>
      <trkpt lat="47.33705" lon="-2.46669">
        <ele>-6.1999998092651</ele>
        <time>2022-02-10T09:40:32.000Z</time>
      </trkpt>
      <trkpt lat="47.3371" lon="-2.46678">
        <ele>-6.1999998092651</ele>
        <time>2022-02-10T09:40:35.000Z</time>
      </trkpt>
      <trkpt lat="47.33715" lon="-2.4668">
        <ele>-6.1999998092651</ele>
        <time>2022-02-10T09:40:39.000Z</time>
      </trkpt>
      <trkpt lat="47.33716" lon="-2.46684">
        <ele>-6.1999998092651</ele>
        <time>2022-02-10T09:40:42.000Z</time>
      </trkpt>
      <trkpt lat="47.33717" lon="-2.46687">
        <ele>-6.1999998092651</ele>
        <time>2022-02-10T09:40:44.000Z</time>
      </trkpt>
      <trkpt lat="47.33719" lon="-2.46694">
        <ele>-6.1999998092651</ele>
        <time>2022-02-10T09:40:47.000Z</time>
      </trkpt>
      <trkpt lat="47.33722" lon="-2.46694">
        <ele>-6.1999998092651</ele>
        <time>2022-02-10T09:40:48.000Z</time>
      </trkpt>
      <trkpt lat="47.33734" lon="-2.46689">
        <ele>-6.1999998092651</ele>
        <time>2022-02-10T09:40:52.000Z</time>
      </trkpt>
      <trkpt lat="47.33738" lon="-2.4669">
        <ele>-6.1999998092651</ele>
        <time>2022-02-10T09:40:53.000Z</time>
      </trkpt>
      <trkpt lat="47.33751" lon="-2.46693">
        <ele>-6.1999998092651</ele>
        <time>2022-02-10T09:40:56.000Z</time>
      </trkpt>
      <trkpt lat="47.33772" lon="-2.46699">
        <ele>-6.1999998092651</ele>
        <time>2022-02-10T09:41:00.000Z</time>
      </trkpt>
      <trkpt lat="47.33782" lon="-2.467">
        <ele>-6.1999998092651</ele>
        <time>2022-02-10T09:41:02.000Z</time>
      </trkpt>
      <trkpt lat="47.33804" lon="-2.46695">
        <ele>-6.1999998092651</ele>
        <time>2022-02-10T09:41:06.000Z</time>
      </trkpt>
      <trkpt lat="47.3383" lon="-2.46679">
        <ele>-6.1999998092651</ele>
        <time>2022-02-10T09:41:11.000Z</time>
      </trkpt>
      <trkpt lat="47.33861" lon="-2.46656">
        <ele>-6.1999998092651</ele>
        <time>2022-02-10T09:41:17.000Z</time>
      </trkpt>
      <trkpt lat="47.33877" lon="-2.46645">
        <ele>-6.1999998092651</ele>
        <time>2022-02-10T09:41:20.000Z</time>
      </trkpt>
      <trkpt lat="47.33887" lon="-2.46635">
        <ele>-6.1999998092651</ele>
        <time>2022-02-10T09:41:22.000Z</time>
      </trkpt>
      <trkpt lat="47.33926" lon="-2.46594">
        <ele>-6.1999998092651</ele>
        <time>2022-02-10T09:41:30.000Z</time>
      </trkpt>
      <trkpt lat="47.33955" lon="-2.46569">
        <ele>-6.1999998092651</ele>
        <time>2022-02-10T09:41:36.000Z</time>
      </trkpt>
      <trkpt lat="47.33993" lon="-2.46542">
        <ele>-6.1999998092651</ele>
        <time>2022-02-10T09:41:43.000Z</time>
      </trkpt>
      <trkpt lat="47.3403" lon="-2.46515">
        <ele>-6.1999998092651</ele>
        <time>2022-02-10T09:41:49.000Z</time>
      </trkpt>
      <trkpt lat="47.34042" lon="-2.46506">
        <ele>-6.1999998092651</ele>
        <time>2022-02-10T09:41:51.000Z</time>
      </trkpt>
      <trkpt lat="47.34066" lon="-2.46493">
        <ele>-6.1999998092651</ele>
        <time>2022-02-10T09:41:55.000Z</time>
      </trkpt>
      <trkpt lat="47.3408" lon="-2.46489">
        <ele>-6.1999998092651</ele>
        <time>2022-02-10T09:41:57.000Z</time>
      </trkpt>
      <trkpt lat="47.34106" lon="-2.46486">
        <ele>-6.1999998092651</ele>
        <time>2022-02-10T09:42:01.000Z</time>
      </trkpt>
      <trkpt lat="47.34113" lon="-2.46488">
        <ele>-6.1999998092651</ele>
        <time>2022-02-10T09:42:02.000Z</time>
      </trkpt>
      <trkpt lat="47.34154" lon="-2.46492">
        <ele>-6.1999998092651</ele>
        <time>2022-02-10T09:42:09.000Z</time>
      </trkpt>
      <trkpt lat="47.34176" lon="-2.4649">
        <ele>-6.1999998092651</ele>
        <time>2022-02-10T09:42:13.000Z</time>
      </trkpt>
      <trkpt lat="47.34182" lon="-2.46489">
        <ele>-6.1999998092651</ele>
        <time>2022-02-10T09:42:14.000Z</time>
      </trkpt>
      <trkpt lat="47.34195" lon="-2.46486">
        <ele>-6.5999999046326</ele>
        <time>2022-02-10T09:42:16.000Z</time>
      </trkpt>
      <trkpt lat="47.34201" lon="-2.46485">
        <ele>-7</ele>
        <time>2022-02-10T09:42:17.000Z</time>
      </trkpt>
      <trkpt lat="47.34208" lon="-2.46485">
        <ele>-7.4000000953674</ele>
        <time>2022-02-10T09:42:18.000Z</time>
      </trkpt>
      <trkpt lat="47.34215" lon="-2.46484">
        <ele>-7.8000001907349</ele>
        <time>2022-02-10T09:42:19.000Z</time>
      </trkpt>
      <trkpt lat="47.34221" lon="-2.46484">
        <ele>-8.1999998092651</ele>
        <time>2022-02-10T09:42:20.000Z</time>
      </trkpt>
      <trkpt lat="47.34266" lon="-2.46481">
        <ele>-8.1999998092651</ele>
        <time>2022-02-10T09:42:27.000Z</time>
      </trkpt>
      <trkpt lat="47.34305" lon="-2.46477">
        <ele>-8.1999998092651</ele>
        <time>2022-02-10T09:42:33.000Z</time>
      </trkpt>
      <trkpt lat="47.34348" lon="-2.46469">
        <ele>-8.1999998092651</ele>
        <time>2022-02-10T09:42:40.000Z</time>
      </trkpt>
      <trkpt lat="47.34373" lon="-2.46461">
        <ele>-8.1999998092651</ele>
        <time>2022-02-10T09:42:44.000Z</time>
      </trkpt>
      <trkpt lat="47.34379" lon="-2.46458">
        <ele>-8.1999998092651</ele>
        <time>2022-02-10T09:42:45.000Z</time>
      </trkpt>
      <trkpt lat="47.34416" lon="-2.46439">
        <ele>-8.1999998092651</ele>
        <time>2022-02-10T09:42:51.000Z</time>
      </trkpt>
      <trkpt lat="47.34452" lon="-2.46423">
        <ele>-8.1999998092651</ele>
        <time>2022-02-10T09:42:57.000Z</time>
      </trkpt>
      <trkpt lat="47.34493" lon="-2.46404">
        <ele>-8.1999998092651</ele>
        <time>2022-02-10T09:43:04.000Z</time>
      </trkpt>
      <trkpt lat="47.34534" lon="-2.46381">
        <ele>-8.1999998092651</ele>
        <time>2022-02-10T09:43:11.000Z</time>
      </trkpt>
      <trkpt lat="47.3455" lon="-2.46366">
        <ele>-8.6000003814697</ele>
        <time>2022-02-10T09:43:14.000Z</time>
      </trkpt>
      <trkpt lat="47.34555" lon="-2.4636">
        <ele>-9</ele>
        <time>2022-02-10T09:43:15.000Z</time>
      </trkpt>
      <trkpt lat="47.3456" lon="-2.46354">
        <ele>-9.6000003814697</ele>
        <time>2022-02-10T09:43:16.000Z</time>
      </trkpt>
      <trkpt lat="47.34565" lon="-2.46349">
        <ele>-10</ele>
        <time>2022-02-10T09:43:17.000Z</time>
      </trkpt>
      <trkpt lat="47.34571" lon="-2.46344">
        <ele>-10.39999961853</ele>
        <time>2022-02-10T09:43:18.000Z</time>
      </trkpt>
      <trkpt lat="47.34577" lon="-2.4634">
        <ele>-10.39999961853</ele>
        <time>2022-02-10T09:43:19.000Z</time>
      </trkpt>
      <trkpt lat="47.34595" lon="-2.4633">
        <ele>-10.39999961853</ele>
        <time>2022-02-10T09:43:22.000Z</time>
      </trkpt>
      <trkpt lat="47.34633" lon="-2.46312">
        <ele>-10.39999961853</ele>
        <time>2022-02-10T09:43:28.000Z</time>
      </trkpt>
      <trkpt lat="47.34676" lon="-2.46296">
        <ele>-10.39999961853</ele>
        <time>2022-02-10T09:43:35.000Z</time>
      </trkpt>
      <trkpt lat="47.34725" lon="-2.46276">
        <ele>-10.39999961853</ele>
        <time>2022-02-10T09:43:43.000Z</time>
      </trkpt>
      <trkpt lat="47.3475" lon="-2.46269">
        <ele>-10.39999961853</ele>
        <time>2022-02-10T09:43:47.000Z</time>
      </trkpt>
      <trkpt lat="47.34762" lon="-2.46267">
        <ele>-10.800000190735</ele>
        <time>2022-02-10T09:43:49.000Z</time>
      </trkpt>
      <trkpt lat="47.34768" lon="-2.46266">
        <ele>-11.199999809265</ele>
        <time>2022-02-10T09:43:50.000Z</time>
      </trkpt>
      <trkpt lat="47.34773" lon="-2.46265">
        <ele>-11.60000038147</ele>
        <time>2022-02-10T09:43:51.000Z</time>
      </trkpt>
      <trkpt lat="47.34779" lon="-2.46265">
        <ele>-12.199999809265</ele>
        <time>2022-02-10T09:43:52.000Z</time>
      </trkpt>
      <trkpt lat="47.34785" lon="-2.46264">
        <ele>-12.60000038147</ele>
        <time>2022-02-10T09:43:53.000Z</time>
      </trkpt>
      <trkpt lat="47.34795" lon="-2.46261">
        <ele>-12.60000038147</ele>
        <time>2022-02-10T09:43:55.000Z</time>
      </trkpt>
      <trkpt lat="47.34801" lon="-2.46259">
        <ele>-12.60000038147</ele>
        <time>2022-02-10T09:43:56.000Z</time>
      </trkpt>
      <trkpt lat="47.34811" lon="-2.46258">
        <ele>-12.60000038147</ele>
        <time>2022-02-10T09:43:58.000Z</time>
      </trkpt>
      <trkpt lat="47.3482" lon="-2.46265">
        <ele>-12.60000038147</ele>
        <time>2022-02-10T09:44:00.000Z</time>
      </trkpt>
      <trkpt lat="47.34826" lon="-2.46287">
        <ele>-12.60000038147</ele>
        <time>2022-02-10T09:44:03.000Z</time>
      </trkpt>
      <trkpt lat="47.34833" lon="-2.46341">
        <ele>-12.60000038147</ele>
        <time>2022-02-10T09:44:09.000Z</time>
      </trkpt>
      <trkpt lat="47.34843" lon="-2.46421">
        <ele>-12.60000038147</ele>
        <time>2022-02-10T09:44:18.000Z</time>
      </trkpt>
      <trkpt lat="47.34851" lon="-2.46485">
        <ele>-12.60000038147</ele>
        <time>2022-02-10T09:44:25.000Z</time>
      </trkpt>
      <trkpt lat="47.34849" lon="-2.46522">
        <ele>-12.60000038147</ele>
        <time>2022-02-10T09:44:29.000Z</time>
      </trkpt>
      <trkpt lat="47.34849" lon="-2.46531">
        <ele>-12.60000038147</ele>
        <time>2022-02-10T09:44:30.000Z</time>
      </trkpt>
      <trkpt lat="47.34852" lon="-2.46594">
        <ele>-12.60000038147</ele>
        <time>2022-02-10T09:44:37.000Z</time>
      </trkpt>
      <trkpt lat="47.3486" lon="-2.46665">
        <ele>-12.60000038147</ele>
        <time>2022-02-10T09:44:45.000Z</time>
      </trkpt>
      <trkpt lat="47.34866" lon="-2.46719">
        <ele>-12</ele>
        <time>2022-02-10T09:44:51.000Z</time>
      </trkpt>
      <trkpt lat="47.34867" lon="-2.46728">
        <ele>-11.60000038147</ele>
        <time>2022-02-10T09:44:52.000Z</time>
      </trkpt>
      <trkpt lat="47.34867" lon="-2.46737">
        <ele>-11.199999809265</ele>
        <time>2022-02-10T09:44:53.000Z</time>
      </trkpt>
      <trkpt lat="47.34868" lon="-2.46745">
        <ele>-10.800000190735</ele>
        <time>2022-02-10T09:44:54.000Z</time>
      </trkpt>
      <trkpt lat="47.34869" lon="-2.46754">
        <ele>-10.39999961853</ele>
        <time>2022-02-10T09:44:55.000Z</time>
      </trkpt>
      <trkpt lat="47.34872" lon="-2.46807">
        <ele>-10.39999961853</ele>
        <time>2022-02-10T09:45:01.000Z</time>
      </trkpt>
      <trkpt lat="47.34876" lon="-2.46843">
        <ele>-10</ele>
        <time>2022-02-10T09:45:05.000Z</time>
      </trkpt>
      <trkpt lat="47.34877" lon="-2.46852">
        <ele>-9.6000003814697</ele>
        <time>2022-02-10T09:45:06.000Z</time>
      </trkpt>
      <trkpt lat="47.34878" lon="-2.46861">
        <ele>-9.1999998092651</ele>
        <time>2022-02-10T09:45:07.000Z</time>
      </trkpt>
      <trkpt lat="47.34879" lon="-2.4687">
        <ele>-8.8000001907349</ele>
        <time>2022-02-10T09:45:08.000Z</time>
      </trkpt>
      <trkpt lat="47.34881" lon="-2.46879">
        <ele>-8.3999996185303</ele>
        <time>2022-02-10T09:45:09.000Z</time>
      </trkpt>
      <trkpt lat="47.3489" lon="-2.46931">
        <ele>-8.3999996185303</ele>
        <time>2022-02-10T09:45:15.000Z</time>
      </trkpt>
      <trkpt lat="47.34899" lon="-2.47001">
        <ele>-8.3999996185303</ele>
        <time>2022-02-10T09:45:23.000Z</time>
      </trkpt>
      <trkpt lat="47.34905" lon="-2.47034">
        <ele>-8.3999996185303</ele>
        <time>2022-02-10T09:45:27.000Z</time>
      </trkpt>
      <trkpt lat="47.34907" lon="-2.47041">
        <ele>-8.3999996185303</ele>
        <time>2022-02-10T09:45:28.000Z</time>
      </trkpt>
      <trkpt lat="47.34926" lon="-2.47089">
        <ele>-8.3999996185303</ele>
        <time>2022-02-10T09:45:34.000Z</time>
      </trkpt>
      <trkpt lat="47.34952" lon="-2.47157">
        <ele>-8.3999996185303</ele>
        <time>2022-02-10T09:45:41.000Z</time>
      </trkpt>
      <trkpt lat="47.34975" lon="-2.47217">
        <ele>-8.8000001907349</ele>
        <time>2022-02-10T09:45:47.000Z</time>
      </trkpt>
      <trkpt lat="47.34979" lon="-2.47227">
        <ele>-9.1999998092651</ele>
        <time>2022-02-10T09:45:48.000Z</time>
      </trkpt>
      <trkpt lat="47.34983" lon="-2.47237">
        <ele>-9.6000003814697</ele>
        <time>2022-02-10T09:45:49.000Z</time>
      </trkpt>
      <trkpt lat="47.34986" lon="-2.47248">
        <ele>-10</ele>
        <time>2022-02-10T09:45:50.000Z</time>
      </trkpt>
      <trkpt lat="47.34989" lon="-2.47258">
        <ele>-10.60000038147</ele>
        <time>2022-02-10T09:45:51.000Z</time>
      </trkpt>
      <trkpt lat="47.35009" lon="-2.47321">
        <ele>-10.60000038147</ele>
        <time>2022-02-10T09:45:57.000Z</time>
      </trkpt>
      <trkpt lat="47.35012" lon="-2.47332">
        <ele>-11</ele>
        <time>2022-02-10T09:45:58.000Z</time>
      </trkpt>
      <trkpt lat="47.35015" lon="-2.47343">
        <ele>-11.39999961853</ele>
        <time>2022-02-10T09:45:59.000Z</time>
      </trkpt>
      <trkpt lat="47.35017" lon="-2.47355">
        <ele>-11.800000190735</ele>
        <time>2022-02-10T09:46:00.000Z</time>
      </trkpt>
      <trkpt lat="47.35018" lon="-2.47367">
        <ele>-12.199999809265</ele>
        <time>2022-02-10T09:46:01.000Z</time>
      </trkpt>
      <trkpt lat="47.35019" lon="-2.47379">
        <ele>-12.60000038147</ele>
        <time>2022-02-10T09:46:02.000Z</time>
      </trkpt>
      <trkpt lat="47.35025" lon="-2.47457">
        <ele>-12.60000038147</ele>
        <time>2022-02-10T09:46:09.000Z</time>
      </trkpt>
      <trkpt lat="47.35031" lon="-2.47521">
        <ele>-12.60000038147</ele>
        <time>2022-02-10T09:46:15.000Z</time>
      </trkpt>
      <trkpt lat="47.35039" lon="-2.47585">
        <ele>-12.60000038147</ele>
        <time>2022-02-10T09:46:21.000Z</time>
      </trkpt>
      <trkpt lat="47.35043" lon="-2.47649">
        <ele>-12.60000038147</ele>
        <time>2022-02-10T09:46:27.000Z</time>
      </trkpt>
      <trkpt lat="47.35046" lon="-2.47674">
        <ele>-12.60000038147</ele>
        <time>2022-02-10T09:46:30.000Z</time>
      </trkpt>
      <trkpt lat="47.35049" lon="-2.47689">
        <ele>-12.60000038147</ele>
        <time>2022-02-10T09:46:32.000Z</time>
      </trkpt>
      <trkpt lat="47.35049" lon="-2.47697">
        <ele>-12.60000038147</ele>
        <time>2022-02-10T09:46:33.000Z</time>
      </trkpt>
      <trkpt lat="47.35048" lon="-2.47723">
        <ele>-13</ele>
        <time>2022-02-10T09:46:36.000Z</time>
      </trkpt>
      <trkpt lat="47.35048" lon="-2.47733">
        <ele>-13.39999961853</ele>
        <time>2022-02-10T09:46:37.000Z</time>
      </trkpt>
      <trkpt lat="47.35047" lon="-2.47743">
        <ele>-13.800000190735</ele>
        <time>2022-02-10T09:46:38.000Z</time>
      </trkpt>
      <trkpt lat="47.35046" lon="-2.47753">
        <ele>-14.39999961853</ele>
        <time>2022-02-10T09:46:39.000Z</time>
      </trkpt>
      <trkpt lat="47.35045" lon="-2.47763">
        <ele>-14.800000190735</ele>
        <time>2022-02-10T09:46:40.000Z</time>
      </trkpt>
      <trkpt lat="47.35044" lon="-2.47784">
        <ele>-14.800000190735</ele>
        <time>2022-02-10T09:46:42.000Z</time>
      </trkpt>
      <trkpt lat="47.35041" lon="-2.47857">
        <ele>-14.800000190735</ele>
        <time>2022-02-10T09:46:49.000Z</time>
      </trkpt>
      <trkpt lat="47.35037" lon="-2.47927">
        <ele>-14.800000190735</ele>
        <time>2022-02-10T09:46:56.000Z</time>
      </trkpt>
      <trkpt lat="47.35037" lon="-2.48008">
        <ele>-14.800000190735</ele>
        <time>2022-02-10T09:47:04.000Z</time>
      </trkpt>
      <trkpt lat="47.35035" lon="-2.48056">
        <ele>-14.800000190735</ele>
        <time>2022-02-10T09:47:09.000Z</time>
      </trkpt>
      <trkpt lat="47.35034" lon="-2.48065">
        <ele>-14.800000190735</ele>
        <time>2022-02-10T09:47:10.000Z</time>
      </trkpt>
      <trkpt lat="47.35033" lon="-2.4808">
        <ele>-14.800000190735</ele>
        <time>2022-02-10T09:47:12.000Z</time>
      </trkpt>
      <trkpt lat="47.35035" lon="-2.48086">
        <ele>-14.800000190735</ele>
        <time>2022-02-10T09:47:13.000Z</time>
      </trkpt>
      <trkpt lat="47.35039" lon="-2.48105">
        <ele>-14.800000190735</ele>
        <time>2022-02-10T09:47:18.000Z</time>
      </trkpt>
      <trkpt lat="47.3504" lon="-2.48109">
        <ele>-14.800000190735</ele>
        <time>2022-02-10T09:47:21.000Z</time>
      </trkpt>
      <trkpt lat="47.35041" lon="-2.4811">
        <ele>-14.800000190735</ele>
        <time>2022-02-10T09:47:34.000Z</time>
      </trkpt>
      <trkpt lat="47.35042" lon="-2.48112">
        <ele>-14.800000190735</ele>
        <time>2022-02-10T09:47:35.000Z</time>
      </trkpt>
      <trkpt lat="47.35047" lon="-2.48126">
        <ele>-14.800000190735</ele>
        <time>2022-02-10T09:47:41.000Z</time>
      </trkpt>
      <trkpt lat="47.35052" lon="-2.48142">
        <ele>-14.800000190735</ele>
        <time>2022-02-10T09:47:49.000Z</time>
      </trkpt>
      <trkpt lat="47.35059" lon="-2.48154">
        <ele>-14.800000190735</ele>
        <time>2022-02-10T09:47:55.000Z</time>
      </trkpt>
      <trkpt lat="47.35068" lon="-2.48172">
        <ele>-14.800000190735</ele>
        <time>2022-02-10T09:48:01.000Z</time>
      </trkpt>
      <trkpt lat="47.3508" lon="-2.48191">
        <ele>-14.800000190735</ele>
        <time>2022-02-10T09:48:07.000Z</time>
      </trkpt>
      <trkpt lat="47.35089" lon="-2.48214">
        <ele>-14.800000190735</ele>
        <time>2022-02-10T09:48:13.000Z</time>
      </trkpt>
      <trkpt lat="47.35094" lon="-2.48224">
        <ele>-14.800000190735</ele>
        <time>2022-02-10T09:48:16.000Z</time>
      </trkpt>
      <trkpt lat="47.35103" lon="-2.48224">
        <ele>-14.800000190735</ele>
        <time>2022-02-10T09:48:18.000Z</time>
      </trkpt>
      <trkpt lat="47.35112" lon="-2.48219">
        <ele>-14.800000190735</ele>
        <time>2022-02-10T09:48:20.000Z</time>
      </trkpt>
      <trkpt lat="47.35123" lon="-2.48211">
        <ele>-14.800000190735</ele>
        <time>2022-02-10T09:48:22.000Z</time>
      </trkpt>
      <trkpt lat="47.35129" lon="-2.48206">
        <ele>-15.199999809265</ele>
        <time>2022-02-10T09:48:23.000Z</time>
      </trkpt>
      <trkpt lat="47.35134" lon="-2.48202">
        <ele>-15.60000038147</ele>
        <time>2022-02-10T09:48:24.000Z</time>
      </trkpt>
      <trkpt lat="47.3514" lon="-2.48196">
        <ele>-16</ele>
        <time>2022-02-10T09:48:25.000Z</time>
      </trkpt>
      <trkpt lat="47.35145" lon="-2.4819">
        <ele>-16.39999961853</ele>
        <time>2022-02-10T09:48:26.000Z</time>
      </trkpt>
      <trkpt lat="47.3515" lon="-2.48184">
        <ele>-16.799999237061</ele>
        <time>2022-02-10T09:48:27.000Z</time>
      </trkpt>
      <trkpt lat="47.35154" lon="-2.48176">
        <ele>-16.799999237061</ele>
        <time>2022-02-10T09:48:28.000Z</time>
      </trkpt>
      <trkpt lat="47.35177" lon="-2.48141">
        <ele>-16.799999237061</ele>
        <time>2022-02-10T09:48:33.000Z</time>
      </trkpt>
      <trkpt lat="47.35182" lon="-2.48135">
        <ele>-16.799999237061</ele>
        <time>2022-02-10T09:48:34.000Z</time>
      </trkpt>
      <trkpt lat="47.35207" lon="-2.48107">
        <ele>-16.799999237061</ele>
        <time>2022-02-10T09:48:39.000Z</time>
      </trkpt>
      <trkpt lat="47.35211" lon="-2.48101">
        <ele>-17.200000762939</ele>
        <time>2022-02-10T09:48:40.000Z</time>
      </trkpt>
      <trkpt lat="47.35216" lon="-2.48095">
        <ele>-17.60000038147</ele>
        <time>2022-02-10T09:48:41.000Z</time>
      </trkpt>
      <trkpt lat="47.3522" lon="-2.48089">
        <ele>-18</ele>
        <time>2022-02-10T09:48:42.000Z</time>
      </trkpt>
      <trkpt lat="47.35224" lon="-2.48084">
        <ele>-18.39999961853</ele>
        <time>2022-02-10T09:48:43.000Z</time>
      </trkpt>
      <trkpt lat="47.35229" lon="-2.48079">
        <ele>-18.799999237061</ele>
        <time>2022-02-10T09:48:44.000Z</time>
      </trkpt>
      <trkpt lat="47.35233" lon="-2.48073">
        <ele>-18.799999237061</ele>
        <time>2022-02-10T09:48:45.000Z</time>
      </trkpt>
      <trkpt lat="47.35238" lon="-2.48068">
        <ele>-18.799999237061</ele>
        <time>2022-02-10T09:48:46.000Z</time>
      </trkpt>
      <trkpt lat="47.35254" lon="-2.48059">
        <ele>-18.799999237061</ele>
        <time>2022-02-10T09:48:49.000Z</time>
      </trkpt>
      <trkpt lat="47.35259" lon="-2.48056">
        <ele>-18.799999237061</ele>
        <time>2022-02-10T09:48:50.000Z</time>
      </trkpt>
      <trkpt lat="47.3527" lon="-2.48053">
        <ele>-18.799999237061</ele>
        <time>2022-02-10T09:48:52.000Z</time>
      </trkpt>
      <trkpt lat="47.35282" lon="-2.48051">
        <ele>-18.799999237061</ele>
        <time>2022-02-10T09:48:54.000Z</time>
      </trkpt>
      <trkpt lat="47.35317" lon="-2.48044">
        <ele>-18.799999237061</ele>
        <time>2022-02-10T09:49:00.000Z</time>
      </trkpt>
      <trkpt lat="47.35365" lon="-2.48021">
        <ele>-18.799999237061</ele>
        <time>2022-02-10T09:49:09.000Z</time>
      </trkpt>
      <trkpt lat="47.3537" lon="-2.48018">
        <ele>-18.799999237061</ele>
        <time>2022-02-10T09:49:10.000Z</time>
      </trkpt>
      <trkpt lat="47.35387" lon="-2.48003">
        <ele>-18.799999237061</ele>
        <time>2022-02-10T09:49:14.000Z</time>
      </trkpt>
      <trkpt lat="47.354" lon="-2.47992">
        <ele>-18.799999237061</ele>
        <time>2022-02-10T09:49:17.000Z</time>
      </trkpt>
      <trkpt lat="47.35416" lon="-2.47976">
        <ele>-18.799999237061</ele>
        <time>2022-02-10T09:49:21.000Z</time>
      </trkpt>
      <trkpt lat="47.35423" lon="-2.47968">
        <ele>-18.799999237061</ele>
        <time>2022-02-10T09:49:23.000Z</time>
      </trkpt>
      <trkpt lat="47.35433" lon="-2.47956">
        <ele>-18.799999237061</ele>
        <time>2022-02-10T09:49:26.000Z</time>
      </trkpt>
      <trkpt lat="47.35461" lon="-2.47927">
        <ele>-18.799999237061</ele>
        <time>2022-02-10T09:49:34.000Z</time>
      </trkpt>
      <trkpt lat="47.35471" lon="-2.47915">
        <ele>-18.799999237061</ele>
        <time>2022-02-10T09:49:37.000Z</time>
      </trkpt>
      <trkpt lat="47.3548" lon="-2.47901">
        <ele>-18.799999237061</ele>
        <time>2022-02-10T09:49:40.000Z</time>
      </trkpt>
      <trkpt lat="47.35488" lon="-2.47888">
        <ele>-18.39999961853</ele>
        <time>2022-02-10T09:49:43.000Z</time>
      </trkpt>
      <trkpt lat="47.3549" lon="-2.47883">
        <ele>-18</ele>
        <time>2022-02-10T09:49:44.000Z</time>
      </trkpt>
      <trkpt lat="47.35493" lon="-2.47879">
        <ele>-17.200000762939</ele>
        <time>2022-02-10T09:49:45.000Z</time>
      </trkpt>
      <trkpt lat="47.35496" lon="-2.47874">
        <ele>-16.799999237061</ele>
        <time>2022-02-10T09:49:46.000Z</time>
      </trkpt>
      <trkpt lat="47.35498" lon="-2.4787">
        <ele>-16.799999237061</ele>
        <time>2022-02-10T09:49:47.000Z</time>
      </trkpt>
      <trkpt lat="47.35516" lon="-2.47845">
        <ele>-16.799999237061</ele>
        <time>2022-02-10T09:49:53.000Z</time>
      </trkpt>
      <trkpt lat="47.35526" lon="-2.47831">
        <ele>-16.799999237061</ele>
        <time>2022-02-10T09:49:56.000Z</time>
      </trkpt>
      <trkpt lat="47.35539" lon="-2.47815">
        <ele>-16.799999237061</ele>
        <time>2022-02-10T09:50:00.000Z</time>
      </trkpt>
      <trkpt lat="47.35547" lon="-2.47807">
        <ele>-16.799999237061</ele>
        <time>2022-02-10T09:50:02.000Z</time>
      </trkpt>
      <trkpt lat="47.3557" lon="-2.47789">
        <ele>-16.799999237061</ele>
        <time>2022-02-10T09:50:08.000Z</time>
      </trkpt>
      <trkpt lat="47.35597" lon="-2.47769">
        <ele>-16.799999237061</ele>
        <time>2022-02-10T09:50:14.000Z</time>
      </trkpt>
      <trkpt lat="47.35619" lon="-2.47754">
        <ele>-16.799999237061</ele>
        <time>2022-02-10T09:50:19.000Z</time>
      </trkpt>
      <trkpt lat="47.35623" lon="-2.47751">
        <ele>-16.799999237061</ele>
        <time>2022-02-10T09:50:20.000Z</time>
      </trkpt>
      <trkpt lat="47.35632" lon="-2.47745">
        <ele>-16.39999961853</ele>
        <time>2022-02-10T09:50:22.000Z</time>
      </trkpt>
      <trkpt lat="47.35637" lon="-2.47742">
        <ele>-16</ele>
        <time>2022-02-10T09:50:23.000Z</time>
      </trkpt>
      <trkpt lat="47.35641" lon="-2.47738">
        <ele>-15.60000038147</ele>
        <time>2022-02-10T09:50:24.000Z</time>
      </trkpt>
      <trkpt lat="47.35645" lon="-2.47734">
        <ele>-15.199999809265</ele>
        <time>2022-02-10T09:50:25.000Z</time>
      </trkpt>
      <trkpt lat="47.35648" lon="-2.47729">
        <ele>-14.800000190735</ele>
        <time>2022-02-10T09:50:26.000Z</time>
      </trkpt>
      <trkpt lat="47.35668" lon="-2.47703">
        <ele>-14.800000190735</ele>
        <time>2022-02-10T09:50:32.000Z</time>
      </trkpt>
      <trkpt lat="47.35689" lon="-2.47686">
        <ele>-14.800000190735</ele>
        <time>2022-02-10T09:50:37.000Z</time>
      </trkpt>
      <trkpt lat="47.35694" lon="-2.47684">
        <ele>-14.800000190735</ele>
        <time>2022-02-10T09:50:38.000Z</time>
      </trkpt>
      <trkpt lat="47.35704" lon="-2.4768">
        <ele>-14.800000190735</ele>
        <time>2022-02-10T09:50:40.000Z</time>
      </trkpt>
      <trkpt lat="47.35724" lon="-2.47674">
        <ele>-14.800000190735</ele>
        <time>2022-02-10T09:50:44.000Z</time>
      </trkpt>
      <trkpt lat="47.35728" lon="-2.47671">
        <ele>-14.800000190735</ele>
        <time>2022-02-10T09:50:45.000Z</time>
      </trkpt>
      <trkpt lat="47.3574" lon="-2.47664">
        <ele>-14.800000190735</ele>
        <time>2022-02-10T09:50:48.000Z</time>
      </trkpt>
      <trkpt lat="47.35743" lon="-2.47661">
        <ele>-14.800000190735</ele>
        <time>2022-02-10T09:50:49.000Z</time>
      </trkpt>
      <trkpt lat="47.35755" lon="-2.47649">
        <ele>-14.800000190735</ele>
        <time>2022-02-10T09:50:52.000Z</time>
      </trkpt>
      <trkpt lat="47.35766" lon="-2.47641">
        <ele>-14.800000190735</ele>
        <time>2022-02-10T09:50:55.000Z</time>
      </trkpt>
      <trkpt lat="47.35774" lon="-2.47636">
        <ele>-14.800000190735</ele>
        <time>2022-02-10T09:50:57.000Z</time>
      </trkpt>
      <trkpt lat="47.35791" lon="-2.4763">
        <ele>-14.800000190735</ele>
        <time>2022-02-10T09:51:01.000Z</time>
      </trkpt>
      <trkpt lat="47.35811" lon="-2.47625">
        <ele>-14.800000190735</ele>
        <time>2022-02-10T09:51:05.000Z</time>
      </trkpt>
      <trkpt lat="47.3582" lon="-2.47624">
        <ele>-14.800000190735</ele>
        <time>2022-02-10T09:51:07.000Z</time>
      </trkpt>
      <trkpt lat="47.35829" lon="-2.47623">
        <ele>-14.800000190735</ele>
        <time>2022-02-10T09:51:09.000Z</time>
      </trkpt>
      <trkpt lat="47.35847" lon="-2.47615">
        <ele>-14.800000190735</ele>
        <time>2022-02-10T09:51:13.000Z</time>
      </trkpt>
      <trkpt lat="47.35861" lon="-2.4761">
        <ele>-15.199999809265</ele>
        <time>2022-02-10T09:51:16.000Z</time>
      </trkpt>
      <trkpt lat="47.35866" lon="-2.47608">
        <ele>-15.60000038147</ele>
        <time>2022-02-10T09:51:17.000Z</time>
      </trkpt>
      <trkpt lat="47.35871" lon="-2.47608">
        <ele>-16</ele>
        <time>2022-02-10T09:51:18.000Z</time>
      </trkpt>
      <trkpt lat="47.35875" lon="-2.47607">
        <ele>-16.39999961853</ele>
        <time>2022-02-10T09:51:19.000Z</time>
      </trkpt>
      <trkpt lat="47.35879" lon="-2.47606">
        <ele>-16.799999237061</ele>
        <time>2022-02-10T09:51:20.000Z</time>
      </trkpt>
      <trkpt lat="47.35884" lon="-2.47605">
        <ele>-16.799999237061</ele>
        <time>2022-02-10T09:51:21.000Z</time>
      </trkpt>
      <trkpt lat="47.35907" lon="-2.47601">
        <ele>-16.799999237061</ele>
        <time>2022-02-10T09:51:26.000Z</time>
      </trkpt>
      <trkpt lat="47.35916" lon="-2.476">
        <ele>-16.799999237061</ele>
        <time>2022-02-10T09:51:28.000Z</time>
      </trkpt>
      <trkpt lat="47.35954" lon="-2.47593">
        <ele>-16.799999237061</ele>
        <time>2022-02-10T09:51:36.000Z</time>
      </trkpt>
      <trkpt lat="47.3596" lon="-2.47593">
        <ele>-16.799999237061</ele>
        <time>2022-02-10T09:51:37.000Z</time>
      </trkpt>
      <trkpt lat="47.35974" lon="-2.47591">
        <ele>-17.200000762939</ele>
        <time>2022-02-10T09:51:40.000Z</time>
      </trkpt>
      <trkpt lat="47.35979" lon="-2.47591">
        <ele>-17.60000038147</ele>
        <time>2022-02-10T09:51:41.000Z</time>
      </trkpt>
      <trkpt lat="47.35983" lon="-2.47591">
        <ele>-18</ele>
        <time>2022-02-10T09:51:42.000Z</time>
      </trkpt>
      <trkpt lat="47.35988" lon="-2.47591">
        <ele>-18.39999961853</ele>
        <time>2022-02-10T09:51:43.000Z</time>
      </trkpt>
      <trkpt lat="47.35993" lon="-2.47591">
        <ele>-18.799999237061</ele>
        <time>2022-02-10T09:51:44.000Z</time>
      </trkpt>
      <trkpt lat="47.36002" lon="-2.47591">
        <ele>-18.799999237061</ele>
        <time>2022-02-10T09:51:46.000Z</time>
      </trkpt>
      <trkpt lat="47.36027" lon="-2.47592">
        <ele>-18.799999237061</ele>
        <time>2022-02-10T09:51:52.000Z</time>
      </trkpt>
      <trkpt lat="47.3606" lon="-2.4759">
        <ele>-18.799999237061</ele>
        <time>2022-02-10T09:52:00.000Z</time>
      </trkpt>
      <trkpt lat="47.36097" lon="-2.4758">
        <ele>-18.799999237061</ele>
        <time>2022-02-10T09:52:08.000Z</time>
      </trkpt>
      <trkpt lat="47.3611" lon="-2.47577">
        <ele>-19.200000762939</ele>
        <time>2022-02-10T09:52:11.000Z</time>
      </trkpt>
      <trkpt lat="47.36114" lon="-2.47576">
        <ele>-20</ele>
        <time>2022-02-10T09:52:12.000Z</time>
      </trkpt>
      <trkpt lat="47.36118" lon="-2.47575">
        <ele>-20.39999961853</ele>
        <time>2022-02-10T09:52:13.000Z</time>
      </trkpt>
      <trkpt lat="47.36122" lon="-2.47574">
        <ele>-20.799999237061</ele>
        <time>2022-02-10T09:52:14.000Z</time>
      </trkpt>
      <trkpt lat="47.36127" lon="-2.47573">
        <ele>-20.799999237061</ele>
        <time>2022-02-10T09:52:15.000Z</time>
      </trkpt>
      <trkpt lat="47.36154" lon="-2.47562">
        <ele>-20.799999237061</ele>
        <time>2022-02-10T09:52:21.000Z</time>
      </trkpt>
      <trkpt lat="47.36162" lon="-2.47558">
        <ele>-20.799999237061</ele>
        <time>2022-02-10T09:52:23.000Z</time>
      </trkpt>
      <trkpt lat="47.3618" lon="-2.47555">
        <ele>-20.799999237061</ele>
        <time>2022-02-10T09:52:27.000Z</time>
      </trkpt>
      <trkpt lat="47.36207" lon="-2.47553">
        <ele>-20.799999237061</ele>
        <time>2022-02-10T09:52:33.000Z</time>
      </trkpt>
      <trkpt lat="47.36227" lon="-2.47554">
        <ele>-20.799999237061</ele>
        <time>2022-02-10T09:52:37.000Z</time>
      </trkpt>
      <trkpt lat="47.36235" lon="-2.47554">
        <ele>-20.799999237061</ele>
        <time>2022-02-10T09:52:39.000Z</time>
      </trkpt>
      <trkpt lat="47.36264" lon="-2.47552">
        <ele>-20.799999237061</ele>
        <time>2022-02-10T09:52:45.000Z</time>
      </trkpt>
      <trkpt lat="47.36268" lon="-2.47551">
        <ele>-20.799999237061</ele>
        <time>2022-02-10T09:52:46.000Z</time>
      </trkpt>
      <trkpt lat="47.36291" lon="-2.47547">
        <ele>-20.799999237061</ele>
        <time>2022-02-10T09:52:51.000Z</time>
      </trkpt>
      <trkpt lat="47.36314" lon="-2.47549">
        <ele>-20.799999237061</ele>
        <time>2022-02-10T09:52:56.000Z</time>
      </trkpt>
      <trkpt lat="47.36318" lon="-2.47551">
        <ele>-20.799999237061</ele>
        <time>2022-02-10T09:52:57.000Z</time>
      </trkpt>
      <trkpt lat="47.36331" lon="-2.47555">
        <ele>-20.799999237061</ele>
        <time>2022-02-10T09:53:00.000Z</time>
      </trkpt>
      <trkpt lat="47.36344" lon="-2.47557">
        <ele>-20.799999237061</ele>
        <time>2022-02-10T09:53:03.000Z</time>
      </trkpt>
      <trkpt lat="47.36352" lon="-2.47561">
        <ele>-20.799999237061</ele>
        <time>2022-02-10T09:53:05.000Z</time>
      </trkpt>
      <trkpt lat="47.36365" lon="-2.47566">
        <ele>-20.799999237061</ele>
        <time>2022-02-10T09:53:08.000Z</time>
      </trkpt>
      <trkpt lat="47.36394" lon="-2.4758">
        <ele>-20.799999237061</ele>
        <time>2022-02-10T09:53:15.000Z</time>
      </trkpt>
      <trkpt lat="47.36424" lon="-2.47594">
        <ele>-20.799999237061</ele>
        <time>2022-02-10T09:53:22.000Z</time>
      </trkpt>
      <trkpt lat="47.3645" lon="-2.47604">
        <ele>-20.799999237061</ele>
        <time>2022-02-10T09:53:28.000Z</time>
      </trkpt>
      <trkpt lat="47.36463" lon="-2.4761">
        <ele>-20.799999237061</ele>
        <time>2022-02-10T09:53:31.000Z</time>
      </trkpt>
      <trkpt lat="47.36473" lon="-2.47615">
        <ele>-20.799999237061</ele>
        <time>2022-02-10T09:53:34.000Z</time>
      </trkpt>
      <trkpt lat="47.36493" lon="-2.47627">
        <ele>-20.799999237061</ele>
        <time>2022-02-10T09:53:41.000Z</time>
      </trkpt>
      <trkpt lat="47.36504" lon="-2.47639">
        <ele>-20.799999237061</ele>
        <time>2022-02-10T09:53:46.000Z</time>
      </trkpt>
      <trkpt lat="47.36516" lon="-2.4765">
        <ele>-20.799999237061</ele>
        <time>2022-02-10T09:53:51.000Z</time>
      </trkpt>
      <trkpt lat="47.36529" lon="-2.47656">
        <ele>-20.799999237061</ele>
        <time>2022-02-10T09:53:56.000Z</time>
      </trkpt>
      <trkpt lat="47.36546" lon="-2.47646">
        <ele>-20.799999237061</ele>
        <time>2022-02-10T09:54:02.000Z</time>
      </trkpt>
      <trkpt lat="47.36568" lon="-2.47635">
        <ele>-20.799999237061</ele>
        <time>2022-02-10T09:54:09.000Z</time>
      </trkpt>
      <trkpt lat="47.36592" lon="-2.47621">
        <ele>-20.799999237061</ele>
        <time>2022-02-10T09:54:16.000Z</time>
      </trkpt>
      <trkpt lat="47.36618" lon="-2.47603">
        <ele>-20.799999237061</ele>
        <time>2022-02-10T09:54:25.000Z</time>
      </trkpt>
      <trkpt lat="47.36624" lon="-2.47599">
        <ele>-20.799999237061</ele>
        <time>2022-02-10T09:54:29.000Z</time>
      </trkpt>
      <trkpt lat="47.36626" lon="-2.47597">
        <ele>-20.799999237061</ele>
        <time>2022-02-10T09:55:06.000Z</time>
      </trkpt>
      <trkpt lat="47.36638" lon="-2.47586">
        <ele>-20.799999237061</ele>
        <time>2022-02-10T09:55:11.000Z</time>
      </trkpt>
      <trkpt lat="47.36663" lon="-2.47558">
        <ele>-20.799999237061</ele>
        <time>2022-02-10T09:55:18.000Z</time>
      </trkpt>
      <trkpt lat="47.36688" lon="-2.47526">
        <ele>-20.799999237061</ele>
        <time>2022-02-10T09:55:25.000Z</time>
      </trkpt>
      <trkpt lat="47.36711" lon="-2.47497">
        <ele>-20.799999237061</ele>
        <time>2022-02-10T09:55:32.000Z</time>
      </trkpt>
      <trkpt lat="47.36725" lon="-2.47492">
        <ele>-20.799999237061</ele>
        <time>2022-02-10T09:55:36.000Z</time>
      </trkpt>
      <trkpt lat="47.36734" lon="-2.47503">
        <ele>-20.799999237061</ele>
        <time>2022-02-10T09:55:39.000Z</time>
      </trkpt>
      <trkpt lat="47.36737" lon="-2.47509">
        <ele>-20.799999237061</ele>
        <time>2022-02-10T09:55:40.000Z</time>
      </trkpt>
      <trkpt lat="47.3676" lon="-2.47547">
        <ele>-20.799999237061</ele>
        <time>2022-02-10T09:55:47.000Z</time>
      </trkpt>
      <trkpt lat="47.3679" lon="-2.47603">
        <ele>-20.799999237061</ele>
        <time>2022-02-10T09:55:56.000Z</time>
      </trkpt>
      <trkpt lat="47.36817" lon="-2.4765">
        <ele>-20.799999237061</ele>
        <time>2022-02-10T09:56:04.000Z</time>
      </trkpt>
      <trkpt lat="47.3683" lon="-2.4768">
        <ele>-20.799999237061</ele>
        <time>2022-02-10T09:56:09.000Z</time>
      </trkpt>
      <trkpt lat="47.36833" lon="-2.47693">
        <ele>-20.799999237061</ele>
        <time>2022-02-10T09:56:11.000Z</time>
      </trkpt>
      <trkpt lat="47.36838" lon="-2.47719">
        <ele>-20.799999237061</ele>
        <time>2022-02-10T09:56:15.000Z</time>
      </trkpt>
      <trkpt lat="47.3684" lon="-2.47732">
        <ele>-20.799999237061</ele>
        <time>2022-02-10T09:56:17.000Z</time>
      </trkpt>
      <trkpt lat="47.3684" lon="-2.47739">
        <ele>-20.799999237061</ele>
        <time>2022-02-10T09:56:18.000Z</time>
      </trkpt>
      <trkpt lat="47.36843" lon="-2.47803">
        <ele>-20.799999237061</ele>
        <time>2022-02-10T09:56:27.000Z</time>
      </trkpt>
      <trkpt lat="47.36844" lon="-2.47859">
        <ele>-20.799999237061</ele>
        <time>2022-02-10T09:56:35.000Z</time>
      </trkpt>
      <trkpt lat="47.36842" lon="-2.47914">
        <ele>-20.799999237061</ele>
        <time>2022-02-10T09:56:43.000Z</time>
      </trkpt>
      <trkpt lat="47.36842" lon="-2.47968">
        <ele>-20.799999237061</ele>
        <time>2022-02-10T09:56:51.000Z</time>
      </trkpt>
      <trkpt lat="47.36839" lon="-2.48003">
        <ele>-20.799999237061</ele>
        <time>2022-02-10T09:56:57.000Z</time>
      </trkpt>
      <trkpt lat="47.36839" lon="-2.48034">
        <ele>-20.799999237061</ele>
        <time>2022-02-10T09:57:04.000Z</time>
      </trkpt>
      <trkpt lat="47.36837" lon="-2.48062">
        <ele>-20.799999237061</ele>
        <time>2022-02-10T09:57:10.000Z</time>
      </trkpt>
      <trkpt lat="47.36835" lon="-2.48065">
        <ele>-20.799999237061</ele>
        <time>2022-02-10T09:57:11.000Z</time>
      </trkpt>
      <trkpt lat="47.36829" lon="-2.48064">
        <ele>-20.799999237061</ele>
        <time>2022-02-10T09:57:14.000Z</time>
      </trkpt>
      <trkpt lat="47.36827" lon="-2.48063">
        <ele>-20.799999237061</ele>
        <time>2022-02-10T09:57:16.000Z</time>
      </trkpt>
      <trkpt lat="47.36827" lon="-2.48058">
        <ele>-20.799999237061</ele>
        <time>2022-02-10T09:57:19.000Z</time>
      </trkpt>
      <trkpt lat="47.36826" lon="-2.48055">
        <ele>-20.799999237061</ele>
        <time>2022-02-10T09:57:22.000Z</time>
      </trkpt>
      <trkpt lat="47.3683" lon="-2.48066">
        <ele>-16.799999237061</ele>
        <time>2022-02-10T10:12:06.000Z</time>
      </trkpt>
      <trkpt lat="47.36831" lon="-2.48069">
        <ele>-16.799999237061</ele>
        <time>2022-02-10T10:12:07.000Z</time>
      </trkpt>
      <trkpt lat="47.36836" lon="-2.48086">
        <ele>-16.799999237061</ele>
        <time>2022-02-10T10:12:12.000Z</time>
      </trkpt>
      <trkpt lat="47.36838" lon="-2.48121">
        <ele>-16.799999237061</ele>
        <time>2022-02-10T10:12:19.000Z</time>
      </trkpt>
      <trkpt lat="47.36833" lon="-2.48157">
        <ele>-16.799999237061</ele>
        <time>2022-02-10T10:12:25.000Z</time>
      </trkpt>
      <trkpt lat="47.36829" lon="-2.48198">
        <ele>-16.799999237061</ele>
        <time>2022-02-10T10:12:32.000Z</time>
      </trkpt>
      <trkpt lat="47.36823" lon="-2.48235">
        <ele>-16.799999237061</ele>
        <time>2022-02-10T10:12:38.000Z</time>
      </trkpt>
      <trkpt lat="47.36821" lon="-2.48238">
        <ele>-16.799999237061</ele>
        <time>2022-02-10T10:12:39.000Z</time>
      </trkpt>
      <trkpt lat="47.36814" lon="-2.48241">
        <ele>-16.799999237061</ele>
        <time>2022-02-10T10:12:41.000Z</time>
      </trkpt>
      <trkpt lat="47.36802" lon="-2.48247">
        <ele>-16.799999237061</ele>
        <time>2022-02-10T10:12:44.000Z</time>
      </trkpt>
      <trkpt lat="47.36798" lon="-2.48249">
        <ele>-16.799999237061</ele>
        <time>2022-02-10T10:12:45.000Z</time>
      </trkpt>
      <trkpt lat="47.36782" lon="-2.48253">
        <ele>-16.799999237061</ele>
        <time>2022-02-10T10:12:49.000Z</time>
      </trkpt>
      <trkpt lat="47.36772" lon="-2.48255">
        <ele>-16.799999237061</ele>
        <time>2022-02-10T10:12:51.000Z</time>
      </trkpt>
      <trkpt lat="47.36755" lon="-2.48261">
        <ele>-16.799999237061</ele>
        <time>2022-02-10T10:12:54.000Z</time>
      </trkpt>
      <trkpt lat="47.36721" lon="-2.4827">
        <ele>-16.799999237061</ele>
        <time>2022-02-10T10:13:00.000Z</time>
      </trkpt>
      <trkpt lat="47.36711" lon="-2.48271">
        <ele>-16.799999237061</ele>
        <time>2022-02-10T10:13:02.000Z</time>
      </trkpt>
      <trkpt lat="47.36699" lon="-2.48269">
        <ele>-16.799999237061</ele>
        <time>2022-02-10T10:13:04.000Z</time>
      </trkpt>
      <trkpt lat="47.36692" lon="-2.48269">
        <ele>-16.799999237061</ele>
        <time>2022-02-10T10:13:05.000Z</time>
      </trkpt>
      <trkpt lat="47.3668" lon="-2.48275">
        <ele>-16.799999237061</ele>
        <time>2022-02-10T10:13:07.000Z</time>
      </trkpt>
      <trkpt lat="47.36675" lon="-2.48279">
        <ele>-17.200000762939</ele>
        <time>2022-02-10T10:13:08.000Z</time>
      </trkpt>
      <trkpt lat="47.36671" lon="-2.48284">
        <ele>-17.60000038147</ele>
        <time>2022-02-10T10:13:09.000Z</time>
      </trkpt>
      <trkpt lat="47.36667" lon="-2.48288">
        <ele>-18.200000762939</ele>
        <time>2022-02-10T10:13:11.000Z</time>
      </trkpt>
      <trkpt lat="47.36663" lon="-2.4829">
        <ele>-18.60000038147</ele>
        <time>2022-02-10T10:13:12.000Z</time>
      </trkpt>
      <trkpt lat="47.3666" lon="-2.48291">
        <ele>-19</ele>
        <time>2022-02-10T10:13:13.000Z</time>
      </trkpt>
      <trkpt lat="47.36656" lon="-2.48293">
        <ele>-19</ele>
        <time>2022-02-10T10:13:14.000Z</time>
      </trkpt>
      <trkpt lat="47.36648" lon="-2.48293">
        <ele>-19</ele>
        <time>2022-02-10T10:13:16.000Z</time>
      </trkpt>
      <trkpt lat="47.36635" lon="-2.48279">
        <ele>-19</ele>
        <time>2022-02-10T10:13:20.000Z</time>
      </trkpt>
      <trkpt lat="47.36632" lon="-2.48275">
        <ele>-19</ele>
        <time>2022-02-10T10:13:21.000Z</time>
      </trkpt>
      <trkpt lat="47.36621" lon="-2.48263">
        <ele>-19</ele>
        <time>2022-02-10T10:13:24.000Z</time>
      </trkpt>
      <trkpt lat="47.36617" lon="-2.48261">
        <ele>-19</ele>
        <time>2022-02-10T10:13:25.000Z</time>
      </trkpt>
      <trkpt lat="47.36598" lon="-2.48261">
        <ele>-19</ele>
        <time>2022-02-10T10:13:29.000Z</time>
      </trkpt>
      <trkpt lat="47.36569" lon="-2.48268">
        <ele>-19</ele>
        <time>2022-02-10T10:13:35.000Z</time>
      </trkpt>
      <trkpt lat="47.36565" lon="-2.48271">
        <ele>-19</ele>
        <time>2022-02-10T10:13:36.000Z</time>
      </trkpt>
      <trkpt lat="47.36548" lon="-2.48284">
        <ele>-19</ele>
        <time>2022-02-10T10:13:40.000Z</time>
      </trkpt>
      <trkpt lat="47.36535" lon="-2.48292">
        <ele>-19</ele>
        <time>2022-02-10T10:13:43.000Z</time>
      </trkpt>
      <trkpt lat="47.36522" lon="-2.483">
        <ele>-19</ele>
        <time>2022-02-10T10:13:46.000Z</time>
      </trkpt>
      <trkpt lat="47.36519" lon="-2.48303">
        <ele>-19</ele>
        <time>2022-02-10T10:13:47.000Z</time>
      </trkpt>
      <trkpt lat="47.36507" lon="-2.48314">
        <ele>-19</ele>
        <time>2022-02-10T10:13:50.000Z</time>
      </trkpt>
      <trkpt lat="47.36503" lon="-2.48318">
        <ele>-19</ele>
        <time>2022-02-10T10:13:51.000Z</time>
      </trkpt>
      <trkpt lat="47.36494" lon="-2.48324">
        <ele>-19</ele>
        <time>2022-02-10T10:13:53.000Z</time>
      </trkpt>
      <trkpt lat="47.36484" lon="-2.48329">
        <ele>-19</ele>
        <time>2022-02-10T10:13:55.000Z</time>
      </trkpt>
      <trkpt lat="47.36474" lon="-2.48336">
        <ele>-19</ele>
        <time>2022-02-10T10:13:57.000Z</time>
      </trkpt>
      <trkpt lat="47.36465" lon="-2.48343">
        <ele>-19</ele>
        <time>2022-02-10T10:13:59.000Z</time>
      </trkpt>
      <trkpt lat="47.36456" lon="-2.48349">
        <ele>-19</ele>
        <time>2022-02-10T10:14:01.000Z</time>
      </trkpt>
      <trkpt lat="47.36443" lon="-2.48358">
        <ele>-19</ele>
        <time>2022-02-10T10:14:04.000Z</time>
      </trkpt>
      <trkpt lat="47.36439" lon="-2.48361">
        <ele>-19</ele>
        <time>2022-02-10T10:14:05.000Z</time>
      </trkpt>
      <trkpt lat="47.36435" lon="-2.48363">
        <ele>-19</ele>
        <time>2022-02-10T10:14:06.000Z</time>
      </trkpt>
      <trkpt lat="47.3642" lon="-2.48363">
        <ele>-19</ele>
        <time>2022-02-10T10:14:09.000Z</time>
      </trkpt>
      <trkpt lat="47.36407" lon="-2.48367">
        <ele>-19</ele>
        <time>2022-02-10T10:14:12.000Z</time>
      </trkpt>
      <trkpt lat="47.36398" lon="-2.48369">
        <ele>-19</ele>
        <time>2022-02-10T10:14:14.000Z</time>
      </trkpt>
      <trkpt lat="47.36383" lon="-2.48374">
        <ele>-19</ele>
        <time>2022-02-10T10:14:17.000Z</time>
      </trkpt>
      <trkpt lat="47.36368" lon="-2.48376">
        <ele>-19</ele>
        <time>2022-02-10T10:14:20.000Z</time>
      </trkpt>
      <trkpt lat="47.36338" lon="-2.48385">
        <ele>-19</ele>
        <time>2022-02-10T10:14:26.000Z</time>
      </trkpt>
      <trkpt lat="47.36304" lon="-2.48398">
        <ele>-19</ele>
        <time>2022-02-10T10:14:32.000Z</time>
      </trkpt>
      <trkpt lat="47.36272" lon="-2.4842">
        <ele>-19</ele>
        <time>2022-02-10T10:14:38.000Z</time>
      </trkpt>
      <trkpt lat="47.36239" lon="-2.48441">
        <ele>-19</ele>
        <time>2022-02-10T10:14:44.000Z</time>
      </trkpt>
      <trkpt lat="47.36202" lon="-2.48456">
        <ele>-19</ele>
        <time>2022-02-10T10:14:50.000Z</time>
      </trkpt>
      <trkpt lat="47.36177" lon="-2.48468">
        <ele>-19.39999961853</ele>
        <time>2022-02-10T10:14:54.000Z</time>
      </trkpt>
      <trkpt lat="47.36171" lon="-2.4847">
        <ele>-19.799999237061</ele>
        <time>2022-02-10T10:14:55.000Z</time>
      </trkpt>
      <trkpt lat="47.36165" lon="-2.48473">
        <ele>-20.200000762939</ele>
        <time>2022-02-10T10:14:56.000Z</time>
      </trkpt>
      <trkpt lat="47.36159" lon="-2.48476">
        <ele>-20.60000038147</ele>
        <time>2022-02-10T10:14:57.000Z</time>
      </trkpt>
      <trkpt lat="47.36154" lon="-2.48479">
        <ele>-21</ele>
        <time>2022-02-10T10:14:58.000Z</time>
      </trkpt>
      <trkpt lat="47.36119" lon="-2.48498">
        <ele>-21</ele>
        <time>2022-02-10T10:15:04.000Z</time>
      </trkpt>
      <trkpt lat="47.36083" lon="-2.48508">
        <ele>-21</ele>
        <time>2022-02-10T10:15:10.000Z</time>
      </trkpt>
      <trkpt lat="47.36047" lon="-2.48518">
        <ele>-21</ele>
        <time>2022-02-10T10:15:16.000Z</time>
      </trkpt>
      <trkpt lat="47.36002" lon="-2.48541">
        <ele>-21</ele>
        <time>2022-02-10T10:15:24.000Z</time>
      </trkpt>
      <trkpt lat="47.35992" lon="-2.48547">
        <ele>-21</ele>
        <time>2022-02-10T10:15:26.000Z</time>
      </trkpt>
      <trkpt lat="47.35978" lon="-2.48556">
        <ele>-21</ele>
        <time>2022-02-10T10:15:29.000Z</time>
      </trkpt>
      <trkpt lat="47.35952" lon="-2.48571">
        <ele>-21</ele>
        <time>2022-02-10T10:15:34.000Z</time>
      </trkpt>
      <trkpt lat="47.35925" lon="-2.48586">
        <ele>-21</ele>
        <time>2022-02-10T10:15:39.000Z</time>
      </trkpt>
      <trkpt lat="47.35915" lon="-2.4859">
        <ele>-21</ele>
        <time>2022-02-10T10:15:41.000Z</time>
      </trkpt>
      <trkpt lat="47.35899" lon="-2.48591">
        <ele>-21</ele>
        <time>2022-02-10T10:15:44.000Z</time>
      </trkpt>
      <trkpt lat="47.35885" lon="-2.4859">
        <ele>-21</ele>
        <time>2022-02-10T10:15:47.000Z</time>
      </trkpt>
      <trkpt lat="47.35877" lon="-2.48588">
        <ele>-21</ele>
        <time>2022-02-10T10:15:49.000Z</time>
      </trkpt>
      <trkpt lat="47.35851" lon="-2.48574">
        <ele>-21</ele>
        <time>2022-02-10T10:15:56.000Z</time>
      </trkpt>
      <trkpt lat="47.35831" lon="-2.48559">
        <ele>-21</ele>
        <time>2022-02-10T10:16:01.000Z</time>
      </trkpt>
      <trkpt lat="47.35823" lon="-2.48552">
        <ele>-21</ele>
        <time>2022-02-10T10:16:03.000Z</time>
      </trkpt>
      <trkpt lat="47.358" lon="-2.48532">
        <ele>-21</ele>
        <time>2022-02-10T10:16:09.000Z</time>
      </trkpt>
      <trkpt lat="47.35786" lon="-2.48518">
        <ele>-21</ele>
        <time>2022-02-10T10:16:15.000Z</time>
      </trkpt>
      <trkpt lat="47.35777" lon="-2.48508">
        <ele>-21</ele>
        <time>2022-02-10T10:16:20.000Z</time>
      </trkpt>
      <trkpt lat="47.35771" lon="-2.48508">
        <ele>-21</ele>
        <time>2022-02-10T10:16:22.000Z</time>
      </trkpt>
      <trkpt lat="47.35766" lon="-2.48514">
        <ele>-21</ele>
        <time>2022-02-10T10:16:24.000Z</time>
      </trkpt>
      <trkpt lat="47.3575" lon="-2.48538">
        <ele>-21</ele>
        <time>2022-02-10T10:16:29.000Z</time>
      </trkpt>
      <trkpt lat="47.35719" lon="-2.48582">
        <ele>-21</ele>
        <time>2022-02-10T10:16:36.000Z</time>
      </trkpt>
      <trkpt lat="47.35697" lon="-2.48618">
        <ele>-21</ele>
        <time>2022-02-10T10:16:42.000Z</time>
      </trkpt>
      <trkpt lat="47.35666" lon="-2.48668">
        <ele>-21</ele>
        <time>2022-02-10T10:16:50.000Z</time>
      </trkpt>
      <trkpt lat="47.35635" lon="-2.48716">
        <ele>-21</ele>
        <time>2022-02-10T10:16:58.000Z</time>
      </trkpt>
      <trkpt lat="47.35627" lon="-2.48729">
        <ele>-20.60000038147</ele>
        <time>2022-02-10T10:17:00.000Z</time>
      </trkpt>
      <trkpt lat="47.35623" lon="-2.48736">
        <ele>-20.200000762939</ele>
        <time>2022-02-10T10:17:01.000Z</time>
      </trkpt>
      <trkpt lat="47.35619" lon="-2.48742">
        <ele>-19.799999237061</ele>
        <time>2022-02-10T10:17:02.000Z</time>
      </trkpt>
      <trkpt lat="47.35615" lon="-2.48748">
        <ele>-19.200000762939</ele>
        <time>2022-02-10T10:17:03.000Z</time>
      </trkpt>
      <trkpt lat="47.35611" lon="-2.48755">
        <ele>-18.799999237061</ele>
        <time>2022-02-10T10:17:04.000Z</time>
      </trkpt>
      <trkpt lat="47.35603" lon="-2.48768">
        <ele>-18.799999237061</ele>
        <time>2022-02-10T10:17:06.000Z</time>
      </trkpt>
      <trkpt lat="47.35567" lon="-2.4882">
        <ele>-18.799999237061</ele>
        <time>2022-02-10T10:17:15.000Z</time>
      </trkpt>
      <trkpt lat="47.3555" lon="-2.48841">
        <ele>-18.39999961853</ele>
        <time>2022-02-10T10:17:19.000Z</time>
      </trkpt>
      <trkpt lat="47.35545" lon="-2.48845">
        <ele>-18</ele>
        <time>2022-02-10T10:17:20.000Z</time>
      </trkpt>
      <trkpt lat="47.3554" lon="-2.4885">
        <ele>-17.60000038147</ele>
        <time>2022-02-10T10:17:21.000Z</time>
      </trkpt>
      <trkpt lat="47.35536" lon="-2.48854">
        <ele>-17.200000762939</ele>
        <time>2022-02-10T10:17:22.000Z</time>
      </trkpt>
      <trkpt lat="47.35531" lon="-2.48858">
        <ele>-16.799999237061</ele>
        <time>2022-02-10T10:17:23.000Z</time>
      </trkpt>
      <trkpt lat="47.35504" lon="-2.48882">
        <ele>-16.799999237061</ele>
        <time>2022-02-10T10:17:29.000Z</time>
      </trkpt>
      <trkpt lat="47.35475" lon="-2.48906">
        <ele>-16.799999237061</ele>
        <time>2022-02-10T10:17:35.000Z</time>
      </trkpt>
      <trkpt lat="47.35445" lon="-2.48933">
        <ele>-16.799999237061</ele>
        <time>2022-02-10T10:17:41.000Z</time>
      </trkpt>
      <trkpt lat="47.35412" lon="-2.48962">
        <ele>-17.200000762939</ele>
        <time>2022-02-10T10:17:47.000Z</time>
      </trkpt>
      <trkpt lat="47.35407" lon="-2.48967">
        <ele>-17.60000038147</ele>
        <time>2022-02-10T10:17:48.000Z</time>
      </trkpt>
      <trkpt lat="47.35401" lon="-2.48972">
        <ele>-18</ele>
        <time>2022-02-10T10:17:49.000Z</time>
      </trkpt>
      <trkpt lat="47.35396" lon="-2.48976">
        <ele>-18.39999961853</ele>
        <time>2022-02-10T10:17:50.000Z</time>
      </trkpt>
      <trkpt lat="47.3539" lon="-2.4898">
        <ele>-18.799999237061</ele>
        <time>2022-02-10T10:17:51.000Z</time>
      </trkpt>
      <trkpt lat="47.35384" lon="-2.48985">
        <ele>-18.799999237061</ele>
        <time>2022-02-10T10:17:52.000Z</time>
      </trkpt>
      <trkpt lat="47.35373" lon="-2.48995">
        <ele>-18.799999237061</ele>
        <time>2022-02-10T10:17:54.000Z</time>
      </trkpt>
      <trkpt lat="47.35361" lon="-2.49005">
        <ele>-19.200000762939</ele>
        <time>2022-02-10T10:17:56.000Z</time>
      </trkpt>
      <trkpt lat="47.35356" lon="-2.4901">
        <ele>-19.799999237061</ele>
        <time>2022-02-10T10:17:57.000Z</time>
      </trkpt>
      <trkpt lat="47.35351" lon="-2.49014">
        <ele>-20.200000762939</ele>
        <time>2022-02-10T10:17:58.000Z</time>
      </trkpt>
      <trkpt lat="47.35346" lon="-2.49019">
        <ele>-20.60000038147</ele>
        <time>2022-02-10T10:17:59.000Z</time>
      </trkpt>
      <trkpt lat="47.35341" lon="-2.49024">
        <ele>-21</ele>
        <time>2022-02-10T10:18:00.000Z</time>
      </trkpt>
      <trkpt lat="47.35337" lon="-2.49029">
        <ele>-21</ele>
        <time>2022-02-10T10:18:01.000Z</time>
      </trkpt>
      <trkpt lat="47.35334" lon="-2.49035">
        <ele>-21</ele>
        <time>2022-02-10T10:18:02.000Z</time>
      </trkpt>
      <trkpt lat="47.3533" lon="-2.49038">
        <ele>-21</ele>
        <time>2022-02-10T10:18:03.000Z</time>
      </trkpt>
      <trkpt lat="47.3532" lon="-2.49039">
        <ele>-21</ele>
        <time>2022-02-10T10:18:05.000Z</time>
      </trkpt>
      <trkpt lat="47.35308" lon="-2.49024">
        <ele>-21</ele>
        <time>2022-02-10T10:18:08.000Z</time>
      </trkpt>
      <trkpt lat="47.35299" lon="-2.49015">
        <ele>-21</ele>
        <time>2022-02-10T10:18:10.000Z</time>
      </trkpt>
      <trkpt lat="47.35287" lon="-2.49001">
        <ele>-21.60000038147</ele>
        <time>2022-02-10T10:18:13.000Z</time>
      </trkpt>
      <trkpt lat="47.35283" lon="-2.48998">
        <ele>-22</ele>
        <time>2022-02-10T10:18:14.000Z</time>
      </trkpt>
      <trkpt lat="47.35279" lon="-2.48994">
        <ele>-22.39999961853</ele>
        <time>2022-02-10T10:18:15.000Z</time>
      </trkpt>
      <trkpt lat="47.35275" lon="-2.48991">
        <ele>-22.799999237061</ele>
        <time>2022-02-10T10:18:16.000Z</time>
      </trkpt>
      <trkpt lat="47.35271" lon="-2.48988">
        <ele>-23.200000762939</ele>
        <time>2022-02-10T10:18:17.000Z</time>
      </trkpt>
      <trkpt lat="47.3526" lon="-2.48976">
        <ele>-23.200000762939</ele>
        <time>2022-02-10T10:18:20.000Z</time>
      </trkpt>
      <trkpt lat="47.35232" lon="-2.48949">
        <ele>-23.200000762939</ele>
        <time>2022-02-10T10:18:27.000Z</time>
      </trkpt>
      <trkpt lat="47.35204" lon="-2.48922">
        <ele>-23.200000762939</ele>
        <time>2022-02-10T10:18:33.000Z</time>
      </trkpt>
      <trkpt lat="47.35198" lon="-2.48918">
        <ele>-23.60000038147</ele>
        <time>2022-02-10T10:18:34.000Z</time>
      </trkpt>
      <trkpt lat="47.35193" lon="-2.48914">
        <ele>-24</ele>
        <time>2022-02-10T10:18:35.000Z</time>
      </trkpt>
      <trkpt lat="47.35187" lon="-2.48909">
        <ele>-24.39999961853</ele>
        <time>2022-02-10T10:18:36.000Z</time>
      </trkpt>
      <trkpt lat="47.35181" lon="-2.48905">
        <ele>-25</ele>
        <time>2022-02-10T10:18:37.000Z</time>
      </trkpt>
      <trkpt lat="47.35176" lon="-2.48902">
        <ele>-25.39999961853</ele>
        <time>2022-02-10T10:18:38.000Z</time>
      </trkpt>
      <trkpt lat="47.3516" lon="-2.48889">
        <ele>-25.39999961853</ele>
        <time>2022-02-10T10:18:41.000Z</time>
      </trkpt>
      <trkpt lat="47.35145" lon="-2.48879">
        <ele>-25.39999961853</ele>
        <time>2022-02-10T10:18:44.000Z</time>
      </trkpt>
      <trkpt lat="47.35136" lon="-2.48872">
        <ele>-25.39999961853</ele>
        <time>2022-02-10T10:18:46.000Z</time>
      </trkpt>
      <trkpt lat="47.35103" lon="-2.48846">
        <ele>-25.39999961853</ele>
        <time>2022-02-10T10:18:53.000Z</time>
      </trkpt>
      <trkpt lat="47.35094" lon="-2.4884">
        <ele>-25.39999961853</ele>
        <time>2022-02-10T10:18:55.000Z</time>
      </trkpt>
      <trkpt lat="47.35083" lon="-2.48831">
        <ele>-25.39999961853</ele>
        <time>2022-02-10T10:18:58.000Z</time>
      </trkpt>
      <trkpt lat="47.35075" lon="-2.48826">
        <ele>-25.39999961853</ele>
        <time>2022-02-10T10:19:00.000Z</time>
      </trkpt>
      <trkpt lat="47.35072" lon="-2.48822">
        <ele>-25</ele>
        <time>2022-02-10T10:19:01.000Z</time>
      </trkpt>
      <trkpt lat="47.35068" lon="-2.48819">
        <ele>-24.39999961853</ele>
        <time>2022-02-10T10:19:02.000Z</time>
      </trkpt>
      <trkpt lat="47.35064" lon="-2.48815">
        <ele>-24</ele>
        <time>2022-02-10T10:19:03.000Z</time>
      </trkpt>
      <trkpt lat="47.35061" lon="-2.48811">
        <ele>-23.60000038147</ele>
        <time>2022-02-10T10:19:04.000Z</time>
      </trkpt>
      <trkpt lat="47.35057" lon="-2.48808">
        <ele>-23.200000762939</ele>
        <time>2022-02-10T10:19:05.000Z</time>
      </trkpt>
      <trkpt lat="47.35048" lon="-2.48801">
        <ele>-23.200000762939</ele>
        <time>2022-02-10T10:19:07.000Z</time>
      </trkpt>
      <trkpt lat="47.3504" lon="-2.48795">
        <ele>-22.799999237061</ele>
        <time>2022-02-10T10:19:09.000Z</time>
      </trkpt>
      <trkpt lat="47.35037" lon="-2.48792">
        <ele>-22.39999961853</ele>
        <time>2022-02-10T10:19:10.000Z</time>
      </trkpt>
      <trkpt lat="47.35034" lon="-2.48789">
        <ele>-22</ele>
        <time>2022-02-10T10:19:11.000Z</time>
      </trkpt>
      <trkpt lat="47.35031" lon="-2.48786">
        <ele>-21.60000038147</ele>
        <time>2022-02-10T10:19:12.000Z</time>
      </trkpt>
      <trkpt lat="47.35027" lon="-2.48783">
        <ele>-21.200000762939</ele>
        <time>2022-02-10T10:19:13.000Z</time>
      </trkpt>
      <trkpt lat="47.35018" lon="-2.48774">
        <ele>-21.200000762939</ele>
        <time>2022-02-10T10:19:16.000Z</time>
      </trkpt>
      <trkpt lat="47.35014" lon="-2.48771">
        <ele>-20.799999237061</ele>
        <time>2022-02-10T10:19:17.000Z</time>
      </trkpt>
      <trkpt lat="47.35011" lon="-2.48768">
        <ele>-20.39999961853</ele>
        <time>2022-02-10T10:19:18.000Z</time>
      </trkpt>
      <trkpt lat="47.35007" lon="-2.48765">
        <ele>-20</ele>
        <time>2022-02-10T10:19:19.000Z</time>
      </trkpt>
      <trkpt lat="47.35003" lon="-2.48762">
        <ele>-19.60000038147</ele>
        <time>2022-02-10T10:19:20.000Z</time>
      </trkpt>
      <trkpt lat="47.34999" lon="-2.4876">
        <ele>-19.200000762939</ele>
        <time>2022-02-10T10:19:21.000Z</time>
      </trkpt>
      <trkpt lat="47.34996" lon="-2.48757">
        <ele>-19.200000762939</ele>
        <time>2022-02-10T10:19:22.000Z</time>
      </trkpt>
      <trkpt lat="47.34971" lon="-2.48739">
        <ele>-19.200000762939</ele>
        <time>2022-02-10T10:19:29.000Z</time>
      </trkpt>
      <trkpt lat="47.34942" lon="-2.48715">
        <ele>-19.200000762939</ele>
        <time>2022-02-10T10:19:37.000Z</time>
      </trkpt>
      <trkpt lat="47.34928" lon="-2.48702">
        <ele>-19.200000762939</ele>
        <time>2022-02-10T10:19:41.000Z</time>
      </trkpt>
      <trkpt lat="47.3492" lon="-2.48698">
        <ele>-19.200000762939</ele>
        <time>2022-02-10T10:19:43.000Z</time>
      </trkpt>
      <trkpt lat="47.34911" lon="-2.48694">
        <ele>-19.200000762939</ele>
        <time>2022-02-10T10:19:45.000Z</time>
      </trkpt>
      <trkpt lat="47.34898" lon="-2.48679">
        <ele>-19.200000762939</ele>
        <time>2022-02-10T10:19:48.000Z</time>
      </trkpt>
      <trkpt lat="47.34887" lon="-2.48659">
        <ele>-19.200000762939</ele>
        <time>2022-02-10T10:19:51.000Z</time>
      </trkpt>
      <trkpt lat="47.34879" lon="-2.48644">
        <ele>-19.200000762939</ele>
        <time>2022-02-10T10:19:53.000Z</time>
      </trkpt>
      <trkpt lat="47.34845" lon="-2.48591">
        <ele>-19.200000762939</ele>
        <time>2022-02-10T10:20:01.000Z</time>
      </trkpt>
      <trkpt lat="47.34805" lon="-2.48538">
        <ele>-19.200000762939</ele>
        <time>2022-02-10T10:20:10.000Z</time>
      </trkpt>
      <trkpt lat="47.34779" lon="-2.48508">
        <ele>-19.200000762939</ele>
        <time>2022-02-10T10:20:16.000Z</time>
      </trkpt>
      <trkpt lat="47.34744" lon="-2.48461">
        <ele>-19.200000762939</ele>
        <time>2022-02-10T10:20:25.000Z</time>
      </trkpt>
      <trkpt lat="47.34712" lon="-2.48417">
        <ele>-19.200000762939</ele>
        <time>2022-02-10T10:20:33.000Z</time>
      </trkpt>
      <trkpt lat="47.34707" lon="-2.48412">
        <ele>-19.200000762939</ele>
        <time>2022-02-10T10:20:34.000Z</time>
      </trkpt>
      <trkpt lat="47.34689" lon="-2.484">
        <ele>-19.200000762939</ele>
        <time>2022-02-10T10:20:37.000Z</time>
      </trkpt>
      <trkpt lat="47.34683" lon="-2.48399">
        <ele>-19.200000762939</ele>
        <time>2022-02-10T10:20:38.000Z</time>
      </trkpt>
      <trkpt lat="47.3465" lon="-2.48397">
        <ele>-19.200000762939</ele>
        <time>2022-02-10T10:20:43.000Z</time>
      </trkpt>
      <trkpt lat="47.34597" lon="-2.48406">
        <ele>-19.200000762939</ele>
        <time>2022-02-10T10:20:51.000Z</time>
      </trkpt>
      <trkpt lat="47.34583" lon="-2.48404">
        <ele>-19.200000762939</ele>
        <time>2022-02-10T10:20:53.000Z</time>
      </trkpt>
      <trkpt lat="47.34562" lon="-2.48396">
        <ele>-19.60000038147</ele>
        <time>2022-02-10T10:20:56.000Z</time>
      </trkpt>
      <trkpt lat="47.34555" lon="-2.48391">
        <ele>-20</ele>
        <time>2022-02-10T10:20:57.000Z</time>
      </trkpt>
      <trkpt lat="47.34549" lon="-2.48386">
        <ele>-20.39999961853</ele>
        <time>2022-02-10T10:20:58.000Z</time>
      </trkpt>
      <trkpt lat="47.34542" lon="-2.4838">
        <ele>-20.799999237061</ele>
        <time>2022-02-10T10:20:59.000Z</time>
      </trkpt>
      <trkpt lat="47.34536" lon="-2.48373">
        <ele>-21.200000762939</ele>
        <time>2022-02-10T10:21:00.000Z</time>
      </trkpt>
      <trkpt lat="47.34531" lon="-2.48366">
        <ele>-21.200000762939</ele>
        <time>2022-02-10T10:21:01.000Z</time>
      </trkpt>
      <trkpt lat="47.34501" lon="-2.48331">
        <ele>-21.60000038147</ele>
        <time>2022-02-10T10:21:06.000Z</time>
      </trkpt>
      <trkpt lat="47.34497" lon="-2.48325">
        <ele>-22.200000762939</ele>
        <time>2022-02-10T10:21:07.000Z</time>
      </trkpt>
      <trkpt lat="47.34492" lon="-2.48321">
        <ele>-22.60000038147</ele>
        <time>2022-02-10T10:21:08.000Z</time>
      </trkpt>
      <trkpt lat="47.34488" lon="-2.48317">
        <ele>-23</ele>
        <time>2022-02-10T10:21:09.000Z</time>
      </trkpt>
      <trkpt lat="47.34483" lon="-2.48316">
        <ele>-23.39999961853</ele>
        <time>2022-02-10T10:21:10.000Z</time>
      </trkpt>
      <trkpt lat="47.34467" lon="-2.48322">
        <ele>-23.799999237061</ele>
        <time>2022-02-10T10:21:13.000Z</time>
      </trkpt>
      <trkpt lat="47.34462" lon="-2.48322">
        <ele>-24.200000762939</ele>
        <time>2022-02-10T10:21:14.000Z</time>
      </trkpt>
      <trkpt lat="47.34456" lon="-2.48322">
        <ele>-24.60000038147</ele>
        <time>2022-02-10T10:21:15.000Z</time>
      </trkpt>
      <trkpt lat="47.3445" lon="-2.48325">
        <ele>-25</ele>
        <time>2022-02-10T10:21:16.000Z</time>
      </trkpt>
      <trkpt lat="47.34445" lon="-2.48329">
        <ele>-25.39999961853</ele>
        <time>2022-02-10T10:21:17.000Z</time>
      </trkpt>
      <trkpt lat="47.34427" lon="-2.48347">
        <ele>-26.200000762939</ele>
        <time>2022-02-10T10:21:20.000Z</time>
      </trkpt>
      <trkpt lat="47.34421" lon="-2.48354">
        <ele>-26.60000038147</ele>
        <time>2022-02-10T10:21:21.000Z</time>
      </trkpt>
      <trkpt lat="47.34416" lon="-2.48362">
        <ele>-27</ele>
        <time>2022-02-10T10:21:22.000Z</time>
      </trkpt>
      <trkpt lat="47.3441" lon="-2.4837">
        <ele>-27.39999961853</ele>
        <time>2022-02-10T10:21:23.000Z</time>
      </trkpt>
      <trkpt lat="47.34397" lon="-2.48384">
        <ele>-28</ele>
        <time>2022-02-10T10:21:25.000Z</time>
      </trkpt>
      <trkpt lat="47.3439" lon="-2.48389">
        <ele>-28.39999961853</ele>
        <time>2022-02-10T10:21:26.000Z</time>
      </trkpt>
      <trkpt lat="47.34382" lon="-2.48392">
        <ele>-28.799999237061</ele>
        <time>2022-02-10T10:21:27.000Z</time>
      </trkpt>
      <trkpt lat="47.34374" lon="-2.48392">
        <ele>-29.200000762939</ele>
        <time>2022-02-10T10:21:28.000Z</time>
      </trkpt>
      <trkpt lat="47.34366" lon="-2.4839">
        <ele>-29.799999237061</ele>
        <time>2022-02-10T10:21:29.000Z</time>
      </trkpt>
      <trkpt lat="47.34357" lon="-2.48388">
        <ele>-30.200000762939</ele>
        <time>2022-02-10T10:21:30.000Z</time>
      </trkpt>
      <trkpt lat="47.34349" lon="-2.48385">
        <ele>-30.799999237061</ele>
        <time>2022-02-10T10:21:31.000Z</time>
      </trkpt>
      <trkpt lat="47.3434" lon="-2.48382">
        <ele>-31.200000762939</ele>
        <time>2022-02-10T10:21:32.000Z</time>
      </trkpt>
      <trkpt lat="47.34331" lon="-2.48378">
        <ele>-31.799999237061</ele>
        <time>2022-02-10T10:21:33.000Z</time>
      </trkpt>
      <trkpt lat="47.34322" lon="-2.48375">
        <ele>-32.200000762939</ele>
        <time>2022-02-10T10:21:34.000Z</time>
      </trkpt>
      <trkpt lat="47.34313" lon="-2.48374">
        <ele>-32.200000762939</ele>
        <time>2022-02-10T10:21:35.000Z</time>
      </trkpt>
      <trkpt lat="47.34304" lon="-2.48375">
        <ele>-32.599998474121</ele>
        <time>2022-02-10T10:21:36.000Z</time>
      </trkpt>
      <trkpt lat="47.34295" lon="-2.48377">
        <ele>-33.200000762939</ele>
        <time>2022-02-10T10:21:37.000Z</time>
      </trkpt>
      <trkpt lat="47.34287" lon="-2.48379">
        <ele>-33.599998474121</ele>
        <time>2022-02-10T10:21:38.000Z</time>
      </trkpt>
      <trkpt lat="47.34277" lon="-2.48382">
        <ele>-34</ele>
        <time>2022-02-10T10:21:39.000Z</time>
      </trkpt>
      <trkpt lat="47.34268" lon="-2.48383">
        <ele>-34.599998474121</ele>
        <time>2022-02-10T10:21:40.000Z</time>
      </trkpt>
      <trkpt lat="47.34259" lon="-2.48383">
        <ele>-35</ele>
        <time>2022-02-10T10:21:41.000Z</time>
      </trkpt>
      <trkpt lat="47.34249" lon="-2.4838">
        <ele>-35.400001525879</ele>
        <time>2022-02-10T10:21:42.000Z</time>
      </trkpt>
      <trkpt lat="47.3424" lon="-2.48376">
        <ele>-35.799999237061</ele>
        <time>2022-02-10T10:21:43.000Z</time>
      </trkpt>
      <trkpt lat="47.3423" lon="-2.48372">
        <ele>-36.400001525879</ele>
        <time>2022-02-10T10:21:44.000Z</time>
      </trkpt>
      <trkpt lat="47.34221" lon="-2.48366">
        <ele>-37.599998474121</ele>
        <time>2022-02-10T10:21:45.000Z</time>
      </trkpt>
      <trkpt lat="47.34212" lon="-2.48358">
        <ele>-38.200000762939</ele>
        <time>2022-02-10T10:21:46.000Z</time>
      </trkpt>
      <trkpt lat="47.34204" lon="-2.4835">
        <ele>-38.799999237061</ele>
        <time>2022-02-10T10:21:47.000Z</time>
      </trkpt>
      <trkpt lat="47.34197" lon="-2.4834">
        <ele>-38.799999237061</ele>
        <time>2022-02-10T10:21:48.000Z</time>
      </trkpt>
      <trkpt lat="47.3419" lon="-2.48331">
        <ele>-38.799999237061</ele>
        <time>2022-02-10T10:21:49.000Z</time>
      </trkpt>
      <trkpt lat="47.34166" lon="-2.483">
        <ele>-38.799999237061</ele>
        <time>2022-02-10T10:21:53.000Z</time>
      </trkpt>
      <trkpt lat="47.34141" lon="-2.48276">
        <ele>-38.799999237061</ele>
        <time>2022-02-10T10:21:57.000Z</time>
      </trkpt>
      <trkpt lat="47.34135" lon="-2.48273">
        <ele>-38.799999237061</ele>
        <time>2022-02-10T10:21:58.000Z</time>
      </trkpt>
      <trkpt lat="47.34106" lon="-2.48261">
        <ele>-38.799999237061</ele>
        <time>2022-02-10T10:22:03.000Z</time>
      </trkpt>
      <trkpt lat="47.34058" lon="-2.48247">
        <ele>-38.799999237061</ele>
        <time>2022-02-10T10:22:11.000Z</time>
      </trkpt>
      <trkpt lat="47.33999" lon="-2.4823">
        <ele>-38.799999237061</ele>
        <time>2022-02-10T10:22:21.000Z</time>
      </trkpt>
      <trkpt lat="47.33958" lon="-2.48221">
        <ele>-38.799999237061</ele>
        <time>2022-02-10T10:22:28.000Z</time>
      </trkpt>
      <trkpt lat="47.33928" lon="-2.48233">
        <ele>-38.799999237061</ele>
        <time>2022-02-10T10:22:33.000Z</time>
      </trkpt>
      <trkpt lat="47.33888" lon="-2.48259">
        <ele>-38.799999237061</ele>
        <time>2022-02-10T10:22:40.000Z</time>
      </trkpt>
      <trkpt lat="47.33848" lon="-2.48273">
        <ele>-38.799999237061</ele>
        <time>2022-02-10T10:22:47.000Z</time>
      </trkpt>
      <trkpt lat="47.33805" lon="-2.48287">
        <ele>-38.799999237061</ele>
        <time>2022-02-10T10:22:54.000Z</time>
      </trkpt>
      <trkpt lat="47.33767" lon="-2.48306">
        <ele>-38.799999237061</ele>
        <time>2022-02-10T10:23:00.000Z</time>
      </trkpt>
      <trkpt lat="47.33762" lon="-2.4831">
        <ele>-38.799999237061</ele>
        <time>2022-02-10T10:23:01.000Z</time>
      </trkpt>
      <trkpt lat="47.3375" lon="-2.48315">
        <ele>-39.200000762939</ele>
        <time>2022-02-10T10:23:03.000Z</time>
      </trkpt>
      <trkpt lat="47.33744" lon="-2.48318">
        <ele>-39.599998474121</ele>
        <time>2022-02-10T10:23:04.000Z</time>
      </trkpt>
      <trkpt lat="47.33739" lon="-2.48322">
        <ele>-40</ele>
        <time>2022-02-10T10:23:05.000Z</time>
      </trkpt>
      <trkpt lat="47.33734" lon="-2.48324">
        <ele>-40.400001525879</ele>
        <time>2022-02-10T10:23:06.000Z</time>
      </trkpt>
      <trkpt lat="47.3373" lon="-2.48325">
        <ele>-40.799999237061</ele>
        <time>2022-02-10T10:23:07.000Z</time>
      </trkpt>
      <trkpt lat="47.33724" lon="-2.48317">
        <ele>-40.799999237061</ele>
        <time>2022-02-10T10:23:09.000Z</time>
      </trkpt>
      <trkpt lat="47.33721" lon="-2.48302">
        <ele>-41.200000762939</ele>
        <time>2022-02-10T10:23:11.000Z</time>
      </trkpt>
      <trkpt lat="47.33721" lon="-2.48294">
        <ele>-41.599998474121</ele>
        <time>2022-02-10T10:23:12.000Z</time>
      </trkpt>
      <trkpt lat="47.33721" lon="-2.48286">
        <ele>-42</ele>
        <time>2022-02-10T10:23:13.000Z</time>
      </trkpt>
      <trkpt lat="47.33722" lon="-2.48278">
        <ele>-42.400001525879</ele>
        <time>2022-02-10T10:23:14.000Z</time>
      </trkpt>
      <trkpt lat="47.33722" lon="-2.4827">
        <ele>-42.799999237061</ele>
        <time>2022-02-10T10:23:15.000Z</time>
      </trkpt>
      <trkpt lat="47.33722" lon="-2.48262">
        <ele>-42.799999237061</ele>
        <time>2022-02-10T10:23:16.000Z</time>
      </trkpt>
      <trkpt lat="47.33722" lon="-2.48254">
        <ele>-42.799999237061</ele>
        <time>2022-02-10T10:23:17.000Z</time>
      </trkpt>
      <trkpt lat="47.33726" lon="-2.48212">
        <ele>-42.799999237061</ele>
        <time>2022-02-10T10:23:22.000Z</time>
      </trkpt>
      <trkpt lat="47.33727" lon="-2.48204">
        <ele>-42.799999237061</ele>
        <time>2022-02-10T10:23:23.000Z</time>
      </trkpt>
      <trkpt lat="47.33727" lon="-2.48195">
        <ele>-42.400001525879</ele>
        <time>2022-02-10T10:23:24.000Z</time>
      </trkpt>
      <trkpt lat="47.33728" lon="-2.48186">
        <ele>-42</ele>
        <time>2022-02-10T10:23:25.000Z</time>
      </trkpt>
      <trkpt lat="47.33728" lon="-2.48177">
        <ele>-41.599998474121</ele>
        <time>2022-02-10T10:23:26.000Z</time>
      </trkpt>
      <trkpt lat="47.33729" lon="-2.48168">
        <ele>-41.200000762939</ele>
        <time>2022-02-10T10:23:27.000Z</time>
      </trkpt>
      <trkpt lat="47.33729" lon="-2.4816">
        <ele>-40.799999237061</ele>
        <time>2022-02-10T10:23:28.000Z</time>
      </trkpt>
      <trkpt lat="47.3373" lon="-2.48152">
        <ele>-40.799999237061</ele>
        <time>2022-02-10T10:23:29.000Z</time>
      </trkpt>
      <trkpt lat="47.33734" lon="-2.48109">
        <ele>-40.799999237061</ele>
        <time>2022-02-10T10:23:34.000Z</time>
      </trkpt>
      <trkpt lat="47.33736" lon="-2.48094">
        <ele>-40.799999237061</ele>
        <time>2022-02-10T10:23:36.000Z</time>
      </trkpt>
      <trkpt lat="47.33738" lon="-2.48079">
        <ele>-40.799999237061</ele>
        <time>2022-02-10T10:23:38.000Z</time>
      </trkpt>
      <trkpt lat="47.33741" lon="-2.48066">
        <ele>-40.400001525879</ele>
        <time>2022-02-10T10:23:40.000Z</time>
      </trkpt>
      <trkpt lat="47.33742" lon="-2.48059">
        <ele>-40</ele>
        <time>2022-02-10T10:23:41.000Z</time>
      </trkpt>
      <trkpt lat="47.33743" lon="-2.48053">
        <ele>-39.599998474121</ele>
        <time>2022-02-10T10:23:42.000Z</time>
      </trkpt>
      <trkpt lat="47.33745" lon="-2.48046">
        <ele>-39.200000762939</ele>
        <time>2022-02-10T10:23:43.000Z</time>
      </trkpt>
      <trkpt lat="47.33746" lon="-2.48038">
        <ele>-38.799999237061</ele>
        <time>2022-02-10T10:23:44.000Z</time>
      </trkpt>
      <trkpt lat="47.33749" lon="-2.48024">
        <ele>-38.799999237061</ele>
        <time>2022-02-10T10:23:46.000Z</time>
      </trkpt>
      <trkpt lat="47.33762" lon="-2.47966">
        <ele>-38.799999237061</ele>
        <time>2022-02-10T10:23:54.000Z</time>
      </trkpt>
      <trkpt lat="47.33769" lon="-2.47944">
        <ele>-38.200000762939</ele>
        <time>2022-02-10T10:23:57.000Z</time>
      </trkpt>
      <trkpt lat="47.33772" lon="-2.47938">
        <ele>-37.799999237061</ele>
        <time>2022-02-10T10:23:58.000Z</time>
      </trkpt>
      <trkpt lat="47.33774" lon="-2.47931">
        <ele>-37.400001525879</ele>
        <time>2022-02-10T10:23:59.000Z</time>
      </trkpt>
      <trkpt lat="47.33777" lon="-2.47924">
        <ele>-37</ele>
        <time>2022-02-10T10:24:00.000Z</time>
      </trkpt>
      <trkpt lat="47.3378" lon="-2.47919">
        <ele>-36.599998474121</ele>
        <time>2022-02-10T10:24:01.000Z</time>
      </trkpt>
      <trkpt lat="47.33792" lon="-2.47897">
        <ele>-36.599998474121</ele>
        <time>2022-02-10T10:24:05.000Z</time>
      </trkpt>
      <trkpt lat="47.33814" lon="-2.47859">
        <ele>-36.200000762939</ele>
        <time>2022-02-10T10:24:12.000Z</time>
      </trkpt>
      <trkpt lat="47.33817" lon="-2.47854">
        <ele>-35.400001525879</ele>
        <time>2022-02-10T10:24:13.000Z</time>
      </trkpt>
      <trkpt lat="47.3382" lon="-2.47849">
        <ele>-35</ele>
        <time>2022-02-10T10:24:14.000Z</time>
      </trkpt>
      <trkpt lat="47.33823" lon="-2.47844">
        <ele>-34.599998474121</ele>
        <time>2022-02-10T10:24:15.000Z</time>
      </trkpt>
      <trkpt lat="47.33829" lon="-2.47834">
        <ele>-34.599998474121</ele>
        <time>2022-02-10T10:24:17.000Z</time>
      </trkpt>
      <trkpt lat="47.33832" lon="-2.47828">
        <ele>-34.599998474121</ele>
        <time>2022-02-10T10:24:18.000Z</time>
      </trkpt>
      <trkpt lat="47.33845" lon="-2.47807">
        <ele>-34.599998474121</ele>
        <time>2022-02-10T10:24:22.000Z</time>
      </trkpt>
      <trkpt lat="47.3385" lon="-2.47794">
        <ele>-34.599998474121</ele>
        <time>2022-02-10T10:24:24.000Z</time>
      </trkpt>
      <trkpt lat="47.33849" lon="-2.47767">
        <ele>-34.599998474121</ele>
        <time>2022-02-10T10:24:28.000Z</time>
      </trkpt>
      <trkpt lat="47.33837" lon="-2.47754">
        <ele>-34.599998474121</ele>
        <time>2022-02-10T10:24:31.000Z</time>
      </trkpt>
      <trkpt lat="47.33818" lon="-2.47729">
        <ele>-34.200000762939</ele>
        <time>2022-02-10T10:24:36.000Z</time>
      </trkpt>
      <trkpt lat="47.33814" lon="-2.47724">
        <ele>-33.799999237061</ele>
        <time>2022-02-10T10:24:37.000Z</time>
      </trkpt>
      <trkpt lat="47.3381" lon="-2.47719">
        <ele>-33</ele>
        <time>2022-02-10T10:24:38.000Z</time>
      </trkpt>
      <trkpt lat="47.33806" lon="-2.47714">
        <ele>-32.599998474121</ele>
        <time>2022-02-10T10:24:39.000Z</time>
      </trkpt>
      <trkpt lat="47.33774" lon="-2.47676">
        <ele>-32.599998474121</ele>
        <time>2022-02-10T10:24:47.000Z</time>
      </trkpt>
      <trkpt lat="47.33767" lon="-2.47667">
        <ele>-32.200000762939</ele>
        <time>2022-02-10T10:24:49.000Z</time>
      </trkpt>
      <trkpt lat="47.33764" lon="-2.47662">
        <ele>-31.60000038147</ele>
        <time>2022-02-10T10:24:50.000Z</time>
      </trkpt>
      <trkpt lat="47.33761" lon="-2.47656">
        <ele>-31.200000762939</ele>
        <time>2022-02-10T10:24:51.000Z</time>
      </trkpt>
      <trkpt lat="47.3376" lon="-2.4765">
        <ele>-30.799999237061</ele>
        <time>2022-02-10T10:24:52.000Z</time>
      </trkpt>
      <trkpt lat="47.33758" lon="-2.47645">
        <ele>-30.39999961853</ele>
        <time>2022-02-10T10:24:53.000Z</time>
      </trkpt>
      <trkpt lat="47.33756" lon="-2.47639">
        <ele>-30.39999961853</ele>
        <time>2022-02-10T10:24:54.000Z</time>
      </trkpt>
      <trkpt lat="47.33753" lon="-2.47634">
        <ele>-30.39999961853</ele>
        <time>2022-02-10T10:24:55.000Z</time>
      </trkpt>
      <trkpt lat="47.33748" lon="-2.47628">
        <ele>-30.39999961853</ele>
        <time>2022-02-10T10:24:57.000Z</time>
      </trkpt>
      <trkpt lat="47.3373" lon="-2.47618">
        <ele>-30.39999961853</ele>
        <time>2022-02-10T10:25:02.000Z</time>
      </trkpt>
      <trkpt lat="47.33721" lon="-2.47618">
        <ele>-30.39999961853</ele>
        <time>2022-02-10T10:25:04.000Z</time>
      </trkpt>
      <trkpt lat="47.33712" lon="-2.47619">
        <ele>-30.39999961853</ele>
        <time>2022-02-10T10:25:06.000Z</time>
      </trkpt>
      <trkpt lat="47.33693" lon="-2.47619">
        <ele>-30</ele>
        <time>2022-02-10T10:25:10.000Z</time>
      </trkpt>
      <trkpt lat="47.33688" lon="-2.47619">
        <ele>-29.60000038147</ele>
        <time>2022-02-10T10:25:11.000Z</time>
      </trkpt>
      <trkpt lat="47.33684" lon="-2.47621">
        <ele>-29.200000762939</ele>
        <time>2022-02-10T10:25:12.000Z</time>
      </trkpt>
      <trkpt lat="47.3368" lon="-2.47624">
        <ele>-28.799999237061</ele>
        <time>2022-02-10T10:25:13.000Z</time>
      </trkpt>
      <trkpt lat="47.33675" lon="-2.47627">
        <ele>-28.39999961853</ele>
        <time>2022-02-10T10:25:14.000Z</time>
      </trkpt>
      <trkpt lat="47.33651" lon="-2.47645">
        <ele>-28.39999961853</ele>
        <time>2022-02-10T10:25:19.000Z</time>
      </trkpt>
      <trkpt lat="47.33612" lon="-2.47675">
        <ele>-28.39999961853</ele>
        <time>2022-02-10T10:25:27.000Z</time>
      </trkpt>
      <trkpt lat="47.33592" lon="-2.47696">
        <ele>-28.39999961853</ele>
        <time>2022-02-10T10:25:32.000Z</time>
      </trkpt>
      <trkpt lat="47.33583" lon="-2.477">
        <ele>-28.39999961853</ele>
        <time>2022-02-10T10:25:34.000Z</time>
      </trkpt>
      <trkpt lat="47.33578" lon="-2.47701">
        <ele>-28.39999961853</ele>
        <time>2022-02-10T10:25:35.000Z</time>
      </trkpt>
      <trkpt lat="47.33563" lon="-2.47696">
        <ele>-28.39999961853</ele>
        <time>2022-02-10T10:25:38.000Z</time>
      </trkpt>
      <trkpt lat="47.33542" lon="-2.47678">
        <ele>-28.39999961853</ele>
        <time>2022-02-10T10:25:43.000Z</time>
      </trkpt>
      <trkpt lat="47.33536" lon="-2.47675">
        <ele>-28.39999961853</ele>
        <time>2022-02-10T10:25:44.000Z</time>
      </trkpt>
      <trkpt lat="47.33525" lon="-2.47665">
        <ele>-28.799999237061</ele>
        <time>2022-02-10T10:25:46.000Z</time>
      </trkpt>
      <trkpt lat="47.3352" lon="-2.47659">
        <ele>-29.200000762939</ele>
        <time>2022-02-10T10:25:47.000Z</time>
      </trkpt>
      <trkpt lat="47.33516" lon="-2.47651">
        <ele>-29.60000038147</ele>
        <time>2022-02-10T10:25:48.000Z</time>
      </trkpt>
      <trkpt lat="47.33514" lon="-2.47642">
        <ele>-30</ele>
        <time>2022-02-10T10:25:49.000Z</time>
      </trkpt>
      <trkpt lat="47.33511" lon="-2.47634">
        <ele>-30.39999961853</ele>
        <time>2022-02-10T10:25:50.000Z</time>
      </trkpt>
      <trkpt lat="47.33494" lon="-2.47606">
        <ele>-30.39999961853</ele>
        <time>2022-02-10T10:25:54.000Z</time>
      </trkpt>
      <trkpt lat="47.33488" lon="-2.476">
        <ele>-30.39999961853</ele>
        <time>2022-02-10T10:25:55.000Z</time>
      </trkpt>
      <trkpt lat="47.33471" lon="-2.4758">
        <ele>-30.39999961853</ele>
        <time>2022-02-10T10:25:58.000Z</time>
      </trkpt>
      <trkpt lat="47.33467" lon="-2.47572">
        <ele>-30.39999961853</ele>
        <time>2022-02-10T10:25:59.000Z</time>
      </trkpt>
      <trkpt lat="47.33463" lon="-2.47564">
        <ele>-30.39999961853</ele>
        <time>2022-02-10T10:26:00.000Z</time>
      </trkpt>
      <trkpt lat="47.33438" lon="-2.4751">
        <ele>-30.39999961853</ele>
        <time>2022-02-10T10:26:07.000Z</time>
      </trkpt>
      <trkpt lat="47.3342" lon="-2.47461">
        <ele>-30.39999961853</ele>
        <time>2022-02-10T10:26:14.000Z</time>
      </trkpt>
      <trkpt lat="47.33418" lon="-2.47453">
        <ele>-30.39999961853</ele>
        <time>2022-02-10T10:26:15.000Z</time>
      </trkpt>
      <trkpt lat="47.3341" lon="-2.47412">
        <ele>-30.39999961853</ele>
        <time>2022-02-10T10:26:20.000Z</time>
      </trkpt>
      <trkpt lat="47.33395" lon="-2.47356">
        <ele>-30.39999961853</ele>
        <time>2022-02-10T10:26:27.000Z</time>
      </trkpt>
      <trkpt lat="47.33386" lon="-2.47304">
        <ele>-30.39999961853</ele>
        <time>2022-02-10T10:26:33.000Z</time>
      </trkpt>
      <trkpt lat="47.33379" lon="-2.47238">
        <ele>-30.39999961853</ele>
        <time>2022-02-10T10:26:39.000Z</time>
      </trkpt>
      <trkpt lat="47.33367" lon="-2.47158">
        <ele>-30.39999961853</ele>
        <time>2022-02-10T10:26:47.000Z</time>
      </trkpt>
      <trkpt lat="47.3336" lon="-2.47116">
        <ele>-30.799999237061</ele>
        <time>2022-02-10T10:26:51.000Z</time>
      </trkpt>
      <trkpt lat="47.33357" lon="-2.47105">
        <ele>-31.200000762939</ele>
        <time>2022-02-10T10:26:52.000Z</time>
      </trkpt>
      <trkpt lat="47.33355" lon="-2.47094">
        <ele>-31.60000038147</ele>
        <time>2022-02-10T10:26:53.000Z</time>
      </trkpt>
      <trkpt lat="47.33353" lon="-2.47083">
        <ele>-32</ele>
        <time>2022-02-10T10:26:54.000Z</time>
      </trkpt>
      <trkpt lat="47.33351" lon="-2.47072">
        <ele>-32.400001525879</ele>
        <time>2022-02-10T10:26:55.000Z</time>
      </trkpt>
      <trkpt lat="47.33347" lon="-2.47048">
        <ele>-32.799999237061</ele>
        <time>2022-02-10T10:26:57.000Z</time>
      </trkpt>
      <trkpt lat="47.33346" lon="-2.47036">
        <ele>-33.200000762939</ele>
        <time>2022-02-10T10:26:58.000Z</time>
      </trkpt>
      <trkpt lat="47.33344" lon="-2.47025">
        <ele>-33.599998474121</ele>
        <time>2022-02-10T10:26:59.000Z</time>
      </trkpt>
      <trkpt lat="47.33343" lon="-2.47014">
        <ele>-34</ele>
        <time>2022-02-10T10:27:00.000Z</time>
      </trkpt>
      <trkpt lat="47.3334" lon="-2.47003">
        <ele>-34.400001525879</ele>
        <time>2022-02-10T10:27:01.000Z</time>
      </trkpt>
      <trkpt lat="47.33331" lon="-2.46968">
        <ele>-34.400001525879</ele>
        <time>2022-02-10T10:27:05.000Z</time>
      </trkpt>
      <trkpt lat="47.3332" lon="-2.46925">
        <ele>-34</ele>
        <time>2022-02-10T10:27:11.000Z</time>
      </trkpt>
      <trkpt lat="47.33318" lon="-2.46919">
        <ele>-33.599998474121</ele>
        <time>2022-02-10T10:27:12.000Z</time>
      </trkpt>
      <trkpt lat="47.33316" lon="-2.46913">
        <ele>-33.200000762939</ele>
        <time>2022-02-10T10:27:13.000Z</time>
      </trkpt>
      <trkpt lat="47.33315" lon="-2.46907">
        <ele>-32.799999237061</ele>
        <time>2022-02-10T10:27:14.000Z</time>
      </trkpt>
      <trkpt lat="47.33314" lon="-2.46901">
        <ele>-32.200000762939</ele>
        <time>2022-02-10T10:27:15.000Z</time>
      </trkpt>
      <trkpt lat="47.3331" lon="-2.46888">
        <ele>-32.200000762939</ele>
        <time>2022-02-10T10:27:18.000Z</time>
      </trkpt>
      <trkpt lat="47.33306" lon="-2.46872">
        <ele>-32.200000762939</ele>
        <time>2022-02-10T10:27:24.000Z</time>
      </trkpt>
      <trkpt lat="47.33304" lon="-2.46858">
        <ele>-32.200000762939</ele>
        <time>2022-02-10T10:27:30.000Z</time>
      </trkpt>
      <trkpt lat="47.33303" lon="-2.46856">
        <ele>-31.39999961853</ele>
        <time>2022-02-10T10:27:31.000Z</time>
      </trkpt>
      <trkpt lat="47.33302" lon="-2.46854">
        <ele>-31</ele>
        <time>2022-02-10T10:27:32.000Z</time>
      </trkpt>
      <trkpt lat="47.33301" lon="-2.46852">
        <ele>-30.60000038147</ele>
        <time>2022-02-10T10:27:33.000Z</time>
      </trkpt>
      <trkpt lat="47.333" lon="-2.4685">
        <ele>-30.200000762939</ele>
        <time>2022-02-10T10:27:34.000Z</time>
      </trkpt>
      <trkpt lat="47.33299" lon="-2.46843">
        <ele>-30.200000762939</ele>
        <time>2022-02-10T10:27:37.000Z</time>
      </trkpt>
      <trkpt lat="47.33293" lon="-2.46831">
        <ele>-30.200000762939</ele>
        <time>2022-02-10T10:27:43.000Z</time>
      </trkpt>
      <trkpt lat="47.33293" lon="-2.46829">
        <ele>-30.200000762939</ele>
        <time>2022-02-10T10:27:44.000Z</time>
      </trkpt>
      <trkpt lat="47.33289" lon="-2.46816">
        <ele>-30.200000762939</ele>
        <time>2022-02-10T10:27:50.000Z</time>
      </trkpt>
      <trkpt lat="47.33284" lon="-2.46801">
        <ele>-30.200000762939</ele>
        <time>2022-02-10T10:27:58.000Z</time>
      </trkpt>
      <trkpt lat="47.33279" lon="-2.46791">
        <ele>-30.200000762939</ele>
        <time>2022-02-10T10:28:05.000Z</time>
      </trkpt>
      <trkpt lat="47.33275" lon="-2.46784">
        <ele>-30.200000762939</ele>
        <time>2022-02-10T10:28:12.000Z</time>
      </trkpt>
      <trkpt lat="47.33274" lon="-2.46783">
        <ele>-30.200000762939</ele>
        <time>2022-02-10T10:28:13.000Z</time>
      </trkpt>
      <trkpt lat="47.33267" lon="-2.46777">
        <ele>-30.200000762939</ele>
        <time>2022-02-10T10:28:19.000Z</time>
      </trkpt>
      <trkpt lat="47.33263" lon="-2.46775">
        <ele>-30.200000762939</ele>
        <time>2022-02-10T10:28:21.000Z</time>
      </trkpt>
      <trkpt lat="47.33265" lon="-2.4677">
        <ele>-30.200000762939</ele>
        <time>2022-02-10T10:28:24.000Z</time>
      </trkpt>
      <trkpt lat="47.33268" lon="-2.46774">
        <ele>-30.200000762939</ele>
        <time>2022-02-10T10:28:28.000Z</time>
      </trkpt>
      <trkpt lat="47.3327" lon="-2.46774">
        <ele>-30.200000762939</ele>
        <time>2022-02-10T10:28:30.000Z</time>
      </trkpt>
      <trkpt lat="47.33272" lon="-2.46776">
        <ele>-30.200000762939</ele>
        <time>2022-02-10T10:28:32.000Z</time>
      </trkpt>
      <trkpt lat="47.33274" lon="-2.46785">
        <ele>-30.200000762939</ele>
        <time>2022-02-10T10:28:38.000Z</time>
      </trkpt>
      <trkpt lat="47.33273" lon="-2.46787">
        <ele>-30.200000762939</ele>
        <time>2022-02-10T10:28:39.000Z</time>
      </trkpt>
      <trkpt lat="47.33271" lon="-2.46789">
        <ele>-30.200000762939</ele>
        <time>2022-02-10T10:28:41.000Z</time>
      </trkpt>
      <trkpt lat="47.33268" lon="-2.46787">
        <ele>-30.200000762939</ele>
        <time>2022-02-10T10:28:43.000Z</time>
      </trkpt>
      <trkpt lat="47.33259" lon="-2.46784">
        <ele>-30.200000762939</ele>
        <time>2022-02-10T10:28:48.000Z</time>
      </trkpt>
      <trkpt lat="47.33238" lon="-2.4679">
        <ele>-30.200000762939</ele>
        <time>2022-02-10T10:28:53.000Z</time>
      </trkpt>
      <trkpt lat="47.33227" lon="-2.46792">
        <ele>-30.200000762939</ele>
        <time>2022-02-10T10:28:55.000Z</time>
      </trkpt>
      <trkpt lat="47.33211" lon="-2.46787">
        <ele>-30.200000762939</ele>
        <time>2022-02-10T10:28:58.000Z</time>
      </trkpt>
      <trkpt lat="47.33193" lon="-2.46768">
        <ele>-30.200000762939</ele>
        <time>2022-02-10T10:29:02.000Z</time>
      </trkpt>
      <trkpt lat="47.33164" lon="-2.4673">
        <ele>-30.60000038147</ele>
        <time>2022-02-10T10:29:09.000Z</time>
      </trkpt>
      <trkpt lat="47.3316" lon="-2.46725">
        <ele>-31.39999961853</ele>
        <time>2022-02-10T10:29:10.000Z</time>
      </trkpt>
      <trkpt lat="47.33156" lon="-2.46719">
        <ele>-31.799999237061</ele>
        <time>2022-02-10T10:29:11.000Z</time>
      </trkpt>
      <trkpt lat="47.33152" lon="-2.46711">
        <ele>-32.200000762939</ele>
        <time>2022-02-10T10:29:12.000Z</time>
      </trkpt>
      <trkpt lat="47.33139" lon="-2.46689">
        <ele>-32.200000762939</ele>
        <time>2022-02-10T10:29:15.000Z</time>
      </trkpt>
      <trkpt lat="47.33113" lon="-2.4664">
        <ele>-32.200000762939</ele>
        <time>2022-02-10T10:29:22.000Z</time>
      </trkpt>
      <trkpt lat="47.33094" lon="-2.46591">
        <ele>-32.200000762939</ele>
        <time>2022-02-10T10:29:28.000Z</time>
      </trkpt>
      <trkpt lat="47.33085" lon="-2.46557">
        <ele>-32.599998474121</ele>
        <time>2022-02-10T10:29:32.000Z</time>
      </trkpt>
      <trkpt lat="47.33083" lon="-2.4655">
        <ele>-33.200000762939</ele>
        <time>2022-02-10T10:29:33.000Z</time>
      </trkpt>
      <trkpt lat="47.33082" lon="-2.46543">
        <ele>-33.599998474121</ele>
        <time>2022-02-10T10:29:34.000Z</time>
      </trkpt>
      <trkpt lat="47.33081" lon="-2.46538">
        <ele>-34.400001525879</ele>
        <time>2022-02-10T10:29:35.000Z</time>
      </trkpt>
      <trkpt lat="47.33078" lon="-2.46529">
        <ele>-34.400001525879</ele>
        <time>2022-02-10T10:29:37.000Z</time>
      </trkpt>
      <trkpt lat="47.33074" lon="-2.46523">
        <ele>-34.400001525879</ele>
        <time>2022-02-10T10:29:39.000Z</time>
      </trkpt>
      <trkpt lat="47.33067" lon="-2.46527">
        <ele>-34.400001525879</ele>
        <time>2022-02-10T10:29:41.000Z</time>
      </trkpt>
      <trkpt lat="47.33063" lon="-2.46528">
        <ele>-34.799999237061</ele>
        <time>2022-02-10T10:29:42.000Z</time>
      </trkpt>
      <trkpt lat="47.33055" lon="-2.46532">
        <ele>-35.200000762939</ele>
        <time>2022-02-10T10:29:43.000Z</time>
      </trkpt>
      <trkpt lat="47.33049" lon="-2.46534">
        <ele>-35.599998474121</ele>
        <time>2022-02-10T10:29:44.000Z</time>
      </trkpt>
      <trkpt lat="47.33042" lon="-2.46535">
        <ele>-36</ele>
        <time>2022-02-10T10:29:45.000Z</time>
      </trkpt>
      <trkpt lat="47.33036" lon="-2.46536">
        <ele>-36.400001525879</ele>
        <time>2022-02-10T10:29:46.000Z</time>
      </trkpt>
      <trkpt lat="47.33015" lon="-2.46538">
        <ele>-36.400001525879</ele>
        <time>2022-02-10T10:29:49.000Z</time>
      </trkpt>
      <trkpt lat="47.33009" lon="-2.46541">
        <ele>-36.400001525879</ele>
        <time>2022-02-10T10:29:50.000Z</time>
      </trkpt>
      <trkpt lat="47.32997" lon="-2.46548">
        <ele>-37</ele>
        <time>2022-02-10T10:29:52.000Z</time>
      </trkpt>
      <trkpt lat="47.32992" lon="-2.46551">
        <ele>-37.400001525879</ele>
        <time>2022-02-10T10:29:53.000Z</time>
      </trkpt>
      <trkpt lat="47.32985" lon="-2.46554">
        <ele>-37.799999237061</ele>
        <time>2022-02-10T10:29:54.000Z</time>
      </trkpt>
      <trkpt lat="47.32979" lon="-2.46557">
        <ele>-38.200000762939</ele>
        <time>2022-02-10T10:29:55.000Z</time>
      </trkpt>
      <trkpt lat="47.32975" lon="-2.46558">
        <ele>-38.799999237061</ele>
        <time>2022-02-10T10:29:56.000Z</time>
      </trkpt>
      <trkpt lat="47.32973" lon="-2.46559">
        <ele>-39.200000762939</ele>
        <time>2022-02-10T10:29:57.000Z</time>
      </trkpt>
      <trkpt lat="47.3297" lon="-2.4656">
        <ele>-39.799999237061</ele>
        <time>2022-02-10T10:29:58.000Z</time>
      </trkpt>
      <trkpt lat="47.32969" lon="-2.46561">
        <ele>-40.799999237061</ele>
        <time>2022-02-10T10:29:59.000Z</time>
      </trkpt>
      <trkpt lat="47.32969" lon="-2.46561">
        <ele>-41.400001525879</ele>
        <time>2022-02-10T10:30:00.000Z</time>
      </trkpt>
      <trkpt lat="47.32968" lon="-2.46561">
        <ele>-42</ele>
        <time>2022-02-10T10:30:01.000Z</time>
      </trkpt>
      <trkpt lat="47.32968" lon="-2.46562">
        <ele>-42.599998474121</ele>
        <time>2022-02-10T10:30:02.000Z</time>
      </trkpt>
      <trkpt lat="47.32968" lon="-2.46562">
        <ele>-43</ele>
        <time>2022-02-10T10:30:03.000Z</time>
      </trkpt>
      <trkpt lat="47.32968" lon="-2.46562">
        <ele>-43</ele>
        <time>2022-02-10T10:30:04.000Z</time>
      </trkpt>
      <trkpt lat="47.32965" lon="-2.46564">
        <ele>-43</ele>
        <time>2022-02-10T10:30:49.000Z</time>
      </trkpt>
      <trkpt lat="47.32963" lon="-2.46565">
        <ele>-43</ele>
        <time>2022-02-10T10:30:50.000Z</time>
      </trkpt>
      <trkpt lat="47.3295" lon="-2.46572">
        <ele>-43</ele>
        <time>2022-02-10T10:30:55.000Z</time>
      </trkpt>
      <trkpt lat="47.32942" lon="-2.46575">
        <ele>-43</ele>
        <time>2022-02-10T10:30:57.000Z</time>
      </trkpt>
      <trkpt lat="47.32938" lon="-2.46578">
        <ele>-43.400001525879</ele>
        <time>2022-02-10T10:30:58.000Z</time>
      </trkpt>
      <trkpt lat="47.32934" lon="-2.46582">
        <ele>-44</ele>
        <time>2022-02-10T10:30:59.000Z</time>
      </trkpt>
      <trkpt lat="47.3293" lon="-2.46587">
        <ele>-44.400001525879</ele>
        <time>2022-02-10T10:31:00.000Z</time>
      </trkpt>
      <trkpt lat="47.32926" lon="-2.46592">
        <ele>-44.799999237061</ele>
        <time>2022-02-10T10:31:01.000Z</time>
      </trkpt>
      <trkpt lat="47.32922" lon="-2.46599">
        <ele>-45.200000762939</ele>
        <time>2022-02-10T10:31:02.000Z</time>
      </trkpt>
      <trkpt lat="47.32918" lon="-2.46607">
        <ele>-45.200000762939</ele>
        <time>2022-02-10T10:31:03.000Z</time>
      </trkpt>
      <trkpt lat="47.32915" lon="-2.46614">
        <ele>-45.200000762939</ele>
        <time>2022-02-10T10:31:04.000Z</time>
      </trkpt>
      <trkpt lat="47.32892" lon="-2.46674">
        <ele>-45.599998474121</ele>
        <time>2022-02-10T10:31:11.000Z</time>
      </trkpt>
      <trkpt lat="47.32888" lon="-2.46683">
        <ele>-46</ele>
        <time>2022-02-10T10:31:12.000Z</time>
      </trkpt>
      <trkpt lat="47.32885" lon="-2.46691">
        <ele>-46.799999237061</ele>
        <time>2022-02-10T10:31:13.000Z</time>
      </trkpt>
      <trkpt lat="47.32882" lon="-2.467">
        <ele>-47.200000762939</ele>
        <time>2022-02-10T10:31:14.000Z</time>
      </trkpt>
      <trkpt lat="47.32874" lon="-2.46715">
        <ele>-47.200000762939</ele>
        <time>2022-02-10T10:31:16.000Z</time>
      </trkpt>
      <trkpt lat="47.32863" lon="-2.46738">
        <ele>-47.200000762939</ele>
        <time>2022-02-10T10:31:19.000Z</time>
      </trkpt>
      <trkpt lat="47.32851" lon="-2.46757">
        <ele>-47.200000762939</ele>
        <time>2022-02-10T10:31:22.000Z</time>
      </trkpt>
      <trkpt lat="47.32847" lon="-2.46763">
        <ele>-47.200000762939</ele>
        <time>2022-02-10T10:31:23.000Z</time>
      </trkpt>
      <trkpt lat="47.32824" lon="-2.46789">
        <ele>-47.200000762939</ele>
        <time>2022-02-10T10:31:28.000Z</time>
      </trkpt>
      <trkpt lat="47.32796" lon="-2.46817">
        <ele>-47.200000762939</ele>
        <time>2022-02-10T10:31:34.000Z</time>
      </trkpt>
      <trkpt lat="47.32787" lon="-2.46825">
        <ele>-47.200000762939</ele>
        <time>2022-02-10T10:31:36.000Z</time>
      </trkpt>
      <trkpt lat="47.32779" lon="-2.46829">
        <ele>-47.200000762939</ele>
        <time>2022-02-10T10:31:38.000Z</time>
      </trkpt>
      <trkpt lat="47.32775" lon="-2.4683">
        <ele>-47.200000762939</ele>
        <time>2022-02-10T10:31:39.000Z</time>
      </trkpt>
      <trkpt lat="47.32763" lon="-2.4682">
        <ele>-47.200000762939</ele>
        <time>2022-02-10T10:31:42.000Z</time>
      </trkpt>
      <trkpt lat="47.32757" lon="-2.46808">
        <ele>-47.200000762939</ele>
        <time>2022-02-10T10:31:44.000Z</time>
      </trkpt>
      <trkpt lat="47.32748" lon="-2.46788">
        <ele>-47.200000762939</ele>
        <time>2022-02-10T10:31:47.000Z</time>
      </trkpt>
      <trkpt lat="47.32729" lon="-2.46747">
        <ele>-47.200000762939</ele>
        <time>2022-02-10T10:31:52.000Z</time>
      </trkpt>
      <trkpt lat="47.32724" lon="-2.4674">
        <ele>-47.200000762939</ele>
        <time>2022-02-10T10:31:53.000Z</time>
      </trkpt>
      <trkpt lat="47.32702" lon="-2.46714">
        <ele>-47.200000762939</ele>
        <time>2022-02-10T10:31:57.000Z</time>
      </trkpt>
      <trkpt lat="47.32665" lon="-2.46682">
        <ele>-47.200000762939</ele>
        <time>2022-02-10T10:32:03.000Z</time>
      </trkpt>
      <trkpt lat="47.32622" lon="-2.46645">
        <ele>-47.200000762939</ele>
        <time>2022-02-10T10:32:10.000Z</time>
      </trkpt>
      <trkpt lat="47.32592" lon="-2.46599">
        <ele>-47.200000762939</ele>
        <time>2022-02-10T10:32:16.000Z</time>
      </trkpt>
      <trkpt lat="47.32557" lon="-2.46548">
        <ele>-47.200000762939</ele>
        <time>2022-02-10T10:32:23.000Z</time>
      </trkpt>
      <trkpt lat="47.32539" lon="-2.46522">
        <ele>-47.200000762939</ele>
        <time>2022-02-10T10:32:27.000Z</time>
      </trkpt>
      <trkpt lat="47.32531" lon="-2.46506">
        <ele>-47.200000762939</ele>
        <time>2022-02-10T10:32:29.000Z</time>
      </trkpt>
      <trkpt lat="47.3251" lon="-2.46451">
        <ele>-47.200000762939</ele>
        <time>2022-02-10T10:32:35.000Z</time>
      </trkpt>
      <trkpt lat="47.32505" lon="-2.46442">
        <ele>-47.200000762939</ele>
        <time>2022-02-10T10:32:36.000Z</time>
      </trkpt>
      <trkpt lat="47.32484" lon="-2.4641">
        <ele>-47.200000762939</ele>
        <time>2022-02-10T10:32:40.000Z</time>
      </trkpt>
      <trkpt lat="47.32447" lon="-2.46352">
        <ele>-47.200000762939</ele>
        <time>2022-02-10T10:32:48.000Z</time>
      </trkpt>
      <trkpt lat="47.32428" lon="-2.46296">
        <ele>-47.200000762939</ele>
        <time>2022-02-10T10:32:54.000Z</time>
      </trkpt>
      <trkpt lat="47.32421" lon="-2.46278">
        <ele>-47.200000762939</ele>
        <time>2022-02-10T10:32:56.000Z</time>
      </trkpt>
      <trkpt lat="47.32407" lon="-2.46254">
        <ele>-47.200000762939</ele>
        <time>2022-02-10T10:32:59.000Z</time>
      </trkpt>
      <trkpt lat="47.32371" lon="-2.46188">
        <ele>-47.200000762939</ele>
        <time>2022-02-10T10:33:07.000Z</time>
      </trkpt>
      <trkpt lat="47.32366" lon="-2.46181">
        <ele>-47.200000762939</ele>
        <time>2022-02-10T10:33:08.000Z</time>
      </trkpt>
      <trkpt lat="47.32329" lon="-2.46123">
        <ele>-47.200000762939</ele>
        <time>2022-02-10T10:33:16.000Z</time>
      </trkpt>
      <trkpt lat="47.32298" lon="-2.4607">
        <ele>-47.200000762939</ele>
        <time>2022-02-10T10:33:23.000Z</time>
      </trkpt>
      <trkpt lat="47.32276" lon="-2.46023">
        <ele>-47.200000762939</ele>
        <time>2022-02-10T10:33:29.000Z</time>
      </trkpt>
      <trkpt lat="47.32262" lon="-2.4599">
        <ele>-47.200000762939</ele>
        <time>2022-02-10T10:33:33.000Z</time>
      </trkpt>
      <trkpt lat="47.3225" lon="-2.45976">
        <ele>-47.200000762939</ele>
        <time>2022-02-10T10:33:35.000Z</time>
      </trkpt>
      <trkpt lat="47.32227" lon="-2.45948">
        <ele>-47.200000762939</ele>
        <time>2022-02-10T10:33:39.000Z</time>
      </trkpt>
      <trkpt lat="47.32223" lon="-2.4594">
        <ele>-47.200000762939</ele>
        <time>2022-02-10T10:33:40.000Z</time>
      </trkpt>
      <trkpt lat="47.32212" lon="-2.45913">
        <ele>-47.200000762939</ele>
        <time>2022-02-10T10:33:43.000Z</time>
      </trkpt>
      <trkpt lat="47.32205" lon="-2.45894">
        <ele>-47.200000762939</ele>
        <time>2022-02-10T10:33:45.000Z</time>
      </trkpt>
      <trkpt lat="47.32182" lon="-2.45839">
        <ele>-47.200000762939</ele>
        <time>2022-02-10T10:33:51.000Z</time>
      </trkpt>
      <trkpt lat="47.32159" lon="-2.45797">
        <ele>-47.200000762939</ele>
        <time>2022-02-10T10:33:56.000Z</time>
      </trkpt>
      <trkpt lat="47.32141" lon="-2.45768">
        <ele>-47.200000762939</ele>
        <time>2022-02-10T10:34:00.000Z</time>
      </trkpt>
      <trkpt lat="47.32136" lon="-2.45762">
        <ele>-47.200000762939</ele>
        <time>2022-02-10T10:34:01.000Z</time>
      </trkpt>
      <trkpt lat="47.32109" lon="-2.45745">
        <ele>-47.200000762939</ele>
        <time>2022-02-10T10:34:05.000Z</time>
      </trkpt>
      <trkpt lat="47.32102" lon="-2.45743">
        <ele>-47.200000762939</ele>
        <time>2022-02-10T10:34:06.000Z</time>
      </trkpt>
      <trkpt lat="47.32063" lon="-2.45725">
        <ele>-47.200000762939</ele>
        <time>2022-02-10T10:34:12.000Z</time>
      </trkpt>
      <trkpt lat="47.32014" lon="-2.45689">
        <ele>-47.200000762939</ele>
        <time>2022-02-10T10:34:20.000Z</time>
      </trkpt>
      <trkpt lat="47.31996" lon="-2.45672">
        <ele>-47.200000762939</ele>
        <time>2022-02-10T10:34:23.000Z</time>
      </trkpt>
      <trkpt lat="47.31981" lon="-2.45651">
        <ele>-47.200000762939</ele>
        <time>2022-02-10T10:34:26.000Z</time>
      </trkpt>
      <trkpt lat="47.31952" lon="-2.45592">
        <ele>-47.200000762939</ele>
        <time>2022-02-10T10:34:33.000Z</time>
      </trkpt>
      <trkpt lat="47.3193" lon="-2.45539">
        <ele>-47.200000762939</ele>
        <time>2022-02-10T10:34:39.000Z</time>
      </trkpt>
      <trkpt lat="47.31925" lon="-2.45532">
        <ele>-47.200000762939</ele>
        <time>2022-02-10T10:34:40.000Z</time>
      </trkpt>
      <trkpt lat="47.31904" lon="-2.45504">
        <ele>-47.200000762939</ele>
        <time>2022-02-10T10:34:44.000Z</time>
      </trkpt>
      <trkpt lat="47.31863" lon="-2.45446">
        <ele>-47.200000762939</ele>
        <time>2022-02-10T10:34:52.000Z</time>
      </trkpt>
      <trkpt lat="47.31827" lon="-2.45388">
        <ele>-47.200000762939</ele>
        <time>2022-02-10T10:35:00.000Z</time>
      </trkpt>
      <trkpt lat="47.31795" lon="-2.45344">
        <ele>-47.200000762939</ele>
        <time>2022-02-10T10:35:07.000Z</time>
      </trkpt>
      <trkpt lat="47.31781" lon="-2.4533">
        <ele>-47.200000762939</ele>
        <time>2022-02-10T10:35:10.000Z</time>
      </trkpt>
      <trkpt lat="47.31776" lon="-2.45315">
        <ele>-47.200000762939</ele>
        <time>2022-02-10T10:35:12.000Z</time>
      </trkpt>
      <trkpt lat="47.31778" lon="-2.45296">
        <ele>-47.200000762939</ele>
        <time>2022-02-10T10:35:14.000Z</time>
      </trkpt>
      <trkpt lat="47.31786" lon="-2.4528">
        <ele>-47.200000762939</ele>
        <time>2022-02-10T10:35:16.000Z</time>
      </trkpt>
      <trkpt lat="47.31791" lon="-2.45273">
        <ele>-47.200000762939</ele>
        <time>2022-02-10T10:35:17.000Z</time>
      </trkpt>
      <trkpt lat="47.31796" lon="-2.45265">
        <ele>-47.200000762939</ele>
        <time>2022-02-10T10:35:18.000Z</time>
      </trkpt>
      <trkpt lat="47.31833" lon="-2.45219">
        <ele>-47.200000762939</ele>
        <time>2022-02-10T10:35:25.000Z</time>
      </trkpt>
      <trkpt lat="47.31854" lon="-2.45195">
        <ele>-47.200000762939</ele>
        <time>2022-02-10T10:35:30.000Z</time>
      </trkpt>
      <trkpt lat="47.31859" lon="-2.45174">
        <ele>-47.200000762939</ele>
        <time>2022-02-10T10:35:33.000Z</time>
      </trkpt>
      <trkpt lat="47.31854" lon="-2.45142">
        <ele>-47.200000762939</ele>
        <time>2022-02-10T10:35:37.000Z</time>
      </trkpt>
      <trkpt lat="47.31852" lon="-2.45132">
        <ele>-47.200000762939</ele>
        <time>2022-02-10T10:35:38.000Z</time>
      </trkpt>
      <trkpt lat="47.31839" lon="-2.45084">
        <ele>-47.200000762939</ele>
        <time>2022-02-10T10:35:43.000Z</time>
      </trkpt>
      <trkpt lat="47.31822" lon="-2.45029">
        <ele>-47.200000762939</ele>
        <time>2022-02-10T10:35:49.000Z</time>
      </trkpt>
      <trkpt lat="47.31801" lon="-2.44974">
        <ele>-47.200000762939</ele>
        <time>2022-02-10T10:35:56.000Z</time>
      </trkpt>
      <trkpt lat="47.31769" lon="-2.44905">
        <ele>-47.200000762939</ele>
        <time>2022-02-10T10:36:05.000Z</time>
      </trkpt>
      <trkpt lat="47.31741" lon="-2.44833">
        <ele>-47.200000762939</ele>
        <time>2022-02-10T10:36:14.000Z</time>
      </trkpt>
      <trkpt lat="47.31721" lon="-2.44778">
        <ele>-47.200000762939</ele>
        <time>2022-02-10T10:36:21.000Z</time>
      </trkpt>
      <trkpt lat="47.317" lon="-2.44725">
        <ele>-47.200000762939</ele>
        <time>2022-02-10T10:36:27.000Z</time>
      </trkpt>
      <trkpt lat="47.31669" lon="-2.44651">
        <ele>-47.200000762939</ele>
        <time>2022-02-10T10:36:35.000Z</time>
      </trkpt>
      <trkpt lat="47.31641" lon="-2.4459">
        <ele>-47.200000762939</ele>
        <time>2022-02-10T10:36:42.000Z</time>
      </trkpt>
      <trkpt lat="47.31607" lon="-2.44534">
        <ele>-47.200000762939</ele>
        <time>2022-02-10T10:36:49.000Z</time>
      </trkpt>
      <trkpt lat="47.31587" lon="-2.44485">
        <ele>-47.200000762939</ele>
        <time>2022-02-10T10:36:54.000Z</time>
      </trkpt>
      <trkpt lat="47.31574" lon="-2.44429">
        <ele>-47.200000762939</ele>
        <time>2022-02-10T10:36:59.000Z</time>
      </trkpt>
      <trkpt lat="47.31562" lon="-2.44349">
        <ele>-47.200000762939</ele>
        <time>2022-02-10T10:37:06.000Z</time>
      </trkpt>
      <trkpt lat="47.31551" lon="-2.44274">
        <ele>-47.200000762939</ele>
        <time>2022-02-10T10:37:13.000Z</time>
      </trkpt>
      <trkpt lat="47.31538" lon="-2.44207">
        <ele>-47.200000762939</ele>
        <time>2022-02-10T10:37:20.000Z</time>
      </trkpt>
      <trkpt lat="47.31536" lon="-2.44199">
        <ele>-47.200000762939</ele>
        <time>2022-02-10T10:37:21.000Z</time>
      </trkpt>
      <trkpt lat="47.31523" lon="-2.44167">
        <ele>-47.200000762939</ele>
        <time>2022-02-10T10:37:25.000Z</time>
      </trkpt>
      <trkpt lat="47.31496" lon="-2.44125">
        <ele>-47.200000762939</ele>
        <time>2022-02-10T10:37:31.000Z</time>
      </trkpt>
      <trkpt lat="47.31454" lon="-2.4407">
        <ele>-47.200000762939</ele>
        <time>2022-02-10T10:37:39.000Z</time>
      </trkpt>
      <trkpt lat="47.3141" lon="-2.44014">
        <ele>-47.200000762939</ele>
        <time>2022-02-10T10:37:47.000Z</time>
      </trkpt>
      <trkpt lat="47.31405" lon="-2.44007">
        <ele>-47.200000762939</ele>
        <time>2022-02-10T10:37:48.000Z</time>
      </trkpt>
      <trkpt lat="47.31368" lon="-2.43955">
        <ele>-47.200000762939</ele>
        <time>2022-02-10T10:37:55.000Z</time>
      </trkpt>
      <trkpt lat="47.31348" lon="-2.43907">
        <ele>-47.200000762939</ele>
        <time>2022-02-10T10:38:00.000Z</time>
      </trkpt>
      <trkpt lat="47.31321" lon="-2.43839">
        <ele>-47.200000762939</ele>
        <time>2022-02-10T10:38:07.000Z</time>
      </trkpt>
      <trkpt lat="47.31316" lon="-2.4383">
        <ele>-47.200000762939</ele>
        <time>2022-02-10T10:38:08.000Z</time>
      </trkpt>
      <trkpt lat="47.31305" lon="-2.43816">
        <ele>-47.200000762939</ele>
        <time>2022-02-10T10:38:10.000Z</time>
      </trkpt>
      <trkpt lat="47.31294" lon="-2.438">
        <ele>-47.200000762939</ele>
        <time>2022-02-10T10:38:12.000Z</time>
      </trkpt>
      <trkpt lat="47.31282" lon="-2.43773">
        <ele>-47.200000762939</ele>
        <time>2022-02-10T10:38:15.000Z</time>
      </trkpt>
      <trkpt lat="47.31252" lon="-2.43695">
        <ele>-47.200000762939</ele>
        <time>2022-02-10T10:38:23.000Z</time>
      </trkpt>
      <trkpt lat="47.31249" lon="-2.43685">
        <ele>-47.200000762939</ele>
        <time>2022-02-10T10:38:24.000Z</time>
      </trkpt>
      <trkpt lat="47.31239" lon="-2.43642">
        <ele>-47.200000762939</ele>
        <time>2022-02-10T10:38:28.000Z</time>
      </trkpt>
      <trkpt lat="47.31229" lon="-2.43575">
        <ele>-47.200000762939</ele>
        <time>2022-02-10T10:38:34.000Z</time>
      </trkpt>
      <trkpt lat="47.31217" lon="-2.43497">
        <ele>-47.200000762939</ele>
        <time>2022-02-10T10:38:41.000Z</time>
      </trkpt>
      <trkpt lat="47.31216" lon="-2.43486">
        <ele>-47.200000762939</ele>
        <time>2022-02-10T10:38:42.000Z</time>
      </trkpt>
      <trkpt lat="47.31203" lon="-2.43398">
        <ele>-47.200000762939</ele>
        <time>2022-02-10T10:38:50.000Z</time>
      </trkpt>
      <trkpt lat="47.31189" lon="-2.43324">
        <ele>-47.200000762939</ele>
        <time>2022-02-10T10:38:57.000Z</time>
      </trkpt>
      <trkpt lat="47.31178" lon="-2.43297">
        <ele>-47.200000762939</ele>
        <time>2022-02-10T10:39:00.000Z</time>
      </trkpt>
      <trkpt lat="47.31169" lon="-2.43281">
        <ele>-47.200000762939</ele>
        <time>2022-02-10T10:39:02.000Z</time>
      </trkpt>
      <trkpt lat="47.31132" lon="-2.43225">
        <ele>-47.200000762939</ele>
        <time>2022-02-10T10:39:10.000Z</time>
      </trkpt>
      <trkpt lat="47.31113" lon="-2.43195">
        <ele>-47.200000762939</ele>
        <time>2022-02-10T10:39:15.000Z</time>
      </trkpt>
      <trkpt lat="47.31107" lon="-2.43193">
        <ele>-47.200000762939</ele>
        <time>2022-02-10T10:39:16.000Z</time>
      </trkpt>
      <trkpt lat="47.31093" lon="-2.43199">
        <ele>-47.200000762939</ele>
        <time>2022-02-10T10:39:19.000Z</time>
      </trkpt>
      <trkpt lat="47.31083" lon="-2.43207">
        <ele>-47.200000762939</ele>
        <time>2022-02-10T10:39:21.000Z</time>
      </trkpt>
      <trkpt lat="47.31063" lon="-2.43225">
        <ele>-47.200000762939</ele>
        <time>2022-02-10T10:39:25.000Z</time>
      </trkpt>
      <trkpt lat="47.31038" lon="-2.43255">
        <ele>-47.200000762939</ele>
        <time>2022-02-10T10:39:30.000Z</time>
      </trkpt>
      <trkpt lat="47.31012" lon="-2.43293">
        <ele>-47.200000762939</ele>
        <time>2022-02-10T10:39:36.000Z</time>
      </trkpt>
      <trkpt lat="47.31008" lon="-2.43298">
        <ele>-47.200000762939</ele>
        <time>2022-02-10T10:39:37.000Z</time>
      </trkpt>
      <trkpt lat="47.30999" lon="-2.43306">
        <ele>-47.200000762939</ele>
        <time>2022-02-10T10:39:39.000Z</time>
      </trkpt>
      <trkpt lat="47.30989" lon="-2.43312">
        <ele>-47.200000762939</ele>
        <time>2022-02-10T10:39:41.000Z</time>
      </trkpt>
      <trkpt lat="47.30972" lon="-2.43321">
        <ele>-47.200000762939</ele>
        <time>2022-02-10T10:39:44.000Z</time>
      </trkpt>
      <trkpt lat="47.30953" lon="-2.43327">
        <ele>-47.200000762939</ele>
        <time>2022-02-10T10:39:47.000Z</time>
      </trkpt>
      <trkpt lat="47.30908" lon="-2.43345">
        <ele>-47.200000762939</ele>
        <time>2022-02-10T10:39:54.000Z</time>
      </trkpt>
      <trkpt lat="47.3087" lon="-2.43363">
        <ele>-47.200000762939</ele>
        <time>2022-02-10T10:40:00.000Z</time>
      </trkpt>
      <trkpt lat="47.30863" lon="-2.43366">
        <ele>-47.799999237061</ele>
        <time>2022-02-10T10:40:01.000Z</time>
      </trkpt>
      <trkpt lat="47.30856" lon="-2.43368">
        <ele>-48.200000762939</ele>
        <time>2022-02-10T10:40:02.000Z</time>
      </trkpt>
      <trkpt lat="47.30849" lon="-2.4337">
        <ele>-48.599998474121</ele>
        <time>2022-02-10T10:40:03.000Z</time>
      </trkpt>
      <trkpt lat="47.30843" lon="-2.43374">
        <ele>-49</ele>
        <time>2022-02-10T10:40:04.000Z</time>
      </trkpt>
      <trkpt lat="47.30836" lon="-2.43377">
        <ele>-49.400001525879</ele>
        <time>2022-02-10T10:40:05.000Z</time>
      </trkpt>
      <trkpt lat="47.30793" lon="-2.4339">
        <ele>-49.400001525879</ele>
        <time>2022-02-10T10:40:11.000Z</time>
      </trkpt>
      <trkpt lat="47.30749" lon="-2.43389">
        <ele>-49.400001525879</ele>
        <time>2022-02-10T10:40:17.000Z</time>
      </trkpt>
      <trkpt lat="47.30697" lon="-2.43391">
        <ele>-49.400001525879</ele>
        <time>2022-02-10T10:40:24.000Z</time>
      </trkpt>
      <trkpt lat="47.30661" lon="-2.43396">
        <ele>-49.400001525879</ele>
        <time>2022-02-10T10:40:29.000Z</time>
      </trkpt>
      <trkpt lat="47.30654" lon="-2.43399">
        <ele>-49.400001525879</ele>
        <time>2022-02-10T10:40:30.000Z</time>
      </trkpt>
      <trkpt lat="47.30612" lon="-2.43408">
        <ele>-49.400001525879</ele>
        <time>2022-02-10T10:40:36.000Z</time>
      </trkpt>
      <trkpt lat="47.30569" lon="-2.43421">
        <ele>-49.400001525879</ele>
        <time>2022-02-10T10:40:42.000Z</time>
      </trkpt>
      <trkpt lat="47.30548" lon="-2.43421">
        <ele>-49.400001525879</ele>
        <time>2022-02-10T10:40:45.000Z</time>
      </trkpt>
      <trkpt lat="47.30534" lon="-2.43419">
        <ele>-49.400001525879</ele>
        <time>2022-02-10T10:40:47.000Z</time>
      </trkpt>
      <trkpt lat="47.30489" lon="-2.43413">
        <ele>-49.400001525879</ele>
        <time>2022-02-10T10:40:53.000Z</time>
      </trkpt>
      <trkpt lat="47.30467" lon="-2.43412">
        <ele>-49.400001525879</ele>
        <time>2022-02-10T10:40:56.000Z</time>
      </trkpt>
      <trkpt lat="47.30455" lon="-2.43419">
        <ele>-49.400001525879</ele>
        <time>2022-02-10T10:40:58.000Z</time>
      </trkpt>
      <trkpt lat="47.30436" lon="-2.43419">
        <ele>-49.400001525879</ele>
        <time>2022-02-10T10:41:01.000Z</time>
      </trkpt>
      <trkpt lat="47.30427" lon="-2.43404">
        <ele>-49.400001525879</ele>
        <time>2022-02-10T10:41:03.000Z</time>
      </trkpt>
      <trkpt lat="47.3042" lon="-2.43374">
        <ele>-49.400001525879</ele>
        <time>2022-02-10T10:41:06.000Z</time>
      </trkpt>
      <trkpt lat="47.30419" lon="-2.43364">
        <ele>-49.400001525879</ele>
        <time>2022-02-10T10:41:07.000Z</time>
      </trkpt>
      <trkpt lat="47.30407" lon="-2.43304">
        <ele>-49.400001525879</ele>
        <time>2022-02-10T10:41:13.000Z</time>
      </trkpt>
      <trkpt lat="47.30385" lon="-2.43244">
        <ele>-49.400001525879</ele>
        <time>2022-02-10T10:41:20.000Z</time>
      </trkpt>
      <trkpt lat="47.30367" lon="-2.43237">
        <ele>-49.400001525879</ele>
        <time>2022-02-10T10:41:23.000Z</time>
      </trkpt>
      <trkpt lat="47.30348" lon="-2.43241">
        <ele>-49.400001525879</ele>
        <time>2022-02-10T10:41:26.000Z</time>
      </trkpt>
      <trkpt lat="47.30341" lon="-2.43243">
        <ele>-49.400001525879</ele>
        <time>2022-02-10T10:41:27.000Z</time>
      </trkpt>
      <trkpt lat="47.30328" lon="-2.43247">
        <ele>-49.400001525879</ele>
        <time>2022-02-10T10:41:29.000Z</time>
      </trkpt>
      <trkpt lat="47.30308" lon="-2.4325">
        <ele>-49.400001525879</ele>
        <time>2022-02-10T10:41:32.000Z</time>
      </trkpt>
      <trkpt lat="47.30266" lon="-2.43262">
        <ele>-49.400001525879</ele>
        <time>2022-02-10T10:41:38.000Z</time>
      </trkpt>
      <trkpt lat="47.30225" lon="-2.43279">
        <ele>-49.400001525879</ele>
        <time>2022-02-10T10:41:44.000Z</time>
      </trkpt>
      <trkpt lat="47.30172" lon="-2.43303">
        <ele>-49.400001525879</ele>
        <time>2022-02-10T10:41:52.000Z</time>
      </trkpt>
      <trkpt lat="47.30165" lon="-2.43307">
        <ele>-49.400001525879</ele>
        <time>2022-02-10T10:41:53.000Z</time>
      </trkpt>
      <trkpt lat="47.30137" lon="-2.43315">
        <ele>-49.400001525879</ele>
        <time>2022-02-10T10:41:57.000Z</time>
      </trkpt>
      <trkpt lat="47.3013" lon="-2.43317">
        <ele>-49.400001525879</ele>
        <time>2022-02-10T10:41:58.000Z</time>
      </trkpt>
      <trkpt lat="47.30116" lon="-2.4332">
        <ele>-49.400001525879</ele>
        <time>2022-02-10T10:42:00.000Z</time>
      </trkpt>
      <trkpt lat="47.30095" lon="-2.43325">
        <ele>-49.400001525879</ele>
        <time>2022-02-10T10:42:03.000Z</time>
      </trkpt>
      <trkpt lat="47.3006" lon="-2.43334">
        <ele>-49.400001525879</ele>
        <time>2022-02-10T10:42:08.000Z</time>
      </trkpt>
      <trkpt lat="47.30041" lon="-2.43336">
        <ele>-49.400001525879</ele>
        <time>2022-02-10T10:42:11.000Z</time>
      </trkpt>
      <trkpt lat="47.30028" lon="-2.43334">
        <ele>-49.400001525879</ele>
        <time>2022-02-10T10:42:13.000Z</time>
      </trkpt>
      <trkpt lat="47.30005" lon="-2.43323">
        <ele>-49.400001525879</ele>
        <time>2022-02-10T10:42:17.000Z</time>
      </trkpt>
      <trkpt lat="47.29999" lon="-2.43319">
        <ele>-49.400001525879</ele>
        <time>2022-02-10T10:42:18.000Z</time>
      </trkpt>
      <trkpt lat="47.29994" lon="-2.43314">
        <ele>-49.400001525879</ele>
        <time>2022-02-10T10:42:19.000Z</time>
      </trkpt>
      <trkpt lat="47.29972" lon="-2.43297">
        <ele>-49.400001525879</ele>
        <time>2022-02-10T10:42:23.000Z</time>
      </trkpt>
      <trkpt lat="47.29953" lon="-2.43298">
        <ele>-49.400001525879</ele>
        <time>2022-02-10T10:42:26.000Z</time>
      </trkpt>
      <trkpt lat="47.2994" lon="-2.43303">
        <ele>-49.400001525879</ele>
        <time>2022-02-10T10:42:28.000Z</time>
      </trkpt>
      <trkpt lat="47.29917" lon="-2.43312">
        <ele>-49.400001525879</ele>
        <time>2022-02-10T10:42:32.000Z</time>
      </trkpt>
      <trkpt lat="47.29886" lon="-2.43324">
        <ele>-49.400001525879</ele>
        <time>2022-02-10T10:42:37.000Z</time>
      </trkpt>
      <trkpt lat="47.2988" lon="-2.43328">
        <ele>-49.400001525879</ele>
        <time>2022-02-10T10:42:38.000Z</time>
      </trkpt>
      <trkpt lat="47.29864" lon="-2.4334">
        <ele>-49.400001525879</ele>
        <time>2022-02-10T10:42:41.000Z</time>
      </trkpt>
      <trkpt lat="47.29854" lon="-2.43352">
        <ele>-49.400001525879</ele>
        <time>2022-02-10T10:42:43.000Z</time>
      </trkpt>
      <trkpt lat="47.2981" lon="-2.43403">
        <ele>-49.400001525879</ele>
        <time>2022-02-10T10:42:51.000Z</time>
      </trkpt>
      <trkpt lat="47.29764" lon="-2.43454">
        <ele>-49.400001525879</ele>
        <time>2022-02-10T10:42:59.000Z</time>
      </trkpt>
      <trkpt lat="47.29719" lon="-2.43493">
        <ele>-49.400001525879</ele>
        <time>2022-02-10T10:43:06.000Z</time>
      </trkpt>
      <trkpt lat="47.29674" lon="-2.43526">
        <ele>-49.400001525879</ele>
        <time>2022-02-10T10:43:13.000Z</time>
      </trkpt>
      <trkpt lat="47.29647" lon="-2.43543">
        <ele>-49.400001525879</ele>
        <time>2022-02-10T10:43:18.000Z</time>
      </trkpt>
      <trkpt lat="47.29629" lon="-2.43554">
        <ele>-49.400001525879</ele>
        <time>2022-02-10T10:43:22.000Z</time>
      </trkpt>
      <trkpt lat="47.29623" lon="-2.43544">
        <ele>-49.400001525879</ele>
        <time>2022-02-10T10:43:24.000Z</time>
      </trkpt>
      <trkpt lat="47.29625" lon="-2.43522">
        <ele>-49.400001525879</ele>
        <time>2022-02-10T10:43:27.000Z</time>
      </trkpt>
      <trkpt lat="47.29624" lon="-2.43503">
        <ele>-49.400001525879</ele>
        <time>2022-02-10T10:43:30.000Z</time>
      </trkpt>
      <trkpt lat="47.29612" lon="-2.43494">
        <ele>-49.400001525879</ele>
        <time>2022-02-10T10:43:33.000Z</time>
      </trkpt>
      <trkpt lat="47.29602" lon="-2.43496">
        <ele>-49.400001525879</ele>
        <time>2022-02-10T10:43:35.000Z</time>
      </trkpt>
      <trkpt lat="47.2959" lon="-2.43498">
        <ele>-49.400001525879</ele>
        <time>2022-02-10T10:43:37.000Z</time>
      </trkpt>
      <trkpt lat="47.29556" lon="-2.43497">
        <ele>-49.400001525879</ele>
        <time>2022-02-10T10:43:43.000Z</time>
      </trkpt>
      <trkpt lat="47.29524" lon="-2.4349">
        <ele>-49.400001525879</ele>
        <time>2022-02-10T10:43:49.000Z</time>
      </trkpt>
      <trkpt lat="47.29492" lon="-2.43476">
        <ele>-49.400001525879</ele>
        <time>2022-02-10T10:43:55.000Z</time>
      </trkpt>
      <trkpt lat="47.29474" lon="-2.43465">
        <ele>-49.400001525879</ele>
        <time>2022-02-10T10:43:59.000Z</time>
      </trkpt>
      <trkpt lat="47.29465" lon="-2.43463">
        <ele>-49.400001525879</ele>
        <time>2022-02-10T10:44:01.000Z</time>
      </trkpt>
      <trkpt lat="47.29451" lon="-2.43464">
        <ele>-49.400001525879</ele>
        <time>2022-02-10T10:44:05.000Z</time>
      </trkpt>
      <trkpt lat="47.29444" lon="-2.43449">
        <ele>-49.400001525879</ele>
        <time>2022-02-10T10:44:08.000Z</time>
      </trkpt>
      <trkpt lat="47.29437" lon="-2.43429">
        <ele>-49.400001525879</ele>
        <time>2022-02-10T10:44:12.000Z</time>
      </trkpt>
      <trkpt lat="47.29436" lon="-2.43423">
        <ele>-49.400001525879</ele>
        <time>2022-02-10T10:44:13.000Z</time>
      </trkpt>
      <trkpt lat="47.29435" lon="-2.43417">
        <ele>-49.400001525879</ele>
        <time>2022-02-10T10:44:14.000Z</time>
      </trkpt>
      <trkpt lat="47.29433" lon="-2.43405">
        <ele>-49.400001525879</ele>
        <time>2022-02-10T10:44:16.000Z</time>
      </trkpt>
      <trkpt lat="47.2943" lon="-2.43394">
        <ele>-49.400001525879</ele>
        <time>2022-02-10T10:44:18.000Z</time>
      </trkpt>
      <trkpt lat="47.29426" lon="-2.4339">
        <ele>-49.400001525879</ele>
        <time>2022-02-10T10:44:19.000Z</time>
      </trkpt>
      <trkpt lat="47.29418" lon="-2.43387">
        <ele>-49.400001525879</ele>
        <time>2022-02-10T10:44:21.000Z</time>
      </trkpt>
      <trkpt lat="47.2941" lon="-2.43379">
        <ele>-49.400001525879</ele>
        <time>2022-02-10T10:44:24.000Z</time>
      </trkpt>
      <trkpt lat="47.29408" lon="-2.43366">
        <ele>-49.400001525879</ele>
        <time>2022-02-10T10:44:26.000Z</time>
      </trkpt>
      <trkpt lat="47.29407" lon="-2.43359">
        <ele>-49.400001525879</ele>
        <time>2022-02-10T10:44:27.000Z</time>
      </trkpt>
      <trkpt lat="47.29405" lon="-2.43353">
        <ele>-49.400001525879</ele>
        <time>2022-02-10T10:44:28.000Z</time>
      </trkpt>
      <trkpt lat="47.29391" lon="-2.43331">
        <ele>-49.400001525879</ele>
        <time>2022-02-10T10:44:32.000Z</time>
      </trkpt>
      <trkpt lat="47.29371" lon="-2.43304">
        <ele>-49.400001525879</ele>
        <time>2022-02-10T10:44:37.000Z</time>
      </trkpt>
      <trkpt lat="47.29364" lon="-2.43293">
        <ele>-49.400001525879</ele>
        <time>2022-02-10T10:44:39.000Z</time>
      </trkpt>
      <trkpt lat="47.29361" lon="-2.43279">
        <ele>-49.400001525879</ele>
        <time>2022-02-10T10:44:41.000Z</time>
      </trkpt>
      <trkpt lat="47.29359" lon="-2.4325">
        <ele>-49.400001525879</ele>
        <time>2022-02-10T10:44:45.000Z</time>
      </trkpt>
      <trkpt lat="47.29362" lon="-2.43237">
        <ele>-49.400001525879</ele>
        <time>2022-02-10T10:44:47.000Z</time>
      </trkpt>
      <trkpt lat="47.29371" lon="-2.43219">
        <ele>-49.400001525879</ele>
        <time>2022-02-10T10:44:50.000Z</time>
      </trkpt>
      <trkpt lat="47.29374" lon="-2.43211">
        <ele>-49.400001525879</ele>
        <time>2022-02-10T10:44:51.000Z</time>
      </trkpt>
      <trkpt lat="47.29374" lon="-2.43186">
        <ele>-49.400001525879</ele>
        <time>2022-02-10T10:44:54.000Z</time>
      </trkpt>
      <trkpt lat="47.29373" lon="-2.43177">
        <ele>-49.400001525879</ele>
        <time>2022-02-10T10:44:55.000Z</time>
      </trkpt>
      <trkpt lat="47.29364" lon="-2.43142">
        <ele>-49.400001525879</ele>
        <time>2022-02-10T10:44:59.000Z</time>
      </trkpt>
      <trkpt lat="47.29358" lon="-2.43126">
        <ele>-49.400001525879</ele>
        <time>2022-02-10T10:45:01.000Z</time>
      </trkpt>
      <trkpt lat="47.29348" lon="-2.43102">
        <ele>-49.400001525879</ele>
        <time>2022-02-10T10:45:04.000Z</time>
      </trkpt>
      <trkpt lat="47.29344" lon="-2.43095">
        <ele>-49.400001525879</ele>
        <time>2022-02-10T10:45:05.000Z</time>
      </trkpt>
      <trkpt lat="47.29334" lon="-2.43082">
        <ele>-49.400001525879</ele>
        <time>2022-02-10T10:45:07.000Z</time>
      </trkpt>
      <trkpt lat="47.29328" lon="-2.43078">
        <ele>-49.400001525879</ele>
        <time>2022-02-10T10:45:08.000Z</time>
      </trkpt>
      <trkpt lat="47.2931" lon="-2.43067">
        <ele>-49.400001525879</ele>
        <time>2022-02-10T10:45:11.000Z</time>
      </trkpt>
      <trkpt lat="47.29307" lon="-2.4306">
        <ele>-49.400001525879</ele>
        <time>2022-02-10T10:45:12.000Z</time>
      </trkpt>
      <trkpt lat="47.29305" lon="-2.43032">
        <ele>-49.400001525879</ele>
        <time>2022-02-10T10:45:15.000Z</time>
      </trkpt>
      <trkpt lat="47.29308" lon="-2.43013">
        <ele>-49.400001525879</ele>
        <time>2022-02-10T10:45:17.000Z</time>
      </trkpt>
      <trkpt lat="47.29312" lon="-2.42974">
        <ele>-49.400001525879</ele>
        <time>2022-02-10T10:45:21.000Z</time>
      </trkpt>
      <trkpt lat="47.29312" lon="-2.42935">
        <ele>-49.400001525879</ele>
        <time>2022-02-10T10:45:25.000Z</time>
      </trkpt>
      <trkpt lat="47.29317" lon="-2.42907">
        <ele>-49.400001525879</ele>
        <time>2022-02-10T10:45:28.000Z</time>
      </trkpt>
      <trkpt lat="47.2932" lon="-2.4289">
        <ele>-49.400001525879</ele>
        <time>2022-02-10T10:45:30.000Z</time>
      </trkpt>
      <trkpt lat="47.29325" lon="-2.42873">
        <ele>-49.400001525879</ele>
        <time>2022-02-10T10:45:32.000Z</time>
      </trkpt>
      <trkpt lat="47.29328" lon="-2.42864">
        <ele>-49.400001525879</ele>
        <time>2022-02-10T10:45:33.000Z</time>
      </trkpt>
      <trkpt lat="47.29349" lon="-2.42824">
        <ele>-49.400001525879</ele>
        <time>2022-02-10T10:45:38.000Z</time>
      </trkpt>
      <trkpt lat="47.2937" lon="-2.42801">
        <ele>-49.400001525879</ele>
        <time>2022-02-10T10:45:42.000Z</time>
      </trkpt>
      <trkpt lat="47.29374" lon="-2.42794">
        <ele>-49.400001525879</ele>
        <time>2022-02-10T10:45:43.000Z</time>
      </trkpt>
      <trkpt lat="47.29381" lon="-2.42776">
        <ele>-49.400001525879</ele>
        <time>2022-02-10T10:45:45.000Z</time>
      </trkpt>
      <trkpt lat="47.29384" lon="-2.42758">
        <ele>-49.400001525879</ele>
        <time>2022-02-10T10:45:47.000Z</time>
      </trkpt>
      <trkpt lat="47.29392" lon="-2.42732">
        <ele>-49.400001525879</ele>
        <time>2022-02-10T10:45:50.000Z</time>
      </trkpt>
      <trkpt lat="47.29408" lon="-2.4269">
        <ele>-49.400001525879</ele>
        <time>2022-02-10T10:45:55.000Z</time>
      </trkpt>
      <trkpt lat="47.29415" lon="-2.42674">
        <ele>-49.400001525879</ele>
        <time>2022-02-10T10:45:57.000Z</time>
      </trkpt>
      <trkpt lat="47.29418" lon="-2.42655">
        <ele>-49.400001525879</ele>
        <time>2022-02-10T10:45:59.000Z</time>
      </trkpt>
      <trkpt lat="47.29421" lon="-2.42611">
        <ele>-49.400001525879</ele>
        <time>2022-02-10T10:46:04.000Z</time>
      </trkpt>
      <trkpt lat="47.29421" lon="-2.42602">
        <ele>-49.400001525879</ele>
        <time>2022-02-10T10:46:05.000Z</time>
      </trkpt>
      <trkpt lat="47.29421" lon="-2.42593">
        <ele>-49.400001525879</ele>
        <time>2022-02-10T10:46:06.000Z</time>
      </trkpt>
      <trkpt lat="47.29427" lon="-2.42579">
        <ele>-49.400001525879</ele>
        <time>2022-02-10T10:46:08.000Z</time>
      </trkpt>
      <trkpt lat="47.2944" lon="-2.42563">
        <ele>-49.400001525879</ele>
        <time>2022-02-10T10:46:11.000Z</time>
      </trkpt>
      <trkpt lat="47.29444" lon="-2.42558">
        <ele>-49.400001525879</ele>
        <time>2022-02-10T10:46:12.000Z</time>
      </trkpt>
      <trkpt lat="47.29453" lon="-2.42549">
        <ele>-49.400001525879</ele>
        <time>2022-02-10T10:46:14.000Z</time>
      </trkpt>
      <trkpt lat="47.29467" lon="-2.42535">
        <ele>-49.400001525879</ele>
        <time>2022-02-10T10:46:17.000Z</time>
      </trkpt>
      <trkpt lat="47.2949" lon="-2.42511">
        <ele>-49.400001525879</ele>
        <time>2022-02-10T10:46:22.000Z</time>
      </trkpt>
      <trkpt lat="47.29495" lon="-2.42507">
        <ele>-49.400001525879</ele>
        <time>2022-02-10T10:46:23.000Z</time>
      </trkpt>
      <trkpt lat="47.29519" lon="-2.42481">
        <ele>-49.400001525879</ele>
        <time>2022-02-10T10:46:28.000Z</time>
      </trkpt>
      <trkpt lat="47.2953" lon="-2.42471">
        <ele>-49.400001525879</ele>
        <time>2022-02-10T10:46:31.000Z</time>
      </trkpt>
      <trkpt lat="47.2954" lon="-2.4246">
        <ele>-49.400001525879</ele>
        <time>2022-02-10T10:46:33.000Z</time>
      </trkpt>
      <trkpt lat="47.29544" lon="-2.42454">
        <ele>-49.400001525879</ele>
        <time>2022-02-10T10:46:34.000Z</time>
      </trkpt>
      <trkpt lat="47.29548" lon="-2.42447">
        <ele>-49.400001525879</ele>
        <time>2022-02-10T10:46:35.000Z</time>
      </trkpt>
      <trkpt lat="47.29555" lon="-2.42436">
        <ele>-49.400001525879</ele>
        <time>2022-02-10T10:46:37.000Z</time>
      </trkpt>
      <trkpt lat="47.29562" lon="-2.42427">
        <ele>-49.400001525879</ele>
        <time>2022-02-10T10:46:39.000Z</time>
      </trkpt>
      <trkpt lat="47.29579" lon="-2.42423">
        <ele>-49.400001525879</ele>
        <time>2022-02-10T10:46:43.000Z</time>
      </trkpt>
      <trkpt lat="47.29593" lon="-2.42428">
        <ele>-49.400001525879</ele>
        <time>2022-02-10T10:46:46.000Z</time>
      </trkpt>
      <trkpt lat="47.29603" lon="-2.42431">
        <ele>-49.400001525879</ele>
        <time>2022-02-10T10:46:48.000Z</time>
      </trkpt>
      <trkpt lat="47.29616" lon="-2.42435">
        <ele>-49.400001525879</ele>
        <time>2022-02-10T10:46:52.000Z</time>
      </trkpt>
      <trkpt lat="47.29624" lon="-2.42437">
        <ele>-49.400001525879</ele>
        <time>2022-02-10T10:46:57.000Z</time>
      </trkpt>
      <trkpt lat="47.29626" lon="-2.42435">
        <ele>-49.400001525879</ele>
        <time>2022-02-10T10:46:58.000Z</time>
      </trkpt>
      <trkpt lat="47.29628" lon="-2.42417">
        <ele>-49.400001525879</ele>
        <time>2022-02-10T10:47:02.000Z</time>
      </trkpt>
      <trkpt lat="47.29634" lon="-2.42383">
        <ele>-49.400001525879</ele>
        <time>2022-02-10T10:47:09.000Z</time>
      </trkpt>
      <trkpt lat="47.29639" lon="-2.42361">
        <ele>-49.400001525879</ele>
        <time>2022-02-10T10:47:13.000Z</time>
      </trkpt>
      <trkpt lat="47.29643" lon="-2.42344">
        <ele>-49.400001525879</ele>
        <time>2022-02-10T10:47:16.000Z</time>
      </trkpt>
      <trkpt lat="47.29656" lon="-2.4229">
        <ele>-49.400001525879</ele>
        <time>2022-02-10T10:47:25.000Z</time>
      </trkpt>
      <trkpt lat="47.29662" lon="-2.42263">
        <ele>-49.400001525879</ele>
        <time>2022-02-10T10:47:30.000Z</time>
      </trkpt>
      <trkpt lat="47.29674" lon="-2.42224">
        <ele>-49.400001525879</ele>
        <time>2022-02-10T10:47:38.000Z</time>
      </trkpt>
      <trkpt lat="47.29691" lon="-2.42191">
        <ele>-49.400001525879</ele>
        <time>2022-02-10T10:47:45.000Z</time>
      </trkpt>
      <trkpt lat="47.29693" lon="-2.42186">
        <ele>-49.400001525879</ele>
        <time>2022-02-10T10:47:46.000Z</time>
      </trkpt>
      <trkpt lat="47.29706" lon="-2.42167">
        <ele>-49.400001525879</ele>
        <time>2022-02-10T10:47:50.000Z</time>
      </trkpt>
      <trkpt lat="47.29726" lon="-2.42129">
        <ele>-49.400001525879</ele>
        <time>2022-02-10T10:47:58.000Z</time>
      </trkpt>
      <trkpt lat="47.29743" lon="-2.42099">
        <ele>-49.400001525879</ele>
        <time>2022-02-10T10:48:04.000Z</time>
      </trkpt>
      <trkpt lat="47.29746" lon="-2.42093">
        <ele>-49.400001525879</ele>
        <time>2022-02-10T10:48:05.000Z</time>
      </trkpt>
      <trkpt lat="47.2976" lon="-2.42067">
        <ele>-49.400001525879</ele>
        <time>2022-02-10T10:48:10.000Z</time>
      </trkpt>
      <trkpt lat="47.29777" lon="-2.42038">
        <ele>-49.400001525879</ele>
        <time>2022-02-10T10:48:16.000Z</time>
      </trkpt>
      <trkpt lat="47.29782" lon="-2.42028">
        <ele>-49.400001525879</ele>
        <time>2022-02-10T10:48:18.000Z</time>
      </trkpt>
      <trkpt lat="47.29787" lon="-2.42001">
        <ele>-49.400001525879</ele>
        <time>2022-02-10T10:48:22.000Z</time>
      </trkpt>
      <trkpt lat="47.29783" lon="-2.41973">
        <ele>-49.400001525879</ele>
        <time>2022-02-10T10:48:26.000Z</time>
      </trkpt>
      <trkpt lat="47.29782" lon="-2.41966">
        <ele>-49.400001525879</ele>
        <time>2022-02-10T10:48:27.000Z</time>
      </trkpt>
      <trkpt lat="47.2977" lon="-2.4191">
        <ele>-49.400001525879</ele>
        <time>2022-02-10T10:48:35.000Z</time>
      </trkpt>
      <trkpt lat="47.29766" lon="-2.41874">
        <ele>-49.400001525879</ele>
        <time>2022-02-10T10:48:40.000Z</time>
      </trkpt>
      <trkpt lat="47.29766" lon="-2.41867">
        <ele>-49.400001525879</ele>
        <time>2022-02-10T10:48:41.000Z</time>
      </trkpt>
      <trkpt lat="47.29769" lon="-2.41835">
        <ele>-49.400001525879</ele>
        <time>2022-02-10T10:48:46.000Z</time>
      </trkpt>
      <trkpt lat="47.29769" lon="-2.41829">
        <ele>-49.400001525879</ele>
        <time>2022-02-10T10:48:47.000Z</time>
      </trkpt>
      <trkpt lat="47.2977" lon="-2.41803">
        <ele>-49.400001525879</ele>
        <time>2022-02-10T10:48:52.000Z</time>
      </trkpt>
      <trkpt lat="47.29768" lon="-2.41771">
        <ele>-49.400001525879</ele>
        <time>2022-02-10T10:48:59.000Z</time>
      </trkpt>
      <trkpt lat="47.29763" lon="-2.41752">
        <ele>-49.400001525879</ele>
        <time>2022-02-10T10:49:05.000Z</time>
      </trkpt>
      <trkpt lat="47.29756" lon="-2.4175">
        <ele>-49.400001525879</ele>
        <time>2022-02-10T10:49:10.000Z</time>
      </trkpt>
      <trkpt lat="47.29745" lon="-2.41754">
        <ele>-49.400001525879</ele>
        <time>2022-02-10T10:49:17.000Z</time>
      </trkpt>
      <trkpt lat="47.29736" lon="-2.41761">
        <ele>-49.400001525879</ele>
        <time>2022-02-10T10:49:23.000Z</time>
      </trkpt>
      <trkpt lat="47.29728" lon="-2.41771">
        <ele>-49.400001525879</ele>
        <time>2022-02-10T10:49:30.000Z</time>
      </trkpt>
      <trkpt lat="47.29718" lon="-2.41786">
        <ele>-49.400001525879</ele>
        <time>2022-02-10T10:49:38.000Z</time>
      </trkpt>
      <trkpt lat="47.29706" lon="-2.4181">
        <ele>-49.400001525879</ele>
        <time>2022-02-10T10:49:44.000Z</time>
      </trkpt>
      <trkpt lat="47.29691" lon="-2.41822">
        <ele>-49.400001525879</ele>
        <time>2022-02-10T10:49:48.000Z</time>
      </trkpt>
      <trkpt lat="47.29672" lon="-2.41823">
        <ele>-49.400001525879</ele>
        <time>2022-02-10T10:49:52.000Z</time>
      </trkpt>
      <trkpt lat="47.29667" lon="-2.41824">
        <ele>-49.400001525879</ele>
        <time>2022-02-10T10:49:53.000Z</time>
      </trkpt>
      <trkpt lat="47.29654" lon="-2.41829">
        <ele>-49.400001525879</ele>
        <time>2022-02-10T10:49:56.000Z</time>
      </trkpt>
      <trkpt lat="47.29649" lon="-2.41828">
        <ele>-49.400001525879</ele>
        <time>2022-02-10T10:49:57.000Z</time>
      </trkpt>
      <trkpt lat="47.29639" lon="-2.41816">
        <ele>-49.400001525879</ele>
        <time>2022-02-10T10:50:00.000Z</time>
      </trkpt>
      <trkpt lat="47.29633" lon="-2.41788">
        <ele>-49.400001525879</ele>
        <time>2022-02-10T10:50:04.000Z</time>
      </trkpt>
      <trkpt lat="47.29627" lon="-2.41765">
        <ele>-49.400001525879</ele>
        <time>2022-02-10T10:50:07.000Z</time>
      </trkpt>
      <trkpt lat="47.29609" lon="-2.41742">
        <ele>-49.400001525879</ele>
        <time>2022-02-10T10:50:11.000Z</time>
      </trkpt>
      <trkpt lat="47.296" lon="-2.41733">
        <ele>-49.400001525879</ele>
        <time>2022-02-10T10:50:13.000Z</time>
      </trkpt>
      <trkpt lat="47.29585" lon="-2.4172">
        <ele>-49.400001525879</ele>
        <time>2022-02-10T10:50:16.000Z</time>
      </trkpt>
      <trkpt lat="47.29575" lon="-2.41713">
        <ele>-49.400001525879</ele>
        <time>2022-02-10T10:50:18.000Z</time>
      </trkpt>
      <trkpt lat="47.29564" lon="-2.41711">
        <ele>-49.400001525879</ele>
        <time>2022-02-10T10:50:20.000Z</time>
      </trkpt>
      <trkpt lat="47.2955" lon="-2.41699">
        <ele>-49.400001525879</ele>
        <time>2022-02-10T10:50:23.000Z</time>
      </trkpt>
      <trkpt lat="47.29544" lon="-2.41685">
        <ele>-49.400001525879</ele>
        <time>2022-02-10T10:50:25.000Z</time>
      </trkpt>
      <trkpt lat="47.29537" lon="-2.41664">
        <ele>-49.400001525879</ele>
        <time>2022-02-10T10:50:28.000Z</time>
      </trkpt>
      <trkpt lat="47.29526" lon="-2.4162">
        <ele>-49.400001525879</ele>
        <time>2022-02-10T10:50:34.000Z</time>
      </trkpt>
      <trkpt lat="47.29526" lon="-2.41614">
        <ele>-49.400001525879</ele>
        <time>2022-02-10T10:50:35.000Z</time>
      </trkpt>
      <trkpt lat="47.29526" lon="-2.4161">
        <ele>-49.400001525879</ele>
        <time>2022-02-10T10:50:38.000Z</time>
      </trkpt>
      <trkpt lat="47.29526" lon="-2.41608">
        <ele>-49.400001525879</ele>
        <time>2022-02-10T10:50:41.000Z</time>
      </trkpt>
      <trkpt lat="47.29526" lon="-2.41604">
        <ele>-49.400001525879</ele>
        <time>2022-02-10T10:51:07.000Z</time>
      </trkpt>
      <trkpt lat="47.29525" lon="-2.41602">
        <ele>-49.400001525879</ele>
        <time>2022-02-10T10:51:08.000Z</time>
      </trkpt>
      <trkpt lat="47.29528" lon="-2.41583">
        <ele>-49.400001525879</ele>
        <time>2022-02-10T10:51:13.000Z</time>
      </trkpt>
      <trkpt lat="47.29534" lon="-2.41555">
        <ele>-49.400001525879</ele>
        <time>2022-02-10T10:51:19.000Z</time>
      </trkpt>
      <trkpt lat="47.29538" lon="-2.41529">
        <ele>-49.400001525879</ele>
        <time>2022-02-10T10:51:24.000Z</time>
      </trkpt>
      <trkpt lat="47.29533" lon="-2.41513">
        <ele>-49.400001525879</ele>
        <time>2022-02-10T10:51:27.000Z</time>
      </trkpt>
      <trkpt lat="47.29528" lon="-2.41502">
        <ele>-49.400001525879</ele>
        <time>2022-02-10T10:51:29.000Z</time>
      </trkpt>
      <trkpt lat="47.29518" lon="-2.41482">
        <ele>-49.400001525879</ele>
        <time>2022-02-10T10:51:33.000Z</time>
      </trkpt>
      <trkpt lat="47.29511" lon="-2.41477">
        <ele>-49.400001525879</ele>
        <time>2022-02-10T10:51:35.000Z</time>
      </trkpt>
      <trkpt lat="47.295" lon="-2.41481">
        <ele>-49.799999237061</ele>
        <time>2022-02-10T10:51:38.000Z</time>
      </trkpt>
      <trkpt lat="47.29496" lon="-2.41483">
        <ele>-50.200000762939</ele>
        <time>2022-02-10T10:51:39.000Z</time>
      </trkpt>
      <trkpt lat="47.29492" lon="-2.41486">
        <ele>-50.599998474121</ele>
        <time>2022-02-10T10:51:40.000Z</time>
      </trkpt>
      <trkpt lat="47.29488" lon="-2.41488">
        <ele>-51</ele>
        <time>2022-02-10T10:51:41.000Z</time>
      </trkpt>
      <trkpt lat="47.29483" lon="-2.41488">
        <ele>-51.400001525879</ele>
        <time>2022-02-10T10:51:42.000Z</time>
      </trkpt>
      <trkpt lat="47.29478" lon="-2.41487">
        <ele>-51.400001525879</ele>
        <time>2022-02-10T10:51:43.000Z</time>
      </trkpt>
      <trkpt lat="47.29457" lon="-2.41487">
        <ele>-51.400001525879</ele>
        <time>2022-02-10T10:51:47.000Z</time>
      </trkpt>
      <trkpt lat="47.29452" lon="-2.41488">
        <ele>-51.400001525879</ele>
        <time>2022-02-10T10:51:48.000Z</time>
      </trkpt>
      <trkpt lat="47.29437" lon="-2.41489">
        <ele>-51.400001525879</ele>
        <time>2022-02-10T10:51:51.000Z</time>
      </trkpt>
      <trkpt lat="47.29428" lon="-2.41482">
        <ele>-51.400001525879</ele>
        <time>2022-02-10T10:51:53.000Z</time>
      </trkpt>
      <trkpt lat="47.29416" lon="-2.41468">
        <ele>-51.400001525879</ele>
        <time>2022-02-10T10:51:56.000Z</time>
      </trkpt>
      <trkpt lat="47.29409" lon="-2.41459">
        <ele>-51.400001525879</ele>
        <time>2022-02-10T10:51:58.000Z</time>
      </trkpt>
      <trkpt lat="47.2939" lon="-2.41423">
        <ele>-51.400001525879</ele>
        <time>2022-02-10T10:52:04.000Z</time>
      </trkpt>
      <trkpt lat="47.29373" lon="-2.41386">
        <ele>-51.400001525879</ele>
        <time>2022-02-10T10:52:10.000Z</time>
      </trkpt>
      <trkpt lat="47.2937" lon="-2.41381">
        <ele>-51.400001525879</ele>
        <time>2022-02-10T10:52:11.000Z</time>
      </trkpt>
      <trkpt lat="47.29363" lon="-2.41371">
        <ele>-51.400001525879</ele>
        <time>2022-02-10T10:52:13.000Z</time>
      </trkpt>
      <trkpt lat="47.29349" lon="-2.41351">
        <ele>-51.400001525879</ele>
        <time>2022-02-10T10:52:17.000Z</time>
      </trkpt>
      <trkpt lat="47.29348" lon="-2.41332">
        <ele>-51.400001525879</ele>
        <time>2022-02-10T10:52:20.000Z</time>
      </trkpt>
      <trkpt lat="47.29355" lon="-2.41314">
        <ele>-51.400001525879</ele>
        <time>2022-02-10T10:52:23.000Z</time>
      </trkpt>
      <trkpt lat="47.29358" lon="-2.41308">
        <ele>-51.400001525879</ele>
        <time>2022-02-10T10:52:24.000Z</time>
      </trkpt>
      <trkpt lat="47.2936" lon="-2.41301">
        <ele>-51.400001525879</ele>
        <time>2022-02-10T10:52:25.000Z</time>
      </trkpt>
      <trkpt lat="47.2936" lon="-2.41288">
        <ele>-51.400001525879</ele>
        <time>2022-02-10T10:52:27.000Z</time>
      </trkpt>
      <trkpt lat="47.29357" lon="-2.41267">
        <ele>-51.400001525879</ele>
        <time>2022-02-10T10:52:30.000Z</time>
      </trkpt>
      <trkpt lat="47.29354" lon="-2.41253">
        <ele>-51.400001525879</ele>
        <time>2022-02-10T10:52:32.000Z</time>
      </trkpt>
      <trkpt lat="47.29341" lon="-2.41232">
        <ele>-51.400001525879</ele>
        <time>2022-02-10T10:52:36.000Z</time>
      </trkpt>
      <trkpt lat="47.29337" lon="-2.41227">
        <ele>-51.400001525879</ele>
        <time>2022-02-10T10:52:37.000Z</time>
      </trkpt>
      <trkpt lat="47.29316" lon="-2.412">
        <ele>-51.400001525879</ele>
        <time>2022-02-10T10:52:42.000Z</time>
      </trkpt>
      <trkpt lat="47.29312" lon="-2.41196">
        <ele>-51.400001525879</ele>
        <time>2022-02-10T10:52:43.000Z</time>
      </trkpt>
      <trkpt lat="47.29298" lon="-2.41173">
        <ele>-51.400001525879</ele>
        <time>2022-02-10T10:52:47.000Z</time>
      </trkpt>
      <trkpt lat="47.29294" lon="-2.4116">
        <ele>-51.400001525879</ele>
        <time>2022-02-10T10:52:49.000Z</time>
      </trkpt>
      <trkpt lat="47.29284" lon="-2.4114">
        <ele>-51.400001525879</ele>
        <time>2022-02-10T10:52:52.000Z</time>
      </trkpt>
      <trkpt lat="47.29272" lon="-2.41123">
        <ele>-51.400001525879</ele>
        <time>2022-02-10T10:52:55.000Z</time>
      </trkpt>
      <trkpt lat="47.29259" lon="-2.41108">
        <ele>-51.400001525879</ele>
        <time>2022-02-10T10:52:58.000Z</time>
      </trkpt>
      <trkpt lat="47.29245" lon="-2.41077">
        <ele>-51.400001525879</ele>
        <time>2022-02-10T10:53:03.000Z</time>
      </trkpt>
      <trkpt lat="47.29251" lon="-2.41063">
        <ele>-51.400001525879</ele>
        <time>2022-02-10T10:53:05.000Z</time>
      </trkpt>
      <trkpt lat="47.29256" lon="-2.41049">
        <ele>-51.400001525879</ele>
        <time>2022-02-10T10:53:07.000Z</time>
      </trkpt>
      <trkpt lat="47.2925" lon="-2.41035">
        <ele>-51.400001525879</ele>
        <time>2022-02-10T10:53:09.000Z</time>
      </trkpt>
      <trkpt lat="47.29241" lon="-2.41025">
        <ele>-51.400001525879</ele>
        <time>2022-02-10T10:53:11.000Z</time>
      </trkpt>
      <trkpt lat="47.29237" lon="-2.41019">
        <ele>-51.400001525879</ele>
        <time>2022-02-10T10:53:12.000Z</time>
      </trkpt>
      <trkpt lat="47.29234" lon="-2.41013">
        <ele>-51.400001525879</ele>
        <time>2022-02-10T10:53:13.000Z</time>
      </trkpt>
      <trkpt lat="47.29222" lon="-2.40989">
        <ele>-51.400001525879</ele>
        <time>2022-02-10T10:53:17.000Z</time>
      </trkpt>
      <trkpt lat="47.29219" lon="-2.40983">
        <ele>-51.400001525879</ele>
        <time>2022-02-10T10:53:18.000Z</time>
      </trkpt>
      <trkpt lat="47.29208" lon="-2.40957">
        <ele>-51.400001525879</ele>
        <time>2022-02-10T10:53:22.000Z</time>
      </trkpt>
      <trkpt lat="47.29204" lon="-2.40953">
        <ele>-51.400001525879</ele>
        <time>2022-02-10T10:53:23.000Z</time>
      </trkpt>
      <trkpt lat="47.29184" lon="-2.40946">
        <ele>-51.400001525879</ele>
        <time>2022-02-10T10:53:27.000Z</time>
      </trkpt>
      <trkpt lat="47.29168" lon="-2.40942">
        <ele>-51.400001525879</ele>
        <time>2022-02-10T10:53:30.000Z</time>
      </trkpt>
      <trkpt lat="47.29161" lon="-2.40933">
        <ele>-51.400001525879</ele>
        <time>2022-02-10T10:53:32.000Z</time>
      </trkpt>
      <trkpt lat="47.2916" lon="-2.40923">
        <ele>-51.400001525879</ele>
        <time>2022-02-10T10:53:35.000Z</time>
      </trkpt>
      <trkpt lat="47.2916" lon="-2.40919">
        <ele>-51.400001525879</ele>
        <time>2022-02-10T10:53:37.000Z</time>
      </trkpt>
      <trkpt lat="47.29161" lon="-2.40917">
        <ele>-51.400001525879</ele>
        <time>2022-02-10T10:53:38.000Z</time>
      </trkpt>
      <trkpt lat="47.29163" lon="-2.40913">
        <ele>-51.400001525879</ele>
        <time>2022-02-10T10:53:40.000Z</time>
      </trkpt>
      <trkpt lat="47.29165" lon="-2.409">
        <ele>-51.400001525879</ele>
        <time>2022-02-10T10:53:46.000Z</time>
      </trkpt>
      <trkpt lat="47.29172" lon="-2.40875">
        <ele>-51.400001525879</ele>
        <time>2022-02-10T10:53:53.000Z</time>
      </trkpt>
      <trkpt lat="47.29174" lon="-2.40855">
        <ele>-51.400001525879</ele>
        <time>2022-02-10T10:53:58.000Z</time>
      </trkpt>
      <trkpt lat="47.29173" lon="-2.40826">
        <ele>-51.400001525879</ele>
        <time>2022-02-10T10:54:06.000Z</time>
      </trkpt>
      <trkpt lat="47.29175" lon="-2.40805">
        <ele>-51.400001525879</ele>
        <time>2022-02-10T10:54:11.000Z</time>
      </trkpt>
      <trkpt lat="47.29184" lon="-2.40779">
        <ele>-51.400001525879</ele>
        <time>2022-02-10T10:54:18.000Z</time>
      </trkpt>
      <trkpt lat="47.2919" lon="-2.40759">
        <ele>-51.400001525879</ele>
        <time>2022-02-10T10:54:23.000Z</time>
      </trkpt>
      <trkpt lat="47.29202" lon="-2.40741">
        <ele>-51.400001525879</ele>
        <time>2022-02-10T10:54:28.000Z</time>
      </trkpt>
      <trkpt lat="47.29217" lon="-2.40716">
        <ele>-51.400001525879</ele>
        <time>2022-02-10T10:54:33.000Z</time>
      </trkpt>
      <trkpt lat="47.2922" lon="-2.40712">
        <ele>-51.400001525879</ele>
        <time>2022-02-10T10:54:34.000Z</time>
      </trkpt>
      <trkpt lat="47.29229" lon="-2.40693">
        <ele>-51.400001525879</ele>
        <time>2022-02-10T10:54:38.000Z</time>
      </trkpt>
      <trkpt lat="47.29233" lon="-2.40665">
        <ele>-51.400001525879</ele>
        <time>2022-02-10T10:54:42.000Z</time>
      </trkpt>
      <trkpt lat="47.29229" lon="-2.40651">
        <ele>-51.400001525879</ele>
        <time>2022-02-10T10:54:44.000Z</time>
      </trkpt>
      <trkpt lat="47.29227" lon="-2.40644">
        <ele>-51.400001525879</ele>
        <time>2022-02-10T10:54:45.000Z</time>
      </trkpt>
      <trkpt lat="47.29225" lon="-2.40639">
        <ele>-51.400001525879</ele>
        <time>2022-02-10T10:54:46.000Z</time>
      </trkpt>
      <trkpt lat="47.29214" lon="-2.40621">
        <ele>-51.400001525879</ele>
        <time>2022-02-10T10:54:51.000Z</time>
      </trkpt>
      <trkpt lat="47.292" lon="-2.40612">
        <ele>-51.400001525879</ele>
        <time>2022-02-10T10:54:55.000Z</time>
      </trkpt>
      <trkpt lat="47.29196" lon="-2.40613">
        <ele>-51.400001525879</ele>
        <time>2022-02-10T10:54:56.000Z</time>
      </trkpt>
      <trkpt lat="47.29188" lon="-2.40618">
        <ele>-51.400001525879</ele>
        <time>2022-02-10T10:54:58.000Z</time>
      </trkpt>
      <trkpt lat="47.2917" lon="-2.40631">
        <ele>-51.400001525879</ele>
        <time>2022-02-10T10:55:03.000Z</time>
      </trkpt>
      <trkpt lat="47.29165" lon="-2.40636">
        <ele>-51.400001525879</ele>
        <time>2022-02-10T10:55:05.000Z</time>
      </trkpt>
      <trkpt lat="47.29153" lon="-2.40645">
        <ele>-51.400001525879</ele>
        <time>2022-02-10T10:55:10.000Z</time>
      </trkpt>
      <trkpt lat="47.29148" lon="-2.40648">
        <ele>-51.400001525879</ele>
        <time>2022-02-10T10:55:15.000Z</time>
      </trkpt>
      <trkpt lat="47.29146" lon="-2.4065">
        <ele>-51.400001525879</ele>
        <time>2022-02-10T10:56:05.000Z</time>
      </trkpt>
      <trkpt lat="47.29141" lon="-2.40658">
        <ele>-51.400001525879</ele>
        <time>2022-02-10T10:56:08.000Z</time>
      </trkpt>
      <trkpt lat="47.29128" lon="-2.40674">
        <ele>-51.400001525879</ele>
        <time>2022-02-10T10:56:14.000Z</time>
      </trkpt>
      <trkpt lat="47.29115" lon="-2.40682">
        <ele>-51.400001525879</ele>
        <time>2022-02-10T10:56:18.000Z</time>
      </trkpt>
      <trkpt lat="47.29096" lon="-2.40685">
        <ele>-51.400001525879</ele>
        <time>2022-02-10T10:56:23.000Z</time>
      </trkpt>
      <trkpt lat="47.29069" lon="-2.40691">
        <ele>-51.400001525879</ele>
        <time>2022-02-10T10:56:30.000Z</time>
      </trkpt>
      <trkpt lat="47.29045" lon="-2.40707">
        <ele>-51.400001525879</ele>
        <time>2022-02-10T10:56:37.000Z</time>
      </trkpt>
      <trkpt lat="47.29024" lon="-2.40735">
        <ele>-51.400001525879</ele>
        <time>2022-02-10T10:56:44.000Z</time>
      </trkpt>
      <trkpt lat="47.29019" lon="-2.40753">
        <ele>-51.400001525879</ele>
        <time>2022-02-10T10:56:48.000Z</time>
      </trkpt>
      <trkpt lat="47.29026" lon="-2.40772">
        <ele>-51.400001525879</ele>
        <time>2022-02-10T10:56:52.000Z</time>
      </trkpt>
      <trkpt lat="47.29028" lon="-2.40777">
        <ele>-51.400001525879</ele>
        <time>2022-02-10T10:56:53.000Z</time>
      </trkpt>
      <trkpt lat="47.29037" lon="-2.40794">
        <ele>-51.400001525879</ele>
        <time>2022-02-10T10:56:57.000Z</time>
      </trkpt>
      <trkpt lat="47.29039" lon="-2.40799">
        <ele>-51.400001525879</ele>
        <time>2022-02-10T10:56:58.000Z</time>
      </trkpt>
      <trkpt lat="47.29042" lon="-2.4082">
        <ele>-51.400001525879</ele>
        <time>2022-02-10T10:57:02.000Z</time>
      </trkpt>
      <trkpt lat="47.29032" lon="-2.40839">
        <ele>-51.400001525879</ele>
        <time>2022-02-10T10:57:06.000Z</time>
      </trkpt>
      <trkpt lat="47.29011" lon="-2.40874">
        <ele>-51.400001525879</ele>
        <time>2022-02-10T10:57:14.000Z</time>
      </trkpt>
      <trkpt lat="47.28991" lon="-2.40903">
        <ele>-51.400001525879</ele>
        <time>2022-02-10T10:57:21.000Z</time>
      </trkpt>
      <trkpt lat="47.28968" lon="-2.40911">
        <ele>-51.400001525879</ele>
        <time>2022-02-10T10:57:27.000Z</time>
      </trkpt>
      <trkpt lat="47.28948" lon="-2.40912">
        <ele>-51.400001525879</ele>
        <time>2022-02-10T10:57:33.000Z</time>
      </trkpt>
      <trkpt lat="47.28943" lon="-2.40927">
        <ele>-51.400001525879</ele>
        <time>2022-02-10T10:57:36.000Z</time>
      </trkpt>
      <trkpt lat="47.28941" lon="-2.40948">
        <ele>-51.400001525879</ele>
        <time>2022-02-10T10:57:40.000Z</time>
      </trkpt>
      <trkpt lat="47.28938" lon="-2.40974">
        <ele>-51.400001525879</ele>
        <time>2022-02-10T10:57:45.000Z</time>
      </trkpt>
      <trkpt lat="47.28947" lon="-2.40992">
        <ele>-51.400001525879</ele>
        <time>2022-02-10T10:57:49.000Z</time>
      </trkpt>
      <trkpt lat="47.28952" lon="-2.4102">
        <ele>-51.400001525879</ele>
        <time>2022-02-10T10:57:54.000Z</time>
      </trkpt>
      <trkpt lat="47.28954" lon="-2.41051">
        <ele>-51.400001525879</ele>
        <time>2022-02-10T10:58:00.000Z</time>
      </trkpt>
      <trkpt lat="47.28956" lon="-2.41092">
        <ele>-51.400001525879</ele>
        <time>2022-02-10T10:58:07.000Z</time>
      </trkpt>
      <trkpt lat="47.28957" lon="-2.41099">
        <ele>-51.400001525879</ele>
        <time>2022-02-10T10:58:08.000Z</time>
      </trkpt>
      <trkpt lat="47.2896" lon="-2.41127">
        <ele>-51.400001525879</ele>
        <time>2022-02-10T10:58:12.000Z</time>
      </trkpt>
      <trkpt lat="47.28964" lon="-2.41179">
        <ele>-51.400001525879</ele>
        <time>2022-02-10T10:58:20.000Z</time>
      </trkpt>
      <trkpt lat="47.2896" lon="-2.41197">
        <ele>-51.400001525879</ele>
        <time>2022-02-10T10:58:23.000Z</time>
      </trkpt>
      <trkpt lat="47.28952" lon="-2.41204">
        <ele>-51.400001525879</ele>
        <time>2022-02-10T10:58:25.000Z</time>
      </trkpt>
      <trkpt lat="47.2893" lon="-2.41222">
        <ele>-51.400001525879</ele>
        <time>2022-02-10T10:58:31.000Z</time>
      </trkpt>
      <trkpt lat="47.28926" lon="-2.41221">
        <ele>-51.400001525879</ele>
        <time>2022-02-10T10:58:32.000Z</time>
      </trkpt>
      <trkpt lat="47.28916" lon="-2.41209">
        <ele>-51.400001525879</ele>
        <time>2022-02-10T10:58:35.000Z</time>
      </trkpt>
      <trkpt lat="47.28912" lon="-2.41198">
        <ele>-51.400001525879</ele>
        <time>2022-02-10T10:58:37.000Z</time>
      </trkpt>
      <trkpt lat="47.28906" lon="-2.41189">
        <ele>-51.400001525879</ele>
        <time>2022-02-10T10:58:39.000Z</time>
      </trkpt>
      <trkpt lat="47.28902" lon="-2.41186">
        <ele>-51.400001525879</ele>
        <time>2022-02-10T10:58:40.000Z</time>
      </trkpt>
      <trkpt lat="47.28891" lon="-2.41194">
        <ele>-51.400001525879</ele>
        <time>2022-02-10T10:58:43.000Z</time>
      </trkpt>
      <trkpt lat="47.2888" lon="-2.412">
        <ele>-51.400001525879</ele>
        <time>2022-02-10T10:58:46.000Z</time>
      </trkpt>
      <trkpt lat="47.28873" lon="-2.41205">
        <ele>-51.400001525879</ele>
        <time>2022-02-10T10:58:48.000Z</time>
      </trkpt>
      <trkpt lat="47.28867" lon="-2.41212">
        <ele>-51.400001525879</ele>
        <time>2022-02-10T10:58:50.000Z</time>
      </trkpt>
      <trkpt lat="47.28864" lon="-2.41225">
        <ele>-51.400001525879</ele>
        <time>2022-02-10T10:58:52.000Z</time>
      </trkpt>
      <trkpt lat="47.28867" lon="-2.4125">
        <ele>-51.400001525879</ele>
        <time>2022-02-10T10:58:56.000Z</time>
      </trkpt>
      <trkpt lat="47.28862" lon="-2.41276">
        <ele>-51.400001525879</ele>
        <time>2022-02-10T10:59:01.000Z</time>
      </trkpt>
      <trkpt lat="47.28851" lon="-2.41275">
        <ele>-51.400001525879</ele>
        <time>2022-02-10T10:59:05.000Z</time>
      </trkpt>
      <trkpt lat="47.28831" lon="-2.41267">
        <ele>-51.400001525879</ele>
        <time>2022-02-10T10:59:11.000Z</time>
      </trkpt>
      <trkpt lat="47.28812" lon="-2.41255">
        <ele>-51.400001525879</ele>
        <time>2022-02-10T10:59:18.000Z</time>
      </trkpt>
      <trkpt lat="47.28807" lon="-2.41257">
        <ele>-51.400001525879</ele>
        <time>2022-02-10T10:59:20.000Z</time>
      </trkpt>
      <trkpt lat="47.28804" lon="-2.41265">
        <ele>-51.400001525879</ele>
        <time>2022-02-10T10:59:22.000Z</time>
      </trkpt>
      <trkpt lat="47.288" lon="-2.41275">
        <ele>-51.400001525879</ele>
        <time>2022-02-10T10:59:25.000Z</time>
      </trkpt>
      <trkpt lat="47.28797" lon="-2.41281">
        <ele>-51.400001525879</ele>
        <time>2022-02-10T10:59:27.000Z</time>
      </trkpt>
      <trkpt lat="47.28795" lon="-2.41297">
        <ele>-51.400001525879</ele>
        <time>2022-02-10T10:59:32.000Z</time>
      </trkpt>
      <trkpt lat="47.28793" lon="-2.41297">
        <ele>-51.400001525879</ele>
        <time>2022-02-10T10:59:33.000Z</time>
      </trkpt>
      <trkpt lat="47.28788" lon="-2.41296">
        <ele>-51.400001525879</ele>
        <time>2022-02-10T10:59:35.000Z</time>
      </trkpt>
      <trkpt lat="47.28786" lon="-2.41299">
        <ele>-51.400001525879</ele>
        <time>2022-02-10T10:59:36.000Z</time>
      </trkpt>
      <trkpt lat="47.28783" lon="-2.41305">
        <ele>-51.400001525879</ele>
        <time>2022-02-10T10:59:38.000Z</time>
      </trkpt>
      <trkpt lat="47.28773" lon="-2.41327">
        <ele>-51.400001525879</ele>
        <time>2022-02-10T10:59:44.000Z</time>
      </trkpt>
      <trkpt lat="47.2876" lon="-2.41346">
        <ele>-51.400001525879</ele>
        <time>2022-02-10T10:59:49.000Z</time>
      </trkpt>
      <trkpt lat="47.28752" lon="-2.41347">
        <ele>-51.400001525879</ele>
        <time>2022-02-10T10:59:52.000Z</time>
      </trkpt>
      <trkpt lat="47.28752" lon="-2.41342">
        <ele>-51.400001525879</ele>
        <time>2022-02-10T10:59:53.000Z</time>
      </trkpt>
      <trkpt lat="47.28752" lon="-2.41325">
        <ele>-51.400001525879</ele>
        <time>2022-02-10T10:59:57.000Z</time>
      </trkpt>
      <trkpt lat="47.28752" lon="-2.41321">
        <ele>-51.400001525879</ele>
        <time>2022-02-10T10:59:58.000Z</time>
      </trkpt>
      <trkpt lat="47.28753" lon="-2.41299">
        <ele>-51.400001525879</ele>
        <time>2022-02-10T11:00:03.000Z</time>
      </trkpt>
      <trkpt lat="47.28754" lon="-2.41293">
        <ele>-51.400001525879</ele>
        <time>2022-02-10T11:00:05.000Z</time>
      </trkpt>
      <trkpt lat="47.28756" lon="-2.41284">
        <ele>-51.400001525879</ele>
        <time>2022-02-10T11:00:08.000Z</time>
      </trkpt>
      <trkpt lat="47.28758" lon="-2.41283">
        <ele>-51.400001525879</ele>
        <time>2022-02-10T11:00:09.000Z</time>
      </trkpt>
      <trkpt lat="47.28765" lon="-2.41276">
        <ele>-51.400001525879</ele>
        <time>2022-02-10T11:00:12.000Z</time>
      </trkpt>
      <trkpt lat="47.28767" lon="-2.41273">
        <ele>-51.400001525879</ele>
        <time>2022-02-10T11:00:13.000Z</time>
      </trkpt>
      <trkpt lat="47.28779" lon="-2.41252">
        <ele>-51.400001525879</ele>
        <time>2022-02-10T11:00:18.000Z</time>
      </trkpt>
      <trkpt lat="47.2878" lon="-2.4124">
        <ele>-51.400001525879</ele>
        <time>2022-02-10T11:00:20.000Z</time>
      </trkpt>
      <trkpt lat="47.28777" lon="-2.41228">
        <ele>-51.400001525879</ele>
        <time>2022-02-10T11:00:22.000Z</time>
      </trkpt>
      <trkpt lat="47.28771" lon="-2.41203">
        <ele>-51.400001525879</ele>
        <time>2022-02-10T11:00:26.000Z</time>
      </trkpt>
      <trkpt lat="47.2877" lon="-2.41196">
        <ele>-51.400001525879</ele>
        <time>2022-02-10T11:00:27.000Z</time>
      </trkpt>
      <trkpt lat="47.28762" lon="-2.41161">
        <ele>-51.400001525879</ele>
        <time>2022-02-10T11:00:32.000Z</time>
      </trkpt>
      <trkpt lat="47.28748" lon="-2.41107">
        <ele>-51.400001525879</ele>
        <time>2022-02-10T11:00:39.000Z</time>
      </trkpt>
      <trkpt lat="47.28732" lon="-2.41052">
        <ele>-51.400001525879</ele>
        <time>2022-02-10T11:00:46.000Z</time>
      </trkpt>
      <trkpt lat="47.28721" lon="-2.41015">
        <ele>-51.400001525879</ele>
        <time>2022-02-10T11:00:52.000Z</time>
      </trkpt>
      <trkpt lat="47.28712" lon="-2.40982">
        <ele>-51.400001525879</ele>
        <time>2022-02-10T11:00:59.000Z</time>
      </trkpt>
      <trkpt lat="47.28707" lon="-2.40948">
        <ele>-51.400001525879</ele>
        <time>2022-02-10T11:01:05.000Z</time>
      </trkpt>
      <trkpt lat="47.28703" lon="-2.40912">
        <ele>-51.400001525879</ele>
        <time>2022-02-10T11:01:11.000Z</time>
      </trkpt>
      <trkpt lat="47.28703" lon="-2.40905">
        <ele>-51.400001525879</ele>
        <time>2022-02-10T11:01:12.000Z</time>
      </trkpt>
      <trkpt lat="47.28703" lon="-2.40893">
        <ele>-51.400001525879</ele>
        <time>2022-02-10T11:01:14.000Z</time>
      </trkpt>
      <trkpt lat="47.28704" lon="-2.40879">
        <ele>-51.400001525879</ele>
        <time>2022-02-10T11:01:17.000Z</time>
      </trkpt>
      <trkpt lat="47.28708" lon="-2.40844">
        <ele>-51.400001525879</ele>
        <time>2022-02-10T11:01:24.000Z</time>
      </trkpt>
      <trkpt lat="47.28714" lon="-2.40822">
        <ele>-51.400001525879</ele>
        <time>2022-02-10T11:01:28.000Z</time>
      </trkpt>
      <trkpt lat="47.28719" lon="-2.40804">
        <ele>-51.400001525879</ele>
        <time>2022-02-10T11:01:31.000Z</time>
      </trkpt>
      <trkpt lat="47.28739" lon="-2.4076">
        <ele>-51.400001525879</ele>
        <time>2022-02-10T11:01:39.000Z</time>
      </trkpt>
      <trkpt lat="47.28753" lon="-2.40739">
        <ele>-51.400001525879</ele>
        <time>2022-02-10T11:01:43.000Z</time>
      </trkpt>
      <trkpt lat="47.28768" lon="-2.40719">
        <ele>-51.400001525879</ele>
        <time>2022-02-10T11:01:47.000Z</time>
      </trkpt>
      <trkpt lat="47.28801" lon="-2.40686">
        <ele>-51.400001525879</ele>
        <time>2022-02-10T11:01:55.000Z</time>
      </trkpt>
      <trkpt lat="47.28834" lon="-2.4066">
        <ele>-51.400001525879</ele>
        <time>2022-02-10T11:02:03.000Z</time>
      </trkpt>
      <trkpt lat="47.28874" lon="-2.40634">
        <ele>-51.400001525879</ele>
        <time>2022-02-10T11:02:12.000Z</time>
      </trkpt>
      <trkpt lat="47.28918" lon="-2.40606">
        <ele>-51.400001525879</ele>
        <time>2022-02-10T11:02:21.000Z</time>
      </trkpt>
      <trkpt lat="47.28945" lon="-2.40587">
        <ele>-51.400001525879</ele>
        <time>2022-02-10T11:02:27.000Z</time>
      </trkpt>
      <trkpt lat="47.28987" lon="-2.40555">
        <ele>-51.400001525879</ele>
        <time>2022-02-10T11:02:36.000Z</time>
      </trkpt>
      <trkpt lat="47.2902" lon="-2.40519">
        <ele>-51.400001525879</ele>
        <time>2022-02-10T11:02:44.000Z</time>
      </trkpt>
      <trkpt lat="47.2905" lon="-2.40474">
        <ele>-51.400001525879</ele>
        <time>2022-02-10T11:02:52.000Z</time>
      </trkpt>
      <trkpt lat="47.2908" lon="-2.40416">
        <ele>-51.400001525879</ele>
        <time>2022-02-10T11:03:01.000Z</time>
      </trkpt>
      <trkpt lat="47.29098" lon="-2.40378">
        <ele>-51.400001525879</ele>
        <time>2022-02-10T11:03:07.000Z</time>
      </trkpt>
      <trkpt lat="47.2912" lon="-2.40332">
        <ele>-51.400001525879</ele>
        <time>2022-02-10T11:03:14.000Z</time>
      </trkpt>
      <trkpt lat="47.29149" lon="-2.40271">
        <ele>-51.400001525879</ele>
        <time>2022-02-10T11:03:23.000Z</time>
      </trkpt>
      <trkpt lat="47.29177" lon="-2.4021">
        <ele>-51.400001525879</ele>
        <time>2022-02-10T11:03:32.000Z</time>
      </trkpt>
      <trkpt lat="47.29206" lon="-2.40152">
        <ele>-51.400001525879</ele>
        <time>2022-02-10T11:03:40.000Z</time>
      </trkpt>
      <trkpt lat="47.29233" lon="-2.40093">
        <ele>-51.400001525879</ele>
        <time>2022-02-10T11:03:48.000Z</time>
      </trkpt>
      <trkpt lat="47.29265" lon="-2.40027">
        <ele>-51.400001525879</ele>
        <time>2022-02-10T11:03:57.000Z</time>
      </trkpt>
      <trkpt lat="47.293" lon="-2.39956">
        <ele>-51.400001525879</ele>
        <time>2022-02-10T11:04:07.000Z</time>
      </trkpt>
      <trkpt lat="47.29304" lon="-2.39949">
        <ele>-51.400001525879</ele>
        <time>2022-02-10T11:04:08.000Z</time>
      </trkpt>
      <trkpt lat="47.29324" lon="-2.39919">
        <ele>-51.400001525879</ele>
        <time>2022-02-10T11:04:13.000Z</time>
      </trkpt>
      <trkpt lat="47.29328" lon="-2.39914">
        <ele>-51.400001525879</ele>
        <time>2022-02-10T11:04:14.000Z</time>
      </trkpt>
      <trkpt lat="47.29344" lon="-2.39896">
        <ele>-51.400001525879</ele>
        <time>2022-02-10T11:04:18.000Z</time>
      </trkpt>
      <trkpt lat="47.29353" lon="-2.39888">
        <ele>-51.400001525879</ele>
        <time>2022-02-10T11:04:20.000Z</time>
      </trkpt>
      <trkpt lat="47.29365" lon="-2.39874">
        <ele>-51.400001525879</ele>
        <time>2022-02-10T11:04:23.000Z</time>
      </trkpt>
      <trkpt lat="47.29378" lon="-2.39865">
        <ele>-51.400001525879</ele>
        <time>2022-02-10T11:04:26.000Z</time>
      </trkpt>
      <trkpt lat="47.29398" lon="-2.39849">
        <ele>-51.400001525879</ele>
        <time>2022-02-10T11:04:32.000Z</time>
      </trkpt>
      <trkpt lat="47.29409" lon="-2.39842">
        <ele>-51.400001525879</ele>
        <time>2022-02-10T11:04:39.000Z</time>
      </trkpt>
      <trkpt lat="47.2941" lon="-2.3984">
        <ele>-51.400001525879</ele>
        <time>2022-02-10T11:04:40.000Z</time>
      </trkpt>
      <trkpt lat="47.29415" lon="-2.39841">
        <ele>-51.400001525879</ele>
        <time>2022-02-10T11:04:43.000Z</time>
      </trkpt>
      <trkpt lat="47.29418" lon="-2.39842">
        <ele>-51.400001525879</ele>
        <time>2022-02-10T11:04:44.000Z</time>
      </trkpt>
      <trkpt lat="47.29433" lon="-2.39845">
        <ele>-51.400001525879</ele>
        <time>2022-02-10T11:04:49.000Z</time>
      </trkpt>
      <trkpt lat="47.29441" lon="-2.39846">
        <ele>-51.400001525879</ele>
        <time>2022-02-10T11:04:54.000Z</time>
      </trkpt>
      <trkpt lat="47.29442" lon="-2.39846">
        <ele>-51.400001525879</ele>
        <time>2022-02-10T11:04:55.000Z</time>
      </trkpt>
      <trkpt lat="47.29447" lon="-2.39845">
        <ele>-51.400001525879</ele>
        <time>2022-02-10T11:06:25.000Z</time>
      </trkpt>
      <trkpt lat="47.2945" lon="-2.39844">
        <ele>-51.400001525879</ele>
        <time>2022-02-10T11:06:26.000Z</time>
      </trkpt>
      <trkpt lat="47.29461" lon="-2.39838">
        <ele>-51.400001525879</ele>
        <time>2022-02-10T11:06:30.000Z</time>
      </trkpt>
      <trkpt lat="47.29464" lon="-2.39841">
        <ele>-51.400001525879</ele>
        <time>2022-02-10T11:06:31.000Z</time>
      </trkpt>
      <trkpt lat="47.29472" lon="-2.39863">
        <ele>-51.400001525879</ele>
        <time>2022-02-10T11:06:36.000Z</time>
      </trkpt>
      <trkpt lat="47.29485" lon="-2.39889">
        <ele>-51.400001525879</ele>
        <time>2022-02-10T11:06:42.000Z</time>
      </trkpt>
      <trkpt lat="47.29487" lon="-2.39893">
        <ele>-51.400001525879</ele>
        <time>2022-02-10T11:06:43.000Z</time>
      </trkpt>
      <trkpt lat="47.29493" lon="-2.39899">
        <ele>-51.400001525879</ele>
        <time>2022-02-10T11:06:45.000Z</time>
      </trkpt>
      <trkpt lat="47.29497" lon="-2.39898">
        <ele>-51.400001525879</ele>
        <time>2022-02-10T11:06:46.000Z</time>
      </trkpt>
      <trkpt lat="47.29508" lon="-2.39883">
        <ele>-51.400001525879</ele>
        <time>2022-02-10T11:06:49.000Z</time>
      </trkpt>
      <trkpt lat="47.29512" lon="-2.39877">
        <ele>-51.400001525879</ele>
        <time>2022-02-10T11:06:50.000Z</time>
      </trkpt>
      <trkpt lat="47.2953" lon="-2.39837">
        <ele>-51.400001525879</ele>
        <time>2022-02-10T11:06:56.000Z</time>
      </trkpt>
      <trkpt lat="47.29551" lon="-2.39797">
        <ele>-51.400001525879</ele>
        <time>2022-02-10T11:07:02.000Z</time>
      </trkpt>
      <trkpt lat="47.29573" lon="-2.39746">
        <ele>-51.400001525879</ele>
        <time>2022-02-10T11:07:09.000Z</time>
      </trkpt>
      <trkpt lat="47.29576" lon="-2.3974">
        <ele>-51.400001525879</ele>
        <time>2022-02-10T11:07:10.000Z</time>
      </trkpt>
      <trkpt lat="47.2959" lon="-2.39715">
        <ele>-51.400001525879</ele>
        <time>2022-02-10T11:07:14.000Z</time>
      </trkpt>
      <trkpt lat="47.29604" lon="-2.39689">
        <ele>-51.400001525879</ele>
        <time>2022-02-10T11:07:18.000Z</time>
      </trkpt>
      <trkpt lat="47.29612" lon="-2.39677">
        <ele>-51.400001525879</ele>
        <time>2022-02-10T11:07:20.000Z</time>
      </trkpt>
      <trkpt lat="47.29622" lon="-2.39657">
        <ele>-51.400001525879</ele>
        <time>2022-02-10T11:07:23.000Z</time>
      </trkpt>
      <trkpt lat="47.29627" lon="-2.39642">
        <ele>-51.400001525879</ele>
        <time>2022-02-10T11:07:25.000Z</time>
      </trkpt>
      <trkpt lat="47.29628" lon="-2.39611">
        <ele>-51.400001525879</ele>
        <time>2022-02-10T11:07:29.000Z</time>
      </trkpt>
      <trkpt lat="47.29629" lon="-2.39584">
        <ele>-51.400001525879</ele>
        <time>2022-02-10T11:07:33.000Z</time>
      </trkpt>
      <trkpt lat="47.29627" lon="-2.39578">
        <ele>-51.400001525879</ele>
        <time>2022-02-10T11:07:34.000Z</time>
      </trkpt>
      <trkpt lat="47.2962" lon="-2.39574">
        <ele>-51.400001525879</ele>
        <time>2022-02-10T11:07:37.000Z</time>
      </trkpt>
      <trkpt lat="47.29615" lon="-2.39574">
        <ele>-51.400001525879</ele>
        <time>2022-02-10T11:07:39.000Z</time>
      </trkpt>
      <trkpt lat="47.29611" lon="-2.39572">
        <ele>-51.400001525879</ele>
        <time>2022-02-10T11:07:41.000Z</time>
      </trkpt>
      <trkpt lat="47.29611" lon="-2.3957">
        <ele>-51.400001525879</ele>
        <time>2022-02-10T11:07:42.000Z</time>
      </trkpt>
      <trkpt lat="47.29612" lon="-2.39568">
        <ele>-51</ele>
        <time>2022-02-10T11:07:43.000Z</time>
      </trkpt>
      <trkpt lat="47.29614" lon="-2.39567">
        <ele>-50.599998474121</ele>
        <time>2022-02-10T11:07:44.000Z</time>
      </trkpt>
      <trkpt lat="47.29616" lon="-2.39566">
        <ele>-50.200000762939</ele>
        <time>2022-02-10T11:07:45.000Z</time>
      </trkpt>
      <trkpt lat="47.29618" lon="-2.39566">
        <ele>-49.599998474121</ele>
        <time>2022-02-10T11:07:46.000Z</time>
      </trkpt>
      <trkpt lat="47.29621" lon="-2.39565">
        <ele>-49.200000762939</ele>
        <time>2022-02-10T11:07:47.000Z</time>
      </trkpt>
      <trkpt lat="47.29624" lon="-2.39559">
        <ele>-49.200000762939</ele>
        <time>2022-02-10T11:07:50.000Z</time>
      </trkpt>
      <trkpt lat="47.29618" lon="-2.39555">
        <ele>-48.799999237061</ele>
        <time>2022-02-10T11:07:53.000Z</time>
      </trkpt>
      <trkpt lat="47.29615" lon="-2.39556">
        <ele>-48</ele>
        <time>2022-02-10T11:07:54.000Z</time>
      </trkpt>
      <trkpt lat="47.29611" lon="-2.39556">
        <ele>-47.599998474121</ele>
        <time>2022-02-10T11:07:55.000Z</time>
      </trkpt>
      <trkpt lat="47.29608" lon="-2.39556">
        <ele>-47.200000762939</ele>
        <time>2022-02-10T11:07:56.000Z</time>
      </trkpt>
      <trkpt lat="47.29604" lon="-2.39555">
        <ele>-47.200000762939</ele>
        <time>2022-02-10T11:07:57.000Z</time>
      </trkpt>
      <trkpt lat="47.29591" lon="-2.39552">
        <ele>-46.799999237061</ele>
        <time>2022-02-10T11:08:02.000Z</time>
      </trkpt>
      <trkpt lat="47.29588" lon="-2.39552">
        <ele>-46.400001525879</ele>
        <time>2022-02-10T11:08:03.000Z</time>
      </trkpt>
      <trkpt lat="47.29585" lon="-2.39551">
        <ele>-46</ele>
        <time>2022-02-10T11:08:04.000Z</time>
      </trkpt>
      <trkpt lat="47.29582" lon="-2.3955">
        <ele>-45.599998474121</ele>
        <time>2022-02-10T11:08:05.000Z</time>
      </trkpt>
      <trkpt lat="47.29578" lon="-2.39549">
        <ele>-45.200000762939</ele>
        <time>2022-02-10T11:08:06.000Z</time>
      </trkpt>
      <trkpt lat="47.29568" lon="-2.39547">
        <ele>-45.200000762939</ele>
        <time>2022-02-10T11:08:08.000Z</time>
      </trkpt>
      <trkpt lat="47.29536" lon="-2.39539">
        <ele>-45.599998474121</ele>
        <time>2022-02-10T11:08:13.000Z</time>
      </trkpt>
      <trkpt lat="47.29529" lon="-2.39537">
        <ele>-46.200000762939</ele>
        <time>2022-02-10T11:08:14.000Z</time>
      </trkpt>
      <trkpt lat="47.29521" lon="-2.39535">
        <ele>-46.599998474121</ele>
        <time>2022-02-10T11:08:15.000Z</time>
      </trkpt>
      <trkpt lat="47.29513" lon="-2.39534">
        <ele>-47</ele>
        <time>2022-02-10T11:08:16.000Z</time>
      </trkpt>
      <trkpt lat="47.29506" lon="-2.39532">
        <ele>-47.400001525879</ele>
        <time>2022-02-10T11:08:17.000Z</time>
      </trkpt>
      <trkpt lat="47.29484" lon="-2.39528">
        <ele>-47.400001525879</ele>
        <time>2022-02-10T11:08:20.000Z</time>
      </trkpt>
      <trkpt lat="47.29477" lon="-2.39526">
        <ele>-48</ele>
        <time>2022-02-10T11:08:21.000Z</time>
      </trkpt>
      <trkpt lat="47.2947" lon="-2.39525">
        <ele>-48.400001525879</ele>
        <time>2022-02-10T11:08:22.000Z</time>
      </trkpt>
      <trkpt lat="47.29463" lon="-2.39524">
        <ele>-48.799999237061</ele>
        <time>2022-02-10T11:08:23.000Z</time>
      </trkpt>
      <trkpt lat="47.29456" lon="-2.39523">
        <ele>-49.200000762939</ele>
        <time>2022-02-10T11:08:24.000Z</time>
      </trkpt>
      <trkpt lat="47.29449" lon="-2.39522">
        <ele>-49.599998474121</ele>
        <time>2022-02-10T11:08:25.000Z</time>
      </trkpt>
      <trkpt lat="47.2943" lon="-2.39518">
        <ele>-49.599998474121</ele>
        <time>2022-02-10T11:08:28.000Z</time>
      </trkpt>
      <trkpt lat="47.29377" lon="-2.39507">
        <ele>-49.599998474121</ele>
        <time>2022-02-10T11:08:36.000Z</time>
      </trkpt>
      <trkpt lat="47.29328" lon="-2.39497">
        <ele>-49.599998474121</ele>
        <time>2022-02-10T11:08:44.000Z</time>
      </trkpt>
      <trkpt lat="47.29278" lon="-2.39487">
        <ele>-49.599998474121</ele>
        <time>2022-02-10T11:08:52.000Z</time>
      </trkpt>
      <trkpt lat="47.29235" lon="-2.39478">
        <ele>-49.599998474121</ele>
        <time>2022-02-10T11:08:59.000Z</time>
      </trkpt>
      <trkpt lat="47.29189" lon="-2.39469">
        <ele>-49.599998474121</ele>
        <time>2022-02-10T11:09:07.000Z</time>
      </trkpt>
      <trkpt lat="47.29156" lon="-2.39462">
        <ele>-49.599998474121</ele>
        <time>2022-02-10T11:09:13.000Z</time>
      </trkpt>
      <trkpt lat="47.2915" lon="-2.39462">
        <ele>-49.599998474121</ele>
        <time>2022-02-10T11:09:14.000Z</time>
      </trkpt>
      <trkpt lat="47.29139" lon="-2.3946">
        <ele>-49.599998474121</ele>
        <time>2022-02-10T11:09:17.000Z</time>
      </trkpt>
      <trkpt lat="47.29137" lon="-2.39446">
        <ele>-49.599998474121</ele>
        <time>2022-02-10T11:09:20.000Z</time>
      </trkpt>
      <trkpt lat="47.29133" lon="-2.39428">
        <ele>-49.599998474121</ele>
        <time>2022-02-10T11:09:23.000Z</time>
      </trkpt>
      <trkpt lat="47.29131" lon="-2.39421">
        <ele>-49.599998474121</ele>
        <time>2022-02-10T11:09:24.000Z</time>
      </trkpt>
      <trkpt lat="47.29131" lon="-2.39387">
        <ele>-49.599998474121</ele>
        <time>2022-02-10T11:09:28.000Z</time>
      </trkpt>
      <trkpt lat="47.29124" lon="-2.39368">
        <ele>-49.599998474121</ele>
        <time>2022-02-10T11:09:31.000Z</time>
      </trkpt>
      <trkpt lat="47.29114" lon="-2.3937">
        <ele>-49.599998474121</ele>
        <time>2022-02-10T11:09:33.000Z</time>
      </trkpt>
      <trkpt lat="47.29095" lon="-2.39381">
        <ele>-49.599998474121</ele>
        <time>2022-02-10T11:09:37.000Z</time>
      </trkpt>
      <trkpt lat="47.2908" lon="-2.3937">
        <ele>-49.599998474121</ele>
        <time>2022-02-10T11:09:40.000Z</time>
      </trkpt>
      <trkpt lat="47.29062" lon="-2.39357">
        <ele>-49.599998474121</ele>
        <time>2022-02-10T11:09:43.000Z</time>
      </trkpt>
      <trkpt lat="47.29005" lon="-2.39329">
        <ele>-49.599998474121</ele>
        <time>2022-02-10T11:09:51.000Z</time>
      </trkpt>
      <trkpt lat="47.2899" lon="-2.39323">
        <ele>-49.599998474121</ele>
        <time>2022-02-10T11:09:53.000Z</time>
      </trkpt>
      <trkpt lat="47.2897" lon="-2.39319">
        <ele>-49.599998474121</ele>
        <time>2022-02-10T11:09:56.000Z</time>
      </trkpt>
      <trkpt lat="47.28948" lon="-2.39318">
        <ele>-49.599998474121</ele>
        <time>2022-02-10T11:10:00.000Z</time>
      </trkpt>
      <trkpt lat="47.28944" lon="-2.39314">
        <ele>-49.599998474121</ele>
        <time>2022-02-10T11:10:01.000Z</time>
      </trkpt>
      <trkpt lat="47.28937" lon="-2.39292">
        <ele>-49.599998474121</ele>
        <time>2022-02-10T11:10:04.000Z</time>
      </trkpt>
      <trkpt lat="47.28935" lon="-2.39283">
        <ele>-49.599998474121</ele>
        <time>2022-02-10T11:10:05.000Z</time>
      </trkpt>
      <trkpt lat="47.28933" lon="-2.39266">
        <ele>-49.599998474121</ele>
        <time>2022-02-10T11:10:07.000Z</time>
      </trkpt>
      <trkpt lat="47.28931" lon="-2.39239">
        <ele>-49.599998474121</ele>
        <time>2022-02-10T11:10:10.000Z</time>
      </trkpt>
      <trkpt lat="47.2893" lon="-2.39174">
        <ele>-49.599998474121</ele>
        <time>2022-02-10T11:10:17.000Z</time>
      </trkpt>
      <trkpt lat="47.28931" lon="-2.39156">
        <ele>-49.599998474121</ele>
        <time>2022-02-10T11:10:19.000Z</time>
      </trkpt>
      <trkpt lat="47.28934" lon="-2.39128">
        <ele>-49.599998474121</ele>
        <time>2022-02-10T11:10:22.000Z</time>
      </trkpt>
      <trkpt lat="47.28942" lon="-2.39066">
        <ele>-49.599998474121</ele>
        <time>2022-02-10T11:10:29.000Z</time>
      </trkpt>
      <trkpt lat="47.28948" lon="-2.39003">
        <ele>-49.599998474121</ele>
        <time>2022-02-10T11:10:36.000Z</time>
      </trkpt>
      <trkpt lat="47.28953" lon="-2.38929">
        <ele>-49.599998474121</ele>
        <time>2022-02-10T11:10:44.000Z</time>
      </trkpt>
      <trkpt lat="47.28957" lon="-2.38867">
        <ele>-49.599998474121</ele>
        <time>2022-02-10T11:10:51.000Z</time>
      </trkpt>
      <trkpt lat="47.28958" lon="-2.38821">
        <ele>-49.599998474121</ele>
        <time>2022-02-10T11:10:56.000Z</time>
      </trkpt>
      <trkpt lat="47.28958" lon="-2.38759">
        <ele>-49.599998474121</ele>
        <time>2022-02-10T11:11:03.000Z</time>
      </trkpt>
      <trkpt lat="47.28957" lon="-2.3869">
        <ele>-49.599998474121</ele>
        <time>2022-02-10T11:11:10.000Z</time>
      </trkpt>
      <trkpt lat="47.28956" lon="-2.3861">
        <ele>-49.599998474121</ele>
        <time>2022-02-10T11:11:18.000Z</time>
      </trkpt>
      <trkpt lat="47.28951" lon="-2.38546">
        <ele>-49.599998474121</ele>
        <time>2022-02-10T11:11:24.000Z</time>
      </trkpt>
      <trkpt lat="47.28943" lon="-2.38472">
        <ele>-49.599998474121</ele>
        <time>2022-02-10T11:11:31.000Z</time>
      </trkpt>
      <trkpt lat="47.28938" lon="-2.38407">
        <ele>-49.599998474121</ele>
        <time>2022-02-10T11:11:38.000Z</time>
      </trkpt>
      <trkpt lat="47.28933" lon="-2.38332">
        <ele>-49.599998474121</ele>
        <time>2022-02-10T11:11:46.000Z</time>
      </trkpt>
      <trkpt lat="47.28932" lon="-2.38314">
        <ele>-49.599998474121</ele>
        <time>2022-02-10T11:11:48.000Z</time>
      </trkpt>
      <trkpt lat="47.28932" lon="-2.38287">
        <ele>-49.599998474121</ele>
        <time>2022-02-10T11:11:51.000Z</time>
      </trkpt>
      <trkpt lat="47.28935" lon="-2.38244">
        <ele>-49.599998474121</ele>
        <time>2022-02-10T11:11:56.000Z</time>
      </trkpt>
      <trkpt lat="47.28926" lon="-2.38225">
        <ele>-49.599998474121</ele>
        <time>2022-02-10T11:11:59.000Z</time>
      </trkpt>
      <trkpt lat="47.28916" lon="-2.38217">
        <ele>-49.599998474121</ele>
        <time>2022-02-10T11:12:01.000Z</time>
      </trkpt>
      <trkpt lat="47.28903" lon="-2.38204">
        <ele>-49.599998474121</ele>
        <time>2022-02-10T11:12:04.000Z</time>
      </trkpt>
      <trkpt lat="47.28898" lon="-2.38182">
        <ele>-49.599998474121</ele>
        <time>2022-02-10T11:12:07.000Z</time>
      </trkpt>
      <trkpt lat="47.289" lon="-2.38164">
        <ele>-49.599998474121</ele>
        <time>2022-02-10T11:12:09.000Z</time>
      </trkpt>
      <trkpt lat="47.28902" lon="-2.38136">
        <ele>-49.599998474121</ele>
        <time>2022-02-10T11:12:12.000Z</time>
      </trkpt>
      <trkpt lat="47.28906" lon="-2.38059">
        <ele>-49.599998474121</ele>
        <time>2022-02-10T11:12:20.000Z</time>
      </trkpt>
      <trkpt lat="47.28909" lon="-2.38003">
        <ele>-49.599998474121</ele>
        <time>2022-02-10T11:12:26.000Z</time>
      </trkpt>
      <trkpt lat="47.28914" lon="-2.37942">
        <ele>-49.599998474121</ele>
        <time>2022-02-10T11:12:33.000Z</time>
      </trkpt>
      <trkpt lat="47.28918" lon="-2.37875">
        <ele>-49.599998474121</ele>
        <time>2022-02-10T11:12:41.000Z</time>
      </trkpt>
      <trkpt lat="47.28919" lon="-2.3786">
        <ele>-49.599998474121</ele>
        <time>2022-02-10T11:12:43.000Z</time>
      </trkpt>
      <trkpt lat="47.2892" lon="-2.37828">
        <ele>-49.599998474121</ele>
        <time>2022-02-10T11:12:47.000Z</time>
      </trkpt>
      <trkpt lat="47.28923" lon="-2.37797">
        <ele>-49.599998474121</ele>
        <time>2022-02-10T11:12:51.000Z</time>
      </trkpt>
      <trkpt lat="47.28926" lon="-2.37783">
        <ele>-49.599998474121</ele>
        <time>2022-02-10T11:12:53.000Z</time>
      </trkpt>
      <trkpt lat="47.28927" lon="-2.37775">
        <ele>-49.599998474121</ele>
        <time>2022-02-10T11:12:54.000Z</time>
      </trkpt>
      <trkpt lat="47.28929" lon="-2.37746">
        <ele>-49.599998474121</ele>
        <time>2022-02-10T11:12:58.000Z</time>
      </trkpt>
      <trkpt lat="47.28932" lon="-2.37703">
        <ele>-49.599998474121</ele>
        <time>2022-02-10T11:13:04.000Z</time>
      </trkpt>
      <trkpt lat="47.28933" lon="-2.37696">
        <ele>-49.599998474121</ele>
        <time>2022-02-10T11:13:05.000Z</time>
      </trkpt>
      <trkpt lat="47.28934" lon="-2.37676">
        <ele>-49.599998474121</ele>
        <time>2022-02-10T11:13:08.000Z</time>
      </trkpt>
      <trkpt lat="47.28934" lon="-2.3767">
        <ele>-49.599998474121</ele>
        <time>2022-02-10T11:13:09.000Z</time>
      </trkpt>
      <trkpt lat="47.28928" lon="-2.37649">
        <ele>-49.599998474121</ele>
        <time>2022-02-10T11:13:13.000Z</time>
      </trkpt>
      <trkpt lat="47.28915" lon="-2.37647">
        <ele>-49.599998474121</ele>
        <time>2022-02-10T11:13:16.000Z</time>
      </trkpt>
      <trkpt lat="47.28905" lon="-2.3765">
        <ele>-49.599998474121</ele>
        <time>2022-02-10T11:13:18.000Z</time>
      </trkpt>
      <trkpt lat="47.28901" lon="-2.37651">
        <ele>-49.599998474121</ele>
        <time>2022-02-10T11:13:19.000Z</time>
      </trkpt>
      <trkpt lat="47.28887" lon="-2.37653">
        <ele>-49.599998474121</ele>
        <time>2022-02-10T11:13:22.000Z</time>
      </trkpt>
      <trkpt lat="47.28866" lon="-2.37656">
        <ele>-49.599998474121</ele>
        <time>2022-02-10T11:13:27.000Z</time>
      </trkpt>
      <trkpt lat="47.28861" lon="-2.37653">
        <ele>-49.599998474121</ele>
        <time>2022-02-10T11:13:28.000Z</time>
      </trkpt>
      <trkpt lat="47.28854" lon="-2.37636">
        <ele>-49.599998474121</ele>
        <time>2022-02-10T11:13:31.000Z</time>
      </trkpt>
      <trkpt lat="47.28852" lon="-2.37629">
        <ele>-49.599998474121</ele>
        <time>2022-02-10T11:13:32.000Z</time>
      </trkpt>
      <trkpt lat="47.2885" lon="-2.37622">
        <ele>-49.599998474121</ele>
        <time>2022-02-10T11:13:33.000Z</time>
      </trkpt>
      <trkpt lat="47.28851" lon="-2.37602">
        <ele>-49.599998474121</ele>
        <time>2022-02-10T11:13:36.000Z</time>
      </trkpt>
      <trkpt lat="47.28854" lon="-2.3759">
        <ele>-49.599998474121</ele>
        <time>2022-02-10T11:13:38.000Z</time>
      </trkpt>
      <trkpt lat="47.28856" lon="-2.37584">
        <ele>-49.599998474121</ele>
        <time>2022-02-10T11:13:39.000Z</time>
      </trkpt>
      <trkpt lat="47.28861" lon="-2.37571">
        <ele>-49.599998474121</ele>
        <time>2022-02-10T11:13:41.000Z</time>
      </trkpt>
      <trkpt lat="47.28873" lon="-2.37551">
        <ele>-49.599998474121</ele>
        <time>2022-02-10T11:13:45.000Z</time>
      </trkpt>
      <trkpt lat="47.28876" lon="-2.37545">
        <ele>-49.599998474121</ele>
        <time>2022-02-10T11:13:46.000Z</time>
      </trkpt>
      <trkpt lat="47.28879" lon="-2.37539">
        <ele>-49.599998474121</ele>
        <time>2022-02-10T11:13:47.000Z</time>
      </trkpt>
      <trkpt lat="47.28879" lon="-2.37526">
        <ele>-49.200000762939</ele>
        <time>2022-02-10T11:13:49.000Z</time>
      </trkpt>
      <trkpt lat="47.28878" lon="-2.3752">
        <ele>-48.799999237061</ele>
        <time>2022-02-10T11:13:50.000Z</time>
      </trkpt>
      <trkpt lat="47.28878" lon="-2.37513">
        <ele>-48.400001525879</ele>
        <time>2022-02-10T11:13:51.000Z</time>
      </trkpt>
      <trkpt lat="47.28877" lon="-2.37507">
        <ele>-48</ele>
        <time>2022-02-10T11:13:52.000Z</time>
      </trkpt>
      <trkpt lat="47.28876" lon="-2.375">
        <ele>-47.599998474121</ele>
        <time>2022-02-10T11:13:53.000Z</time>
      </trkpt>
      <trkpt lat="47.28874" lon="-2.37476">
        <ele>-47.599998474121</ele>
        <time>2022-02-10T11:13:56.000Z</time>
      </trkpt>
      <trkpt lat="47.2887" lon="-2.37438">
        <ele>-47.599998474121</ele>
        <time>2022-02-10T11:14:01.000Z</time>
      </trkpt>
      <trkpt lat="47.28863" lon="-2.37381">
        <ele>-47.599998474121</ele>
        <time>2022-02-10T11:14:08.000Z</time>
      </trkpt>
      <trkpt lat="47.2886" lon="-2.37355">
        <ele>-47.599998474121</ele>
        <time>2022-02-10T11:14:11.000Z</time>
      </trkpt>
      <trkpt lat="47.28857" lon="-2.37331">
        <ele>-47.599998474121</ele>
        <time>2022-02-10T11:14:14.000Z</time>
      </trkpt>
      <trkpt lat="47.28853" lon="-2.37279">
        <ele>-47.599998474121</ele>
        <time>2022-02-10T11:14:20.000Z</time>
      </trkpt>
      <trkpt lat="47.2885" lon="-2.37254">
        <ele>-47.599998474121</ele>
        <time>2022-02-10T11:14:23.000Z</time>
      </trkpt>
      <trkpt lat="47.28844" lon="-2.37239">
        <ele>-47.599998474121</ele>
        <time>2022-02-10T11:14:25.000Z</time>
      </trkpt>
      <trkpt lat="47.28841" lon="-2.37231">
        <ele>-47.599998474121</ele>
        <time>2022-02-10T11:14:26.000Z</time>
      </trkpt>
      <trkpt lat="47.28835" lon="-2.37202">
        <ele>-47.599998474121</ele>
        <time>2022-02-10T11:14:30.000Z</time>
      </trkpt>
      <trkpt lat="47.2883" lon="-2.37166">
        <ele>-47.200000762939</ele>
        <time>2022-02-10T11:14:35.000Z</time>
      </trkpt>
      <trkpt lat="47.28829" lon="-2.3716">
        <ele>-46.799999237061</ele>
        <time>2022-02-10T11:14:36.000Z</time>
      </trkpt>
      <trkpt lat="47.28827" lon="-2.37153">
        <ele>-46.400001525879</ele>
        <time>2022-02-10T11:14:37.000Z</time>
      </trkpt>
      <trkpt lat="47.28826" lon="-2.37147">
        <ele>-46</ele>
        <time>2022-02-10T11:14:38.000Z</time>
      </trkpt>
      <trkpt lat="47.28826" lon="-2.37141">
        <ele>-45.599998474121</ele>
        <time>2022-02-10T11:14:39.000Z</time>
      </trkpt>
      <trkpt lat="47.28826" lon="-2.37131">
        <ele>-45.599998474121</ele>
        <time>2022-02-10T11:14:41.000Z</time>
      </trkpt>
      <trkpt lat="47.28828" lon="-2.37114">
        <ele>-45.599998474121</ele>
        <time>2022-02-10T11:14:46.000Z</time>
      </trkpt>
      <trkpt lat="47.28826" lon="-2.37115">
        <ele>-45.599998474121</ele>
        <time>2022-02-10T11:14:49.000Z</time>
      </trkpt>
      <trkpt lat="47.28825" lon="-2.37116">
        <ele>-45.599998474121</ele>
        <time>2022-02-10T11:14:50.000Z</time>
      </trkpt>
      <trkpt lat="47.28823" lon="-2.37119">
        <ele>-45.200000762939</ele>
        <time>2022-02-10T11:14:52.000Z</time>
      </trkpt>
      <trkpt lat="47.2882" lon="-2.3712">
        <ele>-44.599998474121</ele>
        <time>2022-02-10T11:14:53.000Z</time>
      </trkpt>
      <trkpt lat="47.28818" lon="-2.3712">
        <ele>-43.799999237061</ele>
        <time>2022-02-10T11:14:54.000Z</time>
      </trkpt>
      <trkpt lat="47.28815" lon="-2.37121">
        <ele>-43.200000762939</ele>
        <time>2022-02-10T11:14:55.000Z</time>
      </trkpt>
      <trkpt lat="47.2881" lon="-2.37121">
        <ele>-42.799999237061</ele>
        <time>2022-02-10T11:14:57.000Z</time>
      </trkpt>
      <trkpt lat="47.28808" lon="-2.3712">
        <ele>-42.200000762939</ele>
        <time>2022-02-10T11:14:58.000Z</time>
      </trkpt>
      <trkpt lat="47.28807" lon="-2.37119">
        <ele>-41.799999237061</ele>
        <time>2022-02-10T11:14:59.000Z</time>
      </trkpt>
      <trkpt lat="47.28805" lon="-2.37118">
        <ele>-41.400001525879</ele>
        <time>2022-02-10T11:15:00.000Z</time>
      </trkpt>
      <trkpt lat="47.28803" lon="-2.37116">
        <ele>-40.799999237061</ele>
        <time>2022-02-10T11:15:01.000Z</time>
      </trkpt>
      <trkpt lat="47.28799" lon="-2.37105">
        <ele>-40.799999237061</ele>
        <time>2022-02-10T11:15:05.000Z</time>
      </trkpt>
      <trkpt lat="47.28798" lon="-2.37101">
        <ele>-40.400001525879</ele>
        <time>2022-02-10T11:15:06.000Z</time>
      </trkpt>
      <trkpt lat="47.28797" lon="-2.37098">
        <ele>-40</ele>
        <time>2022-02-10T11:15:07.000Z</time>
      </trkpt>
      <trkpt lat="47.28797" lon="-2.37094">
        <ele>-39.599998474121</ele>
        <time>2022-02-10T11:15:08.000Z</time>
      </trkpt>
      <trkpt lat="47.28797" lon="-2.37091">
        <ele>-39.200000762939</ele>
        <time>2022-02-10T11:15:09.000Z</time>
      </trkpt>
      <trkpt lat="47.28796" lon="-2.37087">
        <ele>-38.799999237061</ele>
        <time>2022-02-10T11:15:10.000Z</time>
      </trkpt>
      <trkpt lat="47.28795" lon="-2.37081">
        <ele>-38.400001525879</ele>
        <time>2022-02-10T11:15:12.000Z</time>
      </trkpt>
      <trkpt lat="47.28793" lon="-2.37078">
        <ele>-38</ele>
        <time>2022-02-10T11:15:13.000Z</time>
      </trkpt>
      <trkpt lat="47.28792" lon="-2.37075">
        <ele>-37.599998474121</ele>
        <time>2022-02-10T11:15:14.000Z</time>
      </trkpt>
      <trkpt lat="47.2879" lon="-2.37071">
        <ele>-37.200000762939</ele>
        <time>2022-02-10T11:15:15.000Z</time>
      </trkpt>
      <trkpt lat="47.28789" lon="-2.37066">
        <ele>-36.799999237061</ele>
        <time>2022-02-10T11:15:16.000Z</time>
      </trkpt>
      <trkpt lat="47.28786" lon="-2.37055">
        <ele>-36.400001525879</ele>
        <time>2022-02-10T11:15:19.000Z</time>
      </trkpt>
      <trkpt lat="47.28784" lon="-2.37051">
        <ele>-35.799999237061</ele>
        <time>2022-02-10T11:15:20.000Z</time>
      </trkpt>
      <trkpt lat="47.28782" lon="-2.37047">
        <ele>-35.400001525879</ele>
        <time>2022-02-10T11:15:21.000Z</time>
      </trkpt>
      <trkpt lat="47.28781" lon="-2.37043">
        <ele>-35</ele>
        <time>2022-02-10T11:15:22.000Z</time>
      </trkpt>
      <trkpt lat="47.28779" lon="-2.37037">
        <ele>-34.599998474121</ele>
        <time>2022-02-10T11:15:23.000Z</time>
      </trkpt>
      <trkpt lat="47.28773" lon="-2.37024">
        <ele>-34.599998474121</ele>
        <time>2022-02-10T11:15:26.000Z</time>
      </trkpt>
      <trkpt lat="47.28761" lon="-2.37006">
        <ele>-34.599998474121</ele>
        <time>2022-02-10T11:15:32.000Z</time>
      </trkpt>
      <trkpt lat="47.28756" lon="-2.3698">
        <ele>-34.599998474121</ele>
        <time>2022-02-10T11:15:37.000Z</time>
      </trkpt>
      <trkpt lat="47.28747" lon="-2.36953">
        <ele>-35.200000762939</ele>
        <time>2022-02-10T11:15:40.000Z</time>
      </trkpt>
      <trkpt lat="47.28742" lon="-2.36946">
        <ele>-35.599998474121</ele>
        <time>2022-02-10T11:15:41.000Z</time>
      </trkpt>
      <trkpt lat="47.28737" lon="-2.36941">
        <ele>-36.200000762939</ele>
        <time>2022-02-10T11:15:42.000Z</time>
      </trkpt>
      <trkpt lat="47.28731" lon="-2.36935">
        <ele>-37.200000762939</ele>
        <time>2022-02-10T11:15:43.000Z</time>
      </trkpt>
      <trkpt lat="47.28727" lon="-2.36929">
        <ele>-37.200000762939</ele>
        <time>2022-02-10T11:15:44.000Z</time>
      </trkpt>
      <trkpt lat="47.2872" lon="-2.36921">
        <ele>-37.200000762939</ele>
        <time>2022-02-10T11:15:46.000Z</time>
      </trkpt>
      <trkpt lat="47.28706" lon="-2.36892">
        <ele>-37.200000762939</ele>
        <time>2022-02-10T11:15:53.000Z</time>
      </trkpt>
      <trkpt lat="47.28694" lon="-2.36863">
        <ele>-37.200000762939</ele>
        <time>2022-02-10T11:15:58.000Z</time>
      </trkpt>
      <trkpt lat="47.28685" lon="-2.36844">
        <ele>-36.599998474121</ele>
        <time>2022-02-10T11:16:02.000Z</time>
      </trkpt>
      <trkpt lat="47.28682" lon="-2.36838">
        <ele>-36.200000762939</ele>
        <time>2022-02-10T11:16:03.000Z</time>
      </trkpt>
      <trkpt lat="47.2868" lon="-2.36832">
        <ele>-35.799999237061</ele>
        <time>2022-02-10T11:16:04.000Z</time>
      </trkpt>
      <trkpt lat="47.28677" lon="-2.36825">
        <ele>-35.400001525879</ele>
        <time>2022-02-10T11:16:05.000Z</time>
      </trkpt>
      <trkpt lat="47.28675" lon="-2.3682">
        <ele>-35</ele>
        <time>2022-02-10T11:16:06.000Z</time>
      </trkpt>
      <trkpt lat="47.28667" lon="-2.36806">
        <ele>-35</ele>
        <time>2022-02-10T11:16:09.000Z</time>
      </trkpt>
      <trkpt lat="47.28654" lon="-2.3681">
        <ele>-35</ele>
        <time>2022-02-10T11:16:12.000Z</time>
      </trkpt>
      <trkpt lat="47.28649" lon="-2.36813">
        <ele>-35</ele>
        <time>2022-02-10T11:16:13.000Z</time>
      </trkpt>
      <trkpt lat="47.28624" lon="-2.36836">
        <ele>-35</ele>
        <time>2022-02-10T11:16:18.000Z</time>
      </trkpt>
      <trkpt lat="47.28613" lon="-2.36845">
        <ele>-35</ele>
        <time>2022-02-10T11:16:20.000Z</time>
      </trkpt>
      <trkpt lat="47.28601" lon="-2.36847">
        <ele>-35</ele>
        <time>2022-02-10T11:16:22.000Z</time>
      </trkpt>
      <trkpt lat="47.28587" lon="-2.36832">
        <ele>-35</ele>
        <time>2022-02-10T11:16:25.000Z</time>
      </trkpt>
      <trkpt lat="47.28584" lon="-2.36825">
        <ele>-35</ele>
        <time>2022-02-10T11:16:26.000Z</time>
      </trkpt>
      <trkpt lat="47.28575" lon="-2.36806">
        <ele>-35</ele>
        <time>2022-02-10T11:16:29.000Z</time>
      </trkpt>
      <trkpt lat="47.28569" lon="-2.36793">
        <ele>-35</ele>
        <time>2022-02-10T11:16:31.000Z</time>
      </trkpt>
      <trkpt lat="47.28549" lon="-2.36756">
        <ele>-35</ele>
        <time>2022-02-10T11:16:37.000Z</time>
      </trkpt>
      <trkpt lat="47.28529" lon="-2.36717">
        <ele>-35</ele>
        <time>2022-02-10T11:16:44.000Z</time>
      </trkpt>
      <trkpt lat="47.28527" lon="-2.36712">
        <ele>-34.599998474121</ele>
        <time>2022-02-10T11:16:45.000Z</time>
      </trkpt>
      <trkpt lat="47.28525" lon="-2.36707">
        <ele>-34.200000762939</ele>
        <time>2022-02-10T11:16:46.000Z</time>
      </trkpt>
      <trkpt lat="47.28523" lon="-2.36702">
        <ele>-33.799999237061</ele>
        <time>2022-02-10T11:16:47.000Z</time>
      </trkpt>
      <trkpt lat="47.28521" lon="-2.36698">
        <ele>-33.400001525879</ele>
        <time>2022-02-10T11:16:48.000Z</time>
      </trkpt>
      <trkpt lat="47.28519" lon="-2.36695">
        <ele>-32.799999237061</ele>
        <time>2022-02-10T11:16:49.000Z</time>
      </trkpt>
      <trkpt lat="47.28511" lon="-2.36685">
        <ele>-32.400001525879</ele>
        <time>2022-02-10T11:16:53.000Z</time>
      </trkpt>
      <trkpt lat="47.28508" lon="-2.36683">
        <ele>-32</ele>
        <time>2022-02-10T11:16:54.000Z</time>
      </trkpt>
      <trkpt lat="47.28504" lon="-2.36679">
        <ele>-31.60000038147</ele>
        <time>2022-02-10T11:16:55.000Z</time>
      </trkpt>
      <trkpt lat="47.28501" lon="-2.36674">
        <ele>-31.200000762939</ele>
        <time>2022-02-10T11:16:56.000Z</time>
      </trkpt>
      <trkpt lat="47.28498" lon="-2.36669">
        <ele>-30.799999237061</ele>
        <time>2022-02-10T11:16:57.000Z</time>
      </trkpt>
      <trkpt lat="47.28496" lon="-2.36663">
        <ele>-30.799999237061</ele>
        <time>2022-02-10T11:16:58.000Z</time>
      </trkpt>
      <trkpt lat="47.28492" lon="-2.3665">
        <ele>-30.799999237061</ele>
        <time>2022-02-10T11:17:00.000Z</time>
      </trkpt>
      <trkpt lat="47.28488" lon="-2.36638">
        <ele>-30.799999237061</ele>
        <time>2022-02-10T11:17:02.000Z</time>
      </trkpt>
      <trkpt lat="47.28487" lon="-2.36632">
        <ele>-30.799999237061</ele>
        <time>2022-02-10T11:17:03.000Z</time>
      </trkpt>
      <trkpt lat="47.28473" lon="-2.36587">
        <ele>-30.799999237061</ele>
        <time>2022-02-10T11:17:10.000Z</time>
      </trkpt>
      <trkpt lat="47.28472" lon="-2.36573">
        <ele>-30.799999237061</ele>
        <time>2022-02-10T11:17:12.000Z</time>
      </trkpt>
      <trkpt lat="47.28473" lon="-2.36566">
        <ele>-30.799999237061</ele>
        <time>2022-02-10T11:17:13.000Z</time>
      </trkpt>
      <trkpt lat="47.28483" lon="-2.3655">
        <ele>-30.799999237061</ele>
        <time>2022-02-10T11:17:16.000Z</time>
      </trkpt>
      <trkpt lat="47.28487" lon="-2.36545">
        <ele>-30.799999237061</ele>
        <time>2022-02-10T11:17:17.000Z</time>
      </trkpt>
      <trkpt lat="47.28498" lon="-2.36532">
        <ele>-30.39999961853</ele>
        <time>2022-02-10T11:17:20.000Z</time>
      </trkpt>
      <trkpt lat="47.28502" lon="-2.36528">
        <ele>-30</ele>
        <time>2022-02-10T11:17:21.000Z</time>
      </trkpt>
      <trkpt lat="47.28506" lon="-2.36525">
        <ele>-29.200000762939</ele>
        <time>2022-02-10T11:17:22.000Z</time>
      </trkpt>
      <trkpt lat="47.28509" lon="-2.36521">
        <ele>-28.799999237061</ele>
        <time>2022-02-10T11:17:23.000Z</time>
      </trkpt>
      <trkpt lat="47.28517" lon="-2.36511">
        <ele>-28.799999237061</ele>
        <time>2022-02-10T11:17:26.000Z</time>
      </trkpt>
      <trkpt lat="47.28522" lon="-2.36504">
        <ele>-28.799999237061</ele>
        <time>2022-02-10T11:17:28.000Z</time>
      </trkpt>
      <trkpt lat="47.28521" lon="-2.36499">
        <ele>-28.799999237061</ele>
        <time>2022-02-10T11:17:29.000Z</time>
      </trkpt>
      <trkpt lat="47.2852" lon="-2.36494">
        <ele>-28.39999961853</ele>
        <time>2022-02-10T11:17:30.000Z</time>
      </trkpt>
      <trkpt lat="47.28519" lon="-2.36489">
        <ele>-27.799999237061</ele>
        <time>2022-02-10T11:17:31.000Z</time>
      </trkpt>
      <trkpt lat="47.28519" lon="-2.36484">
        <ele>-27.39999961853</ele>
        <time>2022-02-10T11:17:32.000Z</time>
      </trkpt>
      <trkpt lat="47.28519" lon="-2.36479">
        <ele>-27</ele>
        <time>2022-02-10T11:17:33.000Z</time>
      </trkpt>
      <trkpt lat="47.28517" lon="-2.36475">
        <ele>-26.60000038147</ele>
        <time>2022-02-10T11:17:34.000Z</time>
      </trkpt>
      <trkpt lat="47.28515" lon="-2.3647">
        <ele>-26.60000038147</ele>
        <time>2022-02-10T11:17:35.000Z</time>
      </trkpt>
      <trkpt lat="47.285" lon="-2.36448">
        <ele>-26.60000038147</ele>
        <time>2022-02-10T11:17:40.000Z</time>
      </trkpt>
      <trkpt lat="47.28492" lon="-2.36443">
        <ele>-26.60000038147</ele>
        <time>2022-02-10T11:17:42.000Z</time>
      </trkpt>
      <trkpt lat="47.2848" lon="-2.36434">
        <ele>-26.60000038147</ele>
        <time>2022-02-10T11:17:45.000Z</time>
      </trkpt>
      <trkpt lat="47.28471" lon="-2.36424">
        <ele>-26.200000762939</ele>
        <time>2022-02-10T11:17:48.000Z</time>
      </trkpt>
      <trkpt lat="47.28469" lon="-2.36421">
        <ele>-25.799999237061</ele>
        <time>2022-02-10T11:17:49.000Z</time>
      </trkpt>
      <trkpt lat="47.28467" lon="-2.36417">
        <ele>-25.39999961853</ele>
        <time>2022-02-10T11:17:50.000Z</time>
      </trkpt>
      <trkpt lat="47.28466" lon="-2.36412">
        <ele>-25</ele>
        <time>2022-02-10T11:17:51.000Z</time>
      </trkpt>
      <trkpt lat="47.28463" lon="-2.36408">
        <ele>-24.60000038147</ele>
        <time>2022-02-10T11:17:52.000Z</time>
      </trkpt>
      <trkpt lat="47.28459" lon="-2.36405">
        <ele>-24.60000038147</ele>
        <time>2022-02-10T11:17:53.000Z</time>
      </trkpt>
      <trkpt lat="47.28456" lon="-2.364">
        <ele>-24.60000038147</ele>
        <time>2022-02-10T11:17:54.000Z</time>
      </trkpt>
      <trkpt lat="47.28432" lon="-2.36378">
        <ele>-24.60000038147</ele>
        <time>2022-02-10T11:17:59.000Z</time>
      </trkpt>
      <trkpt lat="47.28423" lon="-2.36369">
        <ele>-25</ele>
        <time>2022-02-10T11:18:01.000Z</time>
      </trkpt>
      <trkpt lat="47.2842" lon="-2.36365">
        <ele>-25.39999961853</ele>
        <time>2022-02-10T11:18:02.000Z</time>
      </trkpt>
      <trkpt lat="47.28416" lon="-2.3636">
        <ele>-25.799999237061</ele>
        <time>2022-02-10T11:18:03.000Z</time>
      </trkpt>
      <trkpt lat="47.28413" lon="-2.36355">
        <ele>-26.200000762939</ele>
        <time>2022-02-10T11:18:04.000Z</time>
      </trkpt>
      <trkpt lat="47.28409" lon="-2.36351">
        <ele>-26.60000038147</ele>
        <time>2022-02-10T11:18:05.000Z</time>
      </trkpt>
      <trkpt lat="47.28393" lon="-2.36338">
        <ele>-26.60000038147</ele>
        <time>2022-02-10T11:18:09.000Z</time>
      </trkpt>
      <trkpt lat="47.28379" lon="-2.36328">
        <ele>-26.60000038147</ele>
        <time>2022-02-10T11:18:12.000Z</time>
      </trkpt>
      <trkpt lat="47.2837" lon="-2.36323">
        <ele>-26.60000038147</ele>
        <time>2022-02-10T11:18:14.000Z</time>
      </trkpt>
      <trkpt lat="47.28366" lon="-2.36321">
        <ele>-27</ele>
        <time>2022-02-10T11:18:15.000Z</time>
      </trkpt>
      <trkpt lat="47.28362" lon="-2.36318">
        <ele>-27.60000038147</ele>
        <time>2022-02-10T11:18:16.000Z</time>
      </trkpt>
      <trkpt lat="47.28359" lon="-2.36314">
        <ele>-28</ele>
        <time>2022-02-10T11:18:17.000Z</time>
      </trkpt>
      <trkpt lat="47.28357" lon="-2.3631">
        <ele>-28.39999961853</ele>
        <time>2022-02-10T11:18:18.000Z</time>
      </trkpt>
      <trkpt lat="47.28357" lon="-2.36305">
        <ele>-28.799999237061</ele>
        <time>2022-02-10T11:18:19.000Z</time>
      </trkpt>
      <trkpt lat="47.28357" lon="-2.36291">
        <ele>-28.799999237061</ele>
        <time>2022-02-10T11:18:21.000Z</time>
      </trkpt>
      <trkpt lat="47.28357" lon="-2.36285">
        <ele>-28.799999237061</ele>
        <time>2022-02-10T11:18:22.000Z</time>
      </trkpt>
      <trkpt lat="47.28354" lon="-2.36277">
        <ele>-28.799999237061</ele>
        <time>2022-02-10T11:18:24.000Z</time>
      </trkpt>
      <trkpt lat="47.28348" lon="-2.36273">
        <ele>-29.200000762939</ele>
        <time>2022-02-10T11:18:26.000Z</time>
      </trkpt>
      <trkpt lat="47.28343" lon="-2.36271">
        <ele>-29.799999237061</ele>
        <time>2022-02-10T11:18:27.000Z</time>
      </trkpt>
      <trkpt lat="47.28338" lon="-2.36269">
        <ele>-30.200000762939</ele>
        <time>2022-02-10T11:18:28.000Z</time>
      </trkpt>
      <trkpt lat="47.28332" lon="-2.36267">
        <ele>-30.60000038147</ele>
        <time>2022-02-10T11:18:29.000Z</time>
      </trkpt>
      <trkpt lat="47.28326" lon="-2.36264">
        <ele>-31</ele>
        <time>2022-02-10T11:18:30.000Z</time>
      </trkpt>
      <trkpt lat="47.28297" lon="-2.36256">
        <ele>-31</ele>
        <time>2022-02-10T11:18:35.000Z</time>
      </trkpt>
      <trkpt lat="47.28291" lon="-2.36252">
        <ele>-31</ele>
        <time>2022-02-10T11:18:36.000Z</time>
      </trkpt>
      <trkpt lat="47.28282" lon="-2.36231">
        <ele>-31</ele>
        <time>2022-02-10T11:18:39.000Z</time>
      </trkpt>
      <trkpt lat="47.28274" lon="-2.36195">
        <ele>-31</ele>
        <time>2022-02-10T11:18:45.000Z</time>
      </trkpt>
      <trkpt lat="47.28273" lon="-2.36189">
        <ele>-31</ele>
        <time>2022-02-10T11:18:46.000Z</time>
      </trkpt>
      <trkpt lat="47.28265" lon="-2.36157">
        <ele>-31</ele>
        <time>2022-02-10T11:18:51.000Z</time>
      </trkpt>
      <trkpt lat="47.28263" lon="-2.36152">
        <ele>-31</ele>
        <time>2022-02-10T11:18:52.000Z</time>
      </trkpt>
      <trkpt lat="47.28251" lon="-2.3613">
        <ele>-31</ele>
        <time>2022-02-10T11:18:56.000Z</time>
      </trkpt>
      <trkpt lat="47.28248" lon="-2.36124">
        <ele>-31</ele>
        <time>2022-02-10T11:18:57.000Z</time>
      </trkpt>
      <trkpt lat="47.28243" lon="-2.36102">
        <ele>-31</ele>
        <time>2022-02-10T11:19:01.000Z</time>
      </trkpt>
      <trkpt lat="47.28245" lon="-2.36085">
        <ele>-30.60000038147</ele>
        <time>2022-02-10T11:19:04.000Z</time>
      </trkpt>
      <trkpt lat="47.28246" lon="-2.36079">
        <ele>-30.200000762939</ele>
        <time>2022-02-10T11:19:05.000Z</time>
      </trkpt>
      <trkpt lat="47.28247" lon="-2.36073">
        <ele>-29.799999237061</ele>
        <time>2022-02-10T11:19:06.000Z</time>
      </trkpt>
      <trkpt lat="47.28248" lon="-2.36067">
        <ele>-29.39999961853</ele>
        <time>2022-02-10T11:19:07.000Z</time>
      </trkpt>
      <trkpt lat="47.28248" lon="-2.36062">
        <ele>-28.799999237061</ele>
        <time>2022-02-10T11:19:08.000Z</time>
      </trkpt>
      <trkpt lat="47.28251" lon="-2.36041">
        <ele>-28.799999237061</ele>
        <time>2022-02-10T11:19:11.000Z</time>
      </trkpt>
      <trkpt lat="47.28253" lon="-2.36034">
        <ele>-28.799999237061</ele>
        <time>2022-02-10T11:19:12.000Z</time>
      </trkpt>
      <trkpt lat="47.28251" lon="-2.36025">
        <ele>-29.39999961853</ele>
        <time>2022-02-10T11:19:14.000Z</time>
      </trkpt>
      <trkpt lat="47.28249" lon="-2.36024">
        <ele>-29.799999237061</ele>
        <time>2022-02-10T11:19:15.000Z</time>
      </trkpt>
      <trkpt lat="47.28246" lon="-2.36026">
        <ele>-30.39999961853</ele>
        <time>2022-02-10T11:19:16.000Z</time>
      </trkpt>
      <trkpt lat="47.28242" lon="-2.36028">
        <ele>-30.799999237061</ele>
        <time>2022-02-10T11:19:17.000Z</time>
      </trkpt>
      <trkpt lat="47.28237" lon="-2.36031">
        <ele>-31.39999961853</ele>
        <time>2022-02-10T11:19:18.000Z</time>
      </trkpt>
      <trkpt lat="47.28228" lon="-2.36038">
        <ele>-31.39999961853</ele>
        <time>2022-02-10T11:19:20.000Z</time>
      </trkpt>
      <trkpt lat="47.28221" lon="-2.3604">
        <ele>-31.799999237061</ele>
        <time>2022-02-10T11:19:22.000Z</time>
      </trkpt>
      <trkpt lat="47.28217" lon="-2.36038">
        <ele>-32.200000762939</ele>
        <time>2022-02-10T11:19:23.000Z</time>
      </trkpt>
      <trkpt lat="47.28214" lon="-2.36036">
        <ele>-32.599998474121</ele>
        <time>2022-02-10T11:19:24.000Z</time>
      </trkpt>
      <trkpt lat="47.28212" lon="-2.36034">
        <ele>-33.400001525879</ele>
        <time>2022-02-10T11:19:25.000Z</time>
      </trkpt>
      <trkpt lat="47.28211" lon="-2.36032">
        <ele>-33.400001525879</ele>
        <time>2022-02-10T11:19:26.000Z</time>
      </trkpt>
      <trkpt lat="47.28201" lon="-2.36018">
        <ele>-33.400001525879</ele>
        <time>2022-02-10T11:19:30.000Z</time>
      </trkpt>
      <trkpt lat="47.2819" lon="-2.35999">
        <ele>-33.400001525879</ele>
        <time>2022-02-10T11:19:34.000Z</time>
      </trkpt>
      <trkpt lat="47.28181" lon="-2.35968">
        <ele>-33.400001525879</ele>
        <time>2022-02-10T11:19:39.000Z</time>
      </trkpt>
      <trkpt lat="47.28176" lon="-2.35935">
        <ele>-33.400001525879</ele>
        <time>2022-02-10T11:19:45.000Z</time>
      </trkpt>
      <trkpt lat="47.28176" lon="-2.35918">
        <ele>-33</ele>
        <time>2022-02-10T11:19:48.000Z</time>
      </trkpt>
      <trkpt lat="47.28176" lon="-2.35913">
        <ele>-32.599998474121</ele>
        <time>2022-02-10T11:19:50.000Z</time>
      </trkpt>
      <trkpt lat="47.28175" lon="-2.35909">
        <ele>-31.799999237061</ele>
        <time>2022-02-10T11:19:51.000Z</time>
      </trkpt>
      <trkpt lat="47.28175" lon="-2.35905">
        <ele>-31.39999961853</ele>
        <time>2022-02-10T11:19:52.000Z</time>
      </trkpt>
      <trkpt lat="47.28176" lon="-2.35901">
        <ele>-31.39999961853</ele>
        <time>2022-02-10T11:19:53.000Z</time>
      </trkpt>
      <trkpt lat="47.28182" lon="-2.35878">
        <ele>-31.39999961853</ele>
        <time>2022-02-10T11:19:58.000Z</time>
      </trkpt>
      <trkpt lat="47.28182" lon="-2.35874">
        <ele>-31.39999961853</ele>
        <time>2022-02-10T11:19:59.000Z</time>
      </trkpt>
      <trkpt lat="47.28183" lon="-2.35852">
        <ele>-31.39999961853</ele>
        <time>2022-02-10T11:20:04.000Z</time>
      </trkpt>
      <trkpt lat="47.28181" lon="-2.3585">
        <ele>-31.39999961853</ele>
        <time>2022-02-10T11:20:05.000Z</time>
      </trkpt>
      <trkpt lat="47.28171" lon="-2.35842">
        <ele>-31.39999961853</ele>
        <time>2022-02-10T11:20:09.000Z</time>
      </trkpt>
      <trkpt lat="47.28155" lon="-2.35834">
        <ele>-31.39999961853</ele>
        <time>2022-02-10T11:20:14.000Z</time>
      </trkpt>
      <trkpt lat="47.2814" lon="-2.35815">
        <ele>-31.39999961853</ele>
        <time>2022-02-10T11:20:19.000Z</time>
      </trkpt>
      <trkpt lat="47.28134" lon="-2.35784">
        <ele>-31.39999961853</ele>
        <time>2022-02-10T11:20:24.000Z</time>
      </trkpt>
      <trkpt lat="47.28133" lon="-2.35758">
        <ele>-31.39999961853</ele>
        <time>2022-02-10T11:20:28.000Z</time>
      </trkpt>
      <trkpt lat="47.28131" lon="-2.35755">
        <ele>-31.39999961853</ele>
        <time>2022-02-10T11:20:29.000Z</time>
      </trkpt>
      <trkpt lat="47.28119" lon="-2.35753">
        <ele>-31.39999961853</ele>
        <time>2022-02-10T11:20:33.000Z</time>
      </trkpt>
      <trkpt lat="47.28106" lon="-2.35769">
        <ele>-31.39999961853</ele>
        <time>2022-02-10T11:20:38.000Z</time>
      </trkpt>
      <trkpt lat="47.28096" lon="-2.3579">
        <ele>-31.39999961853</ele>
        <time>2022-02-10T11:20:44.000Z</time>
      </trkpt>
      <trkpt lat="47.28089" lon="-2.35804">
        <ele>-31.39999961853</ele>
        <time>2022-02-10T11:20:48.000Z</time>
      </trkpt>
      <trkpt lat="47.28085" lon="-2.35803">
        <ele>-31.39999961853</ele>
        <time>2022-02-10T11:20:49.000Z</time>
      </trkpt>
      <trkpt lat="47.28078" lon="-2.35792">
        <ele>-31.39999961853</ele>
        <time>2022-02-10T11:20:53.000Z</time>
      </trkpt>
      <trkpt lat="47.28078" lon="-2.35786">
        <ele>-31</ele>
        <time>2022-02-10T11:20:55.000Z</time>
      </trkpt>
      <trkpt lat="47.28079" lon="-2.35783">
        <ele>-30.60000038147</ele>
        <time>2022-02-10T11:20:56.000Z</time>
      </trkpt>
      <trkpt lat="47.2808" lon="-2.35779">
        <ele>-30.200000762939</ele>
        <time>2022-02-10T11:20:57.000Z</time>
      </trkpt>
      <trkpt lat="47.28081" lon="-2.35775">
        <ele>-29.799999237061</ele>
        <time>2022-02-10T11:20:58.000Z</time>
      </trkpt>
      <trkpt lat="47.28082" lon="-2.35771">
        <ele>-29.39999961853</ele>
        <time>2022-02-10T11:20:59.000Z</time>
      </trkpt>
      <trkpt lat="47.28085" lon="-2.35747">
        <ele>-29.39999961853</ele>
        <time>2022-02-10T11:21:04.000Z</time>
      </trkpt>
      <trkpt lat="47.28087" lon="-2.35739">
        <ele>-28.799999237061</ele>
        <time>2022-02-10T11:21:06.000Z</time>
      </trkpt>
      <trkpt lat="47.28088" lon="-2.35735">
        <ele>-28.39999961853</ele>
        <time>2022-02-10T11:21:07.000Z</time>
      </trkpt>
      <trkpt lat="47.28089" lon="-2.35731">
        <ele>-28</ele>
        <time>2022-02-10T11:21:08.000Z</time>
      </trkpt>
      <trkpt lat="47.28089" lon="-2.35727">
        <ele>-27.39999961853</ele>
        <time>2022-02-10T11:21:09.000Z</time>
      </trkpt>
      <trkpt lat="47.2809" lon="-2.35723">
        <ele>-27</ele>
        <time>2022-02-10T11:21:10.000Z</time>
      </trkpt>
      <trkpt lat="47.2809" lon="-2.3572">
        <ele>-27</ele>
        <time>2022-02-10T11:21:11.000Z</time>
      </trkpt>
      <trkpt lat="47.28088" lon="-2.35693">
        <ele>-27</ele>
        <time>2022-02-10T11:21:17.000Z</time>
      </trkpt>
      <trkpt lat="47.28079" lon="-2.35662">
        <ele>-27</ele>
        <time>2022-02-10T11:21:21.000Z</time>
      </trkpt>
      <trkpt lat="47.28077" lon="-2.35654">
        <ele>-27</ele>
        <time>2022-02-10T11:21:22.000Z</time>
      </trkpt>
      <trkpt lat="47.28076" lon="-2.35642">
        <ele>-27.39999961853</ele>
        <time>2022-02-10T11:21:24.000Z</time>
      </trkpt>
      <trkpt lat="47.28076" lon="-2.35637">
        <ele>-27.799999237061</ele>
        <time>2022-02-10T11:21:25.000Z</time>
      </trkpt>
      <trkpt lat="47.28076" lon="-2.35633">
        <ele>-28.200000762939</ele>
        <time>2022-02-10T11:21:26.000Z</time>
      </trkpt>
      <trkpt lat="47.28078" lon="-2.3563">
        <ele>-28.799999237061</ele>
        <time>2022-02-10T11:21:27.000Z</time>
      </trkpt>
      <trkpt lat="47.28079" lon="-2.35629">
        <ele>-29.39999961853</ele>
        <time>2022-02-10T11:21:28.000Z</time>
      </trkpt>
      <trkpt lat="47.2808" lon="-2.35628">
        <ele>-30</ele>
        <time>2022-02-10T11:21:29.000Z</time>
      </trkpt>
      <trkpt lat="47.28082" lon="-2.35628">
        <ele>-31</ele>
        <time>2022-02-10T11:21:30.000Z</time>
      </trkpt>
      <trkpt lat="47.28085" lon="-2.3563">
        <ele>-31</ele>
        <time>2022-02-10T11:21:33.000Z</time>
      </trkpt>
      <trkpt lat="47.28086" lon="-2.3563">
        <ele>-31</ele>
        <time>2022-02-10T11:21:35.000Z</time>
      </trkpt>
      <trkpt lat="47.28081" lon="-2.35617">
        <ele>-31</ele>
        <time>2022-02-10T11:32:55.000Z</time>
      </trkpt>
      <trkpt lat="47.28079" lon="-2.35615">
        <ele>-31</ele>
        <time>2022-02-10T11:32:56.000Z</time>
      </trkpt>
      <trkpt lat="47.28068" lon="-2.35611">
        <ele>-31</ele>
        <time>2022-02-10T11:33:01.000Z</time>
      </trkpt>
      <trkpt lat="47.28066" lon="-2.35611">
        <ele>-31</ele>
        <time>2022-02-10T11:33:02.000Z</time>
      </trkpt>
      <trkpt lat="47.28056" lon="-2.35606">
        <ele>-31</ele>
        <time>2022-02-10T11:33:06.000Z</time>
      </trkpt>
      <trkpt lat="47.28039" lon="-2.35603">
        <ele>-31</ele>
        <time>2022-02-10T11:33:11.000Z</time>
      </trkpt>
      <trkpt lat="47.28021" lon="-2.35608">
        <ele>-31</ele>
        <time>2022-02-10T11:33:17.000Z</time>
      </trkpt>
      <trkpt lat="47.28004" lon="-2.35608">
        <ele>-31</ele>
        <time>2022-02-10T11:33:23.000Z</time>
      </trkpt>
      <trkpt lat="47.2799" lon="-2.35603">
        <ele>-31</ele>
        <time>2022-02-10T11:33:26.000Z</time>
      </trkpt>
      <trkpt lat="47.27986" lon="-2.35601">
        <ele>-31</ele>
        <time>2022-02-10T11:33:27.000Z</time>
      </trkpt>
      <trkpt lat="47.27972" lon="-2.35587">
        <ele>-31.60000038147</ele>
        <time>2022-02-10T11:33:31.000Z</time>
      </trkpt>
      <trkpt lat="47.27967" lon="-2.35583">
        <ele>-32</ele>
        <time>2022-02-10T11:33:32.000Z</time>
      </trkpt>
      <trkpt lat="47.27963" lon="-2.3558">
        <ele>-32.400001525879</ele>
        <time>2022-02-10T11:33:33.000Z</time>
      </trkpt>
      <trkpt lat="47.27957" lon="-2.35579">
        <ele>-32.799999237061</ele>
        <time>2022-02-10T11:33:34.000Z</time>
      </trkpt>
      <trkpt lat="47.27951" lon="-2.3558">
        <ele>-33.400001525879</ele>
        <time>2022-02-10T11:33:35.000Z</time>
      </trkpt>
      <trkpt lat="47.2793" lon="-2.35586">
        <ele>-33.400001525879</ele>
        <time>2022-02-10T11:33:39.000Z</time>
      </trkpt>
      <trkpt lat="47.27924" lon="-2.35587">
        <ele>-33.400001525879</ele>
        <time>2022-02-10T11:33:40.000Z</time>
      </trkpt>
      <trkpt lat="47.27883" lon="-2.35595">
        <ele>-33.400001525879</ele>
        <time>2022-02-10T11:33:47.000Z</time>
      </trkpt>
      <trkpt lat="47.27877" lon="-2.35596">
        <ele>-33.799999237061</ele>
        <time>2022-02-10T11:33:48.000Z</time>
      </trkpt>
      <trkpt lat="47.2787" lon="-2.35599">
        <ele>-34.200000762939</ele>
        <time>2022-02-10T11:33:49.000Z</time>
      </trkpt>
      <trkpt lat="47.27864" lon="-2.35601">
        <ele>-34.599998474121</ele>
        <time>2022-02-10T11:33:50.000Z</time>
      </trkpt>
      <trkpt lat="47.27858" lon="-2.35603">
        <ele>-35.400001525879</ele>
        <time>2022-02-10T11:33:51.000Z</time>
      </trkpt>
      <trkpt lat="47.27839" lon="-2.35608">
        <ele>-35.400001525879</ele>
        <time>2022-02-10T11:33:54.000Z</time>
      </trkpt>
      <trkpt lat="47.27813" lon="-2.35615">
        <ele>-35.799999237061</ele>
        <time>2022-02-10T11:33:58.000Z</time>
      </trkpt>
      <trkpt lat="47.27806" lon="-2.35618">
        <ele>-36.200000762939</ele>
        <time>2022-02-10T11:33:59.000Z</time>
      </trkpt>
      <trkpt lat="47.27799" lon="-2.3562">
        <ele>-36.599998474121</ele>
        <time>2022-02-10T11:34:00.000Z</time>
      </trkpt>
      <trkpt lat="47.27792" lon="-2.35624">
        <ele>-37</ele>
        <time>2022-02-10T11:34:01.000Z</time>
      </trkpt>
      <trkpt lat="47.27785" lon="-2.35627">
        <ele>-37.599998474121</ele>
        <time>2022-02-10T11:34:02.000Z</time>
      </trkpt>
      <trkpt lat="47.27778" lon="-2.35632">
        <ele>-37.599998474121</ele>
        <time>2022-02-10T11:34:03.000Z</time>
      </trkpt>
      <trkpt lat="47.27765" lon="-2.35644">
        <ele>-37.599998474121</ele>
        <time>2022-02-10T11:34:05.000Z</time>
      </trkpt>
      <trkpt lat="47.27753" lon="-2.35658">
        <ele>-37.599998474121</ele>
        <time>2022-02-10T11:34:07.000Z</time>
      </trkpt>
      <trkpt lat="47.27748" lon="-2.35666">
        <ele>-37.599998474121</ele>
        <time>2022-02-10T11:34:08.000Z</time>
      </trkpt>
      <trkpt lat="47.27739" lon="-2.35683">
        <ele>-37.599998474121</ele>
        <time>2022-02-10T11:34:10.000Z</time>
      </trkpt>
      <trkpt lat="47.27717" lon="-2.35712">
        <ele>-38</ele>
        <time>2022-02-10T11:34:14.000Z</time>
      </trkpt>
      <trkpt lat="47.27711" lon="-2.35718">
        <ele>-38.400001525879</ele>
        <time>2022-02-10T11:34:15.000Z</time>
      </trkpt>
      <trkpt lat="47.27705" lon="-2.35724">
        <ele>-39.200000762939</ele>
        <time>2022-02-10T11:34:16.000Z</time>
      </trkpt>
      <trkpt lat="47.27698" lon="-2.35729">
        <ele>-39.599998474121</ele>
        <time>2022-02-10T11:34:17.000Z</time>
      </trkpt>
      <trkpt lat="47.27681" lon="-2.35747">
        <ele>-39.599998474121</ele>
        <time>2022-02-10T11:34:20.000Z</time>
      </trkpt>
      <trkpt lat="47.27676" lon="-2.35749">
        <ele>-40</ele>
        <time>2022-02-10T11:34:21.000Z</time>
      </trkpt>
      <trkpt lat="47.2767" lon="-2.35748">
        <ele>-40.400001525879</ele>
        <time>2022-02-10T11:34:22.000Z</time>
      </trkpt>
      <trkpt lat="47.27665" lon="-2.35742">
        <ele>-40.799999237061</ele>
        <time>2022-02-10T11:34:23.000Z</time>
      </trkpt>
      <trkpt lat="47.27661" lon="-2.35735">
        <ele>-41.400001525879</ele>
        <time>2022-02-10T11:34:24.000Z</time>
      </trkpt>
      <trkpt lat="47.27657" lon="-2.35729">
        <ele>-41.799999237061</ele>
        <time>2022-02-10T11:34:25.000Z</time>
      </trkpt>
      <trkpt lat="47.27653" lon="-2.35724">
        <ele>-41.799999237061</ele>
        <time>2022-02-10T11:34:26.000Z</time>
      </trkpt>
      <trkpt lat="47.27635" lon="-2.35716">
        <ele>-41.799999237061</ele>
        <time>2022-02-10T11:34:29.000Z</time>
      </trkpt>
      <trkpt lat="47.27621" lon="-2.35711">
        <ele>-41.799999237061</ele>
        <time>2022-02-10T11:34:31.000Z</time>
      </trkpt>
      <trkpt lat="47.276" lon="-2.35707">
        <ele>-41.799999237061</ele>
        <time>2022-02-10T11:34:34.000Z</time>
      </trkpt>
      <trkpt lat="47.27581" lon="-2.35701">
        <ele>-42.200000762939</ele>
        <time>2022-02-10T11:34:37.000Z</time>
      </trkpt>
      <trkpt lat="47.27574" lon="-2.35699">
        <ele>-42.599998474121</ele>
        <time>2022-02-10T11:34:38.000Z</time>
      </trkpt>
      <trkpt lat="47.27567" lon="-2.35697">
        <ele>-43</ele>
        <time>2022-02-10T11:34:39.000Z</time>
      </trkpt>
      <trkpt lat="47.27561" lon="-2.35696">
        <ele>-43.799999237061</ele>
        <time>2022-02-10T11:34:40.000Z</time>
      </trkpt>
      <trkpt lat="47.27554" lon="-2.35695">
        <ele>-43.799999237061</ele>
        <time>2022-02-10T11:34:41.000Z</time>
      </trkpt>
      <trkpt lat="47.27535" lon="-2.35692">
        <ele>-43.799999237061</ele>
        <time>2022-02-10T11:34:44.000Z</time>
      </trkpt>
      <trkpt lat="47.2752" lon="-2.35691">
        <ele>-43.799999237061</ele>
        <time>2022-02-10T11:34:46.000Z</time>
      </trkpt>
      <trkpt lat="47.27492" lon="-2.35684">
        <ele>-44.200000762939</ele>
        <time>2022-02-10T11:34:50.000Z</time>
      </trkpt>
      <trkpt lat="47.27485" lon="-2.35682">
        <ele>-44.599998474121</ele>
        <time>2022-02-10T11:34:51.000Z</time>
      </trkpt>
      <trkpt lat="47.27478" lon="-2.3568">
        <ele>-45.200000762939</ele>
        <time>2022-02-10T11:34:52.000Z</time>
      </trkpt>
      <trkpt lat="47.27471" lon="-2.35679">
        <ele>-45.599998474121</ele>
        <time>2022-02-10T11:34:53.000Z</time>
      </trkpt>
      <trkpt lat="47.27464" lon="-2.35677">
        <ele>-46</ele>
        <time>2022-02-10T11:34:54.000Z</time>
      </trkpt>
      <trkpt lat="47.27417" lon="-2.35665">
        <ele>-46</ele>
        <time>2022-02-10T11:35:01.000Z</time>
      </trkpt>
      <trkpt lat="47.27411" lon="-2.35665">
        <ele>-46</ele>
        <time>2022-02-10T11:35:02.000Z</time>
      </trkpt>
      <trkpt lat="47.27393" lon="-2.35671">
        <ele>-46</ele>
        <time>2022-02-10T11:35:05.000Z</time>
      </trkpt>
      <trkpt lat="47.27382" lon="-2.3568">
        <ele>-46</ele>
        <time>2022-02-10T11:35:07.000Z</time>
      </trkpt>
      <trkpt lat="47.27364" lon="-2.35691">
        <ele>-46</ele>
        <time>2022-02-10T11:35:10.000Z</time>
      </trkpt>
      <trkpt lat="47.27358" lon="-2.35695">
        <ele>-46.400001525879</ele>
        <time>2022-02-10T11:35:11.000Z</time>
      </trkpt>
      <trkpt lat="47.27353" lon="-2.357">
        <ele>-46.799999237061</ele>
        <time>2022-02-10T11:35:12.000Z</time>
      </trkpt>
      <trkpt lat="47.27347" lon="-2.35704">
        <ele>-47.200000762939</ele>
        <time>2022-02-10T11:35:13.000Z</time>
      </trkpt>
      <trkpt lat="47.27341" lon="-2.35709">
        <ele>-47.599998474121</ele>
        <time>2022-02-10T11:35:14.000Z</time>
      </trkpt>
      <trkpt lat="47.27336" lon="-2.35713">
        <ele>-48</ele>
        <time>2022-02-10T11:35:15.000Z</time>
      </trkpt>
      <trkpt lat="47.27326" lon="-2.35723">
        <ele>-48</ele>
        <time>2022-02-10T11:35:17.000Z</time>
      </trkpt>
      <trkpt lat="47.27322" lon="-2.35729">
        <ele>-48</ele>
        <time>2022-02-10T11:35:18.000Z</time>
      </trkpt>
      <trkpt lat="47.27312" lon="-2.35743">
        <ele>-48</ele>
        <time>2022-02-10T11:35:21.000Z</time>
      </trkpt>
      <trkpt lat="47.27302" lon="-2.35732">
        <ele>-48</ele>
        <time>2022-02-10T11:35:24.000Z</time>
      </trkpt>
      <trkpt lat="47.27295" lon="-2.35714">
        <ele>-48</ele>
        <time>2022-02-10T11:35:27.000Z</time>
      </trkpt>
      <trkpt lat="47.27292" lon="-2.35707">
        <ele>-48</ele>
        <time>2022-02-10T11:35:28.000Z</time>
      </trkpt>
      <trkpt lat="47.27268" lon="-2.3565">
        <ele>-48</ele>
        <time>2022-02-10T11:35:37.000Z</time>
      </trkpt>
      <trkpt lat="47.27249" lon="-2.35607">
        <ele>-48</ele>
        <time>2022-02-10T11:35:44.000Z</time>
      </trkpt>
      <trkpt lat="47.27246" lon="-2.35601">
        <ele>-47.599998474121</ele>
        <time>2022-02-10T11:35:45.000Z</time>
      </trkpt>
      <trkpt lat="47.27244" lon="-2.35595">
        <ele>-47.200000762939</ele>
        <time>2022-02-10T11:35:46.000Z</time>
      </trkpt>
      <trkpt lat="47.27241" lon="-2.35589">
        <ele>-46.799999237061</ele>
        <time>2022-02-10T11:35:47.000Z</time>
      </trkpt>
      <trkpt lat="47.27239" lon="-2.35583">
        <ele>-46.400001525879</ele>
        <time>2022-02-10T11:35:48.000Z</time>
      </trkpt>
      <trkpt lat="47.27236" lon="-2.35577">
        <ele>-45.799999237061</ele>
        <time>2022-02-10T11:35:49.000Z</time>
      </trkpt>
      <trkpt lat="47.27228" lon="-2.3556">
        <ele>-45.799999237061</ele>
        <time>2022-02-10T11:35:52.000Z</time>
      </trkpt>
      <trkpt lat="47.27222" lon="-2.35549">
        <ele>-45.799999237061</ele>
        <time>2022-02-10T11:35:54.000Z</time>
      </trkpt>
      <trkpt lat="47.27212" lon="-2.35525">
        <ele>-45.799999237061</ele>
        <time>2022-02-10T11:35:58.000Z</time>
      </trkpt>
      <trkpt lat="47.27182" lon="-2.35465">
        <ele>-45.799999237061</ele>
        <time>2022-02-10T11:36:08.000Z</time>
      </trkpt>
      <trkpt lat="47.27157" lon="-2.35417">
        <ele>-45.799999237061</ele>
        <time>2022-02-10T11:36:16.000Z</time>
      </trkpt>
      <trkpt lat="47.27129" lon="-2.35365">
        <ele>-45.799999237061</ele>
        <time>2022-02-10T11:36:25.000Z</time>
      </trkpt>
      <trkpt lat="47.27101" lon="-2.35318">
        <ele>-45.799999237061</ele>
        <time>2022-02-10T11:36:33.000Z</time>
      </trkpt>
      <trkpt lat="47.27068" lon="-2.35267">
        <ele>-45.799999237061</ele>
        <time>2022-02-10T11:36:42.000Z</time>
      </trkpt>
      <trkpt lat="47.27034" lon="-2.35214">
        <ele>-45.799999237061</ele>
        <time>2022-02-10T11:36:51.000Z</time>
      </trkpt>
      <trkpt lat="47.26995" lon="-2.35154">
        <ele>-45.799999237061</ele>
        <time>2022-02-10T11:37:01.000Z</time>
      </trkpt>
      <trkpt lat="47.26992" lon="-2.35148">
        <ele>-45.799999237061</ele>
        <time>2022-02-10T11:37:02.000Z</time>
      </trkpt>
      <trkpt lat="47.26956" lon="-2.35095">
        <ele>-45.799999237061</ele>
        <time>2022-02-10T11:37:11.000Z</time>
      </trkpt>
      <trkpt lat="47.26944" lon="-2.35079">
        <ele>-45.799999237061</ele>
        <time>2022-02-10T11:37:14.000Z</time>
      </trkpt>
      <trkpt lat="47.26936" lon="-2.35067">
        <ele>-45.799999237061</ele>
        <time>2022-02-10T11:37:16.000Z</time>
      </trkpt>
      <trkpt lat="47.26898" lon="-2.35006">
        <ele>-45.799999237061</ele>
        <time>2022-02-10T11:37:26.000Z</time>
      </trkpt>
      <trkpt lat="47.26865" lon="-2.3495">
        <ele>-45.799999237061</ele>
        <time>2022-02-10T11:37:35.000Z</time>
      </trkpt>
      <trkpt lat="47.26854" lon="-2.34933">
        <ele>-45.799999237061</ele>
        <time>2022-02-10T11:37:38.000Z</time>
      </trkpt>
      <trkpt lat="47.26841" lon="-2.34917">
        <ele>-45.799999237061</ele>
        <time>2022-02-10T11:37:41.000Z</time>
      </trkpt>
      <trkpt lat="47.26806" lon="-2.34865">
        <ele>-45.799999237061</ele>
        <time>2022-02-10T11:37:50.000Z</time>
      </trkpt>
      <trkpt lat="47.26774" lon="-2.3482">
        <ele>-45.799999237061</ele>
        <time>2022-02-10T11:37:58.000Z</time>
      </trkpt>
      <trkpt lat="47.26745" lon="-2.34783">
        <ele>-45.799999237061</ele>
        <time>2022-02-10T11:38:05.000Z</time>
      </trkpt>
      <trkpt lat="47.26706" lon="-2.34736">
        <ele>-45.799999237061</ele>
        <time>2022-02-10T11:38:14.000Z</time>
      </trkpt>
      <trkpt lat="47.26668" lon="-2.34689">
        <ele>-45.799999237061</ele>
        <time>2022-02-10T11:38:23.000Z</time>
      </trkpt>
      <trkpt lat="47.26639" lon="-2.34652">
        <ele>-45.799999237061</ele>
        <time>2022-02-10T11:38:30.000Z</time>
      </trkpt>
      <trkpt lat="47.26604" lon="-2.34609">
        <ele>-45.799999237061</ele>
        <time>2022-02-10T11:38:38.000Z</time>
      </trkpt>
      <trkpt lat="47.26565" lon="-2.34564">
        <ele>-45.799999237061</ele>
        <time>2022-02-10T11:38:46.000Z</time>
      </trkpt>
      <trkpt lat="47.26543" lon="-2.34541">
        <ele>-45.799999237061</ele>
        <time>2022-02-10T11:38:51.000Z</time>
      </trkpt>
      <trkpt lat="47.26527" lon="-2.34527">
        <ele>-45.799999237061</ele>
        <time>2022-02-10T11:38:56.000Z</time>
      </trkpt>
      <trkpt lat="47.26509" lon="-2.34513">
        <ele>-45.799999237061</ele>
        <time>2022-02-10T11:39:00.000Z</time>
      </trkpt>
      <trkpt lat="47.26503" lon="-2.34509">
        <ele>-45.799999237061</ele>
        <time>2022-02-10T11:39:01.000Z</time>
      </trkpt>
      <trkpt lat="47.26456" lon="-2.34475">
        <ele>-45.799999237061</ele>
        <time>2022-02-10T11:39:09.000Z</time>
      </trkpt>
      <trkpt lat="47.26416" lon="-2.34446">
        <ele>-45.799999237061</ele>
        <time>2022-02-10T11:39:16.000Z</time>
      </trkpt>
      <trkpt lat="47.26377" lon="-2.34414">
        <ele>-45.799999237061</ele>
        <time>2022-02-10T11:39:23.000Z</time>
      </trkpt>
      <trkpt lat="47.26344" lon="-2.34383">
        <ele>-45.799999237061</ele>
        <time>2022-02-10T11:39:30.000Z</time>
      </trkpt>
      <trkpt lat="47.26321" lon="-2.3437">
        <ele>-45.799999237061</ele>
        <time>2022-02-10T11:39:34.000Z</time>
      </trkpt>
      <trkpt lat="47.26313" lon="-2.34358">
        <ele>-45.799999237061</ele>
        <time>2022-02-10T11:39:36.000Z</time>
      </trkpt>
      <trkpt lat="47.26308" lon="-2.34351">
        <ele>-45.799999237061</ele>
        <time>2022-02-10T11:39:37.000Z</time>
      </trkpt>
      <trkpt lat="47.26303" lon="-2.34346">
        <ele>-45.799999237061</ele>
        <time>2022-02-10T11:39:38.000Z</time>
      </trkpt>
      <trkpt lat="47.26256" lon="-2.34296">
        <ele>-45.799999237061</ele>
        <time>2022-02-10T11:39:47.000Z</time>
      </trkpt>
      <trkpt lat="47.26251" lon="-2.3429">
        <ele>-45.799999237061</ele>
        <time>2022-02-10T11:39:48.000Z</time>
      </trkpt>
      <trkpt lat="47.26216" lon="-2.34252">
        <ele>-45.799999237061</ele>
        <time>2022-02-10T11:39:55.000Z</time>
      </trkpt>
      <trkpt lat="47.26181" lon="-2.34218">
        <ele>-45.799999237061</ele>
        <time>2022-02-10T11:40:02.000Z</time>
      </trkpt>
      <trkpt lat="47.26146" lon="-2.34185">
        <ele>-45.799999237061</ele>
        <time>2022-02-10T11:40:09.000Z</time>
      </trkpt>
      <trkpt lat="47.26129" lon="-2.34176">
        <ele>-45.799999237061</ele>
        <time>2022-02-10T11:40:12.000Z</time>
      </trkpt>
      <trkpt lat="47.26108" lon="-2.34157">
        <ele>-45.799999237061</ele>
        <time>2022-02-10T11:40:16.000Z</time>
      </trkpt>
      <trkpt lat="47.2607" lon="-2.34136">
        <ele>-45.799999237061</ele>
        <time>2022-02-10T11:40:22.000Z</time>
      </trkpt>
      <trkpt lat="47.26021" lon="-2.34111">
        <ele>-45.799999237061</ele>
        <time>2022-02-10T11:40:30.000Z</time>
      </trkpt>
      <trkpt lat="47.25992" lon="-2.34097">
        <ele>-46.200000762939</ele>
        <time>2022-02-10T11:40:35.000Z</time>
      </trkpt>
      <trkpt lat="47.25986" lon="-2.34094">
        <ele>-46.799999237061</ele>
        <time>2022-02-10T11:40:36.000Z</time>
      </trkpt>
      <trkpt lat="47.2598" lon="-2.34092">
        <ele>-47.200000762939</ele>
        <time>2022-02-10T11:40:37.000Z</time>
      </trkpt>
      <trkpt lat="47.25975" lon="-2.34089">
        <ele>-47.599998474121</ele>
        <time>2022-02-10T11:40:38.000Z</time>
      </trkpt>
      <trkpt lat="47.25969" lon="-2.34087">
        <ele>-48</ele>
        <time>2022-02-10T11:40:39.000Z</time>
      </trkpt>
      <trkpt lat="47.25936" lon="-2.34073">
        <ele>-48</ele>
        <time>2022-02-10T11:40:45.000Z</time>
      </trkpt>
      <trkpt lat="47.25931" lon="-2.34071">
        <ele>-48</ele>
        <time>2022-02-10T11:40:46.000Z</time>
      </trkpt>
      <trkpt lat="47.25909" lon="-2.34069">
        <ele>-48</ele>
        <time>2022-02-10T11:40:50.000Z</time>
      </trkpt>
      <trkpt lat="47.25897" lon="-2.34052">
        <ele>-48</ele>
        <time>2022-02-10T11:40:53.000Z</time>
      </trkpt>
      <trkpt lat="47.25899" lon="-2.34027">
        <ele>-48</ele>
        <time>2022-02-10T11:40:56.000Z</time>
      </trkpt>
      <trkpt lat="47.25908" lon="-2.33987">
        <ele>-48</ele>
        <time>2022-02-10T11:41:01.000Z</time>
      </trkpt>
      <trkpt lat="47.25928" lon="-2.3394">
        <ele>-48</ele>
        <time>2022-02-10T11:41:07.000Z</time>
      </trkpt>
      <trkpt lat="47.25932" lon="-2.33934">
        <ele>-48</ele>
        <time>2022-02-10T11:41:08.000Z</time>
      </trkpt>
      <trkpt lat="47.25942" lon="-2.33918">
        <ele>-48</ele>
        <time>2022-02-10T11:41:11.000Z</time>
      </trkpt>
      <trkpt lat="47.25954" lon="-2.33896">
        <ele>-48</ele>
        <time>2022-02-10T11:41:15.000Z</time>
      </trkpt>
      <trkpt lat="47.25963" lon="-2.33889">
        <ele>-48</ele>
        <time>2022-02-10T11:41:19.000Z</time>
      </trkpt>
      <trkpt lat="47.2597" lon="-2.33872">
        <ele>-48</ele>
        <time>2022-02-10T11:41:23.000Z</time>
      </trkpt>
      <trkpt lat="47.25988" lon="-2.3382">
        <ele>-48</ele>
        <time>2022-02-10T11:41:30.000Z</time>
      </trkpt>
      <trkpt lat="47.26006" lon="-2.33773">
        <ele>-48</ele>
        <time>2022-02-10T11:41:36.000Z</time>
      </trkpt>
      <trkpt lat="47.26031" lon="-2.33714">
        <ele>-48</ele>
        <time>2022-02-10T11:41:44.000Z</time>
      </trkpt>
      <trkpt lat="47.26044" lon="-2.33696">
        <ele>-48</ele>
        <time>2022-02-10T11:41:47.000Z</time>
      </trkpt>
      <trkpt lat="47.26051" lon="-2.33683">
        <ele>-48</ele>
        <time>2022-02-10T11:41:49.000Z</time>
      </trkpt>
      <trkpt lat="47.26056" lon="-2.33668">
        <ele>-48</ele>
        <time>2022-02-10T11:41:51.000Z</time>
      </trkpt>
      <trkpt lat="47.26064" lon="-2.33645">
        <ele>-48</ele>
        <time>2022-02-10T11:41:54.000Z</time>
      </trkpt>
      <trkpt lat="47.26078" lon="-2.3361">
        <ele>-48</ele>
        <time>2022-02-10T11:41:59.000Z</time>
      </trkpt>
      <trkpt lat="47.26093" lon="-2.33564">
        <ele>-48</ele>
        <time>2022-02-10T11:42:05.000Z</time>
      </trkpt>
      <trkpt lat="47.26108" lon="-2.33512">
        <ele>-48</ele>
        <time>2022-02-10T11:42:12.000Z</time>
      </trkpt>
      <trkpt lat="47.2612" lon="-2.33475">
        <ele>-48</ele>
        <time>2022-02-10T11:42:17.000Z</time>
      </trkpt>
      <trkpt lat="47.2613" lon="-2.3345">
        <ele>-48</ele>
        <time>2022-02-10T11:42:22.000Z</time>
      </trkpt>
      <trkpt lat="47.26133" lon="-2.33434">
        <ele>-48</ele>
        <time>2022-02-10T11:42:25.000Z</time>
      </trkpt>
      <trkpt lat="47.26132" lon="-2.33428">
        <ele>-48</ele>
        <time>2022-02-10T11:42:26.000Z</time>
      </trkpt>
      <trkpt lat="47.26123" lon="-2.33415">
        <ele>-48</ele>
        <time>2022-02-10T11:42:29.000Z</time>
      </trkpt>
      <trkpt lat="47.26115" lon="-2.33407">
        <ele>-48</ele>
        <time>2022-02-10T11:42:31.000Z</time>
      </trkpt>
      <trkpt lat="47.26111" lon="-2.33403">
        <ele>-48</ele>
        <time>2022-02-10T11:42:32.000Z</time>
      </trkpt>
      <trkpt lat="47.26107" lon="-2.33397">
        <ele>-48</ele>
        <time>2022-02-10T11:42:33.000Z</time>
      </trkpt>
      <trkpt lat="47.2608" lon="-2.33361">
        <ele>-48</ele>
        <time>2022-02-10T11:42:39.000Z</time>
      </trkpt>
      <trkpt lat="47.26072" lon="-2.33346">
        <ele>-48</ele>
        <time>2022-02-10T11:42:41.000Z</time>
      </trkpt>
      <trkpt lat="47.26062" lon="-2.3332">
        <ele>-48</ele>
        <time>2022-02-10T11:42:44.000Z</time>
      </trkpt>
      <trkpt lat="47.26042" lon="-2.33261">
        <ele>-48</ele>
        <time>2022-02-10T11:42:51.000Z</time>
      </trkpt>
      <trkpt lat="47.2602" lon="-2.33198">
        <ele>-48</ele>
        <time>2022-02-10T11:42:59.000Z</time>
      </trkpt>
      <trkpt lat="47.25998" lon="-2.33134">
        <ele>-48</ele>
        <time>2022-02-10T11:43:07.000Z</time>
      </trkpt>
      <trkpt lat="47.25991" lon="-2.3311">
        <ele>-48</ele>
        <time>2022-02-10T11:43:10.000Z</time>
      </trkpt>
      <trkpt lat="47.25986" lon="-2.33085">
        <ele>-48</ele>
        <time>2022-02-10T11:43:13.000Z</time>
      </trkpt>
      <trkpt lat="47.25972" lon="-2.33056">
        <ele>-48</ele>
        <time>2022-02-10T11:43:17.000Z</time>
      </trkpt>
      <trkpt lat="47.25969" lon="-2.33048">
        <ele>-48</ele>
        <time>2022-02-10T11:43:18.000Z</time>
      </trkpt>
      <trkpt lat="47.25948" lon="-2.32982">
        <ele>-48</ele>
        <time>2022-02-10T11:43:26.000Z</time>
      </trkpt>
      <trkpt lat="47.25928" lon="-2.32926">
        <ele>-48</ele>
        <time>2022-02-10T11:43:33.000Z</time>
      </trkpt>
      <trkpt lat="47.25903" lon="-2.32861">
        <ele>-48</ele>
        <time>2022-02-10T11:43:41.000Z</time>
      </trkpt>
      <trkpt lat="47.25888" lon="-2.32815">
        <ele>-48</ele>
        <time>2022-02-10T11:43:47.000Z</time>
      </trkpt>
      <trkpt lat="47.25871" lon="-2.32762">
        <ele>-48</ele>
        <time>2022-02-10T11:43:54.000Z</time>
      </trkpt>
      <trkpt lat="47.25862" lon="-2.32727">
        <ele>-48</ele>
        <time>2022-02-10T11:43:59.000Z</time>
      </trkpt>
      <trkpt lat="47.25862" lon="-2.32714">
        <ele>-48</ele>
        <time>2022-02-10T11:44:01.000Z</time>
      </trkpt>
      <trkpt lat="47.25856" lon="-2.32704">
        <ele>-48</ele>
        <time>2022-02-10T11:44:03.000Z</time>
      </trkpt>
      <trkpt lat="47.25849" lon="-2.32688">
        <ele>-48</ele>
        <time>2022-02-10T11:44:06.000Z</time>
      </trkpt>
      <trkpt lat="47.25845" lon="-2.32673">
        <ele>-48</ele>
        <time>2022-02-10T11:44:08.000Z</time>
      </trkpt>
      <trkpt lat="47.25838" lon="-2.32643">
        <ele>-48</ele>
        <time>2022-02-10T11:44:12.000Z</time>
      </trkpt>
      <trkpt lat="47.2582" lon="-2.32575">
        <ele>-48</ele>
        <time>2022-02-10T11:44:21.000Z</time>
      </trkpt>
      <trkpt lat="47.25813" lon="-2.32545">
        <ele>-48</ele>
        <time>2022-02-10T11:44:25.000Z</time>
      </trkpt>
      <trkpt lat="47.25809" lon="-2.32531">
        <ele>-48</ele>
        <time>2022-02-10T11:44:27.000Z</time>
      </trkpt>
      <trkpt lat="47.25804" lon="-2.32511">
        <ele>-48</ele>
        <time>2022-02-10T11:44:30.000Z</time>
      </trkpt>
      <trkpt lat="47.25801" lon="-2.32493">
        <ele>-48</ele>
        <time>2022-02-10T11:44:33.000Z</time>
      </trkpt>
      <trkpt lat="47.25798" lon="-2.32475">
        <ele>-48</ele>
        <time>2022-02-10T11:44:37.000Z</time>
      </trkpt>
      <trkpt lat="47.25799" lon="-2.32471">
        <ele>-48</ele>
        <time>2022-02-10T11:44:38.000Z</time>
      </trkpt>
      <trkpt lat="47.2581" lon="-2.32457">
        <ele>-48</ele>
        <time>2022-02-10T11:44:42.000Z</time>
      </trkpt>
      <trkpt lat="47.25822" lon="-2.3246">
        <ele>-48</ele>
        <time>2022-02-10T11:44:45.000Z</time>
      </trkpt>
      <trkpt lat="47.25845" lon="-2.32469">
        <ele>-48</ele>
        <time>2022-02-10T11:44:50.000Z</time>
      </trkpt>
      <trkpt lat="47.2585" lon="-2.32469">
        <ele>-48</ele>
        <time>2022-02-10T11:44:51.000Z</time>
      </trkpt>
      <trkpt lat="47.2586" lon="-2.32469">
        <ele>-48</ele>
        <time>2022-02-10T11:44:53.000Z</time>
      </trkpt>
      <trkpt lat="47.25875" lon="-2.32466">
        <ele>-48</ele>
        <time>2022-02-10T11:44:56.000Z</time>
      </trkpt>
      <trkpt lat="47.2589" lon="-2.32462">
        <ele>-48</ele>
        <time>2022-02-10T11:44:59.000Z</time>
      </trkpt>
      <trkpt lat="47.25899" lon="-2.32453">
        <ele>-48</ele>
        <time>2022-02-10T11:45:01.000Z</time>
      </trkpt>
      <trkpt lat="47.2593" lon="-2.32415">
        <ele>-48</ele>
        <time>2022-02-10T11:45:08.000Z</time>
      </trkpt>
      <trkpt lat="47.25969" lon="-2.32368">
        <ele>-48</ele>
        <time>2022-02-10T11:45:17.000Z</time>
      </trkpt>
      <trkpt lat="47.26003" lon="-2.32325">
        <ele>-48</ele>
        <time>2022-02-10T11:45:25.000Z</time>
      </trkpt>
      <trkpt lat="47.26033" lon="-2.3229">
        <ele>-48</ele>
        <time>2022-02-10T11:45:32.000Z</time>
      </trkpt>
      <trkpt lat="47.26062" lon="-2.32256">
        <ele>-48</ele>
        <time>2022-02-10T11:45:39.000Z</time>
      </trkpt>
      <trkpt lat="47.26075" lon="-2.32241">
        <ele>-48</ele>
        <time>2022-02-10T11:45:42.000Z</time>
      </trkpt>
      <trkpt lat="47.26086" lon="-2.32225">
        <ele>-48</ele>
        <time>2022-02-10T11:45:45.000Z</time>
      </trkpt>
      <trkpt lat="47.26106" lon="-2.32189">
        <ele>-48</ele>
        <time>2022-02-10T11:45:51.000Z</time>
      </trkpt>
      <trkpt lat="47.26109" lon="-2.32182">
        <ele>-48</ele>
        <time>2022-02-10T11:45:52.000Z</time>
      </trkpt>
      <trkpt lat="47.26125" lon="-2.32136">
        <ele>-48</ele>
        <time>2022-02-10T11:45:59.000Z</time>
      </trkpt>
      <trkpt lat="47.26138" lon="-2.32096">
        <ele>-48</ele>
        <time>2022-02-10T11:46:05.000Z</time>
      </trkpt>
      <trkpt lat="47.26152" lon="-2.32045">
        <ele>-48</ele>
        <time>2022-02-10T11:46:13.000Z</time>
      </trkpt>
      <trkpt lat="47.26167" lon="-2.32024">
        <ele>-48</ele>
        <time>2022-02-10T11:46:18.000Z</time>
      </trkpt>
      <trkpt lat="47.26181" lon="-2.32022">
        <ele>-48</ele>
        <time>2022-02-10T11:46:22.000Z</time>
      </trkpt>
      <trkpt lat="47.26191" lon="-2.32025">
        <ele>-48</ele>
        <time>2022-02-10T11:46:27.000Z</time>
      </trkpt>
      <trkpt lat="47.26196" lon="-2.32023">
        <ele>-48.400001525879</ele>
        <time>2022-02-10T11:46:30.000Z</time>
      </trkpt>
      <trkpt lat="47.26197" lon="-2.32021">
        <ele>-48.799999237061</ele>
        <time>2022-02-10T11:46:31.000Z</time>
      </trkpt>
      <trkpt lat="47.26197" lon="-2.32018">
        <ele>-49.200000762939</ele>
        <time>2022-02-10T11:46:32.000Z</time>
      </trkpt>
      <trkpt lat="47.26198" lon="-2.32015">
        <ele>-49.599998474121</ele>
        <time>2022-02-10T11:46:33.000Z</time>
      </trkpt>
      <trkpt lat="47.26199" lon="-2.32013">
        <ele>-50</ele>
        <time>2022-02-10T11:46:34.000Z</time>
      </trkpt>
      <trkpt lat="47.26205" lon="-2.32007">
        <ele>-50</ele>
        <time>2022-02-10T11:46:37.000Z</time>
      </trkpt>
      <trkpt lat="47.26222" lon="-2.31987">
        <ele>-50</ele>
        <time>2022-02-10T11:46:42.000Z</time>
      </trkpt>
      <trkpt lat="47.26237" lon="-2.31969">
        <ele>-50</ele>
        <time>2022-02-10T11:46:47.000Z</time>
      </trkpt>
      <trkpt lat="47.2625" lon="-2.31953">
        <ele>-50</ele>
        <time>2022-02-10T11:46:52.000Z</time>
      </trkpt>
      <trkpt lat="47.26259" lon="-2.31934">
        <ele>-50</ele>
        <time>2022-02-10T11:46:57.000Z</time>
      </trkpt>
      <trkpt lat="47.26276" lon="-2.31904">
        <ele>-50</ele>
        <time>2022-02-10T11:47:04.000Z</time>
      </trkpt>
      <trkpt lat="47.26295" lon="-2.31888">
        <ele>-50</ele>
        <time>2022-02-10T11:47:09.000Z</time>
      </trkpt>
      <trkpt lat="47.26296" lon="-2.31883">
        <ele>-50</ele>
        <time>2022-02-10T11:47:10.000Z</time>
      </trkpt>
      <trkpt lat="47.26297" lon="-2.31872">
        <ele>-50</ele>
        <time>2022-02-10T11:47:12.000Z</time>
      </trkpt>
      <trkpt lat="47.263" lon="-2.31844">
        <ele>-50</ele>
        <time>2022-02-10T11:47:17.000Z</time>
      </trkpt>
      <trkpt lat="47.26304" lon="-2.31796">
        <ele>-50</ele>
        <time>2022-02-10T11:47:25.000Z</time>
      </trkpt>
      <trkpt lat="47.26302" lon="-2.31767">
        <ele>-50</ele>
        <time>2022-02-10T11:47:30.000Z</time>
      </trkpt>
      <trkpt lat="47.26299" lon="-2.31731">
        <ele>-50</ele>
        <time>2022-02-10T11:47:36.000Z</time>
      </trkpt>
      <trkpt lat="47.26301" lon="-2.31726">
        <ele>-50</ele>
        <time>2022-02-10T11:47:37.000Z</time>
      </trkpt>
      <trkpt lat="47.26306" lon="-2.31717">
        <ele>-50</ele>
        <time>2022-02-10T11:47:39.000Z</time>
      </trkpt>
      <trkpt lat="47.26315" lon="-2.31707">
        <ele>-49.599998474121</ele>
        <time>2022-02-10T11:47:42.000Z</time>
      </trkpt>
      <trkpt lat="47.26318" lon="-2.31705">
        <ele>-49.200000762939</ele>
        <time>2022-02-10T11:47:43.000Z</time>
      </trkpt>
      <trkpt lat="47.26322" lon="-2.31703">
        <ele>-48.799999237061</ele>
        <time>2022-02-10T11:47:44.000Z</time>
      </trkpt>
      <trkpt lat="47.26326" lon="-2.31701">
        <ele>-48.400001525879</ele>
        <time>2022-02-10T11:47:45.000Z</time>
      </trkpt>
      <trkpt lat="47.26329" lon="-2.31699">
        <ele>-48</ele>
        <time>2022-02-10T11:47:46.000Z</time>
      </trkpt>
      <trkpt lat="47.26332" lon="-2.31692">
        <ele>-48</ele>
        <time>2022-02-10T11:47:48.000Z</time>
      </trkpt>
      <trkpt lat="47.26335" lon="-2.31689">
        <ele>-48</ele>
        <time>2022-02-10T11:47:49.000Z</time>
      </trkpt>
      <trkpt lat="47.26342" lon="-2.31683">
        <ele>-48</ele>
        <time>2022-02-10T11:47:52.000Z</time>
      </trkpt>
      <trkpt lat="47.26348" lon="-2.31679">
        <ele>-47.400001525879</ele>
        <time>2022-02-10T11:47:54.000Z</time>
      </trkpt>
      <trkpt lat="47.26351" lon="-2.31678">
        <ele>-47</ele>
        <time>2022-02-10T11:47:55.000Z</time>
      </trkpt>
      <trkpt lat="47.26355" lon="-2.31677">
        <ele>-46.599998474121</ele>
        <time>2022-02-10T11:47:56.000Z</time>
      </trkpt>
      <trkpt lat="47.26358" lon="-2.31676">
        <ele>-46</ele>
        <time>2022-02-10T11:47:57.000Z</time>
      </trkpt>
      <trkpt lat="47.26361" lon="-2.31675">
        <ele>-45.599998474121</ele>
        <time>2022-02-10T11:47:58.000Z</time>
      </trkpt>
      <trkpt lat="47.26381" lon="-2.31666">
        <ele>-45.599998474121</ele>
        <time>2022-02-10T11:48:04.000Z</time>
      </trkpt>
      <trkpt lat="47.26402" lon="-2.31654">
        <ele>-45.599998474121</ele>
        <time>2022-02-10T11:48:11.000Z</time>
      </trkpt>
      <trkpt lat="47.26411" lon="-2.31645">
        <ele>-45.599998474121</ele>
        <time>2022-02-10T11:48:14.000Z</time>
      </trkpt>
      <trkpt lat="47.26411" lon="-2.31641">
        <ele>-45.599998474121</ele>
        <time>2022-02-10T11:48:15.000Z</time>
      </trkpt>
      <trkpt lat="47.2641" lon="-2.31612">
        <ele>-45.200000762939</ele>
        <time>2022-02-10T11:48:21.000Z</time>
      </trkpt>
      <trkpt lat="47.2641" lon="-2.31607">
        <ele>-44.799999237061</ele>
        <time>2022-02-10T11:48:22.000Z</time>
      </trkpt>
      <trkpt lat="47.2641" lon="-2.31602">
        <ele>-44.400001525879</ele>
        <time>2022-02-10T11:48:23.000Z</time>
      </trkpt>
      <trkpt lat="47.2641" lon="-2.31597">
        <ele>-44</ele>
        <time>2022-02-10T11:48:24.000Z</time>
      </trkpt>
      <trkpt lat="47.2641" lon="-2.31592">
        <ele>-43.599998474121</ele>
        <time>2022-02-10T11:48:25.000Z</time>
      </trkpt>
      <trkpt lat="47.2641" lon="-2.31574">
        <ele>-43.599998474121</ele>
        <time>2022-02-10T11:48:29.000Z</time>
      </trkpt>
      <trkpt lat="47.26411" lon="-2.3155">
        <ele>-43.599998474121</ele>
        <time>2022-02-10T11:48:35.000Z</time>
      </trkpt>
      <trkpt lat="47.26412" lon="-2.31549">
        <ele>-43.599998474121</ele>
        <time>2022-02-10T11:48:36.000Z</time>
      </trkpt>
      <trkpt lat="47.26413" lon="-2.31549">
        <ele>-43.599998474121</ele>
        <time>2022-02-10T11:48:38.000Z</time>
      </trkpt>
    </trkseg>
  </trk>
</gpx>